<?xml version="1.0" encoding="UTF-8"?>
<gpx xmlns="http://www.topografix.com/GPX/1/1" xmlns:ns2="http://www.garmin.com/xmlschemas/GpxExtensions/v3" xmlns:ns3="http://www.garmin.com/xmlschemas/TrackPointExtension/v1" xmlns:xsi="http://www.w3.org/2001/XMLSchema-instance" xsi:schemaLocation="http://www.topografix.com/GPX/1/1 http://www.topografix.com/GPX/11.xsd" version="1.1" creator="Garmin Connect">
  <metadata>
    <name>VR - Road 4 Brescia/Lodrino</name>
    <link href="connect.garmin.com">
      <text>Garmin Connect</text>
    </link>
    <time>2017-11-13T16:22:39Z</time>
  </metadata>
  <trk>
    <trkseg>
      <trkpt lat="45.5329656600952" lon="10.213143825530993">
        <ele>146.0</ele>
        <time>2017-11-13T16:22:39Z</time>
      </trkpt>
      <trkpt lat="45.53309440612793" lon="10.213208198547363">
        <ele>145.82607991567826</ele>
        <time>2017-11-13T16:22:39.219000Z</time>
      </trkpt>
      <trkpt lat="45.53367384709418" lon="10.213444232940674">
        <ele>145.05784200480988</ele>
        <time>2017-11-13T16:22:40.185000Z</time>
      </trkpt>
      <trkpt lat="45.53367376327515" lon="10.213444232940674">
        <ele>145.05777294899238</ele>
        <time>2017-11-13T16:22:40.185000Z</time>
      </trkpt>
      <trkpt lat="45.534295733800896" lon="10.213701565390748">
        <ele>144.19093164023158</ele>
        <time>2017-11-13T16:22:41.223000Z</time>
      </trkpt>
      <trkpt lat="45.5342960451436" lon="10.213701694206266">
        <ele>144.19074971647476</ele>
        <time>2017-11-13T16:22:41.223000Z</time>
      </trkpt>
      <trkpt lat="45.53429611958563" lon="10.213701725006104">
        <ele>144.19066576747335</ele>
        <time>2017-11-13T16:22:41.223000Z</time>
      </trkpt>
      <trkpt lat="45.53429610714519" lon="10.213701725006146">
        <ele>144.19065229276</ele>
        <time>2017-11-13T16:22:41.224000Z</time>
      </trkpt>
      <trkpt lat="45.5342960357666" lon="10.213701725006104">
        <ele>144.1905749799321</ele>
        <time>2017-11-13T16:22:41.224000Z</time>
      </trkpt>
      <trkpt lat="45.53429611958563" lon="10.213701725005103">
        <ele>144.1904841923908</ele>
        <time>2017-11-13T16:22:41.224000Z</time>
      </trkpt>
      <trkpt lat="45.53440340794623" lon="10.213744640350342">
        <ele>144.0698007025748</ele>
        <time>2017-11-13T16:22:41.403000Z</time>
      </trkpt>
      <trkpt lat="45.534274661913514" lon="10.214474201202393">
        <ele>143.49897432937232</ele>
        <time>2017-11-13T16:22:42.248000Z</time>
      </trkpt>
      <trkpt lat="45.53426009279789" lon="10.214549558697124">
        <ele>143.4682414961209</ele>
        <time>2017-11-13T16:22:42.336000Z</time>
      </trkpt>
      <trkpt lat="45.534260068877835" lon="10.214549682421413">
        <ele>143.46819103799052</ele>
        <time>2017-11-13T16:22:42.336000Z</time>
      </trkpt>
      <trkpt lat="45.534260077401996" lon="10.214549638330936">
        <ele>143.46817305669606</ele>
        <time>2017-11-13T16:22:42.336000Z</time>
      </trkpt>
      <trkpt lat="45.534260077401996" lon="10.214549386873841">
        <ele>143.46807420175728</ele>
        <time>2017-11-13T16:22:42.336000Z</time>
      </trkpt>
      <trkpt lat="45.534038627520204" lon="10.215697288513184">
        <ele>143.0</ele>
        <time>2017-11-13T16:22:43.673000Z</time>
      </trkpt>
      <trkpt lat="45.53403854370117" lon="10.215697288513184">
        <ele>143.0001117357047</ele>
        <time>2017-11-13T16:22:43.673000Z</time>
      </trkpt>
      <trkpt lat="45.53384550847113" lon="10.216641426086426">
        <ele>144.2518592750827</ele>
        <time>2017-11-13T16:22:44.777000Z</time>
      </trkpt>
      <trkpt lat="45.53365238942206" lon="10.217628479003906">
        <ele>145.8755063402407</ele>
        <time>2017-11-13T16:22:45.928000Z</time>
      </trkpt>
      <trkpt lat="45.53360947407782" lon="10.217907428741455">
        <ele>145.9714381877458</ele>
        <time>2017-11-13T16:22:46.249000Z</time>
      </trkpt>
      <trkpt lat="45.53360939025879" lon="10.217907428741455">
        <ele>145.97141313310215</ele>
        <time>2017-11-13T16:22:46.249000Z</time>
      </trkpt>
      <trkpt lat="45.53354510106146" lon="10.218079090118408">
        <ele>145.9306549536941</ele>
        <time>2017-11-13T16:22:46.468000Z</time>
      </trkpt>
      <trkpt lat="45.533523643389344" lon="10.21827220916748">
        <ele>145.88971290414568</ele>
        <time>2017-11-13T16:22:46.688000Z</time>
      </trkpt>
      <trkpt lat="45.533008659258485" lon="10.220825672149658">
        <ele>145.0</ele>
        <time>2017-11-13T16:22:49.672000Z</time>
      </trkpt>
      <trkpt lat="45.53300857543945" lon="10.220825672149658">
        <ele>144.99996895994187</ele>
        <time>2017-11-13T16:22:49.672000Z</time>
      </trkpt>
      <trkpt lat="45.53279408253729" lon="10.221920013427734">
        <ele>144.10546372327704</ele>
        <time>2017-11-13T16:22:50.948000Z</time>
      </trkpt>
      <trkpt lat="45.532751167193055" lon="10.222198963165283">
        <ele>143.9644274651844</ele>
        <time>2017-11-13T16:22:51.269000Z</time>
      </trkpt>
      <trkpt lat="45.53264387883246" lon="10.2227783203125">
        <ele>143.97808816087286</ele>
        <time>2017-11-13T16:22:51.942000Z</time>
      </trkpt>
      <trkpt lat="45.53262242116034" lon="10.222885608673096">
        <ele>143.91856864388362</ele>
        <time>2017-11-13T16:22:52.067000Z</time>
      </trkpt>
      <trkpt lat="45.53260096348822" lon="10.222992897033691">
        <ele>143.85904910589724</ele>
        <time>2017-11-13T16:22:52.192000Z</time>
      </trkpt>
      <trkpt lat="45.53255804814398" lon="10.223164558410645">
        <ele>143.76182000081198</ele>
        <time>2017-11-13T16:22:52.397000Z</time>
      </trkpt>
      <trkpt lat="45.53255796432495" lon="10.223164558410645">
        <ele>143.76175617107788</ele>
        <time>2017-11-13T16:22:52.397000Z</time>
      </trkpt>
      <trkpt lat="45.53234338760376" lon="10.224559307098389">
        <ele>142.0</ele>
        <time>2017-11-13T16:22:54.001000Z</time>
      </trkpt>
      <trkpt lat="45.53232201375067" lon="10.224688053131104">
        <ele>141.9100194392217</ele>
        <time>2017-11-13T16:22:54.150000Z</time>
      </trkpt>
      <trkpt lat="45.53219326771796" lon="10.225632190704346">
        <ele>140.58922659084854</ele>
        <time>2017-11-13T16:22:55.230000Z</time>
      </trkpt>
      <trkpt lat="45.532193183898926" lon="10.225632190704346">
        <ele>140.58914521808865</ele>
        <time>2017-11-13T16:22:55.230000Z</time>
      </trkpt>
      <trkpt lat="45.53206443786621" lon="10.226490497589111">
        <ele>139.99220905899097</ele>
        <time>2017-11-13T16:22:56.216000Z</time>
      </trkpt>
      <trkpt lat="45.53184986114502" lon="10.227391719818115">
        <ele>139.0</ele>
        <time>2017-11-13T16:22:57.285000Z</time>
      </trkpt>
      <trkpt lat="45.531699657440186" lon="10.227885246276855">
        <ele>139.16948135378925</ele>
        <time>2017-11-13T16:22:57.889000Z</time>
      </trkpt>
      <trkpt lat="45.531742572784424" lon="10.228357315063477">
        <ele>139.986080694458</ele>
        <time>2017-11-13T16:22:58.424000Z</time>
      </trkpt>
      <trkpt lat="45.531822699870226" lon="10.228587816491093">
        <ele>140.06712830803494</ele>
        <time>2017-11-13T16:22:58.713000Z</time>
      </trkpt>
      <trkpt lat="45.53182276838496" lon="10.228588013588082">
        <ele>140.06719761011368</ele>
        <time>2017-11-13T16:22:58.713000Z</time>
      </trkpt>
      <trkpt lat="45.531822787597775" lon="10.228588068857789">
        <ele>140.06721704371952</ele>
        <time>2017-11-13T16:22:58.713000Z</time>
      </trkpt>
      <trkpt lat="45.531822787597775" lon="10.228587817400694">
        <ele>140.06729624416835</ele>
        <time>2017-11-13T16:22:58.713000Z</time>
      </trkpt>
      <trkpt lat="45.53208589553833" lon="10.229344367980957">
        <ele>140.33333333333334</ele>
        <time>2017-11-13T16:22:59.662000Z</time>
      </trkpt>
      <trkpt lat="45.53251504898071" lon="10.229601860046387">
        <ele>139.66666666666666</ele>
        <time>2017-11-13T16:23:00.408000Z</time>
      </trkpt>
      <trkpt lat="45.53270825184882" lon="10.229687690734863">
        <ele>139.72947293640718</ele>
        <time>2017-11-13T16:23:00.732000Z</time>
      </trkpt>
      <trkpt lat="45.532708168029785" lon="10.229687690734863">
        <ele>139.72949895354148</ele>
        <time>2017-11-13T16:23:00.732000Z</time>
      </trkpt>
      <trkpt lat="45.534532153978944" lon="10.230653285980225">
        <ele>141.0</ele>
        <time>2017-11-13T16:23:03.851000Z</time>
      </trkpt>
      <trkpt lat="45.53457506932318" lon="10.230653285980225">
        <ele>141.0391907150731</ele>
        <time>2017-11-13T16:23:03.920000Z</time>
      </trkpt>
      <trkpt lat="45.53586252965033" lon="10.23101806640625">
        <ele>145.5711766123576</ele>
        <time>2017-11-13T16:23:06.024000Z</time>
      </trkpt>
      <trkpt lat="45.53590544499457" lon="10.23103952407837">
        <ele>145.5510460788182</ele>
        <time>2017-11-13T16:23:06.097000Z</time>
      </trkpt>
      <trkpt lat="45.536026997175995" lon="10.231083732439563">
        <ele>145.49551506947446</ele>
        <time>2017-11-13T16:23:06.298000Z</time>
      </trkpt>
      <trkpt lat="45.5360270646016" lon="10.231083756962098">
        <ele>145.4954842661508</ele>
        <time>2017-11-13T16:23:06.298000Z</time>
      </trkpt>
      <trkpt lat="45.53602714653911" lon="10.231083786762827">
        <ele>145.49544683305507</ele>
        <time>2017-11-13T16:23:06.298000Z</time>
      </trkpt>
      <trkpt lat="45.53602782078087" lon="10.23108403198421">
        <ele>145.49513880624326</ele>
        <time>2017-11-13T16:23:06.298000Z</time>
      </trkpt>
      <trkpt lat="45.53602773696184" lon="10.231083864346147">
        <ele>145.49507493638941</ele>
        <time>2017-11-13T16:23:06.298000Z</time>
      </trkpt>
      <trkpt lat="45.53614139556885" lon="10.231125354766846">
        <ele>145.44313837743962</ele>
        <time>2017-11-13T16:23:06.486000Z</time>
      </trkpt>
      <trkpt lat="45.53614147938788" lon="10.231382846832275">
        <ele>145.36329020867436</ele>
        <time>2017-11-13T16:23:06.775000Z</time>
      </trkpt>
      <trkpt lat="45.53612002171576" lon="10.23153305053711">
        <ele>145.1530767673028</ele>
        <time>2017-11-13T16:23:06.947000Z</time>
      </trkpt>
      <trkpt lat="45.53609848022461" lon="10.232112407684326">
        <ele>143.02415607993814</ele>
        <time>2017-11-13T16:23:07.598000Z</time>
      </trkpt>
      <trkpt lat="45.53609856404364" lon="10.232198238372803">
        <ele>142.98797603417276</ele>
        <time>2017-11-13T16:23:07.694000Z</time>
      </trkpt>
      <trkpt lat="45.53607710637152" lon="10.232326984405518">
        <ele>142.93219090007892</ele>
        <time>2017-11-13T16:23:07.843000Z</time>
      </trkpt>
      <trkpt lat="45.53603410720825" lon="10.23303508758545">
        <ele>142.9659192653915</ele>
        <time>2017-11-13T16:23:08.641000Z</time>
      </trkpt>
      <trkpt lat="45.53607702255249" lon="10.23324966430664">
        <ele>142.8718544430046</ele>
        <time>2017-11-13T16:23:08.892000Z</time>
      </trkpt>
      <trkpt lat="45.53566932678223" lon="10.234386920928955">
        <ele>142.0</ele>
        <time>2017-11-13T16:23:10.327000Z</time>
      </trkpt>
      <trkpt lat="45.53566941060126" lon="10.234386920928955">
        <ele>141.99992368498638</ele>
        <time>2017-11-13T16:23:10.327000Z</time>
      </trkpt>
      <trkpt lat="45.5354118347168" lon="10.235137939453125">
        <ele>141.13329109186125</ele>
        <time>2017-11-13T16:23:11.266000Z</time>
      </trkpt>
      <trkpt lat="45.53541191853583" lon="10.235137939453125">
        <ele>141.13321477684767</ele>
        <time>2017-11-13T16:23:11.266000Z</time>
      </trkpt>
      <trkpt lat="45.534725273028016" lon="10.23700475692749">
        <ele>139.12180580304695</ele>
        <time>2017-11-13T16:23:13.634000Z</time>
      </trkpt>
      <trkpt lat="45.5345965269953" lon="10.237369537353516">
        <ele>139.0</ele>
        <time>2017-11-13T16:23:14.093000Z</time>
      </trkpt>
      <trkpt lat="45.53410300053656" lon="10.238699913024902">
        <ele>139.09899019405097</ele>
        <time>2017-11-13T16:23:15.784000Z</time>
      </trkpt>
      <trkpt lat="45.53388842381537" lon="10.2392578125">
        <ele>141.1412399362947</ele>
        <time>2017-11-13T16:23:16.499000Z</time>
      </trkpt>
      <trkpt lat="45.53352355957031" lon="10.2402663230896">
        <ele>144.0</ele>
        <time>2017-11-13T16:23:17.774000Z</time>
      </trkpt>
      <trkpt lat="45.53333044052124" lon="10.240716934204102">
        <ele>141.21814968274472</ele>
        <time>2017-11-13T16:23:18.367000Z</time>
      </trkpt>
      <trkpt lat="45.533008659258485" lon="10.241596698760986">
        <ele>141.3754866246033</ele>
        <time>2017-11-13T16:23:19.482000Z</time>
      </trkpt>
      <trkpt lat="45.53300857543945" lon="10.241596698760986">
        <ele>141.37538502970088</ele>
        <time>2017-11-13T16:23:19.482000Z</time>
      </trkpt>
      <trkpt lat="45.53287982940674" lon="10.241940021514893">
        <ele>142.0447428842417</ele>
        <time>2017-11-13T16:23:19.919000Z</time>
      </trkpt>
      <trkpt lat="45.53285837173462" lon="10.242176055908203">
        <ele>141.57682980238522</ele>
        <time>2017-11-13T16:23:20.186000Z</time>
      </trkpt>
      <trkpt lat="45.532751167193055" lon="10.242476463317871">
        <ele>140.91403546203813</ele>
        <time>2017-11-13T16:23:20.565000Z</time>
      </trkpt>
      <trkpt lat="45.532429218292236" lon="10.243334770202637">
        <ele>137.0</ele>
        <time>2017-11-13T16:23:21.658000Z</time>
      </trkpt>
      <trkpt lat="45.53242930211127" lon="10.243334770202637">
        <ele>137.00003519695034</ele>
        <time>2017-11-13T16:23:21.658000Z</time>
      </trkpt>
      <trkpt lat="45.53211884166904" lon="10.244154140953494">
        <ele>137.27405574335043</ele>
        <time>2017-11-13T16:23:22.704000Z</time>
      </trkpt>
      <trkpt lat="45.532118768337604" lon="10.244154334487753">
        <ele>137.27412046685131</ele>
        <time>2017-11-13T16:23:22.704000Z</time>
      </trkpt>
      <trkpt lat="45.532118920236826" lon="10.244153933599591">
        <ele>137.27425453554392</ele>
        <time>2017-11-13T16:23:22.704000Z</time>
      </trkpt>
      <trkpt lat="45.532118836417794" lon="10.244154101237655">
        <ele>137.27431511984537</ele>
        <time>2017-11-13T16:23:22.705000Z</time>
      </trkpt>
      <trkpt lat="45.53189286030829" lon="10.2447509765625">
        <ele>137.14055818144755</ele>
        <time>2017-11-13T16:23:23.467000Z</time>
      </trkpt>
      <trkpt lat="45.5316782835871" lon="10.245330333709717">
        <ele>138.0</ele>
        <time>2017-11-13T16:23:24.203000Z</time>
      </trkpt>
      <trkpt lat="45.5315709952265" lon="10.245630741119385">
        <ele>136.3130835587153</ele>
        <time>2017-11-13T16:23:24.582000Z</time>
      </trkpt>
      <trkpt lat="45.531463623046875" lon="10.246210098266602">
        <ele>135.6846690941791</ele>
        <time>2017-11-13T16:23:25.255000Z</time>
      </trkpt>
      <trkpt lat="45.53142079152167" lon="10.246660709381104">
        <ele>135.20782881519074</ele>
        <time>2017-11-13T16:23:25.766000Z</time>
      </trkpt>
      <trkpt lat="45.53135641850531" lon="10.247669219970703">
        <ele>136.2227138039339</ele>
        <time>2017-11-13T16:23:26.903000Z</time>
      </trkpt>
      <trkpt lat="45.53124950403507" lon="10.248951271176711">
        <ele>137.0</ele>
        <time>2017-11-13T16:23:28.353000Z</time>
      </trkpt>
      <trkpt lat="45.53124941018933" lon="10.248952396438433">
        <ele>136.99953096973965</ele>
        <time>2017-11-13T16:23:28.353000Z</time>
      </trkpt>
      <trkpt lat="45.531249549239874" lon="10.2489507291466">
        <ele>136.99883601112936</ele>
        <time>2017-11-13T16:23:28.355000Z</time>
      </trkpt>
      <trkpt lat="45.53124946542084" lon="10.248950896784663">
        <ele>136.9987507653889</ele>
        <time>2017-11-13T16:23:28.355000Z</time>
      </trkpt>
      <trkpt lat="45.531227588653564" lon="10.249214172363281">
        <ele>137.55568476368478</ele>
        <time>2017-11-13T16:23:28.653000Z</time>
      </trkpt>
      <trkpt lat="45.53105592727661" lon="10.250179767608643">
        <ele>136.8100244508524</ele>
        <time>2017-11-13T16:23:29.772000Z</time>
      </trkpt>
      <trkpt lat="45.53088426589966" lon="10.250780582427979">
        <ele>135.66479001567737</ele>
        <time>2017-11-13T16:23:30.501000Z</time>
      </trkpt>
      <trkpt lat="45.530691146850586" lon="10.2512526512146">
        <ele>132.69992853802097</ele>
        <time>2017-11-13T16:23:31.115000Z</time>
      </trkpt>
      <trkpt lat="45.530498027801514" lon="10.251445770263672">
        <ele>132.49135876468821</ele>
        <time>2017-11-13T16:23:31.493000Z</time>
      </trkpt>
      <trkpt lat="45.53043373860419" lon="10.251424312591553">
        <ele>132.43295763948362</ele>
        <time>2017-11-13T16:23:31.599000Z</time>
      </trkpt>
      <trkpt lat="45.53030499257147" lon="10.251531600952148">
        <ele>132.301089556922</ele>
        <time>2017-11-13T16:23:31.838000Z</time>
      </trkpt>
      <trkpt lat="45.53032636642456" lon="10.25172472000122">
        <ele>133.18263668945588</ele>
        <time>2017-11-13T16:23:32.058000Z</time>
      </trkpt>
      <trkpt lat="45.53015478886664" lon="10.252346992492676">
        <ele>133.91761692539663</ele>
        <time>2017-11-13T16:23:32.809000Z</time>
      </trkpt>
      <trkpt lat="45.53015470504761" lon="10.252346992492676">
        <ele>133.9177484276086</ele>
        <time>2017-11-13T16:23:32.809000Z</time>
      </trkpt>
      <trkpt lat="45.5296612624079" lon="10.253376960754395">
        <ele>135.95581184971766</ele>
        <time>2017-11-13T16:23:34.210000Z</time>
      </trkpt>
      <trkpt lat="45.528781497851014" lon="10.25522232055664">
        <ele>139.0</ele>
        <time>2017-11-13T16:23:36.717000Z</time>
      </trkpt>
      <trkpt lat="45.52876000200644" lon="10.255265162452915">
        <ele>138.90818982529967</ele>
        <time>2017-11-13T16:23:36.776000Z</time>
      </trkpt>
      <trkpt lat="45.528758166569936" lon="10.255268820532615">
        <ele>138.9003505588115</ele>
        <time>2017-11-13T16:23:36.781000Z</time>
      </trkpt>
      <trkpt lat="45.52875744178891" lon="10.255270265042782">
        <ele>138.89725497280742</ele>
        <time>2017-11-13T16:23:36.783000Z</time>
      </trkpt>
      <trkpt lat="45.52875752560794" lon="10.255270013585687">
        <ele>138.8967698104702</ele>
        <time>2017-11-13T16:23:36.783000Z</time>
      </trkpt>
      <trkpt lat="45.52871712483466" lon="10.255351066589355">
        <ele>138.7234595683257</ele>
        <time>2017-11-13T16:23:36.895000Z</time>
      </trkpt>
      <trkpt lat="45.52863129414618" lon="10.255587100982666">
        <ele>138.26013175113815</ele>
        <time>2017-11-13T16:23:37.194000Z</time>
      </trkpt>
      <trkpt lat="45.528481006622314" lon="10.256123542785645">
        <ele>138.58688875591224</ele>
        <time>2017-11-13T16:23:37.843000Z</time>
      </trkpt>
      <trkpt lat="45.528287971392274" lon="10.256574153900146">
        <ele>135.0</ele>
        <time>2017-11-13T16:23:38.436000Z</time>
      </trkpt>
      <trkpt lat="45.52830934524536" lon="10.256681442260742">
        <ele>133.98423296840096</ele>
        <time>2017-11-13T16:23:38.561000Z</time>
      </trkpt>
      <trkpt lat="45.52813768386841" lon="10.257861614227295">
        <ele>135.14718476923943</ele>
        <time>2017-11-13T16:23:39.915000Z</time>
      </trkpt>
      <trkpt lat="45.52800893783569" lon="10.258312225341797">
        <ele>135.0783944523685</ele>
        <time>2017-11-13T16:23:40.462000Z</time>
      </trkpt>
      <trkpt lat="45.52725791931152" lon="10.260329246520996">
        <ele>131.0</ele>
        <time>2017-11-13T16:23:43.027000Z</time>
      </trkpt>
      <trkpt lat="45.52702188491821" lon="10.260801315307617">
        <ele>131.23747216500297</ele>
        <time>2017-11-13T16:23:43.678000Z</time>
      </trkpt>
      <trkpt lat="45.52695759572089" lon="10.260865688323975">
        <ele>131.28336986473906</ele>
        <time>2017-11-13T16:23:43.804000Z</time>
      </trkpt>
      <trkpt lat="45.52682876586914" lon="10.261445045471191">
        <ele>131.5322562296527</ele>
        <time>2017-11-13T16:23:44.487000Z</time>
      </trkpt>
      <trkpt lat="45.52637823857367" lon="10.262389183044434">
        <ele>133.6227457331507</ele>
        <time>2017-11-13T16:23:45.770000Z</time>
      </trkpt>
      <trkpt lat="45.52590616978705" lon="10.263504981994629">
        <ele>134.18893279159394</ele>
        <time>2017-11-13T16:23:47.234000Z</time>
      </trkpt>
      <trkpt lat="45.52590608596802" lon="10.263504981994629">
        <ele>134.18877699519598</ele>
        <time>2017-11-13T16:23:47.234000Z</time>
      </trkpt>
      <trkpt lat="45.52536964416504" lon="10.2647066116333">
        <ele>131.0</ele>
        <time>2017-11-13T16:23:48.834000Z</time>
      </trkpt>
      <trkpt lat="45.52504777908325" lon="10.26522159576416">
        <ele>131.32008686830903</ele>
        <time>2017-11-13T16:23:49.609000Z</time>
      </trkpt>
      <trkpt lat="45.52470454014838" lon="10.265629291534424">
        <ele>129.66666666666666</ele>
        <time>2017-11-13T16:23:50.325000Z</time>
      </trkpt>
      <trkpt lat="45.52453279495239" lon="10.2657151222229">
        <ele>129.76880684364096</ele>
        <time>2017-11-13T16:23:50.617000Z</time>
      </trkpt>
      <trkpt lat="45.524489963427186" lon="10.2657151222229">
        <ele>129.7928485140637</ele>
        <time>2017-11-13T16:23:50.686000Z</time>
      </trkpt>
      <trkpt lat="45.52436121739447" lon="10.265843868255615">
        <ele>130.547752384646</ele>
        <time>2017-11-13T16:23:50.938000Z</time>
      </trkpt>
      <trkpt lat="45.52433967590332" lon="10.265929698944092">
        <ele>130.58360618414363</ele>
        <time>2017-11-13T16:23:51.040000Z</time>
      </trkpt>
      <trkpt lat="45.52408218383789" lon="10.266294479370117">
        <ele>130.78724373925346</ele>
        <time>2017-11-13T16:23:51.622000Z</time>
      </trkpt>
      <trkpt lat="45.52377178106444" lon="10.266604964987547">
        <ele>131.0</ele>
        <time>2017-11-13T16:23:52.230000Z</time>
      </trkpt>
      <trkpt lat="45.52376919968" lon="10.266607547043055">
        <ele>131.00171977822126</ele>
        <time>2017-11-13T16:23:52.235000Z</time>
      </trkpt>
      <trkpt lat="45.52376803010702" lon="10.266608716920018">
        <ele>131.00249897487188</ele>
        <time>2017-11-13T16:23:52.237000Z</time>
      </trkpt>
      <trkpt lat="45.523545825853944" lon="10.266830921173096">
        <ele>131.1505241275713</ele>
        <time>2017-11-13T16:23:52.672000Z</time>
      </trkpt>
      <trkpt lat="45.52313804626465" lon="10.26721715927124">
        <ele>131.41753444442224</ele>
        <time>2017-11-13T16:23:53.457000Z</time>
      </trkpt>
      <trkpt lat="45.52255868911743" lon="10.267839431762695">
        <ele>132.1464593209868</ele>
        <time>2017-11-13T16:23:54.619000Z</time>
      </trkpt>
      <trkpt lat="45.52212953567505" lon="10.268397331237793">
        <ele>132.66666666666666</ele>
        <time>2017-11-13T16:23:55.550000Z</time>
      </trkpt>
      <trkpt lat="45.52212961949408" lon="10.268397331237793">
        <ele>132.6667005055143</ele>
        <time>2017-11-13T16:23:55.550000Z</time>
      </trkpt>
      <trkpt lat="45.52152872085571" lon="10.269427299499512">
        <ele>132.71247961639838</ele>
        <time>2017-11-13T16:23:57.055000Z</time>
      </trkpt>
      <trkpt lat="45.52109956741333" lon="10.270543098449707">
        <ele>134.40585488418796</ele>
        <time>2017-11-13T16:23:58.485000Z</time>
      </trkpt>
      <trkpt lat="45.52086353302002" lon="10.271401405334473">
        <ele>135.33333333333334</ele>
        <time>2017-11-13T16:23:59.521000Z</time>
      </trkpt>
      <trkpt lat="45.52067041397095" lon="10.272560119628906">
        <ele>134.51682548299485</ele>
        <time>2017-11-13T16:24:00.859000Z</time>
      </trkpt>
      <trkpt lat="45.52067049778998" lon="10.272560119628906">
        <ele>134.5168377731362</ele>
        <time>2017-11-13T16:24:00.859000Z</time>
      </trkpt>
      <trkpt lat="45.52056320942938" lon="10.273439884185791">
        <ele>134.94191233572352</ele>
        <time>2017-11-13T16:24:01.862000Z</time>
      </trkpt>
      <trkpt lat="45.520498836413026" lon="10.273997783660889">
        <ele>135.0</ele>
        <time>2017-11-13T16:24:02.497000Z</time>
      </trkpt>
      <trkpt lat="45.52032717503607" lon="10.275371074676514">
        <ele>136.68761741318883</ele>
        <time>2017-11-13T16:24:04.064000Z</time>
      </trkpt>
      <trkpt lat="45.520305717363954" lon="10.275499820709229">
        <ele>136.87934091332298</ele>
        <time>2017-11-13T16:24:04.213000Z</time>
      </trkpt>
      <trkpt lat="45.520241344347596" lon="10.276036262512207">
        <ele>138.66782063168156</ele>
        <time>2017-11-13T16:24:04.824000Z</time>
      </trkpt>
      <trkpt lat="45.52019842900336" lon="10.276336669921875">
        <ele>139.64710466743838</ele>
        <time>2017-11-13T16:24:05.168000Z</time>
      </trkpt>
      <trkpt lat="45.52009114064276" lon="10.277795791625977">
        <ele>148.0</ele>
        <time>2017-11-13T16:24:06.816000Z</time>
      </trkpt>
      <trkpt lat="45.52009114064276" lon="10.277924537658691">
        <ele>147.51931864843075</ele>
        <time>2017-11-13T16:24:06.961000Z</time>
      </trkpt>
      <trkpt lat="45.52006968297064" lon="10.278160572052002">
        <ele>146.63068242001086</ele>
        <time>2017-11-13T16:24:07.228000Z</time>
      </trkpt>
      <trkpt lat="45.520026767626405" lon="10.27897596359253">
        <ele>144.2444535425768</ele>
        <time>2017-11-13T16:24:08.146000Z</time>
      </trkpt>
      <trkpt lat="45.520006740075324" lon="10.279058177870217">
        <ele>143.91947817877437</ele>
        <time>2017-11-13T16:24:08.244000Z</time>
      </trkpt>
      <trkpt lat="45.520005704928785" lon="10.27906242719936">
        <ele>143.90268149040662</ele>
        <time>2017-11-13T16:24:08.249000Z</time>
      </trkpt>
      <trkpt lat="45.520005226135254" lon="10.279064392670989">
        <ele>143.89491240172168</ele>
        <time>2017-11-13T16:24:08.251000Z</time>
      </trkpt>
      <trkpt lat="45.51985510624945" lon="10.279684066772461">
        <ele>136.78026017812596</ele>
        <time>2017-11-13T16:24:08.987000Z</time>
      </trkpt>
      <trkpt lat="45.51968336105347" lon="10.280306339263916">
        <ele>134.88143145499035</ele>
        <time>2017-11-13T16:24:09.738000Z</time>
      </trkpt>
      <trkpt lat="45.5196834448725" lon="10.280306339263916">
        <ele>134.88132183028438</ele>
        <time>2017-11-13T16:24:09.739000Z</time>
      </trkpt>
      <trkpt lat="45.51946886815131" lon="10.281057357788086">
        <ele>133.4714162324547</ele>
        <time>2017-11-13T16:24:10.650000Z</time>
      </trkpt>
      <trkpt lat="45.519232833758" lon="10.281829833984375">
        <ele>132.93523608492382</ele>
        <time>2017-11-13T16:24:11.597000Z</time>
      </trkpt>
      <trkpt lat="45.51921137608588" lon="10.281894207000732">
        <ele>132.91807738898697</ele>
        <time>2017-11-13T16:24:11.677000Z</time>
      </trkpt>
      <trkpt lat="45.5189323425293" lon="10.282859802246094">
        <ele>133.0</ele>
        <time>2017-11-13T16:24:12.850000Z</time>
      </trkpt>
      <trkpt lat="45.51893242634833" lon="10.282859802246094">
        <ele>133.0000263010387</ele>
        <time>2017-11-13T16:24:12.850000Z</time>
      </trkpt>
      <trkpt lat="45.518760764971375" lon="10.283546447753906">
        <ele>132.8269808281744</ele>
        <time>2017-11-13T16:24:13.669000Z</time>
      </trkpt>
      <trkpt lat="45.51871784962714" lon="10.283632278442383">
        <ele>132.85016365953516</ele>
        <time>2017-11-13T16:24:13.787000Z</time>
      </trkpt>
      <trkpt lat="45.51861056126654" lon="10.284039974212646">
        <ele>132.94591358602824</ele>
        <time>2017-11-13T16:24:14.276000Z</time>
      </trkpt>
      <trkpt lat="45.51818140782416" lon="10.28569221496582">
        <ele>134.0</ele>
        <time>2017-11-13T16:24:16.255000Z</time>
      </trkpt>
      <trkpt lat="45.51813849247992" lon="10.285842418670654">
        <ele>134.0494344986857</ele>
        <time>2017-11-13T16:24:16.437000Z</time>
      </trkpt>
      <trkpt lat="45.517988288775086" lon="10.286486148834229">
        <ele>134.25620605267417</ele>
        <time>2017-11-13T16:24:17.199000Z</time>
      </trkpt>
      <trkpt lat="45.51785954274237" lon="10.287044048309326">
        <ele>135.00921332448968</ele>
        <time>2017-11-13T16:24:17.859000Z</time>
      </trkpt>
      <trkpt lat="45.517773712053895" lon="10.287408828735352">
        <ele>135.2841470433548</ele>
        <time>2017-11-13T16:24:18.291000Z</time>
      </trkpt>
      <trkpt lat="45.51745184697211" lon="10.288803577423096">
        <ele>137.0</ele>
        <time>2017-11-13T16:24:19.941000Z</time>
      </trkpt>
      <trkpt lat="45.51743038929999" lon="10.288867950439453">
        <ele>136.98635906722436</ele>
        <time>2017-11-13T16:24:20.021000Z</time>
      </trkpt>
      <trkpt lat="45.51712998189032" lon="10.29017686843872">
        <ele>136.72279601291888</ele>
        <time>2017-11-13T16:24:21.568000Z</time>
      </trkpt>
      <trkpt lat="45.51695832051337" lon="10.290906429290771">
        <ele>136.70511534105088</ele>
        <time>2017-11-13T16:24:22.433000Z</time>
      </trkpt>
      <trkpt lat="45.516293132677674" lon="10.293760299682617">
        <ele>134.0</ele>
        <time>2017-11-13T16:24:25.812000Z</time>
      </trkpt>
      <trkpt lat="45.51612147130072" lon="10.29444694519043">
        <ele>134.0</ele>
        <time>2017-11-13T16:24:26.631000Z</time>
      </trkpt>
      <trkpt lat="45.51594980992377" lon="10.29517650604248">
        <ele>134.28135635672712</ele>
        <time>2017-11-13T16:24:27.496000Z</time>
      </trkpt>
      <trkpt lat="45.51564931869507" lon="10.296549797058105">
        <ele>137.47399722548508</ele>
        <time>2017-11-13T16:24:29.112000Z</time>
      </trkpt>
      <trkpt lat="45.51552057266235" lon="10.29667854309082">
        <ele>136.93520011650546</ele>
        <time>2017-11-13T16:24:29.364000Z</time>
      </trkpt>
      <trkpt lat="45.51547774113715" lon="10.29670000076294">
        <ele>136.97212271828104</ele>
        <time>2017-11-13T16:24:29.437000Z</time>
      </trkpt>
      <trkpt lat="45.51543482579291" lon="10.296850204467773">
        <ele>137.06457432065588</ele>
        <time>2017-11-13T16:24:29.619000Z</time>
      </trkpt>
      <trkpt lat="45.515477657318115" lon="10.29691457748413">
        <ele>137.11516899305886</ele>
        <time>2017-11-13T16:24:29.719000Z</time>
      </trkpt>
      <trkpt lat="45.515499114990234" lon="10.297214984893799">
        <ele>137.2872732687933</ele>
        <time>2017-11-13T16:24:30.058000Z</time>
      </trkpt>
      <trkpt lat="45.51496275700629" lon="10.299510955810547">
        <ele>140.0</ele>
        <time>2017-11-13T16:24:32.777000Z</time>
      </trkpt>
      <trkpt lat="45.514812553301454" lon="10.300133228302002">
        <ele>139.89113013753322</ele>
        <time>2017-11-13T16:24:33.516000Z</time>
      </trkpt>
      <trkpt lat="45.514512145891786" lon="10.30142068862915">
        <ele>139.0</ele>
        <time>2017-11-13T16:24:35.040000Z</time>
      </trkpt>
      <trkpt lat="45.51446923054755" lon="10.301549434661865">
        <ele>139.0</ele>
        <time>2017-11-13T16:24:35.200000Z</time>
      </trkpt>
      <trkpt lat="45.51431902684271" lon="10.302236080169678">
        <ele>140.0</ele>
        <time>2017-11-13T16:24:36.008000Z</time>
      </trkpt>
      <trkpt lat="45.5140829924494" lon="10.3031587600708">
        <ele>139.0</ele>
        <time>2017-11-13T16:24:37.111000Z</time>
      </trkpt>
      <trkpt lat="45.51397570408881" lon="10.303587913513184">
        <ele>138.9660896128963</ele>
        <time>2017-11-13T16:24:37.623000Z</time>
      </trkpt>
      <trkpt lat="45.51367521286011" lon="10.304896831512451">
        <ele>138.53024964118893</ele>
        <time>2017-11-13T16:24:39.170000Z</time>
      </trkpt>
      <trkpt lat="45.51367529667914" lon="10.304896831512451">
        <ele>138.53036881899956</ele>
        <time>2017-11-13T16:24:39.170000Z</time>
      </trkpt>
      <trkpt lat="45.513525092974305" lon="10.305519104003906">
        <ele>139.51945299368666</ele>
        <time>2017-11-13T16:24:39.909000Z</time>
      </trkpt>
      <trkpt lat="45.5134391784668" lon="10.305862426757812">
        <ele>140.21601278545384</ele>
        <time>2017-11-13T16:24:40.319000Z</time>
      </trkpt>
      <trkpt lat="45.51335343159735" lon="10.306077003479004">
        <ele>140.46212615312757</ele>
        <time>2017-11-13T16:24:40.596000Z</time>
      </trkpt>
      <trkpt lat="45.513246059417725" lon="10.306248664855957">
        <ele>141.35922865461893</ele>
        <time>2017-11-13T16:24:40.854000Z</time>
      </trkpt>
      <trkpt lat="45.51316031254828" lon="10.306334495544434">
        <ele>141.37604955682795</ele>
        <time>2017-11-13T16:24:41.022000Z</time>
      </trkpt>
      <trkpt lat="45.51316031254828" lon="10.306570529937744">
        <ele>141.40261282373393</ele>
        <time>2017-11-13T16:24:41.287000Z</time>
      </trkpt>
      <trkpt lat="45.51318168640137" lon="10.306613445281982">
        <ele>141.40853809861295</ele>
        <time>2017-11-13T16:24:41.346000Z</time>
      </trkpt>
      <trkpt lat="45.5131817702204" lon="10.306828022003174">
        <ele>141.4326865176177</ele>
        <time>2017-11-13T16:24:41.587000Z</time>
      </trkpt>
      <trkpt lat="45.51318168640137" lon="10.306956768035889">
        <ele>141.4471755730442</ele>
        <time>2017-11-13T16:24:41.732000Z</time>
      </trkpt>
      <trkpt lat="45.51313885487616" lon="10.307085514068604">
        <ele>141.46321458967782</ele>
        <time>2017-11-13T16:24:41.892000Z</time>
      </trkpt>
      <trkpt lat="45.513031566515565" lon="10.307557582855225">
        <ele>141.5190655747917</ele>
        <time>2017-11-13T16:24:42.450000Z</time>
      </trkpt>
      <trkpt lat="45.51208742894232" lon="10.311613082885742">
        <ele>142.0</ele>
        <time>2017-11-13T16:24:47.251000Z</time>
      </trkpt>
      <trkpt lat="45.51208734512329" lon="10.311613082885742">
        <ele>142.0</ele>
        <time>2017-11-13T16:24:47.251000Z</time>
      </trkpt>
      <trkpt lat="45.512023055925965" lon="10.311827659606934">
        <ele>142.0</ele>
        <time>2017-11-13T16:24:47.513000Z</time>
      </trkpt>
      <trkpt lat="45.51191576756537" lon="10.312364101409912">
        <ele>142.41981724597147</ele>
        <time>2017-11-13T16:24:48.140000Z</time>
      </trkpt>
      <trkpt lat="45.51167964935303" lon="10.31339406967163">
        <ele>143.90200649906603</ele>
        <time>2017-11-13T16:24:49.357000Z</time>
      </trkpt>
      <trkpt lat="45.5111647490412" lon="10.315475463867188">
        <ele>146.0</ele>
        <time>2017-11-13T16:24:51.837000Z</time>
      </trkpt>
      <trkpt lat="45.51116466522217" lon="10.315475463867188">
        <ele>145.99998350194437</ele>
        <time>2017-11-13T16:24:51.837000Z</time>
      </trkpt>
      <trkpt lat="45.51095017232001" lon="10.316376686096191">
        <ele>146.53536840553213</ele>
        <time>2017-11-13T16:24:52.906000Z</time>
      </trkpt>
      <trkpt lat="45.510714054107666" lon="10.317363739013672">
        <ele>145.72484044335175</ele>
        <time>2017-11-13T16:24:54.078000Z</time>
      </trkpt>
      <trkpt lat="45.51054239273071" lon="10.317707061767578">
        <ele>145.12051594941258</ele>
        <time>2017-11-13T16:24:54.552000Z</time>
      </trkpt>
      <trkpt lat="45.510499561205506" lon="10.317728519439697">
        <ele>145.0819682527709</ele>
        <time>2017-11-13T16:24:54.625000Z</time>
      </trkpt>
      <trkpt lat="45.51043518818915" lon="10.31792163848877">
        <ele>144.95470808854756</ele>
        <time>2017-11-13T16:24:54.865000Z</time>
      </trkpt>
      <trkpt lat="45.510478019714355" lon="10.318028926849365">
        <ele>144.88122945464463</ele>
        <time>2017-11-13T16:24:55.004000Z</time>
      </trkpt>
      <trkpt lat="45.51043510437012" lon="10.318522453308105">
        <ele>144.25195492971895</ele>
        <time>2017-11-13T16:24:55.563000Z</time>
      </trkpt>
      <trkpt lat="45.5101562384516" lon="10.319702625274658">
        <ele>144.80593353955132</ele>
        <time>2017-11-13T16:24:56.962000Z</time>
      </trkpt>
      <trkpt lat="45.50981283187866" lon="10.32116174697876">
        <ele>144.0</ele>
        <time>2017-11-13T16:24:58.691000Z</time>
      </trkpt>
      <trkpt lat="45.50966262817383" lon="10.321526527404785">
        <ele>144.0598615069032</ele>
        <time>2017-11-13T16:24:59.166000Z</time>
      </trkpt>
      <trkpt lat="45.50959825515747" lon="10.3216552734375">
        <ele>144.1060404135546</ele>
        <time>2017-11-13T16:24:59.344000Z</time>
      </trkpt>
      <trkpt lat="45.50961971282959" lon="10.321762561798096">
        <ele>144.471950869408</ele>
        <time>2017-11-13T16:24:59.469000Z</time>
      </trkpt>
      <trkpt lat="45.50955533981323" lon="10.322234630584717">
        <ele>144.61237218305632</ele>
        <time>2017-11-13T16:25:00.009000Z</time>
      </trkpt>
      <trkpt lat="45.508267963305116" lon="10.327835083007812">
        <ele>147.0</ele>
        <time>2017-11-13T16:25:06.631000Z</time>
      </trkpt>
      <trkpt lat="45.507701452430894" lon="10.33019519603677">
        <ele>149.0</ele>
        <time>2017-11-13T16:25:09.434000Z</time>
      </trkpt>
      <trkpt lat="45.507700430990376" lon="10.330199451183937">
        <ele>149.0</ele>
        <time>2017-11-13T16:25:09.439000Z</time>
      </trkpt>
      <trkpt lat="45.507701095193624" lon="10.330196684226394">
        <ele>149.00086804661765</ele>
        <time>2017-11-13T16:25:09.442000Z</time>
      </trkpt>
      <trkpt lat="45.507701179012656" lon="10.330196348950267">
        <ele>149.00097369538778</ele>
        <time>2017-11-13T16:25:09.442000Z</time>
      </trkpt>
      <trkpt lat="45.50762423314154" lon="10.330517292022705">
        <ele>149.2365745381882</ele>
        <time>2017-11-13T16:25:09.823000Z</time>
      </trkpt>
      <trkpt lat="45.50762414932251" lon="10.330517292022705">
        <ele>149.23665761034198</ele>
        <time>2017-11-13T16:25:09.824000Z</time>
      </trkpt>
      <trkpt lat="45.50749548710883" lon="10.331075191497803">
        <ele>149.64460031119415</ele>
        <time>2017-11-13T16:25:10.484000Z</time>
      </trkpt>
      <trkpt lat="45.50734528340399" lon="10.331697463989258">
        <ele>150.76839890133695</ele>
        <time>2017-11-13T16:25:11.223000Z</time>
      </trkpt>
      <trkpt lat="45.50732374191284" lon="10.331783294677734">
        <ele>150.83172215518985</ele>
        <time>2017-11-13T16:25:11.325000Z</time>
      </trkpt>
      <trkpt lat="45.50719507969916" lon="10.332319736480713">
        <ele>151.09665446050028</ele>
        <time>2017-11-13T16:25:11.962000Z</time>
      </trkpt>
      <trkpt lat="45.50717362202704" lon="10.33238410949707">
        <ele>151.09757547729598</ele>
        <time>2017-11-13T16:25:12.042000Z</time>
      </trkpt>
      <trkpt lat="45.50717353820801" lon="10.332577228546143">
        <ele>151.7667373329172</ele>
        <time>2017-11-13T16:25:12.259000Z</time>
      </trkpt>
      <trkpt lat="45.50708770751953" lon="10.332856178283691">
        <ele>151.77067357286845</ele>
        <time>2017-11-13T16:25:12.601000Z</time>
      </trkpt>
      <trkpt lat="45.506876200445376" lon="10.333617901467765">
        <ele>151.4479259885576</ele>
        <time>2017-11-13T16:25:13.522000Z</time>
      </trkpt>
      <trkpt lat="45.50687352599279" lon="10.333627533108327">
        <ele>151.44264975281553</ele>
        <time>2017-11-13T16:25:13.534000Z</time>
      </trkpt>
      <trkpt lat="45.50687321461737" lon="10.33362865447998">
        <ele>151.44203546271692</ele>
        <time>2017-11-13T16:25:13.536000Z</time>
      </trkpt>
      <trkpt lat="45.50687313079834" lon="10.33362865447998">
        <ele>151.44197455190894</ele>
        <time>2017-11-13T16:25:13.536000Z</time>
      </trkpt>
      <trkpt lat="45.50863265991211" lon="10.334937572479248">
        <ele>149.0</ele>
        <time>2017-11-13T16:25:16.717000Z</time>
      </trkpt>
      <trkpt lat="45.50891920893391" lon="10.335510588055529">
        <ele>149.08897413380237</ele>
        <time>2017-11-13T16:25:17.508000Z</time>
      </trkpt>
      <trkpt lat="45.50892342624508" lon="10.335519021550406">
        <ele>149.0920699236136</ele>
        <time>2017-11-13T16:25:17.520000Z</time>
      </trkpt>
      <trkpt lat="45.50892426632345" lon="10.335520701482892">
        <ele>149.092686597666</ele>
        <time>2017-11-13T16:25:17.522000Z</time>
      </trkpt>
      <trkpt lat="45.508924182504416" lon="10.33552061766386">
        <ele>149.09273023912357</ele>
        <time>2017-11-13T16:25:17.522000Z</time>
      </trkpt>
      <trkpt lat="45.50919064320624" lon="10.336053371429443">
        <ele>149.28830623834358</ele>
        <time>2017-11-13T16:25:18.257000Z</time>
      </trkpt>
      <trkpt lat="45.50919055938721" lon="10.336053371429443">
        <ele>149.2883419774123</ele>
        <time>2017-11-13T16:25:18.257000Z</time>
      </trkpt>
      <trkpt lat="45.509727001190186" lon="10.337061882019043">
        <ele>150.0</ele>
        <time>2017-11-13T16:25:19.679000Z</time>
      </trkpt>
      <trkpt lat="45.510851966058844" lon="10.339463126895081">
        <ele>150.0</ele>
        <time>2017-11-13T16:25:22.924000Z</time>
      </trkpt>
      <trkpt lat="45.5108560012036" lon="10.339471740304013">
        <ele>150.00242817271237</ele>
        <time>2017-11-13T16:25:22.936000Z</time>
      </trkpt>
      <trkpt lat="45.5108555406332" lon="10.339470757171512">
        <ele>150.00270532376848</ele>
        <time>2017-11-13T16:25:22.937000Z</time>
      </trkpt>
      <trkpt lat="45.51085537299514" lon="10.339470505714417">
        <ele>150.00278666287969</ele>
        <time>2017-11-13T16:25:22.937000Z</time>
      </trkpt>
      <trkpt lat="45.511958599090576" lon="10.341825485229492">
        <ele>151.0</ele>
        <time>2017-11-13T16:25:26.119000Z</time>
      </trkpt>
      <trkpt lat="45.51341772079468" lon="10.344958305358887">
        <ele>164.0</ele>
        <time>2017-11-13T16:25:30.345000Z</time>
      </trkpt>
      <trkpt lat="45.51416873931885" lon="10.346825122833252">
        <ele>159.0</ele>
        <time>2017-11-13T16:25:32.763000Z</time>
      </trkpt>
      <trkpt lat="45.51442623138428" lon="10.347683429718018">
        <ele>155.11198098301142</ele>
        <time>2017-11-13T16:25:33.812000Z</time>
      </trkpt>
      <trkpt lat="45.514469146728516" lon="10.348005294799805">
        <ele>154.91733068374165</ele>
        <time>2017-11-13T16:25:34.180000Z</time>
      </trkpt>
      <trkpt lat="45.514512062072754" lon="10.348820686340332">
        <ele>154.43154391729195</ele>
        <time>2017-11-13T16:25:35.099000Z</time>
      </trkpt>
      <trkpt lat="45.514512062072754" lon="10.35010814666748">
        <ele>153.0</ele>
        <time>2017-11-13T16:25:36.545000Z</time>
      </trkpt>
      <trkpt lat="45.514490604400635" lon="10.352082252502441">
        <ele>153.78149408412034</ele>
        <time>2017-11-13T16:25:38.763000Z</time>
      </trkpt>
      <trkpt lat="45.5144476890564" lon="10.352253913879395">
        <ele>153.79209425410036</ele>
        <time>2017-11-13T16:25:38.968000Z</time>
      </trkpt>
      <trkpt lat="45.51457651890814" lon="10.352575778961182">
        <ele>154.14698582536332</ele>
        <time>2017-11-13T16:25:39.384000Z</time>
      </trkpt>
      <trkpt lat="45.514474436752856" lon="10.355776530494087">
        <ele>154.0</ele>
        <time>2017-11-13T16:25:42.983000Z</time>
      </trkpt>
      <trkpt lat="45.514474030976295" lon="10.355789247868293">
        <ele>154.0</ele>
        <time>2017-11-13T16:25:42.997000Z</time>
      </trkpt>
      <trkpt lat="45.51447417587042" lon="10.355784706771374">
        <ele>154.00090563654206</ele>
        <time>2017-11-13T16:25:43.002000Z</time>
      </trkpt>
      <trkpt lat="45.51447417587042" lon="10.355784874409437">
        <ele>154.000939034202</ele>
        <time>2017-11-13T16:25:43.002000Z</time>
      </trkpt>
      <trkpt lat="45.51446923054755" lon="10.355944633483887">
        <ele>154.03279804717815</ele>
        <time>2017-11-13T16:25:43.182000Z</time>
      </trkpt>
      <trkpt lat="45.5144476890564" lon="10.356330871582031">
        <ele>154.10998963734627</ele>
        <time>2017-11-13T16:25:43.617000Z</time>
      </trkpt>
      <trkpt lat="45.514533603563905" lon="10.35635232925415">
        <ele>154.13478731101299</ele>
        <time>2017-11-13T16:25:43.757000Z</time>
      </trkpt>
      <trkpt lat="45.51468372344971" lon="10.356245040893555">
        <ele>154.18252102891896</ele>
        <time>2017-11-13T16:25:44.026000Z</time>
      </trkpt>
      <trkpt lat="45.51470526494086" lon="10.356287956237793">
        <ele>154.2075199458193</ele>
        <time>2017-11-13T16:25:44.085000Z</time>
      </trkpt>
      <trkpt lat="45.514705181121826" lon="10.356802940368652">
        <ele>154.11805974255378</ele>
        <time>2017-11-13T16:25:44.664000Z</time>
      </trkpt>
      <trkpt lat="45.514769554138184" lon="10.357167720794678">
        <ele>154.2961967750778</ele>
        <time>2017-11-13T16:25:45.087000Z</time>
      </trkpt>
      <trkpt lat="45.514748096466064" lon="10.357253551483154">
        <ele>154.33935162443927</ele>
        <time>2017-11-13T16:25:45.189000Z</time>
      </trkpt>
      <trkpt lat="45.514769554138184" lon="10.358648300170898">
        <ele>156.0</ele>
        <time>2017-11-13T16:25:46.756000Z</time>
      </trkpt>
      <trkpt lat="45.51485538482666" lon="10.35886287689209">
        <ele>155.90740289093318</ele>
        <time>2017-11-13T16:25:47.034000Z</time>
      </trkpt>
      <trkpt lat="45.5146408919245" lon="10.358905792236328">
        <ele>155.79156270264153</ele>
        <time>2017-11-13T16:25:47.381000Z</time>
      </trkpt>
      <trkpt lat="45.51446923054755" lon="10.358905792236328">
        <ele>155.69975226376718</ele>
        <time>2017-11-13T16:25:47.656000Z</time>
      </trkpt>
      <trkpt lat="45.5144476890564" lon="10.358905792236328">
        <ele>155.68823112959203</ele>
        <time>2017-11-13T16:25:47.691000Z</time>
      </trkpt>
      <trkpt lat="45.51440477371216" lon="10.361630916595459">
        <ele>154.0</ele>
        <time>2017-11-13T16:25:50.753000Z</time>
      </trkpt>
      <trkpt lat="45.51429748535156" lon="10.36285400390625">
        <ele>155.4609314754508</ele>
        <time>2017-11-13T16:25:52.138000Z</time>
      </trkpt>
      <trkpt lat="45.51440477371216" lon="10.36334753036499">
        <ele>154.8477549906507</ele>
        <time>2017-11-13T16:25:52.718000Z</time>
      </trkpt>
      <trkpt lat="45.51453351974487" lon="10.3635835647583">
        <ele>154.8999734537545</ele>
        <time>2017-11-13T16:25:53.054000Z</time>
      </trkpt>
      <trkpt lat="45.51704903662751" lon="10.366113418565668">
        <ele>156.0</ele>
        <time>2017-11-13T16:25:57.987000Z</time>
      </trkpt>
      <trkpt lat="45.517061549226575" lon="10.366126003184744">
        <ele>156.0</ele>
        <time>2017-11-13T16:25:58.012000Z</time>
      </trkpt>
      <trkpt lat="45.51706292666495" lon="10.366127388551831">
        <ele>156.00038074143848</ele>
        <time>2017-11-13T16:25:58.015000Z</time>
      </trkpt>
      <trkpt lat="45.517062759026885" lon="10.3661273047328">
        <ele>156.0004610551844</ele>
        <time>2017-11-13T16:25:58.015000Z</time>
      </trkpt>
      <trkpt lat="45.5182671546936" lon="10.36733865737915">
        <ele>157.0</ele>
        <time>2017-11-13T16:26:00.377000Z</time>
      </trkpt>
      <trkpt lat="45.51936149597168" lon="10.368947982788086">
        <ele>155.97937840087818</ele>
        <time>2017-11-13T16:26:02.896000Z</time>
      </trkpt>
      <trkpt lat="45.5217004660517" lon="10.37257432937622">
        <ele>160.0</ele>
        <time>2017-11-13T16:26:08.432000Z</time>
      </trkpt>
      <trkpt lat="45.521700382232666" lon="10.37257432937622">
        <ele>160.0</ele>
        <time>2017-11-13T16:26:08.432000Z</time>
      </trkpt>
      <trkpt lat="45.521957874298096" lon="10.372745990753174">
        <ele>160.0908262683075</ele>
        <time>2017-11-13T16:26:08.888000Z</time>
      </trkpt>
      <trkpt lat="45.52236557006836" lon="10.372660160064697">
        <ele>160.38698927905844</ele>
        <time>2017-11-13T16:26:09.549000Z</time>
      </trkpt>
      <trkpt lat="45.522751808166504" lon="10.372660160064697">
        <ele>160.99789482841427</ele>
        <time>2017-11-13T16:26:10.168000Z</time>
      </trkpt>
      <trkpt lat="45.52277326583862" lon="10.372703075408936">
        <ele>161.02444127658853</ele>
        <time>2017-11-13T16:26:10.227000Z</time>
      </trkpt>
      <trkpt lat="45.522751808166504" lon="10.372874736785889">
        <ele>161.08052209230712</ele>
        <time>2017-11-13T16:26:10.423000Z</time>
      </trkpt>
      <trkpt lat="45.52281626500189" lon="10.37407636642456">
        <ele>161.80144947956487</ele>
        <time>2017-11-13T16:26:11.777000Z</time>
      </trkpt>
      <trkpt lat="45.52273043431342" lon="10.374226570129395">
        <ele>161.8322550734872</ele>
        <time>2017-11-13T16:26:11.995000Z</time>
      </trkpt>
      <trkpt lat="45.522751891985536" lon="10.374312400817871">
        <ele>161.84673887690388</ele>
        <time>2017-11-13T16:26:12.097000Z</time>
      </trkpt>
      <trkpt lat="45.522751808166504" lon="10.374312400817871">
        <ele>161.84675789084767</ele>
        <time>2017-11-13T16:26:12.097000Z</time>
      </trkpt>
      <trkpt lat="45.52464008331299" lon="10.378711223602295">
        <ele>163.0</ele>
        <time>2017-11-13T16:26:17.891000Z</time>
      </trkpt>
      <trkpt lat="45.52642107009888" lon="10.38257360458374">
        <ele>166.0</ele>
        <time>2017-11-13T16:26:23.084000Z</time>
      </trkpt>
      <trkpt lat="45.526485526934266" lon="10.382938385009766">
        <ele>166.0</ele>
        <time>2017-11-13T16:26:23.507000Z</time>
      </trkpt>
      <trkpt lat="45.526485443115234" lon="10.382938385009766">
        <ele>165.99999139429266</ele>
        <time>2017-11-13T16:26:23.507000Z</time>
      </trkpt>
      <trkpt lat="45.52781581878662" lon="10.387165546417236">
        <ele>165.0</ele>
        <time>2017-11-13T16:26:28.712000Z</time>
      </trkpt>
      <trkpt lat="45.52809476852417" lon="10.387766361236572">
        <ele>166.0</ele>
        <time>2017-11-13T16:26:29.522000Z</time>
      </trkpt>
      <trkpt lat="45.52841663360596" lon="10.389096736907959">
        <ele>167.33333333333334</ele>
        <time>2017-11-13T16:26:31.103000Z</time>
      </trkpt>
      <trkpt lat="45.52906036376953" lon="10.390727519989014">
        <ele>166.0</ele>
        <time>2017-11-13T16:26:33.205000Z</time>
      </trkpt>
      <trkpt lat="45.53090572357178" lon="10.39607048034668">
        <ele>172.0</ele>
        <time>2017-11-13T16:26:39.895000Z</time>
      </trkpt>
      <trkpt lat="45.53090572357178" lon="10.396199226379395">
        <ele>172.0</ele>
        <time>2017-11-13T16:26:40.040000Z</time>
      </trkpt>
      <trkpt lat="45.53103446960449" lon="10.396456718444824">
        <ele>172.0</ele>
        <time>2017-11-13T16:26:40.395000Z</time>
      </trkpt>
      <trkpt lat="45.53154953755438" lon="10.397958755493164">
        <ele>172.0</ele>
        <time>2017-11-13T16:26:42.273000Z</time>
      </trkpt>
      <trkpt lat="45.53281545639038" lon="10.401585102081299">
        <ele>174.0</ele>
        <time>2017-11-13T16:26:46.823000Z</time>
      </trkpt>
      <trkpt lat="45.53303003311157" lon="10.402164459228516">
        <ele>174.09950570047036</ele>
        <time>2017-11-13T16:26:47.559000Z</time>
      </trkpt>
      <trkpt lat="45.5333948135376" lon="10.402872562408447">
        <ele>174.23296361198823</ele>
        <time>2017-11-13T16:26:48.546000Z</time>
      </trkpt>
      <trkpt lat="45.53358793258667" lon="10.403473377227783">
        <ele>175.0</ele>
        <time>2017-11-13T16:26:49.288000Z</time>
      </trkpt>
      <trkpt lat="45.53410291671753" lon="10.404610633850098">
        <ele>175.22559985556805</ele>
        <time>2017-11-13T16:26:50.809000Z</time>
      </trkpt>
      <trkpt lat="45.53433895111084" lon="10.405662059783936">
        <ele>176.07620148035278</ele>
        <time>2017-11-13T16:26:52.049000Z</time>
      </trkpt>
      <trkpt lat="45.53483247756958" lon="10.40703535079956">
        <ele>177.0</ele>
        <time>2017-11-13T16:26:53.782000Z</time>
      </trkpt>
      <trkpt lat="45.53508996963501" lon="10.407636165618896">
        <ele>177.78019809055763</ele>
        <time>2017-11-13T16:26:54.573000Z</time>
      </trkpt>
      <trkpt lat="45.535433292388916" lon="10.408129692077637">
        <ele>177.8923117326091</ele>
        <time>2017-11-13T16:26:55.354000Z</time>
      </trkpt>
      <trkpt lat="45.535712242126465" lon="10.408666133880615">
        <ele>178.0</ele>
        <time>2017-11-13T16:26:56.104000Z</time>
      </trkpt>
      <trkpt lat="45.53601264953613" lon="10.4095458984375">
        <ele>178.0707469523173</ele>
        <time>2017-11-13T16:26:57.203000Z</time>
      </trkpt>
      <trkpt lat="45.53646334446967" lon="10.410597324371338">
        <ele>178.27295875770585</ele>
        <time>2017-11-13T16:26:58.587000Z</time>
      </trkpt>
      <trkpt lat="45.53704261779785" lon="10.412850379943848">
        <ele>179.0</ele>
        <time>2017-11-13T16:27:01.282000Z</time>
      </trkpt>
      <trkpt lat="45.53730010986328" lon="10.414073467254639">
        <ele>180.87541014785347</ele>
        <time>2017-11-13T16:27:02.716000Z</time>
      </trkpt>
      <trkpt lat="45.537772262468934" lon="10.415811538696289">
        <ele>183.0</ele>
        <time>2017-11-13T16:27:04.809000Z</time>
      </trkpt>
      <trkpt lat="45.5377721786499" lon="10.415811538696289">
        <ele>183.0000365609557</ele>
        <time>2017-11-13T16:27:04.809000Z</time>
      </trkpt>
      <trkpt lat="45.53858765400946" lon="10.417656898498535">
        <ele>184.0</ele>
        <time>2017-11-13T16:27:07.259000Z</time>
      </trkpt>
      <trkpt lat="45.53867348469794" lon="10.41780710220337">
        <ele>183.94131851613213</ele>
        <time>2017-11-13T16:27:07.477000Z</time>
      </trkpt>
      <trkpt lat="45.53925275802612" lon="10.419116020202637">
        <ele>182.80595611681815</ele>
        <time>2017-11-13T16:27:09.216000Z</time>
      </trkpt>
      <trkpt lat="45.539467334747314" lon="10.419459342956543">
        <ele>182.41285745147175</ele>
        <time>2017-11-13T16:27:09.733000Z</time>
      </trkpt>
      <trkpt lat="45.54335125721991" lon="10.424137115478516">
        <ele>187.0</ele>
        <time>2017-11-13T16:27:17.879000Z</time>
      </trkpt>
      <trkpt lat="45.54335117340088" lon="10.424137115478516">
        <ele>187.0</ele>
        <time>2017-11-13T16:27:17.879000Z</time>
      </trkpt>
      <trkpt lat="45.546293495772474" lon="10.426476281443286">
        <ele>191.0</ele>
        <time>2017-11-13T16:27:23.278000Z</time>
      </trkpt>
      <trkpt lat="45.54630687014185" lon="10.42648691480214">
        <ele>190.98261049496543</ele>
        <time>2017-11-13T16:27:23.303000Z</time>
      </trkpt>
      <trkpt lat="45.54630906321108" lon="10.426488658413291">
        <ele>190.97975904156542</ele>
        <time>2017-11-13T16:27:23.307000Z</time>
      </trkpt>
      <trkpt lat="45.54630889557302" lon="10.426488490775228">
        <ele>190.97952655010735</ele>
        <time>2017-11-13T16:27:23.307000Z</time>
      </trkpt>
      <trkpt lat="45.54680585861206" lon="10.426883697509766">
        <ele>189.0</ele>
        <time>2017-11-13T16:27:24.219000Z</time>
      </trkpt>
      <trkpt lat="45.54691323079169" lon="10.426948070526123">
        <ele>188.97752582641837</ele>
        <time>2017-11-13T16:27:24.406000Z</time>
      </trkpt>
      <trkpt lat="45.549702644348145" lon="10.429565906524658">
        <ele>188.0</ele>
        <time>2017-11-13T16:27:29.757000Z</time>
      </trkpt>
      <trkpt lat="45.55126913823187" lon="10.430939197540283">
        <ele>192.0</ele>
        <time>2017-11-13T16:27:32.704000Z</time>
      </trkpt>
      <trkpt lat="45.55126905441284" lon="10.430939197540283">
        <ele>191.99996890785542</ele>
        <time>2017-11-13T16:27:32.704000Z</time>
      </trkpt>
      <trkpt lat="45.55206298828125" lon="10.43154001235962">
        <ele>191.0</ele>
        <time>2017-11-13T16:27:34.144000Z</time>
      </trkpt>
      <trkpt lat="45.55489540100098" lon="10.433406829833984">
        <ele>188.0</ele>
        <time>2017-11-13T16:27:39.145000Z</time>
      </trkpt>
      <trkpt lat="45.55910110473633" lon="10.436303615570068">
        <ele>191.0</ele>
        <time>2017-11-13T16:27:46.631000Z</time>
      </trkpt>
      <trkpt lat="45.56036710739136" lon="10.437376499176025">
        <ele>194.0</ele>
        <time>2017-11-13T16:27:48.991000Z</time>
      </trkpt>
      <trkpt lat="45.56113958358765" lon="10.43825626373291">
        <ele>189.0</ele>
        <time>2017-11-13T16:27:50.575000Z</time>
      </trkpt>
      <trkpt lat="45.56330680847168" lon="10.440530776977539">
        <ele>190.0</ele>
        <time>2017-11-13T16:27:54.886000Z</time>
      </trkpt>
      <trkpt lat="45.563907623291016" lon="10.441088676452637">
        <ele>190.0</ele>
        <time>2017-11-13T16:27:56.035000Z</time>
      </trkpt>
      <trkpt lat="45.56440123356879" lon="10.441367626190186">
        <ele>192.2172912992602</ele>
        <time>2017-11-13T16:27:56.886000Z</time>
      </trkpt>
      <trkpt lat="45.564401149749756" lon="10.441367626190186">
        <ele>192.21732560930786</ele>
        <time>2017-11-13T16:27:56.886000Z</time>
      </trkpt>
      <trkpt lat="45.565452575683594" lon="10.441818237304688">
        <ele>192.0</ele>
        <time>2017-11-13T16:27:58.646000Z</time>
      </trkpt>
      <trkpt lat="45.56809186935425" lon="10.442032814025879">
        <ele>192.0</ele>
        <time>2017-11-13T16:28:02.884000Z</time>
      </trkpt>
      <trkpt lat="45.56907892227173" lon="10.441968441009521">
        <ele>193.77952530195705</ele>
        <time>2017-11-13T16:28:04.468000Z</time>
      </trkpt>
      <trkpt lat="45.57101011276245" lon="10.441453456878662">
        <ele>196.0</ele>
        <time>2017-11-13T16:28:07.617000Z</time>
      </trkpt>
      <trkpt lat="45.571932876482606" lon="10.441303253173828">
        <ele>195.0</ele>
        <time>2017-11-13T16:28:09.106000Z</time>
      </trkpt>
      <trkpt lat="45.57281255722046" lon="10.441131591796875">
        <ele>194.82663080739425</ele>
        <time>2017-11-13T16:28:10.529000Z</time>
      </trkpt>
      <trkpt lat="45.57324171066284" lon="10.440981388092041">
        <ele>194.74035223970694</ele>
        <time>2017-11-13T16:28:11.237000Z</time>
      </trkpt>
      <trkpt lat="45.57525873184204" lon="10.440230369567871">
        <ele>193.0</ele>
        <time>2017-11-13T16:28:14.579000Z</time>
      </trkpt>
      <trkpt lat="45.57543581566973" lon="10.440138310474804">
        <ele>193.0</ele>
        <time>2017-11-13T16:28:14.881000Z</time>
      </trkpt>
      <trkpt lat="45.57543587952975" lon="10.440138277276327">
        <ele>193.0</ele>
        <time>2017-11-13T16:28:14.882000Z</time>
      </trkpt>
      <trkpt lat="45.57545020048411" lon="10.440130832334079">
        <ele>193.0</ele>
        <time>2017-11-13T16:28:14.906000Z</time>
      </trkpt>
      <trkpt lat="45.575452856719494" lon="10.440129451453686">
        <ele>193.0</ele>
        <time>2017-11-13T16:28:14.910000Z</time>
      </trkpt>
      <trkpt lat="45.57545277290046" lon="10.44012961909175">
        <ele>193.0</ele>
        <time>2017-11-13T16:28:14.910000Z</time>
      </trkpt>
      <trkpt lat="45.57579525746405" lon="10.439951419830322">
        <ele>194.0</ele>
        <time>2017-11-13T16:28:15.494000Z</time>
      </trkpt>
      <trkpt lat="45.575902462005615" lon="10.439929962158203">
        <ele>193.0</ele>
        <time>2017-11-13T16:28:15.668000Z</time>
      </trkpt>
      <trkpt lat="45.57626724243164" lon="10.439822673797607">
        <ele>193.2678553029599</ele>
        <time>2017-11-13T16:28:16.265000Z</time>
      </trkpt>
      <trkpt lat="45.576159954071045" lon="10.439457893371582">
        <ele>193.68115566760537</ele>
        <time>2017-11-13T16:28:16.709000Z</time>
      </trkpt>
      <trkpt lat="45.57616003789008" lon="10.439457893371582">
        <ele>193.68128074997136</ele>
        <time>2017-11-13T16:28:16.709000Z</time>
      </trkpt>
      <trkpt lat="45.57585954666138" lon="10.438363552093506">
        <ele>195.9091837258915</ele>
        <time>2017-11-13T16:28:18.028000Z</time>
      </trkpt>
      <trkpt lat="45.575687885284424" lon="10.43750524520874">
        <ele>197.17494246228216</ele>
        <time>2017-11-13T16:28:19.030000Z</time>
      </trkpt>
      <trkpt lat="45.57573080062866" lon="10.43750524520874">
        <ele>197.243595309507</ele>
        <time>2017-11-13T16:28:19.099000Z</time>
      </trkpt>
      <trkpt lat="45.57579517364502" lon="10.43726921081543">
        <ele>197.8605823829197</ele>
        <time>2017-11-13T16:28:19.383000Z</time>
      </trkpt>
      <trkpt lat="45.575881004333496" lon="10.437097549438477">
        <ele>198.3701795630782</ele>
        <time>2017-11-13T16:28:19.620000Z</time>
      </trkpt>
      <trkpt lat="45.57609558105469" lon="10.436947345733643">
        <ele>198.655410010598</ele>
        <time>2017-11-13T16:28:20.003000Z</time>
      </trkpt>
      <trkpt lat="45.57616003789008" lon="10.436947345733643">
        <ele>198.73235113785984</ele>
        <time>2017-11-13T16:28:20.106000Z</time>
      </trkpt>
      <trkpt lat="45.57624586857855" lon="10.436947345733643">
        <ele>198.83480590290037</ele>
        <time>2017-11-13T16:28:20.244000Z</time>
      </trkpt>
      <trkpt lat="45.57645360576244" lon="10.436969529007424">
        <ele>199.01535771342</ele>
        <time>2017-11-13T16:28:20.578000Z</time>
      </trkpt>
      <trkpt lat="45.576453757181724" lon="10.436969545176854">
        <ele>199.01548931733635</ele>
        <time>2017-11-13T16:28:20.578000Z</time>
      </trkpt>
      <trkpt lat="45.57646887077932" lon="10.436971159093096">
        <ele>199.0286250854033</ele>
        <time>2017-11-13T16:28:20.602000Z</time>
      </trkpt>
      <trkpt lat="45.57647192850709" lon="10.436971485614777">
        <ele>199.0312826659377</ele>
        <time>2017-11-13T16:28:20.607000Z</time>
      </trkpt>
      <trkpt lat="45.57647184468806" lon="10.436971485614777">
        <ele>199.0313553134018</ele>
        <time>2017-11-13T16:28:20.608000Z</time>
      </trkpt>
      <trkpt lat="45.57684668339789" lon="10.43701171875">
        <ele>200.02381701919833</ele>
        <time>2017-11-13T16:28:21.211000Z</time>
      </trkpt>
      <trkpt lat="45.57703980244696" lon="10.43703317642212">
        <ele>200.19170221256795</ele>
        <time>2017-11-13T16:28:21.522000Z</time>
      </trkpt>
      <trkpt lat="45.577447498217225" lon="10.437054634094238">
        <ele>200.5452991739969</ele>
        <time>2017-11-13T16:28:22.176000Z</time>
      </trkpt>
      <trkpt lat="45.57749041356146" lon="10.437054634094238">
        <ele>200.5410038497739</ele>
        <time>2017-11-13T16:28:22.245000Z</time>
      </trkpt>
      <trkpt lat="45.57783373631537" lon="10.437097549438477">
        <ele>200.17317665676578</ele>
        <time>2017-11-13T16:28:22.797000Z</time>
      </trkpt>
      <trkpt lat="45.577962482348084" lon="10.437097549438477">
        <ele>200.15694025093407</ele>
        <time>2017-11-13T16:28:23.003000Z</time>
      </trkpt>
      <trkpt lat="45.57905682362616" lon="10.437204837799072">
        <ele>199.6852728849483</ele>
        <time>2017-11-13T16:28:24.762000Z</time>
      </trkpt>
      <trkpt lat="45.579443061724305" lon="10.437226295471191">
        <ele>200.48224786969345</ele>
        <time>2017-11-13T16:28:25.382000Z</time>
      </trkpt>
      <trkpt lat="45.579679096117616" lon="10.43724775314331">
        <ele>200.7659430242401</ele>
        <time>2017-11-13T16:28:25.761000Z</time>
      </trkpt>
      <trkpt lat="45.58015116490424" lon="10.437290668487549">
        <ele>202.0</ele>
        <time>2017-11-13T16:28:26.519000Z</time>
      </trkpt>
      <trkpt lat="45.580451572313905" lon="10.437312126159668">
        <ele>203.1177456126924</ele>
        <time>2017-11-13T16:28:27.001000Z</time>
      </trkpt>
      <trkpt lat="45.58045148849487" lon="10.437312126159668">
        <ele>203.1180570946719</ele>
        <time>2017-11-13T16:28:27.001000Z</time>
      </trkpt>
      <trkpt lat="45.58075197972357" lon="10.437333583831787">
        <ele>204.2361137860253</ele>
        <time>2017-11-13T16:28:27.483000Z</time>
      </trkpt>
      <trkpt lat="45.58090218342841" lon="10.437355041503906">
        <ele>207.13040598074733</ele>
        <time>2017-11-13T16:28:27.725000Z</time>
      </trkpt>
      <trkpt lat="45.581224048510194" lon="10.437376499176025">
        <ele>208.32779810247314</ele>
        <time>2017-11-13T16:28:28.242000Z</time>
      </trkpt>
      <trkpt lat="45.581460082903504" lon="10.437376499176025">
        <ele>209.2049313567393</ele>
        <time>2017-11-13T16:28:28.620000Z</time>
      </trkpt>
      <trkpt lat="45.58163174428046" lon="10.437355041503906">
        <ele>209.43221103072946</ele>
        <time>2017-11-13T16:28:28.896000Z</time>
      </trkpt>
      <trkpt lat="45.581674659624696" lon="10.437355041503906">
        <ele>210.8221480760307</ele>
        <time>2017-11-13T16:28:28.965000Z</time>
      </trkpt>
      <trkpt lat="45.58203944005072" lon="10.437290668487549">
        <ele>211.30693554285995</ele>
        <time>2017-11-13T16:28:29.554000Z</time>
      </trkpt>
      <trkpt lat="45.58203935623169" lon="10.437290668487549">
        <ele>211.30682066260633</ele>
        <time>2017-11-13T16:28:29.554000Z</time>
      </trkpt>
      <trkpt lat="45.58253288269043" lon="10.437204837799072">
        <ele>208.62541343934208</ele>
        <time>2017-11-13T16:28:30.351000Z</time>
      </trkpt>
      <trkpt lat="45.58306932449341" lon="10.43701171875">
        <ele>208.31618671593537</ele>
        <time>2017-11-13T16:28:31.238000Z</time>
      </trkpt>
      <trkpt lat="45.584163749590516" lon="10.436453819274902">
        <ele>208.0</ele>
        <time>2017-11-13T16:28:33.101000Z</time>
      </trkpt>
      <trkpt lat="45.58439978398383" lon="10.436389446258545">
        <ele>205.35611527078603</ele>
        <time>2017-11-13T16:28:33.486000Z</time>
      </trkpt>
      <trkpt lat="45.58450707234442" lon="10.436389446258545">
        <ele>205.0686302992152</ele>
        <time>2017-11-13T16:28:33.658000Z</time>
      </trkpt>
      <trkpt lat="45.584687261073334" lon="10.436494588223479">
        <ele>204.5470966023266</ele>
        <time>2017-11-13T16:28:33.970000Z</time>
      </trkpt>
      <trkpt lat="45.58468731030425" lon="10.43649461695035">
        <ele>204.54695410952607</ele>
        <time>2017-11-13T16:28:33.970000Z</time>
      </trkpt>
      <trkpt lat="45.58470143253497" lon="10.436502857447236">
        <ele>204.50607906186542</ele>
        <time>2017-11-13T16:28:33.994000Z</time>
      </trkpt>
      <trkpt lat="45.58470429852605" lon="10.43650452978909">
        <ele>204.49778380537998</ele>
        <time>2017-11-13T16:28:33.999000Z</time>
      </trkpt>
      <trkpt lat="45.58470421470702" lon="10.436504362151027">
        <ele>204.49739744634516</ele>
        <time>2017-11-13T16:28:33.999000Z</time>
      </trkpt>
      <trkpt lat="45.585114746548264" lon="10.436378970553275">
        <ele>203.3725033517925</ele>
        <time>2017-11-13T16:28:34.672000Z</time>
      </trkpt>
      <trkpt lat="45.58511499387503" lon="10.43637889500996">
        <ele>203.3723934201155</ele>
        <time>2017-11-13T16:28:34.672000Z</time>
      </trkpt>
      <trkpt lat="45.58512971596348" lon="10.436374398305112">
        <ele>203.36584975369001</ele>
        <time>2017-11-13T16:28:34.696000Z</time>
      </trkpt>
      <trkpt lat="45.58513313824811" lon="10.436373353004456">
        <ele>203.36432861833336</ele>
        <time>2017-11-13T16:28:34.702000Z</time>
      </trkpt>
      <trkpt lat="45.58546262785436" lon="10.43609189499679">
        <ele>203.19747174934733</ele>
        <time>2017-11-13T16:28:35.317000Z</time>
      </trkpt>
      <trkpt lat="45.58547576698803" lon="10.436080671149691">
        <ele>203.19081794699045</ele>
        <time>2017-11-13T16:28:35.342000Z</time>
      </trkpt>
      <trkpt lat="45.58547853103871" lon="10.436078310012817">
        <ele>203.1894182010999</ele>
        <time>2017-11-13T16:28:35.347000Z</time>
      </trkpt>
      <trkpt lat="45.5860156864619" lon="10.435896797401513">
        <ele>201.9494984489162</ele>
        <time>2017-11-13T16:28:36.232000Z</time>
      </trkpt>
      <trkpt lat="45.586015993520135" lon="10.435896693641032">
        <ele>201.9493613016917</ele>
        <time>2017-11-13T16:28:36.232000Z</time>
      </trkpt>
      <trkpt lat="45.586030583175436" lon="10.435891763534974">
        <ele>201.942844848244</ele>
        <time>2017-11-13T16:28:36.256000Z</time>
      </trkpt>
      <trkpt lat="45.58603415846018" lon="10.435890555381775">
        <ele>201.94124795123454</ele>
        <time>2017-11-13T16:28:36.262000Z</time>
      </trkpt>
      <trkpt lat="45.58605194091797" lon="10.435895919799805">
        <ele>201.93334825700143</ele>
        <time>2017-11-13T16:28:36.291000Z</time>
      </trkpt>
      <trkpt lat="45.586052024737" lon="10.435895919799805">
        <ele>201.9333118242408</ele>
        <time>2017-11-13T16:28:36.291000Z</time>
      </trkpt>
      <trkpt lat="45.586609840393066" lon="10.43553113937378">
        <ele>203.0</ele>
        <time>2017-11-13T16:28:37.274000Z</time>
      </trkpt>
      <trkpt lat="45.58718919754028" lon="10.43553113937378">
        <ele>203.44008284349874</ele>
        <time>2017-11-13T16:28:38.203000Z</time>
      </trkpt>
      <trkpt lat="45.58723219670355" lon="10.435552597045898">
        <ele>203.47467972531533</ele>
        <time>2017-11-13T16:28:38.276000Z</time>
      </trkpt>
      <trkpt lat="45.58768272399902" lon="10.435616970062256">
        <ele>204.48527600205875</ele>
        <time>2017-11-13T16:28:39.002000Z</time>
      </trkpt>
      <trkpt lat="45.58781045466235" lon="10.435713318846975">
        <ele>204.46821800423575</ele>
        <time>2017-11-13T16:28:39.234000Z</time>
      </trkpt>
      <trkpt lat="45.58782399234415" lon="10.435723530513439">
        <ele>204.46641009161075</ele>
        <time>2017-11-13T16:28:39.259000Z</time>
      </trkpt>
      <trkpt lat="45.587843069806695" lon="10.435737920925021">
        <ele>204.46386235941304</ele>
        <time>2017-11-13T16:28:39.294000Z</time>
      </trkpt>
      <trkpt lat="45.58784290216863" lon="10.435737753286958">
        <ele>204.46383819457074</ele>
        <time>2017-11-13T16:28:39.294000Z</time>
      </trkpt>
      <trkpt lat="45.58881998062134" lon="10.436475276947021">
        <ele>204.0</ele>
        <time>2017-11-13T16:28:41.066000Z</time>
      </trkpt>
      <trkpt lat="45.58929213322699" lon="10.436904430389404">
        <ele>204.6362906370247</ele>
        <time>2017-11-13T16:28:41.963000Z</time>
      </trkpt>
      <trkpt lat="45.58929204940796" lon="10.436904430389404">
        <ele>204.63633601743712</ele>
        <time>2017-11-13T16:28:41.964000Z</time>
      </trkpt>
      <trkpt lat="45.59083700180054" lon="10.43849229812622">
        <ele>206.0</ele>
        <time>2017-11-13T16:28:45.015000Z</time>
      </trkpt>
      <trkpt lat="45.59120178222656" lon="10.438921451568604">
        <ele>206.65344767789142</ele>
        <time>2017-11-13T16:28:45.772000Z</time>
      </trkpt>
      <trkpt lat="45.59130907058716" lon="10.439071655273438">
        <ele>206.4392096229193</ele>
        <time>2017-11-13T16:28:46.013000Z</time>
      </trkpt>
      <trkpt lat="45.59149995211261" lon="10.439379235955402">
        <ele>204.69552408562882</ele>
        <time>2017-11-13T16:28:46.474000Z</time>
      </trkpt>
      <trkpt lat="45.59151010919085" lon="10.439395602858147">
        <ele>204.6736885901131</ele>
        <time>2017-11-13T16:28:46.499000Z</time>
      </trkpt>
      <trkpt lat="45.5915243178606" lon="10.439418498426676">
        <ele>204.64314304313743</ele>
        <time>2017-11-13T16:28:46.533000Z</time>
      </trkpt>
      <trkpt lat="45.59152423404157" lon="10.43941824696958">
        <ele>204.6435733688228</ele>
        <time>2017-11-13T16:28:46.533000Z</time>
      </trkpt>
      <trkpt lat="45.5916953086853" lon="10.439693927764893">
        <ele>208.21285123855048</ele>
        <time>2017-11-13T16:28:46.946000Z</time>
      </trkpt>
      <trkpt lat="45.59178113937378" lon="10.439844131469727">
        <ele>208.2922581807833</ele>
        <time>2017-11-13T16:28:47.164000Z</time>
      </trkpt>
      <trkpt lat="45.59182405471802" lon="10.439865589141846">
        <ele>208.31886351192261</ele>
        <time>2017-11-13T16:28:47.237000Z</time>
      </trkpt>
      <trkpt lat="45.592103004455566" lon="10.440123081207275">
        <ele>206.1798535409332</ele>
        <time>2017-11-13T16:28:47.769000Z</time>
      </trkpt>
      <trkpt lat="45.59212454594672" lon="10.440144538879395">
        <ele>206.19521894301317</ele>
        <time>2017-11-13T16:28:47.811000Z</time>
      </trkpt>
      <trkpt lat="45.5921916663542" lon="10.440194865109312">
        <ele>206.23957332994118</ele>
        <time>2017-11-13T16:28:47.933000Z</time>
      </trkpt>
      <trkpt lat="45.59220521976417" lon="10.440205027341202">
        <ele>206.24852967263755</ele>
        <time>2017-11-13T16:28:47.958000Z</time>
      </trkpt>
      <trkpt lat="45.59222470968962" lon="10.440219640731812">
        <ele>206.2614089748895</ele>
        <time>2017-11-13T16:28:47.993000Z</time>
      </trkpt>
      <trkpt lat="45.592224542051554" lon="10.440219473093748">
        <ele>206.2615287028674</ele>
        <time>2017-11-13T16:28:47.993000Z</time>
      </trkpt>
      <trkpt lat="45.59229620732367" lon="10.44027328491211">
        <ele>206.30890122720146</ele>
        <time>2017-11-13T16:28:48.123000Z</time>
      </trkpt>
      <trkpt lat="45.592446411028504" lon="10.440359115600586">
        <ele>206.4035614833779</ele>
        <time>2017-11-13T16:28:48.382000Z</time>
      </trkpt>
      <trkpt lat="45.59244632720947" lon="10.440359115600586">
        <ele>206.40361053139142</ele>
        <time>2017-11-13T16:28:48.382000Z</time>
      </trkpt>
      <trkpt lat="45.592896938323975" lon="10.44050931930542">
        <ele>207.34103740766216</ele>
        <time>2017-11-13T16:28:49.124000Z</time>
      </trkpt>
      <trkpt lat="45.59303512489906" lon="10.440516630411043">
        <ele>207.34065870305778</ele>
        <time>2017-11-13T16:28:49.346000Z</time>
      </trkpt>
      <trkpt lat="45.593035226824284" lon="10.440516635803636">
        <ele>207.34065842372854</ele>
        <time>2017-11-13T16:28:49.346000Z</time>
      </trkpt>
      <trkpt lat="45.59305042208811" lon="10.440517439749236">
        <ele>207.34061678063554</ele>
        <time>2017-11-13T16:28:49.370000Z</time>
      </trkpt>
      <trkpt lat="45.59307279065251" lon="10.44051862321794">
        <ele>207.34055547888929</ele>
        <time>2017-11-13T16:28:49.406000Z</time>
      </trkpt>
      <trkpt lat="45.59307270683348" lon="10.44051862321794">
        <ele>207.34055524933788</ele>
        <time>2017-11-13T16:28:49.406000Z</time>
      </trkpt>
      <trkpt lat="45.59570789337158" lon="10.440659523010254">
        <ele>208.0</ele>
        <time>2017-11-13T16:28:53.634000Z</time>
      </trkpt>
      <trkpt lat="45.596201503649354" lon="10.440616607666016">
        <ele>208.0</ele>
        <time>2017-11-13T16:28:54.427000Z</time>
      </trkpt>
      <trkpt lat="45.597403049468994" lon="10.440165996551514">
        <ele>207.33333333333334</ele>
        <time>2017-11-13T16:28:56.418000Z</time>
      </trkpt>
      <trkpt lat="45.5977463722229" lon="10.43952226638794">
        <ele>208.0</ele>
        <time>2017-11-13T16:28:57.326000Z</time>
      </trkpt>
      <trkpt lat="45.597939575091004" lon="10.439393520355225">
        <ele>209.18540364649297</ele>
        <time>2017-11-13T16:28:57.668000Z</time>
      </trkpt>
      <trkpt lat="45.59813269414008" lon="10.439350605010986">
        <ele>210.2722026054315</ele>
        <time>2017-11-13T16:28:57.981000Z</time>
      </trkpt>
      <trkpt lat="45.59823989868164" lon="10.439350605010986">
        <ele>210.86834500817008</ele>
        <time>2017-11-13T16:28:58.153000Z</time>
      </trkpt>
      <trkpt lat="45.59851884841919" lon="10.43975830078125">
        <ele>216.08699160857802</ele>
        <time>2017-11-13T16:28:58.793000Z</time>
      </trkpt>
      <trkpt lat="45.59892008997479" lon="10.440259754439674">
        <ele>216.5103080605679</ele>
        <time>2017-11-13T16:28:59.647000Z</time>
      </trkpt>
      <trkpt lat="45.598931613809754" lon="10.440274156556953">
        <ele>216.57033355926524</ele>
        <time>2017-11-13T16:28:59.672000Z</time>
      </trkpt>
      <trkpt lat="45.598948085680604" lon="10.440294742584229">
        <ele>216.65613246542728</ele>
        <time>2017-11-13T16:28:59.707000Z</time>
      </trkpt>
      <trkpt lat="45.59894800186157" lon="10.440294742584229">
        <ele>216.65646113091984</ele>
        <time>2017-11-13T16:28:59.707000Z</time>
      </trkpt>
      <trkpt lat="45.598948085680604" lon="10.440294742583228">
        <ele>216.65678979641234</ele>
        <time>2017-11-13T16:28:59.707000Z</time>
      </trkpt>
      <trkpt lat="45.59894800186157" lon="10.440294742585229">
        <ele>216.65711846190496</ele>
        <time>2017-11-13T16:28:59.707000Z</time>
      </trkpt>
      <trkpt lat="45.59929132461548" lon="10.440917015075684">
        <ele>222.83125141738046</ele>
        <time>2017-11-13T16:29:00.596000Z</time>
      </trkpt>
      <trkpt lat="45.59954881668091" lon="10.441131591796875">
        <ele>224.0</ele>
        <time>2017-11-13T16:29:01.074000Z</time>
      </trkpt>
      <trkpt lat="45.600149631500244" lon="10.442032814025879">
        <ele>231.02069269943414</ele>
        <time>2017-11-13T16:29:02.470000Z</time>
      </trkpt>
      <trkpt lat="45.6006646156311" lon="10.442655086517334">
        <ele>224.73573993563775</ele>
        <time>2017-11-13T16:29:03.551000Z</time>
      </trkpt>
      <trkpt lat="45.60124397277832" lon="10.442912578582764">
        <ele>238.6698946573661</ele>
        <time>2017-11-13T16:29:04.524000Z</time>
      </trkpt>
      <trkpt lat="45.60152292251587" lon="10.442976951599121">
        <ele>240.6716633479441</ele>
        <time>2017-11-13T16:29:04.977000Z</time>
      </trkpt>
      <trkpt lat="45.60175895690918" lon="10.443191528320312">
        <ele>246.28879312098124</ele>
        <time>2017-11-13T16:29:05.425000Z</time>
      </trkpt>
      <trkpt lat="45.601844787597656" lon="10.443363189697266">
        <ele>237.55903462014396</ele>
        <time>2017-11-13T16:29:05.662000Z</time>
      </trkpt>
      <trkpt lat="45.60201644897461" lon="10.443878173828125">
        <ele>235.58603639073968</ele>
        <time>2017-11-13T16:29:06.302000Z</time>
      </trkpt>
      <trkpt lat="45.60205936431885" lon="10.444457530975342">
        <ele>229.90435210056134</ele>
        <time>2017-11-13T16:29:06.955000Z</time>
      </trkpt>
      <trkpt lat="45.602145195007324" lon="10.44475793838501">
        <ele>229.77907506909654</ele>
        <time>2017-11-13T16:29:07.319000Z</time>
      </trkpt>
      <trkpt lat="45.60218811035156" lon="10.446774959564209">
        <ele>230.0</ele>
        <time>2017-11-13T16:29:09.582000Z</time>
      </trkpt>
      <trkpt lat="45.6023383140564" lon="10.447525978088379">
        <ele>231.99582665835317</ele>
        <time>2017-11-13T16:29:10.458000Z</time>
      </trkpt>
      <trkpt lat="45.60249942360625" lon="10.448116609277427">
        <ele>235.50931694907646</ele>
        <time>2017-11-13T16:29:11.169000Z</time>
      </trkpt>
      <trkpt lat="45.602504984312624" lon="10.448136995210287">
        <ele>248.36324886087138</ele>
        <time>2017-11-13T16:29:11.194000Z</time>
      </trkpt>
      <trkpt lat="45.602512741461396" lon="10.448165433481336">
        <ele>248.33675467775936</ele>
        <time>2017-11-13T16:29:11.228000Z</time>
      </trkpt>
      <trkpt lat="45.602512657642365" lon="10.44816518202424">
        <ele>248.33651290599335</ele>
        <time>2017-11-13T16:29:11.228000Z</time>
      </trkpt>
      <trkpt lat="45.60253143310547" lon="10.44823408126831">
        <ele>248.272331985096</ele>
        <time>2017-11-13T16:29:11.311000Z</time>
      </trkpt>
      <trkpt lat="45.60257434844971" lon="10.448555946350098">
        <ele>241.98792495457542</ele>
        <time>2017-11-13T16:29:11.679000Z</time>
      </trkpt>
      <trkpt lat="45.602896213531494" lon="10.449349880218506">
        <ele>236.85812460109753</ele>
        <time>2017-11-13T16:29:12.708000Z</time>
      </trkpt>
      <trkpt lat="45.60296058654785" lon="10.449671745300293">
        <ele>236.56755699762093</ele>
        <time>2017-11-13T16:29:13.083000Z</time>
      </trkpt>
      <trkpt lat="45.60347557067871" lon="10.451087951660156">
        <ele>238.46748678095207</ele>
        <time>2017-11-13T16:29:14.873000Z</time>
      </trkpt>
      <trkpt lat="45.60356140136719" lon="10.451409816741943">
        <ele>238.97668718769046</ele>
        <time>2017-11-13T16:29:15.259000Z</time>
      </trkpt>
      <trkpt lat="45.60422658920288" lon="10.453448295593262">
        <ele>254.82445402503959</ele>
        <time>2017-11-13T16:29:17.782000Z</time>
      </trkpt>
      <trkpt lat="45.6046986579895" lon="10.455679893493652">
        <ele>238.0</ele>
        <time>2017-11-13T16:29:20.397000Z</time>
      </trkpt>
      <trkpt lat="45.60467720031738" lon="10.456452369689941">
        <ele>224.4608976097472</ele>
        <time>2017-11-13T16:29:21.264000Z</time>
      </trkpt>
      <trkpt lat="45.60472011566162" lon="10.456838607788086">
        <ele>220.29611529803321</ele>
        <time>2017-11-13T16:29:21.703000Z</time>
      </trkpt>
      <trkpt lat="45.6048059463501" lon="10.457203388214111">
        <ele>219.71845483589027</ele>
        <time>2017-11-13T16:29:22.135000Z</time>
      </trkpt>
      <trkpt lat="45.604801102243165" lon="10.457203388214149">
        <ele>219.7080620255798</ele>
        <time>2017-11-13T16:29:22.143000Z</time>
      </trkpt>
      <trkpt lat="45.60478579742878" lon="10.457203388214149">
        <ele>219.67522624492162</ele>
        <time>2017-11-13T16:29:22.168000Z</time>
      </trkpt>
      <trkpt lat="45.60478457249701" lon="10.457203388214111">
        <ele>219.67259820971776</ele>
        <time>2017-11-13T16:29:22.170000Z</time>
      </trkpt>
      <trkpt lat="45.6048059463501" lon="10.457203388213111">
        <ele>219.62674158354523</ele>
        <time>2017-11-13T16:29:22.204000Z</time>
      </trkpt>
      <trkpt lat="45.60478457249701" lon="10.457203388215111">
        <ele>219.58088495737266</ele>
        <time>2017-11-13T16:29:22.238000Z</time>
      </trkpt>
      <trkpt lat="45.60450553894043" lon="10.457332134246826">
        <ele>218.95181437341512</ele>
        <time>2017-11-13T16:29:22.708000Z</time>
      </trkpt>
      <trkpt lat="45.604441249743104" lon="10.457353591918945">
        <ele>218.8101744117877</ele>
        <time>2017-11-13T16:29:22.814000Z</time>
      </trkpt>
      <trkpt lat="45.604183757677674" lon="10.457439422607422">
        <ele>218.2429140159646</ele>
        <time>2017-11-13T16:29:23.238000Z</time>
      </trkpt>
      <trkpt lat="45.60403355397284" lon="10.45750379562378">
        <ele>216.01424950007666</ele>
        <time>2017-11-13T16:29:23.489000Z</time>
      </trkpt>
      <trkpt lat="45.603883350268006" lon="10.457568168640137">
        <ele>215.7855849336889</ele>
        <time>2017-11-13T16:29:23.740000Z</time>
      </trkpt>
      <trkpt lat="45.60375460423529" lon="10.457632541656494">
        <ele>215.5866890606981</ele>
        <time>2017-11-13T16:29:23.959000Z</time>
      </trkpt>
      <trkpt lat="45.60371160507202" lon="10.457653999328613">
        <ele>215.52027504665398</ele>
        <time>2017-11-13T16:29:24.032000Z</time>
      </trkpt>
      <trkpt lat="45.603572496117344" lon="10.457723387215525">
        <ele>215.30542578907077</ele>
        <time>2017-11-13T16:29:24.268000Z</time>
      </trkpt>
      <trkpt lat="45.60357244303857" lon="10.457723413691276">
        <ele>215.30534381065726</ele>
        <time>2017-11-13T16:29:24.268000Z</time>
      </trkpt>
      <trkpt lat="45.60355804309672" lon="10.45773059639664">
        <ele>215.28310357504617</ele>
        <time>2017-11-13T16:29:24.292000Z</time>
      </trkpt>
      <trkpt lat="45.60353667475283" lon="10.457741254940629">
        <ele>215.2501008732305</ele>
        <time>2017-11-13T16:29:24.328000Z</time>
      </trkpt>
      <trkpt lat="45.60353675857186" lon="10.457741254940629">
        <ele>215.24997864617765</ele>
        <time>2017-11-13T16:29:24.328000Z</time>
      </trkpt>
      <trkpt lat="45.60349702835083" lon="10.457761287689209">
        <ele>215.18854390923966</ele>
        <time>2017-11-13T16:29:24.396000Z</time>
      </trkpt>
      <trkpt lat="45.60328245162964" lon="10.457825660705566">
        <ele>215.20215823147768</ele>
        <time>2017-11-13T16:29:24.747000Z</time>
      </trkpt>
      <trkpt lat="45.60326099395752" lon="10.457825660705566">
        <ele>215.1708681059472</ele>
        <time>2017-11-13T16:29:24.781000Z</time>
      </trkpt>
      <trkpt lat="45.60319662094116" lon="10.457868576049805">
        <ele>215.06728932050717</ele>
        <time>2017-11-13T16:29:24.895000Z</time>
      </trkpt>
      <trkpt lat="45.60317516326904" lon="10.4579758644104">
        <ele>214.95344814355784</ele>
        <time>2017-11-13T16:29:25.020000Z</time>
      </trkpt>
      <trkpt lat="45.60319662094116" lon="10.458018779754639">
        <ele>214.89963374081069</ele>
        <time>2017-11-13T16:29:25.079000Z</time>
      </trkpt>
      <trkpt lat="45.603346824645996" lon="10.45846939086914">
        <ele>215.44420569955446</ele>
        <time>2017-11-13T16:29:25.639000Z</time>
      </trkpt>
      <trkpt lat="45.60336836613715" lon="10.458512306213379">
        <ele>215.46576961416113</ele>
        <time>2017-11-13T16:29:25.698000Z</time>
      </trkpt>
      <trkpt lat="45.6035219364794" lon="10.459006677068999">
        <ele>215.68660510543125</ele>
        <time>2017-11-13T16:29:26.305000Z</time>
      </trkpt>
      <trkpt lat="45.60352814868232" lon="10.459026675481244">
        <ele>215.69553838175023</ele>
        <time>2017-11-13T16:29:26.330000Z</time>
      </trkpt>
      <trkpt lat="45.60353701002896" lon="10.4590552020818">
        <ele>215.70828118996067</ele>
        <time>2017-11-13T16:29:26.365000Z</time>
      </trkpt>
      <trkpt lat="45.60353701002896" lon="10.459054950624704">
        <ele>215.70838385118802</ele>
        <time>2017-11-13T16:29:26.365000Z</time>
      </trkpt>
      <trkpt lat="45.603861808776855" lon="10.460100173950195">
        <ele>216.5086438741433</ele>
        <time>2017-11-13T16:29:27.648000Z</time>
      </trkpt>
      <trkpt lat="45.60405501164496" lon="10.460765361785889">
        <ele>216.66862434868438</ele>
        <time>2017-11-13T16:29:28.456000Z</time>
      </trkpt>
      <trkpt lat="45.6044697798108" lon="10.462134362836764">
        <ele>217.0</ele>
        <time>2017-11-13T16:29:30.129000Z</time>
      </trkpt>
      <trkpt lat="45.604475863196555" lon="10.462154442465108">
        <ele>217.0</ele>
        <time>2017-11-13T16:29:30.154000Z</time>
      </trkpt>
      <trkpt lat="45.60448408126831" lon="10.462181568145752">
        <ele>217.0</ele>
        <time>2017-11-13T16:29:30.187000Z</time>
      </trkpt>
      <trkpt lat="45.60448416508734" lon="10.462181568145752">
        <ele>217.0</ele>
        <time>2017-11-13T16:29:30.187000Z</time>
      </trkpt>
      <trkpt lat="45.60405501164496" lon="10.460765361785889">
        <ele>217.0</ele>
        <time>2017-11-13T16:29:31.918000Z</time>
      </trkpt>
      <trkpt lat="45.603861808775896" lon="10.460100173950474">
        <ele>217.0</ele>
        <time>2017-11-13T16:29:32.726000Z</time>
      </trkpt>
      <trkpt lat="45.603947723284364" lon="10.460057258605957">
        <ele>216.9954269723875</ele>
        <time>2017-11-13T16:29:32.872000Z</time>
      </trkpt>
      <trkpt lat="45.60405492782593" lon="10.460615158081055">
        <ele>216.97508827570013</ele>
        <time>2017-11-13T16:29:33.521000Z</time>
      </trkpt>
      <trkpt lat="45.60650110244751" lon="10.468661785125732">
        <ele>216.0</ele>
        <time>2017-11-13T16:29:43.361000Z</time>
      </trkpt>
      <trkpt lat="45.60643672943115" lon="10.46870470046997">
        <ele>216.0</ele>
        <time>2017-11-13T16:29:43.475000Z</time>
      </trkpt>
      <trkpt lat="45.607380867004395" lon="10.471880435943604">
        <ele>221.0</ele>
        <time>2017-11-13T16:29:47.345000Z</time>
      </trkpt>
      <trkpt lat="45.607807000464284" lon="10.47356515736462">
        <ele>216.0</ele>
        <time>2017-11-13T16:29:49.354000Z</time>
      </trkpt>
      <trkpt lat="45.6078122056215" lon="10.473585736751332">
        <ele>216.0</ele>
        <time>2017-11-13T16:29:49.379000Z</time>
      </trkpt>
      <trkpt lat="45.60781898908317" lon="10.473612556234002">
        <ele>216.01786366793786</ele>
        <time>2017-11-13T16:29:49.411000Z</time>
      </trkpt>
      <trkpt lat="45.60781890526414" lon="10.473612304776907">
        <ele>216.018038143903</ele>
        <time>2017-11-13T16:29:49.411000Z</time>
      </trkpt>
      <trkpt lat="45.60830363072455" lon="10.475528240203857">
        <ele>220.6275486471142</ele>
        <time>2017-11-13T16:29:51.696000Z</time>
      </trkpt>
      <trkpt lat="45.60836800374091" lon="10.475678443908691">
        <ele>220.07121875370171</ele>
        <time>2017-11-13T16:29:51.894000Z</time>
      </trkpt>
      <trkpt lat="45.60849674977362" lon="10.475914478302002">
        <ele>221.03106641103736</ele>
        <time>2017-11-13T16:29:52.230000Z</time>
      </trkpt>
      <trkpt lat="45.60877569951117" lon="10.476429462432861">
        <ele>221.66905741420626</ele>
        <time>2017-11-13T16:29:52.960000Z</time>
      </trkpt>
      <trkpt lat="45.60877561569214" lon="10.476429462432861">
        <ele>221.66908954375597</ele>
        <time>2017-11-13T16:29:52.960000Z</time>
      </trkpt>
      <trkpt lat="45.60920485295355" lon="10.477137565612793">
        <ele>221.9203395760369</ele>
        <time>2017-11-13T16:29:54.011000Z</time>
      </trkpt>
      <trkpt lat="45.610127532854676" lon="10.478103160858154">
        <ele>225.11471525245136</ele>
        <time>2017-11-13T16:29:55.844000Z</time>
      </trkpt>
      <trkpt lat="45.61077126301825" lon="10.479090213775635">
        <ele>222.27020020424698</ele>
        <time>2017-11-13T16:29:57.357000Z</time>
      </trkpt>
      <trkpt lat="45.61156511306763" lon="10.480399131774902">
        <ele>222.71466552487846</ele>
        <time>2017-11-13T16:29:59.300000Z</time>
      </trkpt>
      <trkpt lat="45.611672485247254" lon="10.480742454528809">
        <ele>224.9421691570128</ele>
        <time>2017-11-13T16:29:59.722000Z</time>
      </trkpt>
      <trkpt lat="45.611672485247254" lon="10.480785369873047">
        <ele>224.93632693794862</ele>
        <time>2017-11-13T16:29:59.770000Z</time>
      </trkpt>
      <trkpt lat="45.61169385910034" lon="10.480828285217285">
        <ele>224.92915522450744</ele>
        <time>2017-11-13T16:29:59.829000Z</time>
      </trkpt>
      <trkpt lat="45.61180114746094" lon="10.480914115905762">
        <ele>223.46557180382675</ele>
        <time>2017-11-13T16:30:00.026000Z</time>
      </trkpt>
      <trkpt lat="45.611865520477295" lon="10.480892658233643">
        <ele>223.39554477741936</ele>
        <time>2017-11-13T16:30:00.132000Z</time>
      </trkpt>
      <trkpt lat="45.61205863952637" lon="10.480999946594238">
        <ele>223.17604563193518</ele>
        <time>2017-11-13T16:30:00.464000Z</time>
      </trkpt>
      <trkpt lat="45.61210163868964" lon="10.481064319610596">
        <ele>223.11008402600103</ele>
        <time>2017-11-13T16:30:00.564000Z</time>
      </trkpt>
      <trkpt lat="45.61248779296875" lon="10.481407642364502">
        <ele>222.6283240283267</ele>
        <time>2017-11-13T16:30:01.293000Z</time>
      </trkpt>
      <trkpt lat="45.61249158957467" lon="10.481409857049778">
        <ele>222.62397989004356</ele>
        <time>2017-11-13T16:30:01.300000Z</time>
      </trkpt>
      <trkpt lat="45.61250576391784" lon="10.48141812541382">
        <ele>222.60776137568124</ele>
        <time>2017-11-13T16:30:01.325000Z</time>
      </trkpt>
      <trkpt lat="45.61252702027559" lon="10.48143052496016">
        <ele>222.58343950379125</ele>
        <time>2017-11-13T16:30:01.362000Z</time>
      </trkpt>
      <trkpt lat="45.61252693645656" lon="10.481430357322097">
        <ele>222.58328679941647</ele>
        <time>2017-11-13T16:30:01.362000Z</time>
      </trkpt>
      <trkpt lat="45.61274536885321" lon="10.481557846069336">
        <ele>222.33333333333334</ele>
        <time>2017-11-13T16:30:01.740000Z</time>
      </trkpt>
      <trkpt lat="45.61356067657471" lon="10.481922626495361">
        <ele>224.3992665816245</ele>
        <time>2017-11-13T16:30:03.110000Z</time>
      </trkpt>
      <trkpt lat="45.61416149139404" lon="10.48243761062622">
        <ele>225.0</ele>
        <time>2017-11-13T16:30:04.233000Z</time>
      </trkpt>
      <trkpt lat="45.61444052495062" lon="10.482566356658936">
        <ele>224.9836367826421</ele>
        <time>2017-11-13T16:30:04.703000Z</time>
      </trkpt>
      <trkpt lat="45.61444044113159" lon="10.482566356658936">
        <ele>224.983536814609</ele>
        <time>2017-11-13T16:30:04.703000Z</time>
      </trkpt>
      <trkpt lat="45.61544895172119" lon="10.483016967773438">
        <ele>222.39001292538833</ele>
        <time>2017-11-13T16:30:06.397000Z</time>
      </trkpt>
      <trkpt lat="45.61630734242499" lon="10.483145713806152">
        <ele>222.0</ele>
        <time>2017-11-13T16:30:07.781000Z</time>
      </trkpt>
      <trkpt lat="45.616865241900086" lon="10.483231544494629">
        <ele>223.90621711213961</ele>
        <time>2017-11-13T16:30:08.681000Z</time>
      </trkpt>
      <trkpt lat="45.61890363693237" lon="10.483553409576416">
        <ele>226.0</ele>
        <time>2017-11-13T16:30:11.969000Z</time>
      </trkpt>
      <trkpt lat="45.61939716339111" lon="10.48370361328125">
        <ele>230.8169649088051</ele>
        <time>2017-11-13T16:30:12.778000Z</time>
      </trkpt>
      <trkpt lat="45.61965465545654" lon="10.48396110534668">
        <ele>231.187713507364</ele>
        <time>2017-11-13T16:30:13.282000Z</time>
      </trkpt>
      <trkpt lat="45.6198053682318" lon="10.484332416656214">
        <ele>229.5419930731614</ele>
        <time>2017-11-13T16:30:13.763000Z</time>
      </trkpt>
      <trkpt lat="45.619813052256625" lon="10.484351347933638">
        <ele>229.57478960363093</ele>
        <time>2017-11-13T16:30:13.788000Z</time>
      </trkpt>
      <trkpt lat="45.61982438899577" lon="10.484379278495908">
        <ele>229.62317647071305</ele>
        <time>2017-11-13T16:30:13.824000Z</time>
      </trkpt>
      <trkpt lat="45.619824305176735" lon="10.484379194676876">
        <ele>229.62339559926286</ele>
        <time>2017-11-13T16:30:13.825000Z</time>
      </trkpt>
      <trkpt lat="45.62025555409491" lon="10.4854416847229">
        <ele>234.79737328940007</ele>
        <time>2017-11-13T16:30:15.202000Z</time>
      </trkpt>
      <trkpt lat="45.62119969166815" lon="10.487544536590576">
        <ele>237.0</ele>
        <time>2017-11-13T16:30:18.004000Z</time>
      </trkpt>
      <trkpt lat="45.62167167663574" lon="10.488574504852295">
        <ele>253.2138372198043</ele>
        <time>2017-11-13T16:30:19.385000Z</time>
      </trkpt>
      <trkpt lat="45.62280893325806" lon="10.490612983703613">
        <ele>239.0</ele>
        <time>2017-11-13T16:30:22.309000Z</time>
      </trkpt>
      <trkpt lat="45.62293767929077" lon="10.4909348487854">
        <ele>231.87036410144378</ele>
        <time>2017-11-13T16:30:22.725000Z</time>
      </trkpt>
      <trkpt lat="45.62319525517523" lon="10.492050647735596">
        <ele>230.40324973053202</ele>
        <time>2017-11-13T16:30:24.042000Z</time>
      </trkpt>
      <trkpt lat="45.623366916552186" lon="10.492587089538574">
        <ele>230.33333333333334</ele>
        <time>2017-11-13T16:30:24.703000Z</time>
      </trkpt>
      <trkpt lat="45.62373169697821" lon="10.49370288848877">
        <ele>230.18056850896753</ele>
        <time>2017-11-13T16:30:26.084000Z</time>
      </trkpt>
      <trkpt lat="45.62373161315918" lon="10.49370288848877">
        <ele>230.18071973098952</ele>
        <time>2017-11-13T16:30:26.084000Z</time>
      </trkpt>
      <trkpt lat="45.624117935076356" lon="10.494539737701416">
        <ele>232.11257608483217</ele>
        <time>2017-11-13T16:30:27.208000Z</time>
      </trkpt>
      <trkpt lat="45.624117851257324" lon="10.494539737701416">
        <ele>232.11272730685417</ele>
        <time>2017-11-13T16:30:27.208000Z</time>
      </trkpt>
      <trkpt lat="45.62420376576483" lon="10.494754314422607">
        <ele>232.09136735199536</ele>
        <time>2017-11-13T16:30:27.485000Z</time>
      </trkpt>
      <trkpt lat="45.6242036819458" lon="10.494754314422607">
        <ele>232.09151857401739</ele>
        <time>2017-11-13T16:30:27.486000Z</time>
      </trkpt>
      <trkpt lat="45.62482603825629" lon="10.495977401733398">
        <ele>236.0</ele>
        <time>2017-11-13T16:30:29.182000Z</time>
      </trkpt>
      <trkpt lat="45.62493332661688" lon="10.49619197845459">
        <ele>235.28114842632033</ele>
        <time>2017-11-13T16:30:29.478000Z</time>
      </trkpt>
      <trkpt lat="45.62501907348633" lon="10.496470928192139">
        <ele>232.78408861934759</ele>
        <time>2017-11-13T16:30:29.820000Z</time>
      </trkpt>
      <trkpt lat="45.625061988830566" lon="10.496664047241211">
        <ele>232.23186570004916</ele>
        <time>2017-11-13T16:30:30.047000Z</time>
      </trkpt>
      <trkpt lat="45.625083446502686" lon="10.49692153930664">
        <ele>231.5251785175916</ele>
        <time>2017-11-13T16:30:30.338000Z</time>
      </trkpt>
      <trkpt lat="45.625104987993836" lon="10.497372150421143">
        <ele>231.3006251650953</ele>
        <time>2017-11-13T16:30:30.844000Z</time>
      </trkpt>
      <trkpt lat="45.625126445665956" lon="10.49769401550293">
        <ele>230.8065445006342</ele>
        <time>2017-11-13T16:30:31.206000Z</time>
      </trkpt>
      <trkpt lat="45.625126361846924" lon="10.497822761535645">
        <ele>230.9388813857797</ele>
        <time>2017-11-13T16:30:31.350000Z</time>
      </trkpt>
      <trkpt lat="45.62516927719116" lon="10.49816608428955">
        <ele>231.29737204130092</ele>
        <time>2017-11-13T16:30:31.741000Z</time>
      </trkpt>
      <trkpt lat="45.625147903338075" lon="10.498208999633789">
        <ele>231.3515272336472</ele>
        <time>2017-11-13T16:30:31.800000Z</time>
      </trkpt>
      <trkpt lat="45.62519081868231" lon="10.498402118682861">
        <ele>232.89314603527683</ele>
        <time>2017-11-13T16:30:32.027000Z</time>
      </trkpt>
      <trkpt lat="45.62527656555176" lon="10.4984450340271">
        <ele>233.02667207067398</ele>
        <time>2017-11-13T16:30:32.173000Z</time>
      </trkpt>
      <trkpt lat="45.62553405761719" lon="10.49870252609253">
        <ele>233.44098745225264</ele>
        <time>2017-11-13T16:30:32.677000Z</time>
      </trkpt>
      <trkpt lat="45.625576972961426" lon="10.498788356781006">
        <ele>233.5382838521791</ele>
        <time>2017-11-13T16:30:32.795000Z</time>
      </trkpt>
      <trkpt lat="45.626113414764404" lon="10.499153137207031">
        <ele>234.32153614593938</ele>
        <time>2017-11-13T16:30:33.747000Z</time>
      </trkpt>
      <trkpt lat="45.62624224461615" lon="10.499281883239746">
        <ele>235.52878355858283</ele>
        <time>2017-11-13T16:30:33.999000Z</time>
      </trkpt>
      <trkpt lat="45.62624216079712" lon="10.499281883239746">
        <ele>235.52889408099577</ele>
        <time>2017-11-13T16:30:33.999000Z</time>
      </trkpt>
      <trkpt lat="45.62645682133734" lon="10.4994535446167">
        <ele>235.85319829032338</ele>
        <time>2017-11-13T16:30:34.393000Z</time>
      </trkpt>
      <trkpt lat="45.62645673751831" lon="10.4994535446167">
        <ele>235.85312869999746</ele>
        <time>2017-11-13T16:30:34.393000Z</time>
      </trkpt>
      <trkpt lat="45.626671398058534" lon="10.499625205993652">
        <ele>234.64893130344686</ele>
        <time>2017-11-13T16:30:34.787000Z</time>
      </trkpt>
      <trkpt lat="45.62699326314032" lon="10.499882698059082">
        <ele>233.9778664174323</ele>
        <time>2017-11-13T16:30:35.378000Z</time>
      </trkpt>
      <trkpt lat="45.627658450976014" lon="10.500483512878418">
        <ele>231.5463090147875</ele>
        <time>2017-11-13T16:30:36.639000Z</time>
      </trkpt>
      <trkpt lat="45.62802314758301" lon="10.500848293304443">
        <ele>231.7049088713525</ele>
        <time>2017-11-13T16:30:37.352000Z</time>
      </trkpt>
      <trkpt lat="45.62876642883932" lon="10.501686095757451">
        <ele>231.0</ele>
        <time>2017-11-13T16:30:38.869000Z</time>
      </trkpt>
      <trkpt lat="45.628778451806106" lon="10.50169964789373">
        <ele>231.00431625380995</ele>
        <time>2017-11-13T16:30:38.894000Z</time>
      </trkpt>
      <trkpt lat="45.62879629433155" lon="10.501719759777188">
        <ele>231.01072173435466</ele>
        <time>2017-11-13T16:30:38.930000Z</time>
      </trkpt>
      <trkpt lat="45.62879612669349" lon="10.501719675958157">
        <ele>231.010771804387</ele>
        <time>2017-11-13T16:30:38.930000Z</time>
      </trkpt>
      <trkpt lat="45.62920340336859" lon="10.50217866897583">
        <ele>230.49030707043843</ele>
        <time>2017-11-13T16:30:39.761000Z</time>
      </trkpt>
      <trkpt lat="45.62920331954956" lon="10.50217866897583">
        <ele>230.49033070251016</ele>
        <time>2017-11-13T16:30:39.761000Z</time>
      </trkpt>
      <trkpt lat="45.62969692982733" lon="10.502843856811523">
        <ele>231.01489077713026</ele>
        <time>2017-11-13T16:30:40.848000Z</time>
      </trkpt>
      <trkpt lat="45.630340576171875" lon="10.504260063171387">
        <ele>235.0</ele>
        <time>2017-11-13T16:30:42.742000Z</time>
      </trkpt>
      <trkpt lat="45.630834102630615" lon="10.50518274307251">
        <ele>235.74878903157227</ele>
        <time>2017-11-13T16:30:44.044000Z</time>
      </trkpt>
      <trkpt lat="45.631113052368164" lon="10.505483150482178">
        <ele>235.9273855791132</ele>
        <time>2017-11-13T16:30:44.604000Z</time>
      </trkpt>
      <trkpt lat="45.63141345977783" lon="10.50565481185913">
        <ele>235.85739776781705</ele>
        <time>2017-11-13T16:30:45.123000Z</time>
      </trkpt>
      <trkpt lat="45.63203581608832" lon="10.505976676940918">
        <ele>237.25912445484934</ele>
        <time>2017-11-13T16:30:46.184000Z</time>
      </trkpt>
      <trkpt lat="45.63203573226929" lon="10.505976676940918">
        <ele>237.25913311704107</ele>
        <time>2017-11-13T16:30:46.185000Z</time>
      </trkpt>
      <trkpt lat="45.63323736190796" lon="10.506620407104492">
        <ele>235.05840631030162</ele>
        <time>2017-11-13T16:30:48.242000Z</time>
      </trkpt>
      <trkpt lat="45.63370943069458" lon="10.506877899169922">
        <ele>240.0</ele>
        <time>2017-11-13T16:30:49.052000Z</time>
      </trkpt>
      <trkpt lat="45.63377380371094" lon="10.50692081451416">
        <ele>240.02530213994316</ele>
        <time>2017-11-13T16:30:49.166000Z</time>
      </trkpt>
      <trkpt lat="45.63437461853027" lon="10.507307052612305">
        <ele>239.92663831998175</ele>
        <time>2017-11-13T16:30:50.222000Z</time>
      </trkpt>
      <trkpt lat="45.63544750213623" lon="10.507864952087402">
        <ele>241.0</ele>
        <time>2017-11-13T16:30:52.052000Z</time>
      </trkpt>
      <trkpt lat="45.63600548543036" lon="10.508015155792236">
        <ele>240.33333333333334</ele>
        <time>2017-11-13T16:30:52.962000Z</time>
      </trkpt>
      <trkpt lat="45.63606448949082" lon="10.507994652662404">
        <ele>240.34096792903551</ele>
        <time>2017-11-13T16:30:53.059000Z</time>
      </trkpt>
      <trkpt lat="45.636064521285135" lon="10.507994641614328">
        <ele>240.34097204293383</ele>
        <time>2017-11-13T16:30:53.059000Z</time>
      </trkpt>
      <trkpt lat="45.63607936497958" lon="10.50798948361995">
        <ele>240.34289268385103</ele>
        <time>2017-11-13T16:30:53.083000Z</time>
      </trkpt>
      <trkpt lat="45.63610221259296" lon="10.507981544360518">
        <ele>240.34584896012993</ele>
        <time>2017-11-13T16:30:53.121000Z</time>
      </trkpt>
      <trkpt lat="45.63610238023102" lon="10.507981544360518">
        <ele>240.34587003777065</ele>
        <time>2017-11-13T16:30:53.121000Z</time>
      </trkpt>
      <trkpt lat="45.63662767410278" lon="10.507800579071045">
        <ele>240.41380591022968</ele>
        <time>2017-11-13T16:30:53.987000Z</time>
      </trkpt>
      <trkpt lat="45.636627757921815" lon="10.507800579071045">
        <ele>240.41381644905005</ele>
        <time>2017-11-13T16:30:53.987000Z</time>
      </trkpt>
      <trkpt lat="45.63853749074042" lon="10.506899356842041">
        <ele>241.0</ele>
        <time>2017-11-13T16:30:57.211000Z</time>
      </trkpt>
      <trkpt lat="45.6397819519043" lon="10.506298542022705">
        <ele>242.0</ele>
        <time>2017-11-13T16:30:59.317000Z</time>
      </trkpt>
      <trkpt lat="45.6401252746582" lon="10.506041049957275">
        <ele>248.39843131143596</ele>
        <time>2017-11-13T16:30:59.938000Z</time>
      </trkpt>
      <trkpt lat="45.640125358477235" lon="10.506041049957275">
        <ele>248.3977045539838</ele>
        <time>2017-11-13T16:30:59.938000Z</time>
      </trkpt>
      <trkpt lat="45.64076900482178" lon="10.505611896514893">
        <ele>236.57366640906332</ele>
        <time>2017-11-13T16:31:01.076000Z</time>
      </trkpt>
      <trkpt lat="45.641584396362305" lon="10.505397319793701">
        <ele>237.8236900154625</ele>
        <time>2017-11-13T16:31:02.405000Z</time>
      </trkpt>
      <trkpt lat="45.64175605773926" lon="10.505461692810059">
        <ele>238.0990491844309</ele>
        <time>2017-11-13T16:31:02.689000Z</time>
      </trkpt>
      <trkpt lat="45.641841888427734" lon="10.50544023513794">
        <ele>238.19938545847864</ele>
        <time>2017-11-13T16:31:02.829000Z</time>
      </trkpt>
      <trkpt lat="45.64201354980469" lon="10.505332946777344">
        <ele>238.41510904243535</ele>
        <time>2017-11-13T16:31:03.129000Z</time>
      </trkpt>
      <trkpt lat="45.644545555114746" lon="10.50518274307251">
        <ele>243.0</ele>
        <time>2017-11-13T16:31:07.192000Z</time>
      </trkpt>
      <trkpt lat="45.64497470855713" lon="10.505118370056152">
        <ele>242.66062513915827</ele>
        <time>2017-11-13T16:31:07.884000Z</time>
      </trkpt>
      <trkpt lat="45.645382488146424" lon="10.50492525100708">
        <ele>240.81140445440897</ele>
        <time>2017-11-13T16:31:08.573000Z</time>
      </trkpt>
      <trkpt lat="45.6457257270813" lon="10.504603385925293">
        <ele>240.0</ele>
        <time>2017-11-13T16:31:09.231000Z</time>
      </trkpt>
      <trkpt lat="45.646069049835205" lon="10.503809452056885">
        <ele>243.1878912744627</ele>
        <time>2017-11-13T16:31:10.277000Z</time>
      </trkpt>
      <trkpt lat="45.64608148439464" lon="10.503722565083672">
        <ele>243.33241064264402</ele>
        <time>2017-11-13T16:31:10.376000Z</time>
      </trkpt>
      <trkpt lat="45.64608455469574" lon="10.50370111115709">
        <ele>243.3680950172975</ele>
        <time>2017-11-13T16:31:10.401000Z</time>
      </trkpt>
      <trkpt lat="45.64608925022185" lon="10.503668300807476">
        <ele>243.42266855307003</ele>
        <time>2017-11-13T16:31:10.439000Z</time>
      </trkpt>
      <trkpt lat="45.64608925022185" lon="10.503668216988444">
        <ele>243.42280513695925</ele>
        <time>2017-11-13T16:31:10.439000Z</time>
      </trkpt>
      <trkpt lat="45.6461763381958" lon="10.503058433532715">
        <ele>243.4369748077519</ele>
        <time>2017-11-13T16:31:11.137000Z</time>
      </trkpt>
      <trkpt lat="45.6461763381958" lon="10.5029296875">
        <ele>243.81983661732897</ele>
        <time>2017-11-13T16:31:11.281000Z</time>
      </trkpt>
      <trkpt lat="45.64617642201483" lon="10.502779483795166">
        <ele>244.26650887013875</ele>
        <time>2017-11-13T16:31:11.449000Z</time>
      </trkpt>
      <trkpt lat="45.64617642201483" lon="10.502650737762451">
        <ele>244.64937067914295</ele>
        <time>2017-11-13T16:31:11.593000Z</time>
      </trkpt>
      <trkpt lat="45.64617642201483" lon="10.501985549926758">
        <ele>248.96082335899783</ele>
        <time>2017-11-13T16:31:12.338000Z</time>
      </trkpt>
      <trkpt lat="45.646090507507324" lon="10.50018310546875">
        <ele>257.0</ele>
        <time>2017-11-13T16:31:14.363000Z</time>
      </trkpt>
      <trkpt lat="45.646090591326356" lon="10.50018310546875">
        <ele>256.99950280059517</ele>
        <time>2017-11-13T16:31:14.363000Z</time>
      </trkpt>
      <trkpt lat="45.64602613449097" lon="10.499517917633057">
        <ele>251.88135158677346</ele>
        <time>2017-11-13T16:31:15.116000Z</time>
      </trkpt>
      <trkpt lat="45.646090507507324" lon="10.49917459487915">
        <ele>251.69366185819845</ele>
        <time>2017-11-13T16:31:15.514000Z</time>
      </trkpt>
      <trkpt lat="45.64666994847357" lon="10.49741506576538">
        <ele>251.0</ele>
        <time>2017-11-13T16:31:17.694000Z</time>
      </trkpt>
      <trkpt lat="45.64673432148993" lon="10.497329235076904">
        <ele>251.12266628364372</ele>
        <time>2017-11-13T16:31:17.835000Z</time>
      </trkpt>
      <trkpt lat="45.647893035784364" lon="10.495312213897705">
        <ele>255.0</ele>
        <time>2017-11-13T16:31:20.761000Z</time>
      </trkpt>
      <trkpt lat="45.648193359375" lon="10.494754314422607">
        <ele>247.7398493228624</ele>
        <time>2017-11-13T16:31:21.550000Z</time>
      </trkpt>
      <trkpt lat="45.64819344319403" lon="10.494754314422607">
        <ele>247.73976226170302</ele>
        <time>2017-11-13T16:31:21.550000Z</time>
      </trkpt>
      <trkpt lat="45.64849376678467" lon="10.494260787963867">
        <ele>254.9313285657079</ele>
        <time>2017-11-13T16:31:22.283000Z</time>
      </trkpt>
      <trkpt lat="45.64862251281738" lon="10.493896007537842">
        <ele>250.30128580355915</ele>
        <time>2017-11-13T16:31:22.741000Z</time>
      </trkpt>
      <trkpt lat="45.64910698935977" lon="10.492243266444428">
        <ele>246.0</ele>
        <time>2017-11-13T16:31:24.749000Z</time>
      </trkpt>
      <trkpt lat="45.64911290942202" lon="10.492223070091049">
        <ele>246.30755262657465</ele>
        <time>2017-11-13T16:31:24.774000Z</time>
      </trkpt>
      <trkpt lat="45.649121068418026" lon="10.492195235565305">
        <ele>246.73142019556897</ele>
        <time>2017-11-13T16:31:24.808000Z</time>
      </trkpt>
      <trkpt lat="45.649121068418026" lon="10.49219498410821">
        <ele>246.73495152565224</ele>
        <time>2017-11-13T16:31:24.808000Z</time>
      </trkpt>
      <trkpt lat="45.649352073669434" lon="10.491406917572021">
        <ele>267.40240362038463</ele>
        <time>2017-11-13T16:31:25.766000Z</time>
      </trkpt>
      <trkpt lat="45.64950227737427" lon="10.490634441375732">
        <ele>269.06281014228443</ele>
        <time>2017-11-13T16:31:26.665000Z</time>
      </trkpt>
      <trkpt lat="45.64963102340698" lon="10.48945426940918">
        <ele>266.09441187555655</ele>
        <time>2017-11-13T16:31:28.004000Z</time>
      </trkpt>
      <trkpt lat="45.649802684783936" lon="10.487329959869385">
        <ele>267.0</ele>
        <time>2017-11-13T16:31:30.400000Z</time>
      </trkpt>
      <trkpt lat="45.649824142456055" lon="10.486664772033691">
        <ele>264.91105378748733</ele>
        <time>2017-11-13T16:31:31.146000Z</time>
      </trkpt>
      <trkpt lat="45.64973831176758" lon="10.485506057739258">
        <ele>261.99122172239214</ele>
        <time>2017-11-13T16:31:32.452000Z</time>
      </trkpt>
      <trkpt lat="45.64973839558661" lon="10.485506057739258">
        <ele>261.9909212561499</ele>
        <time>2017-11-13T16:31:32.452000Z</time>
      </trkpt>
      <trkpt lat="45.64973831176758" lon="10.48496961593628">
        <ele>258.31333971840195</ele>
        <time>2017-11-13T16:31:33.053000Z</time>
      </trkpt>
      <trkpt lat="45.649888599291444" lon="10.483832359313965">
        <ele>258.06450850069206</ele>
        <time>2017-11-13T16:31:34.350000Z</time>
      </trkpt>
      <trkpt lat="45.64995288848877" lon="10.483531951904297">
        <ele>258.71487400766404</ele>
        <time>2017-11-13T16:31:34.702000Z</time>
      </trkpt>
      <trkpt lat="45.6499529723078" lon="10.483531951904297">
        <ele>258.71512222580094</ele>
        <time>2017-11-13T16:31:34.702000Z</time>
      </trkpt>
      <trkpt lat="45.65001726150513" lon="10.483145713806152">
        <ele>263.8703637781036</ele>
        <time>2017-11-13T16:31:35.147000Z</time>
      </trkpt>
      <trkpt lat="45.65023192204535" lon="10.482244491577148">
        <ele>262.66837921231564</ele>
        <time>2017-11-13T16:31:36.214000Z</time>
      </trkpt>
      <trkpt lat="45.65074690617621" lon="10.480570793151855">
        <ele>258.0</ele>
        <time>2017-11-13T16:31:38.263000Z</time>
      </trkpt>
      <trkpt lat="45.651068687438965" lon="10.479412078857422">
        <ele>272.6666666666667</ele>
        <time>2017-11-13T16:31:39.660000Z</time>
      </trkpt>
      <trkpt lat="45.65139055252075" lon="10.47722339630127">
        <ele>258.0</ele>
        <time>2017-11-13T16:31:42.166000Z</time>
      </trkpt>
      <trkpt lat="45.65136909484863" lon="10.476815700531006">
        <ele>257.5720403208414</ele>
        <time>2017-11-13T16:31:42.624000Z</time>
      </trkpt>
      <trkpt lat="45.65117597579956" lon="10.47621488571167">
        <ele>256.54650710608104</ele>
        <time>2017-11-13T16:31:43.365000Z</time>
      </trkpt>
      <trkpt lat="45.650832653045654" lon="10.475656986236572">
        <ele>255.10801147090152</ele>
        <time>2017-11-13T16:31:44.198000Z</time>
      </trkpt>
      <trkpt lat="45.65063953399658" lon="10.47522783279419">
        <ele>255.1241353664967</ele>
        <time>2017-11-13T16:31:44.770000Z</time>
      </trkpt>
      <trkpt lat="45.650618160143495" lon="10.475163459777832">
        <ele>255.12638675391767</ele>
        <time>2017-11-13T16:31:44.850000Z</time>
      </trkpt>
      <trkpt lat="45.65053232945502" lon="10.475077629089355">
        <ele>255.1311194781853</ele>
        <time>2017-11-13T16:31:45.018000Z</time>
      </trkpt>
      <trkpt lat="45.65048933029175" lon="10.475077629089355">
        <ele>255.13306274637497</ele>
        <time>2017-11-13T16:31:45.087000Z</time>
      </trkpt>
      <trkpt lat="45.65001726150513" lon="10.47473430633545">
        <ele>256.4903289472699</ele>
        <time>2017-11-13T16:31:45.936000Z</time>
      </trkpt>
      <trkpt lat="45.64911603927612" lon="10.474240779876709">
        <ele>253.0</ele>
        <time>2017-11-13T16:31:47.483000Z</time>
      </trkpt>
      <trkpt lat="45.64877271652222" lon="10.47396183013916">
        <ele>255.35691517472083</ele>
        <time>2017-11-13T16:31:48.116000Z</time>
      </trkpt>
      <trkpt lat="45.6480432394892" lon="10.473060607910156">
        <ele>256.0419439942254</ele>
        <time>2017-11-13T16:31:49.661000Z</time>
      </trkpt>
      <trkpt lat="45.64671277999878" lon="10.471279621124268">
        <ele>265.0</ele>
        <time>2017-11-13T16:31:52.582000Z</time>
      </trkpt>
      <trkpt lat="45.64617642201483" lon="10.470507144927979">
        <ele>265.46396009680257</ele>
        <time>2017-11-13T16:31:53.802000Z</time>
      </trkpt>
      <trkpt lat="45.643601417541504" lon="10.465679168701172">
        <ele>261.0</ele>
        <time>2017-11-13T16:32:00.608000Z</time>
      </trkpt>
      <trkpt lat="45.64340829849243" lon="10.464949607849121">
        <ele>263.0</ele>
        <time>2017-11-13T16:32:01.482000Z</time>
      </trkpt>
      <trkpt lat="45.64327955245972" lon="10.46422004699707">
        <ele>255.0</ele>
        <time>2017-11-13T16:32:02.325000Z</time>
      </trkpt>
      <trkpt lat="45.64340838231146" lon="10.46372652053833">
        <ele>261.8918791365956</ele>
        <time>2017-11-13T16:32:02.915000Z</time>
      </trkpt>
      <trkpt lat="45.64347275532782" lon="10.463662147521973">
        <ele>262.05997701266676</ele>
        <time>2017-11-13T16:32:03.041000Z</time>
      </trkpt>
      <trkpt lat="45.64351567067206" lon="10.463404655456543">
        <ele>262.4560392250565</ele>
        <time>2017-11-13T16:32:03.338000Z</time>
      </trkpt>
      <trkpt lat="45.64340829849243" lon="10.46321153640747">
        <ele>263.4918894573431</ele>
        <time>2017-11-13T16:32:03.615000Z</time>
      </trkpt>
      <trkpt lat="45.64323663711548" lon="10.462868213653564">
        <ele>260.1004743661695</ele>
        <time>2017-11-13T16:32:04.088000Z</time>
      </trkpt>
      <trkpt lat="45.64327955245972" lon="10.461323261260986">
        <ele>259.0</ele>
        <time>2017-11-13T16:32:05.821000Z</time>
      </trkpt>
      <trkpt lat="45.64336538314819" lon="10.461044311523438">
        <ele>260.94686474182663</ele>
        <time>2017-11-13T16:32:06.163000Z</time>
      </trkpt>
      <trkpt lat="45.64340838231146" lon="10.4610013961792">
        <ele>261.0158148220923</ele>
        <time>2017-11-13T16:32:06.247000Z</time>
      </trkpt>
      <trkpt lat="45.64347267150879" lon="10.460872650146484">
        <ele>261.1612722286047</ele>
        <time>2017-11-13T16:32:06.424000Z</time>
      </trkpt>
      <trkpt lat="45.64349421299994" lon="10.46074390411377">
        <ele>260.6163135385087</ele>
        <time>2017-11-13T16:32:06.572000Z</time>
      </trkpt>
      <trkpt lat="45.64345121383667" lon="10.460615158081055">
        <ele>260.7474919861085</ele>
        <time>2017-11-13T16:32:06.732000Z</time>
      </trkpt>
      <trkpt lat="45.64345121383667" lon="10.460293292999268">
        <ele>261.043405647156</ele>
        <time>2017-11-13T16:32:07.093000Z</time>
      </trkpt>
      <trkpt lat="45.64392328262329" lon="10.459692478179932">
        <ele>261.5410298805935</ele>
        <time>2017-11-13T16:32:08.106000Z</time>
      </trkpt>
      <trkpt lat="45.64540386199951" lon="10.456795692443848">
        <ele>269.0</ele>
        <time>2017-11-13T16:32:12.128000Z</time>
      </trkpt>
      <trkpt lat="45.64607200640338" lon="10.454800515762777">
        <ele>274.0</ele>
        <time>2017-11-13T16:32:14.607000Z</time>
      </trkpt>
      <trkpt lat="45.64607862013692" lon="10.454780765432982">
        <ele>274.01760108153036</ele>
        <time>2017-11-13T16:32:14.632000Z</time>
      </trkpt>
      <trkpt lat="45.646087657660246" lon="10.454753777012229">
        <ele>274.0658869086591</ele>
        <time>2017-11-13T16:32:14.666000Z</time>
      </trkpt>
      <trkpt lat="45.64608774147928" lon="10.454753609374166">
        <ele>274.06621946816136</ele>
        <time>2017-11-13T16:32:14.666000Z</time>
      </trkpt>
      <trkpt lat="45.64694881439209" lon="10.452182292938232">
        <ele>281.0</ele>
        <time>2017-11-13T16:32:17.861000Z</time>
      </trkpt>
      <trkpt lat="45.64744234085083" lon="10.450294017791748">
        <ele>271.0</ele>
        <time>2017-11-13T16:32:20.120000Z</time>
      </trkpt>
      <trkpt lat="45.647785663604736" lon="10.449371337890625">
        <ele>279.3601716669348</ele>
        <time>2017-11-13T16:32:21.291000Z</time>
      </trkpt>
      <trkpt lat="45.64793586730957" lon="10.449113845825195">
        <ele>272.90352661711415</ele>
        <time>2017-11-13T16:32:21.667000Z</time>
      </trkpt>
      <trkpt lat="45.648343563079834" lon="10.448770523071289">
        <ele>281.0</ele>
        <time>2017-11-13T16:32:22.425000Z</time>
      </trkpt>
      <trkpt lat="45.64862251281738" lon="10.448577404022217">
        <ele>278.964793189933</ele>
        <time>2017-11-13T16:32:22.922000Z</time>
      </trkpt>
      <trkpt lat="45.64937353134155" lon="10.44825553894043">
        <ele>268.14937565658676</ele>
        <time>2017-11-13T16:32:24.179000Z</time>
      </trkpt>
      <trkpt lat="45.64969539642334" lon="10.447998046875">
        <ele>268.55782275543123</ele>
        <time>2017-11-13T16:32:24.770000Z</time>
      </trkpt>
      <trkpt lat="45.65023183822632" lon="10.447354316711426">
        <ele>272.0</ele>
        <time>2017-11-13T16:32:25.893000Z</time>
      </trkpt>
      <trkpt lat="45.65051078796387" lon="10.446474552154541">
        <ele>271.0</ele>
        <time>2017-11-13T16:32:26.976000Z</time>
      </trkpt>
      <trkpt lat="45.65089702606201" lon="10.443470478057861">
        <ele>272.0</ele>
        <time>2017-11-13T16:32:30.399000Z</time>
      </trkpt>
      <trkpt lat="45.65089702606201" lon="10.44252634048462">
        <ele>272.6666666666667</ele>
        <time>2017-11-13T16:32:31.457000Z</time>
      </trkpt>
      <trkpt lat="45.650832653045654" lon="10.441560745239258">
        <ele>272.0</ele>
        <time>2017-11-13T16:32:32.544000Z</time>
      </trkpt>
      <trkpt lat="45.65025329589844" lon="10.4380202293396">
        <ele>277.0</ele>
        <time>2017-11-13T16:32:36.619000Z</time>
      </trkpt>
      <trkpt lat="45.65018892288208" lon="10.437419414520264">
        <ele>275.9305820879431</ele>
        <time>2017-11-13T16:32:37.300000Z</time>
      </trkpt>
      <trkpt lat="45.65018892288208" lon="10.43677568435669">
        <ele>275.50404399583357</ele>
        <time>2017-11-13T16:32:38.021000Z</time>
      </trkpt>
      <trkpt lat="45.65025329589844" lon="10.436239242553711">
        <ele>274.4853603366896</ele>
        <time>2017-11-13T16:32:38.631000Z</time>
      </trkpt>
      <trkpt lat="45.65040349960327" lon="10.435552597045898">
        <ele>271.80545837761076</ele>
        <time>2017-11-13T16:32:39.437000Z</time>
      </trkpt>
      <trkpt lat="45.6504035834223" lon="10.435552597045898">
        <ele>271.8053264274019</ele>
        <time>2017-11-13T16:32:39.437000Z</time>
      </trkpt>
      <trkpt lat="45.650832736864686" lon="10.43450117111206">
        <ele>268.798832712505</ele>
        <time>2017-11-13T16:32:40.801000Z</time>
      </trkpt>
      <trkpt lat="45.652828216552734" lon="10.430488586425781">
        <ele>274.0</ele>
        <time>2017-11-13T16:32:46.319000Z</time>
      </trkpt>
      <trkpt lat="45.65317153930664" lon="10.429844856262207">
        <ele>268.0</ele>
        <time>2017-11-13T16:32:47.226000Z</time>
      </trkpt>
      <trkpt lat="45.653836727142334" lon="10.42879343032837">
        <ele>274.12266696097475</ele>
        <time>2017-11-13T16:32:48.815000Z</time>
      </trkpt>
      <trkpt lat="45.654137134552" lon="10.42851448059082">
        <ele>276.09388388269304</ele>
        <time>2017-11-13T16:32:49.389000Z</time>
      </trkpt>
      <trkpt lat="45.654373252764344" lon="10.428450107574463">
        <ele>289.9194493656955</ele>
        <time>2017-11-13T16:32:49.774000Z</time>
      </trkpt>
      <trkpt lat="45.65441608428955" lon="10.428471565246582">
        <ele>290.89345673683493</ele>
        <time>2017-11-13T16:32:49.847000Z</time>
      </trkpt>
      <trkpt lat="45.65452337265015" lon="10.428493022918701">
        <ele>292.43834733067337</ele>
        <time>2017-11-13T16:32:50.021000Z</time>
      </trkpt>
      <trkpt lat="45.65465211868286" lon="10.428385734558105">
        <ele>294.56312504306203</ele>
        <time>2017-11-13T16:32:50.260000Z</time>
      </trkpt>
      <trkpt lat="45.6546950340271" lon="10.42827844619751">
        <ele>285.6777649161069</ele>
        <time>2017-11-13T16:32:50.399000Z</time>
      </trkpt>
      <trkpt lat="45.65475940704346" lon="10.428106784820557">
        <ele>284.80781549939803</ele>
        <time>2017-11-13T16:32:50.617000Z</time>
      </trkpt>
      <trkpt lat="45.65523147583008" lon="10.427570343017578">
        <ele>284.95617341490356</ele>
        <time>2017-11-13T16:32:51.583000Z</time>
      </trkpt>
      <trkpt lat="45.655810832977295" lon="10.427098274230957">
        <ele>278.0298134362243</ele>
        <time>2017-11-13T16:32:52.652000Z</time>
      </trkpt>
      <trkpt lat="45.65677651204169" lon="10.426089763641357">
        <ele>280.0</ele>
        <time>2017-11-13T16:32:54.569000Z</time>
      </trkpt>
      <trkpt lat="45.65709829330444" lon="10.425724983215332">
        <ele>275.63335981236656</ele>
        <time>2017-11-13T16:32:55.227000Z</time>
      </trkpt>
      <trkpt lat="45.657377326861024" lon="10.425124168395996">
        <ele>273.95500184243434</ele>
        <time>2017-11-13T16:32:56.035000Z</time>
      </trkpt>
      <trkpt lat="45.65748461522162" lon="10.42478084564209">
        <ele>273.7466655727755</ele>
        <time>2017-11-13T16:32:56.456000Z</time>
      </trkpt>
      <trkpt lat="45.657548904418945" lon="10.424351692199707">
        <ele>274.52369397555253</ele>
        <time>2017-11-13T16:32:56.948000Z</time>
      </trkpt>
      <trkpt lat="45.65763473510742" lon="10.424115657806396">
        <ele>278.11660582935696</ele>
        <time>2017-11-13T16:32:57.246000Z</time>
      </trkpt>
      <trkpt lat="45.657784938812256" lon="10.4240083694458">
        <ele>278.65185915985313</ele>
        <time>2017-11-13T16:32:57.515000Z</time>
      </trkpt>
      <trkpt lat="45.65793522633612" lon="10.423901081085205">
        <ele>279.18735131392356</ele>
        <time>2017-11-13T16:32:57.784000Z</time>
      </trkpt>
      <trkpt lat="45.65795668400824" lon="10.423643589019775">
        <ele>279.76521299820917</ele>
        <time>2017-11-13T16:32:58.075000Z</time>
      </trkpt>
      <trkpt lat="45.657806396484375" lon="10.423493385314941">
        <ele>280.34970067673675</ele>
        <time>2017-11-13T16:32:58.369000Z</time>
      </trkpt>
      <trkpt lat="45.65767765045166" lon="10.423085689544678">
        <ele>281.264035766507</ele>
        <time>2017-11-13T16:32:58.870000Z</time>
      </trkpt>
      <trkpt lat="45.65767773427069" lon="10.422999858856201">
        <ele>281.2476006514218</ele>
        <time>2017-11-13T16:32:58.966000Z</time>
      </trkpt>
      <trkpt lat="45.65767773427069" lon="10.422742366790771">
        <ele>281.19829535429204</ele>
        <time>2017-11-13T16:32:59.255000Z</time>
      </trkpt>
      <trkpt lat="45.657527446746826" lon="10.419974327087402">
        <ele>278.0</ele>
        <time>2017-11-13T16:33:02.366000Z</time>
      </trkpt>
      <trkpt lat="45.65752753056586" lon="10.419416427612305">
        <ele>277.92377008291356</ele>
        <time>2017-11-13T16:33:02.991000Z</time>
      </trkpt>
      <trkpt lat="45.657570445910096" lon="10.419223308563232">
        <ele>277.86481755762077</ele>
        <time>2017-11-13T16:33:03.218000Z</time>
      </trkpt>
      <trkpt lat="45.657570362091064" lon="10.419223308563232">
        <ele>277.86478267040115</ele>
        <time>2017-11-13T16:33:03.218000Z</time>
      </trkpt>
      <trkpt lat="45.6577205657959" lon="10.418901443481445">
        <ele>277.08552803055824</ele>
        <time>2017-11-13T16:33:03.652000Z</time>
      </trkpt>
      <trkpt lat="45.65995216369629" lon="10.416970252990723">
        <ele>276.0</ele>
        <time>2017-11-13T16:33:07.833000Z</time>
      </trkpt>
      <trkpt lat="45.66237688064575" lon="10.414502620697021">
        <ele>280.0</ele>
        <time>2017-11-13T16:33:12.603000Z</time>
      </trkpt>
      <trkpt lat="45.66291340626776" lon="10.413966178894043">
        <ele>280.0</ele>
        <time>2017-11-13T16:33:13.652000Z</time>
      </trkpt>
      <trkpt lat="45.66490888595581" lon="10.412099361419678">
        <ele>277.0</ele>
        <time>2017-11-13T16:33:17.474000Z</time>
      </trkpt>
      <trkpt lat="45.66544532775879" lon="10.411691665649414">
        <ele>284.0</ele>
        <time>2017-11-13T16:33:18.448000Z</time>
      </trkpt>
      <trkpt lat="45.667312145233154" lon="10.41079044342041">
        <ele>278.0</ele>
        <time>2017-11-13T16:33:21.607000Z</time>
      </trkpt>
      <trkpt lat="45.66795587539673" lon="10.410382747650146">
        <ele>284.01272199405685</ele>
        <time>2017-11-13T16:33:22.736000Z</time>
      </trkpt>
      <trkpt lat="45.67033767700195" lon="10.409910678863525">
        <ele>287.0</ele>
        <time>2017-11-13T16:33:26.591000Z</time>
      </trkpt>
      <trkpt lat="45.67059516906738" lon="10.409975051879883">
        <ele>286.9081397774333</ele>
        <time>2017-11-13T16:33:27.010000Z</time>
      </trkpt>
      <trkpt lat="45.67072399891913" lon="10.410103797912598">
        <ele>288.85291880920687</ele>
        <time>2017-11-13T16:33:27.262000Z</time>
      </trkpt>
      <trkpt lat="45.67087420262396" lon="10.41006088256836">
        <ele>291.4657580098405</ele>
        <time>2017-11-13T16:33:27.508000Z</time>
      </trkpt>
      <trkpt lat="45.67093849182129" lon="10.409867763519287">
        <ele>286.07989373379183</ele>
        <time>2017-11-13T16:33:27.748000Z</time>
      </trkpt>
      <trkpt lat="45.67113161087036" lon="10.409696102142334">
        <ele>285.95913604634956</ele>
        <time>2017-11-13T16:33:28.112000Z</time>
      </trkpt>
      <trkpt lat="45.6727409362793" lon="10.409352779388428">
        <ele>284.4606927172735</ele>
        <time>2017-11-13T16:33:30.720000Z</time>
      </trkpt>
      <trkpt lat="45.67292183630426" lon="10.409361724609647">
        <ele>284.36361561129235</ele>
        <time>2017-11-13T16:33:31.010000Z</time>
      </trkpt>
      <trkpt lat="45.672921966879244" lon="10.409361731066427">
        <ele>284.36354554031533</ele>
        <time>2017-11-13T16:33:31.010000Z</time>
      </trkpt>
      <trkpt lat="45.67293713581106" lon="10.4093624811488">
        <ele>284.35540537556125</ele>
        <time>2017-11-13T16:33:31.034000Z</time>
      </trkpt>
      <trkpt lat="45.67296129651368" lon="10.40936367586255">
        <ele>284.34243992075415</ele>
        <time>2017-11-13T16:33:31.073000Z</time>
      </trkpt>
      <trkpt lat="45.672961212694645" lon="10.40936367586255">
        <ele>284.3423949674369</ele>
        <time>2017-11-13T16:33:31.073000Z</time>
      </trkpt>
      <trkpt lat="45.67359924316406" lon="10.409395694732666">
        <ele>283.0</ele>
        <time>2017-11-13T16:33:32.096000Z</time>
      </trkpt>
      <trkpt lat="45.67563772201538" lon="10.410232543945312">
        <ele>285.0</ele>
        <time>2017-11-13T16:33:35.496000Z</time>
      </trkpt>
      <trkpt lat="45.67741870880127" lon="10.409717559814453">
        <ele>284.9037962056499</ele>
        <time>2017-11-13T16:33:38.409000Z</time>
      </trkpt>
      <trkpt lat="45.67771920002997" lon="10.40980339050293">
        <ele>287.0</ele>
        <time>2017-11-13T16:33:38.900000Z</time>
      </trkpt>
      <trkpt lat="45.677826488390565" lon="10.409824848175049">
        <ele>287.049670678553</ele>
        <time>2017-11-13T16:33:39.074000Z</time>
      </trkpt>
      <trkpt lat="45.67789077758789" lon="10.40980339050293">
        <ele>287.1241950745953</ele>
        <time>2017-11-13T16:33:39.180000Z</time>
      </trkpt>
      <trkpt lat="45.6782341003418" lon="10.409610271453857">
        <ele>287.5406356229849</ele>
        <time>2017-11-13T16:33:39.771000Z</time>
      </trkpt>
      <trkpt lat="45.67928561009467" lon="10.409460067749023">
        <ele>289.7335984361187</ele>
        <time>2017-11-13T16:33:41.465000Z</time>
      </trkpt>
      <trkpt lat="45.67986488342285" lon="10.409395694732666">
        <ele>290.5895969527107</ele>
        <time>2017-11-13T16:33:42.396000Z</time>
      </trkpt>
      <trkpt lat="45.680251121520996" lon="10.409224033355713">
        <ele>292.188968689564</ele>
        <time>2017-11-13T16:33:43.044000Z</time>
      </trkpt>
      <trkpt lat="45.680573070421815" lon="10.408923625946045">
        <ele>290.7018740609999</ele>
        <time>2017-11-13T16:33:43.660000Z</time>
      </trkpt>
      <trkpt lat="45.68057298660278" lon="10.408923625946045">
        <ele>290.7019132251601</ele>
        <time>2017-11-13T16:33:43.660000Z</time>
      </trkpt>
      <trkpt lat="45.68158149719238" lon="10.407636165618896">
        <ele>293.0</ele>
        <time>2017-11-13T16:33:45.826000Z</time>
      </trkpt>
      <trkpt lat="45.68218239583075" lon="10.406692028045654">
        <ele>300.578318584318</ele>
        <time>2017-11-13T16:33:47.256000Z</time>
      </trkpt>
      <trkpt lat="45.68265438079834" lon="10.404889583587646">
        <ele>312.0</ele>
        <time>2017-11-13T16:33:49.412000Z</time>
      </trkpt>
      <trkpt lat="45.68336248397827" lon="10.403623580932617">
        <ele>301.41491600776266</ele>
        <time>2017-11-13T16:33:51.228000Z</time>
      </trkpt>
      <trkpt lat="45.683748722076416" lon="10.403409004211426">
        <ele>300.5616306354457</ele>
        <time>2017-11-13T16:33:51.892000Z</time>
      </trkpt>
      <trkpt lat="45.68512201309204" lon="10.402979850769043">
        <ele>297.0</ele>
        <time>2017-11-13T16:33:54.145000Z</time>
      </trkpt>
      <trkpt lat="45.68542242050171" lon="10.402829647064209">
        <ele>297.6759133969097</ele>
        <time>2017-11-13T16:33:54.655000Z</time>
      </trkpt>
      <trkpt lat="45.68758964538574" lon="10.401027202606201">
        <ele>306.0</ele>
        <time>2017-11-13T16:33:58.673000Z</time>
      </trkpt>
      <trkpt lat="45.68836212158203" lon="10.400640964508057">
        <ele>292.0</ele>
        <time>2017-11-13T16:33:59.985000Z</time>
      </trkpt>
      <trkpt lat="45.68844795227051" lon="10.400533676147461">
        <ele>292.1267597955303</ele>
        <time>2017-11-13T16:34:00.168000Z</time>
      </trkpt>
      <trkpt lat="45.68846949376166" lon="10.400362014770508">
        <ele>292.4175494802951</ele>
        <time>2017-11-13T16:34:00.363000Z</time>
      </trkpt>
      <trkpt lat="45.68842649459839" lon="10.40004014968872">
        <ele>292.9639158529237</ele>
        <time>2017-11-13T16:34:00.730000Z</time>
      </trkpt>
      <trkpt lat="45.68844795227051" lon="10.399739742279053">
        <ele>294.46739223492995</ele>
        <time>2017-11-13T16:34:01.068000Z</time>
      </trkpt>
      <trkpt lat="45.68859815597534" lon="10.399503707885742">
        <ele>294.9997377515809</ele>
        <time>2017-11-13T16:34:01.426000Z</time>
      </trkpt>
      <trkpt lat="45.68992853164673" lon="10.398516654968262">
        <ele>300.0</ele>
        <time>2017-11-13T16:34:03.828000Z</time>
      </trkpt>
      <trkpt lat="45.69010019302368" lon="10.398216247558594">
        <ele>298.90156499189874</ele>
        <time>2017-11-13T16:34:04.263000Z</time>
      </trkpt>
      <trkpt lat="45.69022902287543" lon="10.397787094116211">
        <ele>298.78309722025324</ele>
        <time>2017-11-13T16:34:04.786000Z</time>
      </trkpt>
      <trkpt lat="45.69070109166205" lon="10.396735668182373">
        <ele>299.1327682285486</ele>
        <time>2017-11-13T16:34:06.186000Z</time>
      </trkpt>
      <trkpt lat="45.69143056869507" lon="10.39581298828125">
        <ele>299.0</ele>
        <time>2017-11-13T16:34:07.747000Z</time>
      </trkpt>
      <trkpt lat="45.691752433776855" lon="10.395212173461914">
        <ele>299.0</ele>
        <time>2017-11-13T16:34:08.595000Z</time>
      </trkpt>
      <trkpt lat="45.692546367645264" lon="10.392293930053711">
        <ele>299.0</ele>
        <time>2017-11-13T16:34:12.102000Z</time>
      </trkpt>
      <trkpt lat="45.6926965713501" lon="10.391929149627686">
        <ele>300.17075223527905</ele>
        <time>2017-11-13T16:34:12.576000Z</time>
      </trkpt>
      <trkpt lat="45.69291114807129" lon="10.391607284545898">
        <ele>306.63037864000506</ele>
        <time>2017-11-13T16:34:13.074000Z</time>
      </trkpt>
      <trkpt lat="45.69310426712036" lon="10.391414165496826">
        <ele>309.0</ele>
        <time>2017-11-13T16:34:13.452000Z</time>
      </trkpt>
      <trkpt lat="45.69340475834906" lon="10.391263961791992">
        <ele>307.46312487586806</ele>
        <time>2017-11-13T16:34:13.962000Z</time>
      </trkpt>
      <trkpt lat="45.69340467453003" lon="10.391263961791992">
        <ele>307.4632468395639</ele>
        <time>2017-11-13T16:34:13.962000Z</time>
      </trkpt>
      <trkpt lat="45.694026947021484" lon="10.390942096710205">
        <ele>308.4259876449096</ele>
        <time>2017-11-13T16:34:15.023000Z</time>
      </trkpt>
      <trkpt lat="45.69563627243042" lon="10.389890670776367">
        <ele>315.0</ele>
        <time>2017-11-13T16:34:17.859000Z</time>
      </trkpt>
      <trkpt lat="45.69683790206909" lon="10.388796329498291">
        <ele>305.0</ele>
        <time>2017-11-13T16:34:20.142000Z</time>
      </trkpt>
      <trkpt lat="45.69818981923163" lon="10.388453006744385">
        <ele>305.0</ele>
        <time>2017-11-13T16:34:22.343000Z</time>
      </trkpt>
      <trkpt lat="45.69870471954346" lon="10.388345718383789">
        <ele>303.6666666666667</ele>
        <time>2017-11-13T16:34:23.177000Z</time>
      </trkpt>
      <trkpt lat="45.698726177215576" lon="10.388431549072266">
        <ele>303.7895912184641</ele>
        <time>2017-11-13T16:34:23.279000Z</time>
      </trkpt>
      <trkpt lat="45.69885492324829" lon="10.388474464416504">
        <ele>304.0447962952672</ele>
        <time>2017-11-13T16:34:23.491000Z</time>
      </trkpt>
      <trkpt lat="45.69891929626465" lon="10.388281345367432">
        <ele>305.0</ele>
        <time>2017-11-13T16:34:23.731000Z</time>
      </trkpt>
      <trkpt lat="45.700211280733775" lon="10.387979004305187">
        <ele>306.8598319498763</ele>
        <time>2017-11-13T16:34:25.830000Z</time>
      </trkpt>
      <trkpt lat="45.700211115181446" lon="10.387979093939066">
        <ele>306.85995324267304</ele>
        <time>2017-11-13T16:34:25.830000Z</time>
      </trkpt>
      <trkpt lat="45.7002117690584" lon="10.3879789408433">
        <ele>306.8604072942754</ele>
        <time>2017-11-13T16:34:25.830000Z</time>
      </trkpt>
      <trkpt lat="45.700211618095636" lon="10.387978926301003">
        <ele>306.86051098251136</ele>
        <time>2017-11-13T16:34:25.830000Z</time>
      </trkpt>
      <trkpt lat="45.700211534276605" lon="10.387978926301003">
        <ele>306.8605684234621</ele>
        <time>2017-11-13T16:34:25.830000Z</time>
      </trkpt>
      <trkpt lat="45.70093640126288" lon="10.38780927658081">
        <ele>307.69724340929656</ele>
        <time>2017-11-13T16:34:27.007000Z</time>
      </trkpt>
      <trkpt lat="45.70136555470526" lon="10.387659072875977">
        <ele>308.0</ele>
        <time>2017-11-13T16:34:27.715000Z</time>
      </trkpt>
      <trkpt lat="45.70185899734497" lon="10.38731575012207">
        <ele>309.26710753777024</ele>
        <time>2017-11-13T16:34:28.595000Z</time>
      </trkpt>
      <trkpt lat="45.70209511555731" lon="10.387122631072998">
        <ele>309.72993772438105</ele>
        <time>2017-11-13T16:34:29.031000Z</time>
      </trkpt>
      <trkpt lat="45.70215940475464" lon="10.387101173400879">
        <ele>309.84229533890306</ele>
        <time>2017-11-13T16:34:29.137000Z</time>
      </trkpt>
      <trkpt lat="45.70220232009888" lon="10.386886596679688">
        <ele>310.1076153297542</ele>
        <time>2017-11-13T16:34:29.387000Z</time>
      </trkpt>
      <trkpt lat="45.70218086242676" lon="10.386865139007568">
        <ele>310.15216270144373</ele>
        <time>2017-11-13T16:34:29.429000Z</time>
      </trkpt>
      <trkpt lat="45.70207357406616" lon="10.386435985565186">
        <ele>311.0273305017782</ele>
        <time>2017-11-13T16:34:29.939000Z</time>
      </trkpt>
      <trkpt lat="45.70190199650824" lon="10.385727882385254">
        <ele>313.57279785568016</ele>
        <time>2017-11-13T16:34:30.778000Z</time>
      </trkpt>
      <trkpt lat="45.70160150527954" lon="10.384461879730225">
        <ele>314.38722128446244</ele>
        <time>2017-11-13T16:34:32.275000Z</time>
      </trkpt>
      <trkpt lat="45.70164442062378" lon="10.384054183959961">
        <ele>318.20920453946405</ele>
        <time>2017-11-13T16:34:32.737000Z</time>
      </trkpt>
      <trkpt lat="45.701751708984375" lon="10.383882522583008">
        <ele>320.7076178877887</ele>
        <time>2017-11-13T16:34:32.995000Z</time>
      </trkpt>
      <trkpt lat="45.702266693115234" lon="10.38334608078003">
        <ele>324.0</ele>
        <time>2017-11-13T16:34:34.016000Z</time>
      </trkpt>
      <trkpt lat="45.702524185180664" lon="10.38283109664917">
        <ele>326.1119725063339</ele>
        <time>2017-11-13T16:34:34.725000Z</time>
      </trkpt>
      <trkpt lat="45.70284605026245" lon="10.381886959075928">
        <ele>324.297711407686</ele>
        <time>2017-11-13T16:34:35.901000Z</time>
      </trkpt>
      <trkpt lat="45.70303916931152" lon="10.381543636322021">
        <ele>321.51646797675534</ele>
        <time>2017-11-13T16:34:36.395000Z</time>
      </trkpt>
      <trkpt lat="45.703039253130555" lon="10.381543636322021">
        <ele>321.5165275342056</ele>
        <time>2017-11-13T16:34:36.395000Z</time>
      </trkpt>
      <trkpt lat="45.703232288360596" lon="10.381135940551758">
        <ele>321.760950529578</ele>
        <time>2017-11-13T16:34:36.946000Z</time>
      </trkpt>
      <trkpt lat="45.703275203704834" lon="10.380899906158447">
        <ele>321.88198186372927</ele>
        <time>2017-11-13T16:34:37.219000Z</time>
      </trkpt>
      <trkpt lat="45.70318937301636" lon="10.379998683929443">
        <ele>326.0</ele>
        <time>2017-11-13T16:34:38.237000Z</time>
      </trkpt>
      <trkpt lat="45.70318945683539" lon="10.379998683929443">
        <ele>326.0000474235223</ele>
        <time>2017-11-13T16:34:38.237000Z</time>
      </trkpt>
      <trkpt lat="45.702996253967285" lon="10.379011631011963">
        <ele>329.40509207791047</ele>
        <time>2017-11-13T16:34:39.385000Z</time>
      </trkpt>
      <trkpt lat="45.70288896560669" lon="10.378732681274414">
        <ele>329.5309238811119</ele>
        <time>2017-11-13T16:34:39.742000Z</time>
      </trkpt>
      <trkpt lat="45.70117235183716" lon="10.375943183898926">
        <ele>329.0</ele>
        <time>2017-11-13T16:34:43.905000Z</time>
      </trkpt>
      <trkpt lat="45.70104360580444" lon="10.375728607177734">
        <ele>337.9719572291592</ele>
        <time>2017-11-13T16:34:44.222000Z</time>
      </trkpt>
      <trkpt lat="45.7008505705744" lon="10.374891757965088">
        <ele>341.0</ele>
        <time>2017-11-13T16:34:45.209000Z</time>
      </trkpt>
      <trkpt lat="45.70087194442749" lon="10.374376773834229">
        <ele>339.8254532096128</ele>
        <time>2017-11-13T16:34:45.787000Z</time>
      </trkpt>
      <trkpt lat="45.70104360580444" lon="10.373303890228271">
        <ele>335.6528468923971</ele>
        <time>2017-11-13T16:34:47.019000Z</time>
      </trkpt>
      <trkpt lat="45.70106506347656" lon="10.372788906097412">
        <ele>334.2927863630211</ele>
        <time>2017-11-13T16:34:47.597000Z</time>
      </trkpt>
      <trkpt lat="45.700743198394775" lon="10.370965003967285">
        <ele>326.0</ele>
        <time>2017-11-13T16:34:49.703000Z</time>
      </trkpt>
      <trkpt lat="45.700764656066895" lon="10.370793342590332">
        <ele>327.221143197987</ele>
        <time>2017-11-13T16:34:49.898000Z</time>
      </trkpt>
      <trkpt lat="45.70119380950928" lon="10.369956493377686">
        <ele>343.4756336456212</ele>
        <time>2017-11-13T16:34:51.060000Z</time>
      </trkpt>
      <trkpt lat="45.70136547088623" lon="10.369055271148682">
        <ele>348.0</ele>
        <time>2017-11-13T16:34:52.106000Z</time>
      </trkpt>
      <trkpt lat="45.70134401321411" lon="10.368647575378418">
        <ele>347.4284268823995</ele>
        <time>2017-11-13T16:34:52.564000Z</time>
      </trkpt>
      <trkpt lat="45.701022148132324" lon="10.367703437805176">
        <ele>347.2929998320451</ele>
        <time>2017-11-13T16:34:53.740000Z</time>
      </trkpt>
      <trkpt lat="45.700979232788086" lon="10.367166996002197">
        <ele>343.87148116278445</ele>
        <time>2017-11-13T16:34:54.345000Z</time>
      </trkpt>
      <trkpt lat="45.701022148132324" lon="10.366802215576172">
        <ele>343.3079558348507</ele>
        <time>2017-11-13T16:34:54.759000Z</time>
      </trkpt>
      <trkpt lat="45.701472759246826" lon="10.365192890167236">
        <ele>339.0</ele>
        <time>2017-11-13T16:34:56.700000Z</time>
      </trkpt>
      <trkpt lat="45.70145130157471" lon="10.363733768463135">
        <ele>331.0</ele>
        <time>2017-11-13T16:34:58.334000Z</time>
      </trkpt>
      <trkpt lat="45.70160158909857" lon="10.363283157348633">
        <ele>333.5932829203801</ele>
        <time>2017-11-13T16:34:58.893000Z</time>
      </trkpt>
      <trkpt lat="45.70175179280341" lon="10.36309003829956">
        <ele>335.9014420598032</ele>
        <time>2017-11-13T16:34:59.217000Z</time>
      </trkpt>
      <trkpt lat="45.70205211639404" lon="10.362553596496582">
        <ele>339.0129610863186</ele>
        <time>2017-11-13T16:34:59.987000Z</time>
      </trkpt>
      <trkpt lat="45.70233114995062" lon="10.361502170562744">
        <ele>346.1033415987419</ele>
        <time>2017-11-13T16:35:01.246000Z</time>
      </trkpt>
      <trkpt lat="45.702502727508545" lon="10.360751152038574">
        <ele>359.92835968335277</ele>
        <time>2017-11-13T16:35:02.131000Z</time>
      </trkpt>
      <trkpt lat="45.70288896560669" lon="10.359699726104736">
        <ele>367.6866862550005</ele>
        <time>2017-11-13T16:35:03.461000Z</time>
      </trkpt>
      <trkpt lat="45.70254564285278" lon="10.357446670532227">
        <ele>373.0</ele>
        <time>2017-11-13T16:35:06.043000Z</time>
      </trkpt>
      <trkpt lat="45.70291042327881" lon="10.355772972106934">
        <ele>369.91239908789476</ele>
        <time>2017-11-13T16:35:08.006000Z</time>
      </trkpt>
      <trkpt lat="45.70303916931152" lon="10.354335308074951">
        <ele>378.0</ele>
        <time>2017-11-13T16:35:09.629000Z</time>
      </trkpt>
      <trkpt lat="45.703017711639404" lon="10.353970527648926">
        <ele>376.18369413602505</ele>
        <time>2017-11-13T16:35:10.039000Z</time>
      </trkpt>
      <trkpt lat="45.70288896560669" lon="10.353562831878662">
        <ele>375.59337273528945</ele>
        <time>2017-11-13T16:35:10.540000Z</time>
      </trkpt>
      <trkpt lat="45.70233106613159" lon="10.352683067321777">
        <ele>370.8377025475672</ele>
        <time>2017-11-13T16:35:11.870000Z</time>
      </trkpt>
      <trkpt lat="45.70185899734497" lon="10.351781845092773">
        <ele>381.0</ele>
        <time>2017-11-13T16:35:13.131000Z</time>
      </trkpt>
      <trkpt lat="45.701773166656494" lon="10.351524353027344">
        <ele>388.62259701142443</ele>
        <time>2017-11-13T16:35:13.450000Z</time>
      </trkpt>
      <trkpt lat="45.701236724853516" lon="10.35036563873291">
        <ele>383.65617227092093</ele>
        <time>2017-11-13T16:35:15.006000Z</time>
      </trkpt>
      <trkpt lat="45.70104360580444" lon="10.349829196929932">
        <ele>394.52302383476695</ele>
        <time>2017-11-13T16:35:15.682000Z</time>
      </trkpt>
      <trkpt lat="45.700249671936035" lon="10.347318649291992">
        <ele>403.38790302958324</ele>
        <time>2017-11-13T16:35:18.768000Z</time>
      </trkpt>
      <trkpt lat="45.69945573806763" lon="10.345902442932129">
        <ele>387.0</ele>
        <time>2017-11-13T16:35:20.801000Z</time>
      </trkpt>
      <trkpt lat="45.699305618181825" lon="10.345065593719482">
        <ele>388.3963535691549</ele>
        <time>2017-11-13T16:35:21.768000Z</time>
      </trkpt>
      <trkpt lat="45.69917687214911" lon="10.344722270965576">
        <ele>394.58684561546676</ele>
        <time>2017-11-13T16:35:22.204000Z</time>
      </trkpt>
      <trkpt lat="45.69887638092041" lon="10.344228744506836">
        <ele>383.0</ele>
        <time>2017-11-13T16:35:22.937000Z</time>
      </trkpt>
      <trkpt lat="45.698769092559814" lon="10.343906879425049">
        <ele>386.91775935329406</ele>
        <time>2017-11-13T16:35:23.336000Z</time>
      </trkpt>
      <trkpt lat="45.698747634887695" lon="10.343542098999023">
        <ele>388.2019288502598</ele>
        <time>2017-11-13T16:35:23.746000Z</time>
      </trkpt>
      <trkpt lat="45.69887638092041" lon="10.342855453491211">
        <ele>389.3626127619619</ele>
        <time>2017-11-13T16:35:24.542000Z</time>
      </trkpt>
      <trkpt lat="45.69885492324829" lon="10.342533588409424">
        <ele>391.4543184779145</ele>
        <time>2017-11-13T16:35:24.904000Z</time>
      </trkpt>
      <trkpt lat="45.69870471954346" lon="10.341997146606445">
        <ele>396.5265585682677</ele>
        <time>2017-11-13T16:35:25.551000Z</time>
      </trkpt>
      <trkpt lat="45.69836139678955" lon="10.341246128082275">
        <ele>408.0</ele>
        <time>2017-11-13T16:35:26.556000Z</time>
      </trkpt>
      <trkpt lat="45.69829702377319" lon="10.340945720672607">
        <ele>397.83652692609166</ele>
        <time>2017-11-13T16:35:26.908000Z</time>
      </trkpt>
      <trkpt lat="45.69833993911743" lon="10.340688228607178">
        <ele>410.084659057965</ele>
        <time>2017-11-13T16:35:27.204000Z</time>
      </trkpt>
      <trkpt lat="45.69857597351074" lon="10.339829921722412">
        <ele>407.2929179927659</ele>
        <time>2017-11-13T16:35:28.237000Z</time>
      </trkpt>
      <trkpt lat="45.69861888885498" lon="10.339336395263672">
        <ele>406.506615222748</ele>
        <time>2017-11-13T16:35:28.794000Z</time>
      </trkpt>
      <trkpt lat="45.69859743118286" lon="10.339100360870361">
        <ele>401.5329136041068</ele>
        <time>2017-11-13T16:35:29.061000Z</time>
      </trkpt>
      <trkpt lat="45.69812536239624" lon="10.338091850280762">
        <ele>392.6000286087001</ele>
        <time>2017-11-13T16:35:30.420000Z</time>
      </trkpt>
      <trkpt lat="45.69758892059326" lon="10.336053371429443">
        <ele>402.4480815296104</ele>
        <time>2017-11-13T16:35:32.859000Z</time>
      </trkpt>
      <trkpt lat="45.695528984069824" lon="10.32987356185913">
        <ele>401.0</ele>
        <time>2017-11-13T16:35:40.526000Z</time>
      </trkpt>
      <trkpt lat="45.695507526397705" lon="10.329530239105225">
        <ele>401.0</ele>
        <time>2017-11-13T16:35:40.912000Z</time>
      </trkpt>
      <trkpt lat="45.69570064544678" lon="10.329036712646484">
        <ele>402.0</ele>
        <time>2017-11-13T16:35:41.545000Z</time>
      </trkpt>
      <trkpt lat="45.695786476135254" lon="10.328328609466553">
        <ele>406.2513599376047</ele>
        <time>2017-11-13T16:35:42.350000Z</time>
      </trkpt>
      <trkpt lat="45.69525011815131" lon="10.325496196746826">
        <ele>416.0</ele>
        <time>2017-11-13T16:35:45.636000Z</time>
      </trkpt>
      <trkpt lat="45.694799507036805" lon="10.322985649108887">
        <ele>414.0</ele>
        <time>2017-11-13T16:35:48.539000Z</time>
      </trkpt>
      <trkpt lat="45.69473513402045" lon="10.322513580322266">
        <ele>414.6534903154761</ele>
        <time>2017-11-13T16:35:49.078000Z</time>
      </trkpt>
      <trkpt lat="45.69460638798773" lon="10.322041511535645">
        <ele>420.0086980312572</ele>
        <time>2017-11-13T16:35:49.645000Z</time>
      </trkpt>
      <trkpt lat="45.694542014971375" lon="10.321612358093262">
        <ele>423.27173460080456</ele>
        <time>2017-11-13T16:35:50.137000Z</time>
      </trkpt>
      <trkpt lat="45.69439172744751" lon="10.320110321044922">
        <ele>426.0</ele>
        <time>2017-11-13T16:35:51.836000Z</time>
      </trkpt>
      <trkpt lat="45.69441326893866" lon="10.319831371307373">
        <ele>427.2031022508199</ele>
        <time>2017-11-13T16:35:52.150000Z</time>
      </trkpt>
      <trkpt lat="45.69494962692261" lon="10.31893014907837">
        <ele>432.2057882805916</ele>
        <time>2017-11-13T16:35:53.476000Z</time>
      </trkpt>
      <trkpt lat="45.69512128829956" lon="10.318608283996582">
        <ele>435.6000038715479</ele>
        <time>2017-11-13T16:35:53.929000Z</time>
      </trkpt>
      <trkpt lat="45.69520996447896" lon="10.318526879097165">
        <ele>435.9080663052228</ele>
        <time>2017-11-13T16:35:54.098000Z</time>
      </trkpt>
      <trkpt lat="45.69521022029221" lon="10.318526644259691">
        <ele>435.9089550049201</ele>
        <time>2017-11-13T16:35:54.098000Z</time>
      </trkpt>
      <trkpt lat="45.69521013647318" lon="10.318526644259691">
        <ele>435.90920013096655</ele>
        <time>2017-11-13T16:35:54.098000Z</time>
      </trkpt>
      <trkpt lat="45.69537878036499" lon="10.318372249603271">
        <ele>436.49460767077557</ele>
        <time>2017-11-13T16:35:54.419000Z</time>
      </trkpt>
      <trkpt lat="45.696022510528564" lon="10.318114757537842">
        <ele>439.11593651979405</ele>
        <time>2017-11-13T16:35:55.491000Z</time>
      </trkpt>
      <trkpt lat="45.69640874862671" lon="10.317385196685791">
        <ele>440.5148865927067</ele>
        <time>2017-11-13T16:35:56.516000Z</time>
      </trkpt>
      <trkpt lat="45.69746017456055" lon="10.316312313079834">
        <ele>444.0</ele>
        <time>2017-11-13T16:35:58.586000Z</time>
      </trkpt>
      <trkpt lat="45.697524547576904" lon="10.316312313079834">
        <ele>447.8284377461193</ele>
        <time>2017-11-13T16:35:58.689000Z</time>
      </trkpt>
      <trkpt lat="45.69756746292114" lon="10.316376686096191">
        <ele>447.984634471202</ele>
        <time>2017-11-13T16:35:58.789000Z</time>
      </trkpt>
      <trkpt lat="45.69756746292114" lon="10.316483974456787">
        <ele>448.17294832118597</ele>
        <time>2017-11-13T16:35:58.909000Z</time>
      </trkpt>
      <trkpt lat="45.69694519042969" lon="10.317342281341553">
        <ele>448.0110270282751</ele>
        <time>2017-11-13T16:36:00.294000Z</time>
      </trkpt>
      <trkpt lat="45.69690227508545" lon="10.317471027374268">
        <ele>448.26304966237103</ele>
        <time>2017-11-13T16:36:00.454000Z</time>
      </trkpt>
      <trkpt lat="45.69692373275757" lon="10.317578315734863">
        <ele>453.79354058913526</ele>
        <time>2017-11-13T16:36:00.579000Z</time>
      </trkpt>
      <trkpt lat="45.69698818959296" lon="10.317621231079102">
        <ele>453.97334139244253</ele>
        <time>2017-11-13T16:36:00.693000Z</time>
      </trkpt>
      <trkpt lat="45.69821119308472" lon="10.316162109375">
        <ele>455.0</ele>
        <time>2017-11-13T16:36:03.245000Z</time>
      </trkpt>
      <trkpt lat="45.69855451583862" lon="10.315389633178711">
        <ele>476.0</ele>
        <time>2017-11-13T16:36:04.270000Z</time>
      </trkpt>
      <trkpt lat="45.69863159990742" lon="10.315343216069586">
        <ele>476.3801924243674</ele>
        <time>2017-11-13T16:36:04.404000Z</time>
      </trkpt>
      <trkpt lat="45.698631617877915" lon="10.315343205248372">
        <ele>476.38028105813186</ele>
        <time>2017-11-13T16:36:04.404000Z</time>
      </trkpt>
      <trkpt lat="45.69863204844296" lon="10.315342945978045">
        <ele>476.3824046824273</ele>
        <time>2017-11-13T16:36:04.404000Z</time>
      </trkpt>
      <trkpt lat="45.698631796985865" lon="10.31534319743514">
        <ele>476.3837991559628</ele>
        <time>2017-11-13T16:36:04.404000Z</time>
      </trkpt>
      <trkpt lat="45.69866180419922" lon="10.315325260162354">
        <ele>476.5316381788277</ele>
        <time>2017-11-13T16:36:04.456000Z</time>
      </trkpt>
      <trkpt lat="45.698747634887695" lon="10.315518379211426">
        <ele>477.2584969819181</ele>
        <time>2017-11-13T16:36:04.712000Z</time>
      </trkpt>
      <trkpt lat="45.698490142822266" lon="10.316505432128906">
        <ele>483.6042680229644</ele>
        <time>2017-11-13T16:36:05.892000Z</time>
      </trkpt>
      <trkpt lat="45.69833993911743" lon="10.316784381866455">
        <ele>487.4792326180838</ele>
        <time>2017-11-13T16:36:06.286000Z</time>
      </trkpt>
      <trkpt lat="45.69771766662598" lon="10.317578315734863">
        <ele>486.64766276529946</ele>
        <time>2017-11-13T16:36:07.622000Z</time>
      </trkpt>
      <trkpt lat="45.69761037826538" lon="10.317857265472412">
        <ele>486.3893045009452</ele>
        <time>2017-11-13T16:36:07.979000Z</time>
      </trkpt>
      <trkpt lat="45.697524547576904" lon="10.318286418914795">
        <ele>486.42345351999666</ele>
        <time>2017-11-13T16:36:08.479000Z</time>
      </trkpt>
      <trkpt lat="45.69664478302002" lon="10.319380760192871">
        <ele>481.8844536936495</ele>
        <time>2017-11-13T16:36:10.347000Z</time>
      </trkpt>
      <trkpt lat="45.69660186767578" lon="10.319595336914062">
        <ele>484.3895709748024</ele>
        <time>2017-11-13T16:36:10.597000Z</time>
      </trkpt>
      <trkpt lat="45.6966233253479" lon="10.319788455963135">
        <ele>486.5843204814919</ele>
        <time>2017-11-13T16:36:10.816000Z</time>
      </trkpt>
      <trkpt lat="45.69694519042969" lon="10.320453643798828">
        <ele>507.0</ele>
        <time>2017-11-13T16:36:11.722000Z</time>
      </trkpt>
      <trkpt lat="45.69696664810181" lon="10.320689678192139">
        <ele>507.19162817262196</ele>
        <time>2017-11-13T16:36:11.989000Z</time>
      </trkpt>
      <trkpt lat="45.69685935974121" lon="10.321033000946045">
        <ele>508.1610998471133</ele>
        <time>2017-11-13T16:36:12.410000Z</time>
      </trkpt>
      <trkpt lat="45.69683790206909" lon="10.321333408355713">
        <ele>508.4042122141594</ele>
        <time>2017-11-13T16:36:12.748000Z</time>
      </trkpt>
      <trkpt lat="45.696988105773926" lon="10.322041511535645">
        <ele>509.6666666666667</ele>
        <time>2017-11-13T16:36:13.577000Z</time>
      </trkpt>
      <trkpt lat="45.697009563446045" lon="10.322835445404053">
        <ele>508.1332237510992</ele>
        <time>2017-11-13T16:36:14.467000Z</time>
      </trkpt>
      <trkpt lat="45.69715976715088" lon="10.322813987731934">
        <ele>508.07879184812947</ele>
        <time>2017-11-13T16:36:14.709000Z</time>
      </trkpt>
      <trkpt lat="45.697181224823" lon="10.322706699371338">
        <ele>508.09140838764097</ele>
        <time>2017-11-13T16:36:14.834000Z</time>
      </trkpt>
      <trkpt lat="45.69713830947876" lon="10.321183204650879">
        <ele>508.9304483200342</ele>
        <time>2017-11-13T16:36:16.541000Z</time>
      </trkpt>
      <trkpt lat="45.697181224823" lon="10.32092571258545">
        <ele>509.0270478661593</ele>
        <time>2017-11-13T16:36:16.837000Z</time>
      </trkpt>
      <trkpt lat="45.697267055511475" lon="10.320861339569092">
        <ele>509.07767071459443</ele>
        <time>2017-11-13T16:36:16.992000Z</time>
      </trkpt>
      <trkpt lat="45.69735288619995" lon="10.320861339569092">
        <ele>509.12251352246614</ele>
        <time>2017-11-13T16:36:17.130000Z</time>
      </trkpt>
      <trkpt lat="45.69739580154419" lon="10.320968627929688">
        <ele>509.16762978562656</ele>
        <time>2017-11-13T16:36:17.268000Z</time>
      </trkpt>
      <trkpt lat="45.697267055511475" lon="10.321483612060547">
        <ele>509.3672278257122</ele>
        <time>2017-11-13T16:36:17.880000Z</time>
      </trkpt>
      <trkpt lat="45.69733142852783" lon="10.322299003601074">
        <ele>513.5151272046671</ele>
        <time>2017-11-13T16:36:18.799000Z</time>
      </trkpt>
      <trkpt lat="45.69735288619995" lon="10.322470664978027">
        <ele>514.7984938475853</ele>
        <time>2017-11-13T16:36:18.994000Z</time>
      </trkpt>
      <trkpt lat="45.69743871688843" lon="10.322535037994385">
        <ele>514.4860855937117</ele>
        <time>2017-11-13T16:36:19.149000Z</time>
      </trkpt>
      <trkpt lat="45.697524547576904" lon="10.322492122650146">
        <ele>521.44400383336</ele>
        <time>2017-11-13T16:36:19.295000Z</time>
      </trkpt>
      <trkpt lat="45.69754600524902" lon="10.32238483428955">
        <ele>522.2652931306189</ele>
        <time>2017-11-13T16:36:19.420000Z</time>
      </trkpt>
      <trkpt lat="45.69743871688843" lon="10.32167673110962">
        <ele>521.6197803708291</ele>
        <time>2017-11-13T16:36:20.231000Z</time>
      </trkpt>
      <trkpt lat="45.697503089904785" lon="10.32139778137207">
        <ele>529.5835069299019</ele>
        <time>2017-11-13T16:36:20.560000Z</time>
      </trkpt>
      <trkpt lat="45.69788932800293" lon="10.320990085601807">
        <ele>533.3963361640807</ele>
        <time>2017-11-13T16:36:21.329000Z</time>
      </trkpt>
      <trkpt lat="45.697975158691406" lon="10.320796966552734">
        <ele>537.0</ele>
        <time>2017-11-13T16:36:21.585000Z</time>
      </trkpt>
      <trkpt lat="45.69795370101929" lon="10.320603847503662">
        <ele>537.0690861428725</ele>
        <time>2017-11-13T16:36:21.804000Z</time>
      </trkpt>
      <trkpt lat="45.697782039642334" lon="10.319960117340088">
        <ele>533.6458601106034</ele>
        <time>2017-11-13T16:36:22.576000Z</time>
      </trkpt>
      <trkpt lat="45.69788932800293" lon="10.319766998291016">
        <ele>533.7330401165598</ele>
        <time>2017-11-13T16:36:22.852000Z</time>
      </trkpt>
      <trkpt lat="45.697975158691406" lon="10.319852828979492">
        <ele>533.7859975265935</ele>
        <time>2017-11-13T16:36:23.020000Z</time>
      </trkpt>
      <trkpt lat="45.698232650756836" lon="10.320582389831543">
        <ele>537.7414540029312</ele>
        <time>2017-11-13T16:36:23.935000Z</time>
      </trkpt>
      <trkpt lat="45.69859743118286" lon="10.321204662322998">
        <ele>540.008369306187</ele>
        <time>2017-11-13T16:36:24.845000Z</time>
      </trkpt>
      <trkpt lat="45.69891929626465" lon="10.321934223175049">
        <ele>541.0</ele>
        <time>2017-11-13T16:36:25.811000Z</time>
      </trkpt>
      <trkpt lat="45.699026584625244" lon="10.322020053863525">
        <ele>542.3225773566168</ele>
        <time>2017-11-13T16:36:26.008000Z</time>
      </trkpt>
      <trkpt lat="45.69913387298584" lon="10.32189130783081">
        <ele>543.8290352695104</ele>
        <time>2017-11-13T16:36:26.232000Z</time>
      </trkpt>
      <trkpt lat="45.69911241531372" lon="10.321526527404785">
        <ele>546.580454319379</ele>
        <time>2017-11-13T16:36:26.642000Z</time>
      </trkpt>
      <trkpt lat="45.69915533065796" lon="10.321311950683594">
        <ele>548.2580466347672</ele>
        <time>2017-11-13T16:36:26.892000Z</time>
      </trkpt>
      <trkpt lat="45.699477195739746" lon="10.321011543273926">
        <ele>558.7260370862836</ele>
        <time>2017-11-13T16:36:27.508000Z</time>
      </trkpt>
      <trkpt lat="45.69958448410034" lon="10.320818424224854">
        <ele>561.5496806027621</ele>
        <time>2017-11-13T16:36:27.784000Z</time>
      </trkpt>
      <trkpt lat="45.69962739944458" lon="10.320217609405518">
        <ele>563.5655213972805</ele>
        <time>2017-11-13T16:36:28.460000Z</time>
      </trkpt>
      <trkpt lat="45.69971323013306" lon="10.32017469406128">
        <ele>564.0</ele>
        <time>2017-11-13T16:36:28.606000Z</time>
      </trkpt>
      <trkpt lat="45.69979906082153" lon="10.32038927078247">
        <ele>564.2942289095373</ele>
        <time>2017-11-13T16:36:28.883000Z</time>
      </trkpt>
      <trkpt lat="45.69971323013306" lon="10.321075916290283">
        <ele>563.1242357552732</ele>
        <time>2017-11-13T16:36:29.664000Z</time>
      </trkpt>
      <trkpt lat="45.699734687805176" lon="10.321269035339355">
        <ele>563.6472513224231</ele>
        <time>2017-11-13T16:36:29.883000Z</time>
      </trkpt>
      <trkpt lat="45.69982051849365" lon="10.32139778137207">
        <ele>564.123289687797</ele>
        <time>2017-11-13T16:36:30.082000Z</time>
      </trkpt>
      <trkpt lat="45.69994926452637" lon="10.32141923904419">
        <ele>564.619656309968</ele>
        <time>2017-11-13T16:36:30.290000Z</time>
      </trkpt>
      <trkpt lat="45.70007801055908" lon="10.32141923904419">
        <ele>567.7793606115921</ele>
        <time>2017-11-13T16:36:30.496000Z</time>
      </trkpt>
      <trkpt lat="45.70037841796875" lon="10.321226119995117">
        <ele>569.0404139675849</ele>
        <time>2017-11-13T16:36:31.024000Z</time>
      </trkpt>
      <trkpt lat="45.7005500793457" lon="10.320990085601807">
        <ele>569.9518326019783</ele>
        <time>2017-11-13T16:36:31.406000Z</time>
      </trkpt>
      <trkpt lat="45.70070028305054" lon="10.320882797241211">
        <ele>570.5946452427562</ele>
        <time>2017-11-13T16:36:31.675000Z</time>
      </trkpt>
      <trkpt lat="45.70093631744385" lon="10.320839881896973">
        <ele>574.710878694519</ele>
        <time>2017-11-13T16:36:32.056000Z</time>
      </trkpt>
      <trkpt lat="45.70160150527954" lon="10.321011543273926">
        <ele>579.6149213796101</ele>
        <time>2017-11-13T16:36:33.140000Z</time>
      </trkpt>
      <trkpt lat="45.702009201049805" lon="10.320839881896973">
        <ele>583.6982070276753</ele>
        <time>2017-11-13T16:36:33.821000Z</time>
      </trkpt>
      <trkpt lat="45.702245235443115" lon="10.320818424224854">
        <ele>595.3489609160625</ele>
        <time>2017-11-13T16:36:34.200000Z</time>
      </trkpt>
      <trkpt lat="45.70265293121338" lon="10.320990085601807">
        <ele>590.1795327918749</ele>
        <time>2017-11-13T16:36:34.881000Z</time>
      </trkpt>
      <trkpt lat="45.702738761901855" lon="10.32092571258545">
        <ele>591.128919703704</ele>
        <time>2017-11-13T16:36:35.036000Z</time>
      </trkpt>
      <trkpt lat="45.702738761901855" lon="10.320818424224854">
        <ele>600.1964305624373</ele>
        <time>2017-11-13T16:36:35.156000Z</time>
      </trkpt>
      <trkpt lat="45.70269584655762" lon="10.320689678192139">
        <ele>601.1726516086633</ele>
        <time>2017-11-13T16:36:35.316000Z</time>
      </trkpt>
      <trkpt lat="45.70254564285278" lon="10.3206467628479">
        <ele>602.6734238119741</ele>
        <time>2017-11-13T16:36:35.562000Z</time>
      </trkpt>
      <trkpt lat="45.70194491185248" lon="10.320603847503662">
        <ele>606.4487201277715</ele>
        <time>2017-11-13T16:36:36.526000Z</time>
      </trkpt>
      <trkpt lat="45.7012152671814" lon="10.320217609405518">
        <ele>605.7357321258352</ele>
        <time>2017-11-13T16:36:37.773000Z</time>
      </trkpt>
      <trkpt lat="45.70085048675537" lon="10.320131778717041">
        <ele>604.1818884208975</ele>
        <time>2017-11-13T16:36:38.366000Z</time>
      </trkpt>
      <trkpt lat="45.70067882537842" lon="10.31991720199585">
        <ele>600.2240706258991</ele>
        <time>2017-11-13T16:36:38.731000Z</time>
      </trkpt>
      <trkpt lat="45.70061445236206" lon="10.3196382522583">
        <ele>599.3616379351986</ele>
        <time>2017-11-13T16:36:39.060000Z</time>
      </trkpt>
      <trkpt lat="45.70061445236206" lon="10.319359302520752">
        <ele>598.9842516955946</ele>
        <time>2017-11-13T16:36:39.372000Z</time>
      </trkpt>
      <trkpt lat="45.70067882537842" lon="10.319058895111084">
        <ele>597.5591358766316</ele>
        <time>2017-11-13T16:36:39.724000Z</time>
      </trkpt>
      <trkpt lat="45.7012152671814" lon="10.318264961242676">
        <ele>603.2510019457458</ele>
        <time>2017-11-13T16:36:40.961000Z</time>
      </trkpt>
      <trkpt lat="45.70160150527954" lon="10.31742811203003">
        <ele>598.212563865125</ele>
        <time>2017-11-13T16:36:42.084000Z</time>
      </trkpt>
      <trkpt lat="45.70183753967285" lon="10.317084789276123">
        <ele>604.8594379278564</ele>
        <time>2017-11-13T16:36:42.623000Z</time>
      </trkpt>
      <trkpt lat="45.702009201049805" lon="10.317084789276123">
        <ele>606.5379145317571</ele>
        <time>2017-11-13T16:36:42.898000Z</time>
      </trkpt>
      <trkpt lat="45.70230960845947" lon="10.31742811203003">
        <ele>610.2961561285981</ele>
        <time>2017-11-13T16:36:43.514000Z</time>
      </trkpt>
      <trkpt lat="45.70243835449219" lon="10.317492485046387">
        <ele>611.6295563418147</ele>
        <time>2017-11-13T16:36:43.733000Z</time>
      </trkpt>
      <trkpt lat="45.70261001586914" lon="10.317385196685791">
        <ele>626.0366389326072</ele>
        <time>2017-11-13T16:36:44.033000Z</time>
      </trkpt>
      <trkpt lat="45.70269584655762" lon="10.317106246948242">
        <ele>628.7724773460133</ele>
        <time>2017-11-13T16:36:44.374000Z</time>
      </trkpt>
      <trkpt lat="45.702738761901855" lon="10.31667709350586">
        <ele>632.6634817546084</ele>
        <time>2017-11-13T16:36:44.859000Z</time>
      </trkpt>
      <trkpt lat="45.70310354232788" lon="10.31641960144043">
        <ele>637.556761011967</ele>
        <time>2017-11-13T16:36:45.511000Z</time>
      </trkpt>
      <trkpt lat="45.70316791534424" lon="10.316269397735596">
        <ele>639.1384516199124</ele>
        <time>2017-11-13T16:36:45.708000Z</time>
      </trkpt>
      <trkpt lat="45.70314645767212" lon="10.315840244293213">
        <ele>643.0</ele>
        <time>2017-11-13T16:36:46.190000Z</time>
      </trkpt>
      <trkpt lat="45.70288896560669" lon="10.315003395080566">
        <ele>641.0120340689733</ele>
        <time>2017-11-13T16:36:47.214000Z</time>
      </trkpt>
      <trkpt lat="45.70291042327881" lon="10.314724445343018">
        <ele>634.197368844723</ele>
        <time>2017-11-13T16:36:47.528000Z</time>
      </trkpt>
      <trkpt lat="45.703017711639404" lon="10.314552783966064">
        <ele>633.5286369132976</ele>
        <time>2017-11-13T16:36:47.786000Z</time>
      </trkpt>
      <trkpt lat="45.70316791534424" lon="10.31442403793335">
        <ele>636.4102211454393</ele>
        <time>2017-11-13T16:36:48.067000Z</time>
      </trkpt>
      <trkpt lat="45.70389747619629" lon="10.314059257507324">
        <ele>656.797033294059</ele>
        <time>2017-11-13T16:36:49.306000Z</time>
      </trkpt>
      <trkpt lat="45.70389756001532" lon="10.314059257507324">
        <ele>656.7981779962901</ele>
        <time>2017-11-13T16:36:49.306000Z</time>
      </trkpt>
      <trkpt lat="45.70406913757324" lon="10.31393051147461">
        <ele>659.443621288945</ele>
        <time>2017-11-13T16:36:49.617000Z</time>
      </trkpt>
      <trkpt lat="45.704219341278076" lon="10.313522815704346">
        <ele>678.506574252298</ele>
        <time>2017-11-13T16:36:50.133000Z</time>
      </trkpt>
      <trkpt lat="45.704262256622314" lon="10.313308238983154">
        <ele>680.7376217274119</ele>
        <time>2017-11-13T16:36:50.383000Z</time>
      </trkpt>
      <trkpt lat="45.70419788360596" lon="10.313115119934082">
        <ele>680.0004080980394</ele>
        <time>2017-11-13T16:36:50.623000Z</time>
      </trkpt>
      <trkpt lat="45.70396193303168" lon="10.312750339508057">
        <ele>666.287477915398</ele>
        <time>2017-11-13T16:36:51.180000Z</time>
      </trkpt>
      <trkpt lat="45.7035756111145" lon="10.312192440032959">
        <ele>668.5807979746306</ele>
        <time>2017-11-13T16:36:52.060000Z</time>
      </trkpt>
      <trkpt lat="45.70331811904907" lon="10.311141014099121">
        <ele>650.8767981969821</ele>
        <time>2017-11-13T16:36:53.307000Z</time>
      </trkpt>
      <trkpt lat="45.70331811904907" lon="10.310947895050049">
        <ele>651.5183638352047</ele>
        <time>2017-11-13T16:36:53.523000Z</time>
      </trkpt>
      <trkpt lat="45.70385456085205" lon="10.310347080230713">
        <ele>665.7580604050944</ele>
        <time>2017-11-13T16:36:54.615000Z</time>
      </trkpt>
      <trkpt lat="45.70394039154053" lon="10.310218334197998">
        <ele>667.0909710322195</ele>
        <time>2017-11-13T16:36:54.814000Z</time>
      </trkpt>
      <trkpt lat="45.70396184921265" lon="10.309832096099854">
        <ele>666.6591870120684</ele>
        <time>2017-11-13T16:36:55.248000Z</time>
      </trkpt>
      <trkpt lat="45.70411205291748" lon="10.309531688690186">
        <ele>669.4259767037689</ele>
        <time>2017-11-13T16:36:55.662000Z</time>
      </trkpt>
      <trkpt lat="45.70445537567139" lon="10.308351516723633">
        <ele>688.0</ele>
        <time>2017-11-13T16:36:57.093000Z</time>
      </trkpt>
      <trkpt lat="45.704498291015625" lon="10.307815074920654">
        <ele>681.7224903399555</ele>
        <time>2017-11-13T16:36:57.698000Z</time>
      </trkpt>
      <trkpt lat="45.70482015609741" lon="10.307278633117676">
        <ele>677.199478549789</ele>
        <time>2017-11-13T16:36:58.490000Z</time>
      </trkpt>
      <trkpt lat="45.70482015609741" lon="10.307149887084961">
        <ele>676.7848980013038</ele>
        <time>2017-11-13T16:36:58.634000Z</time>
      </trkpt>
      <trkpt lat="45.704734325408936" lon="10.307064056396484">
        <ele>676.3021736114412</ele>
        <time>2017-11-13T16:36:58.802000Z</time>
      </trkpt>
      <trkpt lat="45.704519748687744" lon="10.306956768035889">
        <ele>675.2541681739567</ele>
        <time>2017-11-13T16:36:59.166000Z</time>
      </trkpt>
      <trkpt lat="45.70439100265503" lon="10.306763648986816">
        <ele>674.3944280498421</ele>
        <time>2017-11-13T16:36:59.465000Z</time>
      </trkpt>
      <trkpt lat="45.70430517196655" lon="10.306377410888672">
        <ele>671.4225597593221</ele>
        <time>2017-11-13T16:36:59.919000Z</time>
      </trkpt>
      <trkpt lat="45.704262256622314" lon="10.305948257446289">
        <ele>671.8077764843084</ele>
        <time>2017-11-13T16:37:00.404000Z</time>
      </trkpt>
      <trkpt lat="45.70432662963867" lon="10.305647850036621">
        <ele>670.8513415513097</ele>
        <time>2017-11-13T16:37:00.756000Z</time>
      </trkpt>
      <trkpt lat="45.70443391799927" lon="10.305476188659668">
        <ele>671.8607670627375</ele>
        <time>2017-11-13T16:37:01.014000Z</time>
      </trkpt>
      <trkpt lat="45.7053352240473" lon="10.305261611938477">
        <ele>684.5935527052205</ele>
        <time>2017-11-13T16:37:02.479000Z</time>
      </trkpt>
      <trkpt lat="45.70544242858887" lon="10.305240154266357">
        <ele>684.9900647691796</ele>
        <time>2017-11-13T16:37:02.653000Z</time>
      </trkpt>
      <trkpt lat="45.70554971694946" lon="10.305089950561523">
        <ele>685.5396862900842</ele>
        <time>2017-11-13T16:37:02.894000Z</time>
      </trkpt>
      <trkpt lat="45.7055926322937" lon="10.30491828918457">
        <ele>687.0060975072832</ele>
        <time>2017-11-13T16:37:03.098000Z</time>
      </trkpt>
      <trkpt lat="45.70554971694946" lon="10.304725170135498">
        <ele>687.5245175157341</ele>
        <time>2017-11-13T16:37:03.325000Z</time>
      </trkpt>
      <trkpt lat="45.70529222488403" lon="10.304403305053711">
        <ele>688.1621203413079</ele>
        <time>2017-11-13T16:37:03.873000Z</time>
      </trkpt>
      <trkpt lat="45.705227851867676" lon="10.304231643676758">
        <ele>688.4159505062362</ele>
        <time>2017-11-13T16:37:04.091000Z</time>
      </trkpt>
      <trkpt lat="45.70533514022827" lon="10.303995609283447">
        <ele>683.2656138081957</ele>
        <time>2017-11-13T16:37:04.406000Z</time>
      </trkpt>
      <trkpt lat="45.706000328063965" lon="10.303373336791992">
        <ele>686.9782884751265</ele>
        <time>2017-11-13T16:37:05.680000Z</time>
      </trkpt>
      <trkpt lat="45.70645093917847" lon="10.303030014038086">
        <ele>679.7230347616058</ele>
        <time>2017-11-13T16:37:06.498000Z</time>
      </trkpt>
      <trkpt lat="45.706751346588135" lon="10.302879810333252">
        <ele>688.7530183157131</ele>
        <time>2017-11-13T16:37:07.008000Z</time>
      </trkpt>
      <trkpt lat="45.70711612701416" lon="10.302858352661133">
        <ele>691.0059293017915</ele>
        <time>2017-11-13T16:37:07.593000Z</time>
      </trkpt>
      <trkpt lat="45.707223415374756" lon="10.302772521972656">
        <ele>691.7643019296034</ele>
        <time>2017-11-13T16:37:07.790000Z</time>
      </trkpt>
      <trkpt lat="45.70733070373535" lon="10.302493572235107">
        <ele>691.8033023570538</ele>
        <time>2017-11-13T16:37:08.147000Z</time>
      </trkpt>
      <trkpt lat="45.70733078755438" lon="10.301849842071533">
        <ele>693.0192874553685</ele>
        <time>2017-11-13T16:37:08.868000Z</time>
      </trkpt>
      <trkpt lat="45.70737361907959" lon="10.300884246826172">
        <ele>695.1802730084906</ele>
        <time>2017-11-13T16:37:09.951000Z</time>
      </trkpt>
      <trkpt lat="45.70737361907959" lon="10.300626754760742">
        <ele>698.0</ele>
        <time>2017-11-13T16:37:10.239000Z</time>
      </trkpt>
      <trkpt lat="45.70733070373535" lon="10.300369262695312">
        <ele>697.9511538306714</ele>
        <time>2017-11-13T16:37:10.535000Z</time>
      </trkpt>
      <trkpt lat="45.7071590423584" lon="10.300068855285645">
        <ele>697.8795306441289</ele>
        <time>2017-11-13T16:37:10.970000Z</time>
      </trkpt>
      <trkpt lat="45.70642948150635" lon="10.299897193908691">
        <ele>698.0175078955905</ele>
        <time>2017-11-13T16:37:12.155000Z</time>
      </trkpt>
      <trkpt lat="45.706214904785156" lon="10.299768447875977">
        <ele>697.5833515967688</ele>
        <time>2017-11-13T16:37:12.528000Z</time>
      </trkpt>
      <trkpt lat="45.70608615875244" lon="10.29942512512207">
        <ele>697.0755108158669</ele>
        <time>2017-11-13T16:37:12.964000Z</time>
      </trkpt>
      <trkpt lat="45.70608615875244" lon="10.29916763305664">
        <ele>696.7399503228899</ele>
        <time>2017-11-13T16:37:13.252000Z</time>
      </trkpt>
      <trkpt lat="45.70617207325995" lon="10.298888683319092">
        <ele>694.6759752308959</ele>
        <time>2017-11-13T16:37:13.593000Z</time>
      </trkpt>
      <trkpt lat="45.70632219314575" lon="10.29841661453247">
        <ele>694.0</ele>
        <time>2017-11-13T16:37:14.174000Z</time>
      </trkpt>
      <trkpt lat="45.70640802383423" lon="10.298309326171875">
        <ele>689.6398267675746</ele>
        <time>2017-11-13T16:37:14.357000Z</time>
      </trkpt>
      <trkpt lat="45.706987380981445" lon="10.298008918762207">
        <ele>696.1613369919045</ele>
        <time>2017-11-13T16:37:15.345000Z</time>
      </trkpt>
      <trkpt lat="45.70739507675171" lon="10.297300815582275">
        <ele>689.34368287366</ele>
        <time>2017-11-13T16:37:16.372000Z</time>
      </trkpt>
      <trkpt lat="45.707506010183934" lon="10.297290088136572">
        <ele>699.8256985716874</ele>
        <time>2017-11-13T16:37:16.550000Z</time>
      </trkpt>
      <trkpt lat="45.70750608905446" lon="10.297290080509653">
        <ele>699.8262782617554</ele>
        <time>2017-11-13T16:37:16.550000Z</time>
      </trkpt>
      <trkpt lat="45.70750689134002" lon="10.297290002927184">
        <ele>699.8321749760494</ele>
        <time>2017-11-13T16:37:16.551000Z</time>
      </trkpt>
      <trkpt lat="45.70750655606389" lon="10.297290002927184">
        <ele>699.8346336207231</ele>
        <time>2017-11-13T16:37:16.551000Z</time>
      </trkpt>
      <trkpt lat="45.707506723701954" lon="10.297290002926184">
        <ele>699.8358629430601</ele>
        <time>2017-11-13T16:37:16.551000Z</time>
      </trkpt>
      <trkpt lat="45.70784568786621" lon="10.297257900238037">
        <ele>702.326983031818</ele>
        <time>2017-11-13T16:37:17.096000Z</time>
      </trkpt>
      <trkpt lat="45.70795297622681" lon="10.29717206954956">
        <ele>703.3145600814781</ele>
        <time>2017-11-13T16:37:17.293000Z</time>
      </trkpt>
      <trkpt lat="45.707995891571045" lon="10.296978950500488">
        <ele>704.4518188892488</ele>
        <time>2017-11-13T16:37:17.520000Z</time>
      </trkpt>
      <trkpt lat="45.707974433898926" lon="10.296356678009033">
        <ele>704.2813606800652</ele>
        <time>2017-11-13T16:37:18.217000Z</time>
      </trkpt>
      <trkpt lat="45.70808172225952" lon="10.296099185943604">
        <ele>705.9639744392821</ele>
        <time>2017-11-13T16:37:18.553000Z</time>
      </trkpt>
      <trkpt lat="45.70838212966919" lon="10.29569149017334">
        <ele>709.2619482402525</ele>
        <time>2017-11-13T16:37:19.217000Z</time>
      </trkpt>
      <trkpt lat="45.70915460586548" lon="10.295562744140625">
        <ele>712.9535425427929</ele>
        <time>2017-11-13T16:37:20.464000Z</time>
      </trkpt>
      <trkpt lat="45.709240436553955" lon="10.295476913452148">
        <ele>723.9893303095341</ele>
        <time>2017-11-13T16:37:20.632000Z</time>
      </trkpt>
      <trkpt lat="45.70930480957031" lon="10.295326709747314">
        <ele>724.1262867871474</ele>
        <time>2017-11-13T16:37:20.829000Z</time>
      </trkpt>
      <trkpt lat="45.70934772491455" lon="10.295004844665527">
        <ele>724.3809323386673</ele>
        <time>2017-11-13T16:37:21.196000Z</time>
      </trkpt>
      <trkpt lat="45.70915460586548" lon="10.294404029846191">
        <ele>717.2282592984926</ele>
        <time>2017-11-13T16:37:21.936000Z</time>
      </trkpt>
      <trkpt lat="45.70915460586548" lon="10.29416799545288">
        <ele>717.4116862398031</ele>
        <time>2017-11-13T16:37:22.200000Z</time>
      </trkpt>
      <trkpt lat="45.70941209793091" lon="10.292987823486328">
        <ele>721.7058858278156</ele>
        <time>2017-11-13T16:37:23.584000Z</time>
      </trkpt>
      <trkpt lat="45.70958375930786" lon="10.292537212371826">
        <ele>718.8761385113589</ele>
        <time>2017-11-13T16:37:24.159000Z</time>
      </trkpt>
      <trkpt lat="45.70984125137329" lon="10.292150974273682">
        <ele>712.4332333213957</ele>
        <time>2017-11-13T16:37:24.757000Z</time>
      </trkpt>
      <trkpt lat="45.71039915084839" lon="10.291807651519775">
        <ele>723.4414483968658</ele>
        <time>2017-11-13T16:37:25.730000Z</time>
      </trkpt>
      <trkpt lat="45.7106351852417" lon="10.29142141342163">
        <ele>719.2169772113448</ele>
        <time>2017-11-13T16:37:26.305000Z</time>
      </trkpt>
      <trkpt lat="45.71093559265137" lon="10.290563106536865">
        <ele>728.2048784749774</ele>
        <time>2017-11-13T16:37:27.380000Z</time>
      </trkpt>
      <trkpt lat="45.71093559265137" lon="10.289876461029053">
        <ele>723.8449230802968</ele>
        <time>2017-11-13T16:37:28.149000Z</time>
      </trkpt>
      <trkpt lat="45.71104288101196" lon="10.289597511291504">
        <ele>723.4893750915153</ele>
        <time>2017-11-13T16:37:28.506000Z</time>
      </trkpt>
      <trkpt lat="45.71168661117554" lon="10.288739204406738">
        <ele>731.8710739961285</ele>
        <time>2017-11-13T16:37:29.916000Z</time>
      </trkpt>
      <trkpt lat="45.712244510650635" lon="10.288782119750977">
        <ele>734.6544397224417</ele>
        <time>2017-11-13T16:37:30.812000Z</time>
      </trkpt>
      <trkpt lat="45.71237325668335" lon="10.288653373718262">
        <ele>735.3043701277478</ele>
        <time>2017-11-13T16:37:31.064000Z</time>
      </trkpt>
      <trkpt lat="45.71241617202759" lon="10.28843879699707">
        <ele>735.5389880749409</ele>
        <time>2017-11-13T16:37:31.314000Z</time>
      </trkpt>
      <trkpt lat="45.71239471435547" lon="10.288224220275879">
        <ele>737.7668377293818</ele>
        <time>2017-11-13T16:37:31.557000Z</time>
      </trkpt>
      <trkpt lat="45.7122015953064" lon="10.287666320800781">
        <ele>738.4213694910712</ele>
        <time>2017-11-13T16:37:32.254000Z</time>
      </trkpt>
      <trkpt lat="45.7120943069458" lon="10.287001132965088">
        <ele>739.8056489737606</ele>
        <time>2017-11-13T16:37:33.018000Z</time>
      </trkpt>
      <trkpt lat="45.711772441864014" lon="10.286593437194824">
        <ele>734.5085834408292</ele>
        <time>2017-11-13T16:37:33.707000Z</time>
      </trkpt>
      <trkpt lat="45.711772441864014" lon="10.286421775817871">
        <ele>734.0537783015283</ele>
        <time>2017-11-13T16:37:33.899000Z</time>
      </trkpt>
      <trkpt lat="45.71185827255249" lon="10.28618574142456">
        <ele>733.3487045952252</ele>
        <time>2017-11-13T16:37:34.197000Z</time>
      </trkpt>
      <trkpt lat="45.71183681488037" lon="10.286164283752441">
        <ele>733.2494037639844</ele>
        <time>2017-11-13T16:37:34.239000Z</time>
      </trkpt>
      <trkpt lat="45.71213722229004" lon="10.28597116470337">
        <ele>732.0</ele>
        <time>2017-11-13T16:37:34.767000Z</time>
      </trkpt>
      <trkpt lat="45.7131028175354" lon="10.285820960998535">
        <ele>736.1605192395028</ele>
        <time>2017-11-13T16:37:36.324000Z</time>
      </trkpt>
      <trkpt lat="45.71333885192871" lon="10.28569221496582">
        <ele>741.6624523352247</ele>
        <time>2017-11-13T16:37:36.729000Z</time>
      </trkpt>
      <trkpt lat="45.713703632354736" lon="10.284919738769531">
        <ele>738.6573464902807</ele>
        <time>2017-11-13T16:37:37.773000Z</time>
      </trkpt>
      <trkpt lat="45.71469068527222" lon="10.283675193786621">
        <ele>745.0</ele>
        <time>2017-11-13T16:37:39.881000Z</time>
      </trkpt>
      <trkpt lat="45.714712142944336" lon="10.283353328704834">
        <ele>744.9418202316106</ele>
        <time>2017-11-13T16:37:40.243000Z</time>
      </trkpt>
      <trkpt lat="45.71460485458374" lon="10.282731056213379">
        <ele>745.1598181199246</ele>
        <time>2017-11-13T16:37:40.960000Z</time>
      </trkpt>
      <trkpt lat="45.7145619392395" lon="10.282580852508545">
        <ele>744.8274883952303</ele>
        <time>2017-11-13T16:37:41.142000Z</time>
      </trkpt>
      <trkpt lat="45.71428298950195" lon="10.281915664672852">
        <ele>741.905243225605</ele>
        <time>2017-11-13T16:37:42.011000Z</time>
      </trkpt>
      <trkpt lat="45.71428298950195" lon="10.281615257263184">
        <ele>739.9222346222144</ele>
        <time>2017-11-13T16:37:42.347000Z</time>
      </trkpt>
      <trkpt lat="45.714454650878906" lon="10.281164646148682">
        <ele>738.8121156820458</ele>
        <time>2017-11-13T16:37:42.922000Z</time>
      </trkpt>
      <trkpt lat="45.71529573779803" lon="10.279842950103953">
        <ele>737.0</ele>
        <time>2017-11-13T16:37:44.924000Z</time>
      </trkpt>
      <trkpt lat="45.71529560722411" lon="10.279843155294657">
        <ele>736.9975732703589</ele>
        <time>2017-11-13T16:37:44.924000Z</time>
      </trkpt>
      <trkpt lat="45.71535587310791" lon="10.279748439788818">
        <ele>735.8774582643837</ele>
        <time>2017-11-13T16:37:45.067000Z</time>
      </trkpt>
      <trkpt lat="45.715484619140625" lon="10.279040336608887">
        <ele>722.4815051267382</ele>
        <time>2017-11-13T16:37:45.886000Z</time>
      </trkpt>
      <trkpt lat="45.71559190750122" lon="10.278804302215576">
        <ele>720.0196519889486</ele>
        <time>2017-11-13T16:37:46.201000Z</time>
      </trkpt>
      <trkpt lat="45.71589231491089" lon="10.278782844543457">
        <ele>711.9208539736268</ele>
        <time>2017-11-13T16:37:46.683000Z</time>
      </trkpt>
      <trkpt lat="45.716750621795654" lon="10.27946949005127">
        <ele>720.1979993274905</ele>
        <time>2017-11-13T16:37:48.259000Z</time>
      </trkpt>
      <trkpt lat="45.71709394454956" lon="10.279533863067627">
        <ele>721.0</ele>
        <time>2017-11-13T16:37:48.814000Z</time>
      </trkpt>
      <trkpt lat="45.71741589345038" lon="10.27946949005127">
        <ele>721.4006269243246</ele>
        <time>2017-11-13T16:37:49.335000Z</time>
      </trkpt>
      <trkpt lat="45.71842432022095" lon="10.279018878936768">
        <ele>723.7025212256667</ele>
        <time>2017-11-13T16:37:51.029000Z</time>
      </trkpt>
      <trkpt lat="45.71883201599121" lon="10.278418064117432">
        <ele>722.8946227372999</ele>
        <time>2017-11-13T16:37:51.967000Z</time>
      </trkpt>
      <trkpt lat="45.71889638900757" lon="10.278139114379883">
        <ele>720.2720432550395</ele>
        <time>2017-11-13T16:37:52.296000Z</time>
      </trkpt>
      <trkpt lat="45.71911096572876" lon="10.277581214904785">
        <ele>719.6449469761968</ele>
        <time>2017-11-13T16:37:53.009000Z</time>
      </trkpt>
      <trkpt lat="45.719153881073" lon="10.277345180511475">
        <ele>719.7886903017611</ele>
        <time>2017-11-13T16:37:53.282000Z</time>
      </trkpt>
      <trkpt lat="45.71913242340088" lon="10.277066230773926">
        <ele>720.3376120920734</ele>
        <time>2017-11-13T16:37:53.596000Z</time>
      </trkpt>
      <trkpt lat="45.71906813420355" lon="10.276916027069092">
        <ele>720.6822213086984</ele>
        <time>2017-11-13T16:37:53.793000Z</time>
      </trkpt>
      <trkpt lat="45.71866035461426" lon="10.2756929397583">
        <ele>727.0</ele>
        <time>2017-11-13T16:37:55.310000Z</time>
      </trkpt>
      <trkpt lat="45.718703269958496" lon="10.275070667266846">
        <ele>722.7393525953609</ele>
        <time>2017-11-13T16:37:56.010000Z</time>
      </trkpt>
      <trkpt lat="45.71863889694214" lon="10.274813175201416">
        <ele>721.5424438138494</ele>
        <time>2017-11-13T16:37:56.316000Z</time>
      </trkpt>
      <trkpt lat="45.718252658843994" lon="10.274426937103271">
        <ele>709.9452156199626</ele>
        <time>2017-11-13T16:37:57.071000Z</time>
      </trkpt>
      <trkpt lat="45.71790933609009" lon="10.27369737625122">
        <ele>706.6698100315152</ele>
        <time>2017-11-13T16:37:58.056000Z</time>
      </trkpt>
      <trkpt lat="45.717716217041016" lon="10.27320384979248">
        <ele>700.4682199865474</ele>
        <time>2017-11-13T16:37:58.689000Z</time>
      </trkpt>
      <trkpt lat="45.71767330169678" lon="10.272881984710693">
        <ele>699.0</ele>
        <time>2017-11-13T16:37:59.056000Z</time>
      </trkpt>
      <trkpt lat="45.7176947593689" lon="10.272624492645264">
        <ele>698.5565754371563</ele>
        <time>2017-11-13T16:37:59.346000Z</time>
      </trkpt>
      <trkpt lat="45.71778059005737" lon="10.272324085235596">
        <ele>692.3348801268847</ele>
        <time>2017-11-13T16:37:59.709000Z</time>
      </trkpt>
      <trkpt lat="45.718016624450684" lon="10.272088050842285">
        <ele>691.6298504772207</ele>
        <time>2017-11-13T16:38:00.171000Z</time>
      </trkpt>
      <trkpt lat="45.717973709106445" lon="10.271894931793213">
        <ele>691.2833044983832</ele>
        <time>2017-11-13T16:38:00.398000Z</time>
      </trkpt>
      <trkpt lat="45.71786642074585" lon="10.271916389465332">
        <ele>691.0179942443496</ele>
        <time>2017-11-13T16:38:00.572000Z</time>
      </trkpt>
      <trkpt lat="45.71754455566406" lon="10.272388458251953">
        <ele>689.8897311239494</ele>
        <time>2017-11-13T16:38:01.311000Z</time>
      </trkpt>
      <trkpt lat="45.71743726730347" lon="10.272667407989502">
        <ele>689.352935662932</ele>
        <time>2017-11-13T16:38:01.667000Z</time>
      </trkpt>
      <trkpt lat="45.7175874710083" lon="10.273633003234863">
        <ele>705.2313834382159</ele>
        <time>2017-11-13T16:38:02.774000Z</time>
      </trkpt>
      <trkpt lat="45.71784496307373" lon="10.274748802185059">
        <ele>704.2127571411917</ele>
        <time>2017-11-13T16:38:04.089000Z</time>
      </trkpt>
      <trkpt lat="45.71784496307373" lon="10.27496337890625">
        <ele>702.5857607907428</ele>
        <time>2017-11-13T16:38:04.329000Z</time>
      </trkpt>
      <trkpt lat="45.71763038635254" lon="10.275650024414062">
        <ele>693.2149839399249</ele>
        <time>2017-11-13T16:38:05.171000Z</time>
      </trkpt>
      <trkpt lat="45.717008113861084" lon="10.276315212249756">
        <ele>675.95660464631</ele>
        <time>2017-11-13T16:38:06.416000Z</time>
      </trkpt>
      <trkpt lat="45.71687936782837" lon="10.276379585266113">
        <ele>675.0708828030823</ele>
        <time>2017-11-13T16:38:06.635000Z</time>
      </trkpt>
      <trkpt lat="45.71677207946777" lon="10.276293754577637">
        <ele>674.2726852723531</ele>
        <time>2017-11-13T16:38:06.832000Z</time>
      </trkpt>
      <trkpt lat="45.716750621795654" lon="10.276014804840088">
        <ele>673.0</ele>
        <time>2017-11-13T16:38:07.146000Z</time>
      </trkpt>
      <trkpt lat="45.71717977523804" lon="10.274791717529297">
        <ele>671.2206100007571</ele>
        <time>2017-11-13T16:38:08.678000Z</time>
      </trkpt>
      <trkpt lat="45.717201232910156" lon="10.274405479431152">
        <ele>671.0</ele>
        <time>2017-11-13T16:38:09.112000Z</time>
      </trkpt>
      <trkpt lat="45.71709394454956" lon="10.27395486831665">
        <ele>669.7720527642896</ele>
        <time>2017-11-13T16:38:09.645000Z</time>
      </trkpt>
      <trkpt lat="45.71662187576294" lon="10.272839069366455">
        <ele>647.8934566605644</ele>
        <time>2017-11-13T16:38:11.105000Z</time>
      </trkpt>
      <trkpt lat="45.716471672058105" lon="10.27219533920288">
        <ele>641.6922373611771</ele>
        <time>2017-11-13T16:38:11.865000Z</time>
      </trkpt>
      <trkpt lat="45.71642875671387" lon="10.271766185760498">
        <ele>638.3699800444214</ele>
        <time>2017-11-13T16:38:12.350000Z</time>
      </trkpt>
      <trkpt lat="45.71655750274658" lon="10.271315574645996">
        <ele>630.6389167195913</ele>
        <time>2017-11-13T16:38:12.895000Z</time>
      </trkpt>
      <trkpt lat="45.71694374084473" lon="10.270521640777588">
        <ele>626.0</ele>
        <time>2017-11-13T16:38:13.978000Z</time>
      </trkpt>
      <trkpt lat="45.71694374084473" lon="10.270371437072754">
        <ele>626.2005683311774</ele>
        <time>2017-11-13T16:38:14.146000Z</time>
      </trkpt>
      <trkpt lat="45.71685791015625" lon="10.270285606384277">
        <ele>626.4007707030886</ele>
        <time>2017-11-13T16:38:14.314000Z</time>
      </trkpt>
      <trkpt lat="45.716750621795654" lon="10.270328521728516">
        <ele>626.613810798634</ele>
        <time>2017-11-13T16:38:14.493000Z</time>
      </trkpt>
      <trkpt lat="45.71634292602539" lon="10.271186828613281">
        <ele>630.0</ele>
        <time>2017-11-13T16:38:15.655000Z</time>
      </trkpt>
      <trkpt lat="45.716257095336914" lon="10.27122974395752">
        <ele>629.5195176773846</ele>
        <time>2017-11-13T16:38:15.801000Z</time>
      </trkpt>
      <trkpt lat="45.71614980697632" lon="10.271143913269043">
        <ele>628.8700129405569</ele>
        <time>2017-11-13T16:38:15.998000Z</time>
      </trkpt>
      <trkpt lat="45.71614980697632" lon="10.271015167236328">
        <ele>628.3949133191804</ele>
        <time>2017-11-13T16:38:16.142000Z</time>
      </trkpt>
      <trkpt lat="45.716214179992676" lon="10.270800590515137">
        <ele>622.410046561104</ele>
        <time>2017-11-13T16:38:16.403000Z</time>
      </trkpt>
      <trkpt lat="45.71681499481201" lon="10.269684791564941">
        <ele>613.8013061470587</ele>
        <time>2017-11-13T16:38:17.980000Z</time>
      </trkpt>
      <trkpt lat="45.71692228317261" lon="10.269620418548584">
        <ele>615.2491180601977</ele>
        <time>2017-11-13T16:38:18.166000Z</time>
      </trkpt>
      <trkpt lat="45.71754455566406" lon="10.2701997756958">
        <ele>635.8201991300665</ele>
        <time>2017-11-13T16:38:19.356000Z</time>
      </trkpt>
      <trkpt lat="45.71763038635254" lon="10.270092487335205">
        <ele>634.8543504027148</ele>
        <time>2017-11-13T16:38:19.539000Z</time>
      </trkpt>
      <trkpt lat="45.71754455566406" lon="10.269341468811035">
        <ele>624.6829165284267</ele>
        <time>2017-11-13T16:38:20.391000Z</time>
      </trkpt>
      <trkpt lat="45.71754455566406" lon="10.269062519073486">
        <ele>618.7513746193964</ele>
        <time>2017-11-13T16:38:20.703000Z</time>
      </trkpt>
      <trkpt lat="45.71765184402466" lon="10.268847942352295">
        <ele>616.923875032776</ele>
        <time>2017-11-13T16:38:20.998000Z</time>
      </trkpt>
      <trkpt lat="45.71786642074585" lon="10.2687406539917">
        <ele>614.6698725272796</ele>
        <time>2017-11-13T16:38:21.362000Z</time>
      </trkpt>
      <trkpt lat="45.71808099746704" lon="10.268762111663818">
        <ele>614.1979852680486</ele>
        <time>2017-11-13T16:38:21.707000Z</time>
      </trkpt>
      <trkpt lat="45.71816682815552" lon="10.268676280975342">
        <ele>613.9683355317817</ele>
        <time>2017-11-13T16:38:21.875000Z</time>
      </trkpt>
      <trkpt lat="45.71818828582764" lon="10.26848316192627">
        <ele>613.6688138586765</ele>
        <time>2017-11-13T16:38:22.094000Z</time>
      </trkpt>
      <trkpt lat="45.71765184402466" lon="10.26771068572998">
        <ele>612.0</ele>
        <time>2017-11-13T16:38:23.313000Z</time>
      </trkpt>
      <trkpt lat="45.7175874710083" lon="10.26747465133667">
        <ele>608.3915004137812</ele>
        <time>2017-11-13T16:38:23.597000Z</time>
      </trkpt>
      <trkpt lat="45.71763038635254" lon="10.267260074615479">
        <ele>607.8555111422379</ele>
        <time>2017-11-13T16:38:23.847000Z</time>
      </trkpt>
      <trkpt lat="45.71795233525336" lon="10.26648759841919">
        <ele>604.3618760269286</ele>
        <time>2017-11-13T16:38:24.854000Z</time>
      </trkpt>
      <trkpt lat="45.718252658843994" lon="10.265629291534424">
        <ele>598.0564793351365</ele>
        <time>2017-11-13T16:38:25.929000Z</time>
      </trkpt>
      <trkpt lat="45.71881064213812" lon="10.265500545501709">
        <ele>613.0040308455397</ele>
        <time>2017-11-13T16:38:26.835000Z</time>
      </trkpt>
      <trkpt lat="45.71885355748236" lon="10.265371799468994">
        <ele>612.979572956701</ele>
        <time>2017-11-13T16:38:26.995000Z</time>
      </trkpt>
      <trkpt lat="45.71878910064697" lon="10.265178680419922">
        <ele>612.9428772169246</ele>
        <time>2017-11-13T16:38:27.235000Z</time>
      </trkpt>
      <trkpt lat="45.718209743499756" lon="10.264642238616943">
        <ele>606.1068075768856</ele>
        <time>2017-11-13T16:38:28.341000Z</time>
      </trkpt>
      <trkpt lat="45.71782350540161" lon="10.263848304748535">
        <ele>614.2119728388678</ele>
        <time>2017-11-13T16:38:29.424000Z</time>
      </trkpt>
      <trkpt lat="45.71760892868042" lon="10.263633728027344">
        <ele>611.6819887287834</ele>
        <time>2017-11-13T16:38:29.844000Z</time>
      </trkpt>
      <trkpt lat="45.71739435195923" lon="10.263290405273438">
        <ele>601.5718077629588</ele>
        <time>2017-11-13T16:38:30.360000Z</time>
      </trkpt>
      <trkpt lat="45.71711540222168" lon="10.262625217437744">
        <ele>598.8413370818246</ele>
        <time>2017-11-13T16:38:31.229000Z</time>
      </trkpt>
      <trkpt lat="45.71705102920532" lon="10.262646675109863">
        <ele>598.5082313911847</ele>
        <time>2017-11-13T16:38:31.335000Z</time>
      </trkpt>
      <trkpt lat="45.716986656188965" lon="10.26273250579834">
        <ele>598.6875616939668</ele>
        <time>2017-11-13T16:38:31.476000Z</time>
      </trkpt>
      <trkpt lat="45.716986656188965" lon="10.262839794158936">
        <ele>598.8403019024978</ele>
        <time>2017-11-13T16:38:31.596000Z</time>
      </trkpt>
      <trkpt lat="45.717458724975586" lon="10.263762474060059">
        <ele>595.8021108176061</ele>
        <time>2017-11-13T16:38:32.876000Z</time>
      </trkpt>
      <trkpt lat="45.7176947593689" lon="10.264019966125488">
        <ele>608.073758161703</ele>
        <time>2017-11-13T16:38:33.352000Z</time>
      </trkpt>
      <trkpt lat="45.71765184402466" lon="10.264191627502441">
        <ele>603.0</ele>
        <time>2017-11-13T16:38:33.556000Z</time>
      </trkpt>
      <trkpt lat="45.71752309799194" lon="10.26421308517456">
        <ele>602.4546306209785</ele>
        <time>2017-11-13T16:38:33.764000Z</time>
      </trkpt>
      <trkpt lat="45.71735143661499" lon="10.263826847076416">
        <ele>594.7762410911931</ele>
        <time>2017-11-13T16:38:34.276000Z</time>
      </trkpt>
      <trkpt lat="45.716750621795654" lon="10.263097286224365">
        <ele>596.1286285781371</ele>
        <time>2017-11-13T16:38:35.539000Z</time>
      </trkpt>
      <trkpt lat="45.71664333343506" lon="10.262410640716553">
        <ele>582.8645291209447</ele>
        <time>2017-11-13T16:38:36.327000Z</time>
      </trkpt>
      <trkpt lat="45.716514587402344" lon="10.261938571929932">
        <ele>580.5134864089058</ele>
        <time>2017-11-13T16:38:36.894000Z</time>
      </trkpt>
      <trkpt lat="45.71589231491089" lon="10.26050090789795">
        <ele>575.0</ele>
        <time>2017-11-13T16:38:38.787000Z</time>
      </trkpt>
      <trkpt lat="45.71578502655029" lon="10.259771347045898">
        <ele>552.1964619592246</ele>
        <time>2017-11-13T16:38:39.622000Z</time>
      </trkpt>
      <trkpt lat="45.71591377258301" lon="10.259256362915039">
        <ele>560.6659046609129</ele>
        <time>2017-11-13T16:38:40.234000Z</time>
      </trkpt>
      <trkpt lat="45.715978145599365" lon="10.25874137878418">
        <ele>564.7670425553946</ele>
        <time>2017-11-13T16:38:40.820000Z</time>
      </trkpt>
      <trkpt lat="45.71589231491089" lon="10.258269309997559">
        <ele>568.3047016315363</ele>
        <time>2017-11-13T16:38:41.366000Z</time>
      </trkpt>
      <trkpt lat="45.7156777381897" lon="10.257925987243652">
        <ele>555.5531185115439</ele>
        <time>2017-11-13T16:38:41.882000Z</time>
      </trkpt>
      <trkpt lat="45.71514129638672" lon="10.257325172424316">
        <ele>556.708085603313</ele>
        <time>2017-11-13T16:38:42.974000Z</time>
      </trkpt>
      <trkpt lat="45.71486234664917" lon="10.257153511047363">
        <ele>547.5118972561</ele>
        <time>2017-11-13T16:38:43.461000Z</time>
      </trkpt>
      <trkpt lat="45.71458339691162" lon="10.25672435760498">
        <ele>545.0</ele>
        <time>2017-11-13T16:38:44.117000Z</time>
      </trkpt>
      <trkpt lat="45.71432590484619" lon="10.25648832321167">
        <ele>542.7932966070681</ele>
        <time>2017-11-13T16:38:44.607000Z</time>
      </trkpt>
      <trkpt lat="45.71432590484619" lon="10.256209373474121">
        <ele>540.9626761750895</ele>
        <time>2017-11-13T16:38:44.919000Z</time>
      </trkpt>
      <trkpt lat="45.714476108551025" lon="10.255844593048096">
        <ele>538.1835320932854</ele>
        <time>2017-11-13T16:38:45.393000Z</time>
      </trkpt>
      <trkpt lat="45.714476108551025" lon="10.25571584701538">
        <ele>533.3386326263329</ele>
        <time>2017-11-13T16:38:45.537000Z</time>
      </trkpt>
      <trkpt lat="45.71441173553467" lon="10.255630016326904">
        <ele>532.5119976291182</ele>
        <time>2017-11-13T16:38:45.678000Z</time>
      </trkpt>
      <trkpt lat="45.71387529373169" lon="10.255415439605713">
        <ele>524.0666064450351</ele>
        <time>2017-11-13T16:38:46.571000Z</time>
      </trkpt>
      <trkpt lat="45.71359634399414" lon="10.255115032196045">
        <ele>519.4011066254321</ele>
        <time>2017-11-13T16:38:47.131000Z</time>
      </trkpt>
      <trkpt lat="45.71318864822388" lon="10.254042148590088">
        <ele>496.0</ele>
        <time>2017-11-13T16:38:48.498000Z</time>
      </trkpt>
      <trkpt lat="45.71329593658447" lon="10.253055095672607">
        <ele>490.0</ele>
        <time>2017-11-13T16:38:49.616000Z</time>
      </trkpt>
      <trkpt lat="45.713231563568115" lon="10.252926349639893">
        <ele>490.4777103054118</ele>
        <time>2017-11-13T16:38:49.793000Z</time>
      </trkpt>
      <trkpt lat="45.71312427520752" lon="10.252904891967773">
        <ele>490.9457479837563</ele>
        <time>2017-11-13T16:38:49.967000Z</time>
      </trkpt>
      <trkpt lat="45.712995529174805" lon="10.253076553344727">
        <ele>491.7057472753411</ele>
        <time>2017-11-13T16:38:50.249000Z</time>
      </trkpt>
      <trkpt lat="45.713016986846924" lon="10.253677368164062">
        <ele>496.5206556646601</ele>
        <time>2017-11-13T16:38:50.922000Z</time>
      </trkpt>
      <trkpt lat="45.712995529174805" lon="10.254170894622803">
        <ele>501.19893383448624</ele>
        <time>2017-11-13T16:38:51.476000Z</time>
      </trkpt>
      <trkpt lat="45.71340322494507" lon="10.255951881408691">
        <ele>513.8236059265749</ele>
        <time>2017-11-13T16:38:53.574000Z</time>
      </trkpt>
      <trkpt lat="45.713510513305664" lon="10.25648832321167">
        <ele>514.4102480908555</ele>
        <time>2017-11-13T16:38:54.199000Z</time>
      </trkpt>
      <trkpt lat="45.713467597961426" lon="10.25672435760498">
        <ele>508.3338529125745</ele>
        <time>2017-11-13T16:38:54.472000Z</time>
      </trkpt>
      <trkpt lat="45.71331739425659" lon="10.2567458152771">
        <ele>497.00143381447583</ele>
        <time>2017-11-13T16:38:54.714000Z</time>
      </trkpt>
      <trkpt lat="45.71293115615845" lon="10.256059169769287">
        <ele>491.5144844799347</ele>
        <time>2017-11-13T16:38:55.701000Z</time>
      </trkpt>
      <trkpt lat="45.712738037109375" lon="10.25399923324585">
        <ele>496.0</ele>
        <time>2017-11-13T16:38:58.028000Z</time>
      </trkpt>
      <trkpt lat="45.7126522064209" lon="10.252861976623535">
        <ele>488.73004119733673</ele>
        <time>2017-11-13T16:38:59.308000Z</time>
      </trkpt>
      <trkpt lat="45.71273812092841" lon="10.251531600952148">
        <ele>484.07606391918677</ele>
        <time>2017-11-13T16:39:00.804000Z</time>
      </trkpt>
      <trkpt lat="45.71273812092841" lon="10.25151014328003">
        <ele>483.9148330644496</ele>
        <time>2017-11-13T16:39:00.828000Z</time>
      </trkpt>
      <trkpt lat="45.71278095245361" lon="10.251359939575195">
        <ele>482.6957316162802</ele>
        <time>2017-11-13T16:39:01.010000Z</time>
      </trkpt>
      <trkpt lat="45.71312435902655" lon="10.249836444854736">
        <ele>462.0</ele>
        <time>2017-11-13T16:39:02.802000Z</time>
      </trkpt>
      <trkpt lat="45.71327447891235" lon="10.249557495117188">
        <ele>463.3633266925783</ele>
        <time>2017-11-13T16:39:03.196000Z</time>
      </trkpt>
      <trkpt lat="45.713489055633545" lon="10.248785018920898">
        <ele>472.91487863076117</ele>
        <time>2017-11-13T16:39:04.127000Z</time>
      </trkpt>
      <trkpt lat="45.71413278579712" lon="10.247304439544678">
        <ele>449.0</ele>
        <time>2017-11-13T16:39:06.079000Z</time>
      </trkpt>
      <trkpt lat="45.71458339691162" lon="10.245695114135742">
        <ele>442.3479159457052</ele>
        <time>2017-11-13T16:39:08.020000Z</time>
      </trkpt>
      <trkpt lat="45.714733600616455" lon="10.24548053741455">
        <ele>443.1676585106384</ele>
        <time>2017-11-13T16:39:08.360000Z</time>
      </trkpt>
      <trkpt lat="45.71514129638672" lon="10.245180130004883">
        <ele>456.7149715115426</ele>
        <time>2017-11-13T16:39:09.095000Z</time>
      </trkpt>
      <trkpt lat="45.71533441543579" lon="10.244364738464355">
        <ele>459.13676593813915</ele>
        <time>2017-11-13T16:39:10.059000Z</time>
      </trkpt>
      <trkpt lat="45.715978145599365" lon="10.242927074432373">
        <ele>462.0</ele>
        <time>2017-11-13T16:39:11.971000Z</time>
      </trkpt>
      <trkpt lat="45.71606397628784" lon="10.24224042892456">
        <ele>452.8211669351331</ele>
        <time>2017-11-13T16:39:12.752000Z</time>
      </trkpt>
      <trkpt lat="45.71606397628784" lon="10.241553783416748">
        <ele>445.0149833723751</ele>
        <time>2017-11-13T16:39:13.521000Z</time>
      </trkpt>
      <trkpt lat="45.71606406010687" lon="10.241553783416748">
        <ele>445.0145510388198</ele>
        <time>2017-11-13T16:39:13.521000Z</time>
      </trkpt>
      <trkpt lat="45.71617126464844" lon="10.24125337600708">
        <ele>443.79956079792646</ele>
        <time>2017-11-13T16:39:13.899000Z</time>
      </trkpt>
      <trkpt lat="45.71677207946777" lon="10.24075984954834">
        <ele>446.8937541618686</ele>
        <time>2017-11-13T16:39:15.009000Z</time>
      </trkpt>
      <trkpt lat="45.717008113861084" lon="10.240330696105957">
        <ele>444.6238111461485</ele>
        <time>2017-11-13T16:39:15.620000Z</time>
      </trkpt>
      <trkpt lat="45.71707248687744" lon="10.24000883102417">
        <ele>443.24405183028904</ele>
        <time>2017-11-13T16:39:15.995000Z</time>
      </trkpt>
      <trkpt lat="45.71711540222168" lon="10.239171981811523">
        <ele>435.45275456202404</ele>
        <time>2017-11-13T16:39:16.934000Z</time>
      </trkpt>
      <trkpt lat="45.71690082550049" lon="10.237905979156494">
        <ele>435.3657415328091</ele>
        <time>2017-11-13T16:39:18.392000Z</time>
      </trkpt>
      <trkpt lat="45.7168794516474" lon="10.23726224899292">
        <ele>430.8568063827786</ele>
        <time>2017-11-13T16:39:19.113000Z</time>
      </trkpt>
      <trkpt lat="45.71694374084473" lon="10.236597061157227">
        <ele>423.578959898962</ele>
        <time>2017-11-13T16:39:19.865000Z</time>
      </trkpt>
      <trkpt lat="45.7171368598938" lon="10.235824584960938">
        <ele>419.9812428080275</ele>
        <time>2017-11-13T16:39:20.783000Z</time>
      </trkpt>
      <trkpt lat="45.718016624450684" lon="10.233635902404785">
        <ele>412.0</ele>
        <time>2017-11-13T16:39:23.610000Z</time>
      </trkpt>
      <trkpt lat="45.71868181228638" lon="10.232648849487305">
        <ele>405.5317410068033</ele>
        <time>2017-11-13T16:39:25.146000Z</time>
      </trkpt>
      <trkpt lat="45.718982219696045" lon="10.232434272766113">
        <ele>403.05972889073587</ele>
        <time>2017-11-13T16:39:25.684000Z</time>
      </trkpt>
      <trkpt lat="45.71984061039984" lon="10.232090950012207">
        <ele>402.90896609600696</ele>
        <time>2017-11-13T16:39:27.113000Z</time>
      </trkpt>
      <trkpt lat="45.72089203633368" lon="10.231597423553467">
        <ele>403.8764427028753</ele>
        <time>2017-11-13T16:39:28.887000Z</time>
      </trkpt>
      <trkpt lat="45.72132110595703" lon="10.231382846832275">
        <ele>404.94878649101037</ele>
        <time>2017-11-13T16:39:29.616000Z</time>
      </trkpt>
      <trkpt lat="45.72177171707153" lon="10.231060981750488">
        <ele>408.09492064281704</ele>
        <time>2017-11-13T16:39:30.423000Z</time>
      </trkpt>
      <trkpt lat="45.721964836120605" lon="10.230588912963867">
        <ele>405.3302121960333</ele>
        <time>2017-11-13T16:39:31.035000Z</time>
      </trkpt>
      <trkpt lat="45.721964836120605" lon="10.230438709259033">
        <ele>405.21178982578294</ele>
        <time>2017-11-13T16:39:31.203000Z</time>
      </trkpt>
      <trkpt lat="45.72187908925116" lon="10.230245590209961">
        <ele>405.03134811933904</ele>
        <time>2017-11-13T16:39:31.459000Z</time>
      </trkpt>
      <trkpt lat="45.72183609008789" lon="10.230202674865723">
        <ele>404.9721637474284</ele>
        <time>2017-11-13T16:39:31.543000Z</time>
      </trkpt>
      <trkpt lat="45.72176145979108" lon="10.23023838903527">
        <ele>404.883304365153</ele>
        <time>2017-11-13T16:39:31.669000Z</time>
      </trkpt>
      <trkpt lat="45.721761430444026" lon="10.230238403079175">
        <ele>404.8832694227745</ele>
        <time>2017-11-13T16:39:31.669000Z</time>
      </trkpt>
      <trkpt lat="45.721761091690304" lon="10.230238565188841">
        <ele>404.8828660819874</ele>
        <time>2017-11-13T16:39:31.669000Z</time>
      </trkpt>
      <trkpt lat="45.72175989858806" lon="10.230239136144519">
        <ele>404.88144550191333</ele>
        <time>2017-11-13T16:39:31.671000Z</time>
      </trkpt>
      <trkpt lat="45.72175981476903" lon="10.230239136144519">
        <ele>404.88135084492495</ele>
        <time>2017-11-13T16:39:31.671000Z</time>
      </trkpt>
      <trkpt lat="45.721299732103944" lon="10.230460166931152">
        <ele>405.0</ele>
        <time>2017-11-13T16:39:32.449000Z</time>
      </trkpt>
      <trkpt lat="45.720956325531006" lon="10.23052453994751">
        <ele>405.12805845355246</ele>
        <time>2017-11-13T16:39:33.004000Z</time>
      </trkpt>
      <trkpt lat="45.72035551071167" lon="10.230309963226318">
        <ele>405.0236800678019</ele>
        <time>2017-11-13T16:39:33.997000Z</time>
      </trkpt>
      <trkpt lat="45.72018384933472" lon="10.230095386505127">
        <ele>405.10792429200615</ele>
        <time>2017-11-13T16:39:34.362000Z</time>
      </trkpt>
      <trkpt lat="45.719261253252625" lon="10.228636264801025">
        <ele>410.0</ele>
        <time>2017-11-13T16:39:36.565000Z</time>
      </trkpt>
      <trkpt lat="45.717780673876405" lon="10.226404666900635">
        <ele>412.0</ele>
        <time>2017-11-13T16:39:40.011000Z</time>
      </trkpt>
      <trkpt lat="45.71763038635254" lon="10.226190090179443">
        <ele>410.93962305172636</ele>
        <time>2017-11-13T16:39:40.351000Z</time>
      </trkpt>
      <trkpt lat="45.71640729904175" lon="10.224065780639648">
        <ele>396.0</ele>
        <time>2017-11-13T16:39:43.433000Z</time>
      </trkpt>
      <trkpt lat="45.71589231491089" lon="10.222649574279785">
        <ele>409.71940030283577</ele>
        <time>2017-11-13T16:39:45.220000Z</time>
      </trkpt>
      <trkpt lat="45.71537258197228" lon="10.22210985481447">
        <ele>410.810566763498</ele>
        <time>2017-11-13T16:39:46.249000Z</time>
      </trkpt>
      <trkpt lat="45.715372267771116" lon="10.222109528534444">
        <ele>410.8116294457414</ele>
        <time>2017-11-13T16:39:46.249000Z</time>
      </trkpt>
      <trkpt lat="45.71537137962878" lon="10.222108606249094">
        <ele>410.8146332956006</ele>
        <time>2017-11-13T16:39:46.251000Z</time>
      </trkpt>
      <trkpt lat="45.715371302364844" lon="10.22210846862686">
        <ele>410.8149709138106</ele>
        <time>2017-11-13T16:39:46.251000Z</time>
      </trkpt>
      <trkpt lat="45.715316597156594" lon="10.222051654424284">
        <ele>411.0</ele>
        <time>2017-11-13T16:39:46.359000Z</time>
      </trkpt>
      <trkpt lat="45.7152924221009" lon="10.222026547417045">
        <ele>410.8914510196726</ele>
        <time>2017-11-13T16:39:46.407000Z</time>
      </trkpt>
      <trkpt lat="45.71529250591993" lon="10.222026715055108">
        <ele>410.89092770372457</ele>
        <time>2017-11-13T16:39:46.407000Z</time>
      </trkpt>
      <trkpt lat="45.71477651596069" lon="10.221490859985352">
        <ele>408.5741010943521</ele>
        <time>2017-11-13T16:39:47.429000Z</time>
      </trkpt>
      <trkpt lat="45.71383246220648" lon="10.221319198608398">
        <ele>397.1149103623242</ele>
        <time>2017-11-13T16:39:48.955000Z</time>
      </trkpt>
      <trkpt lat="45.71383237838745" lon="10.221319198608398">
        <ele>397.1145406923243</ele>
        <time>2017-11-13T16:39:48.955000Z</time>
      </trkpt>
      <trkpt lat="45.71327447891235" lon="10.221083164215088">
        <ele>390.5489006091547</ele>
        <time>2017-11-13T16:39:49.888000Z</time>
      </trkpt>
      <trkpt lat="45.713017070665956" lon="10.220847129821777">
        <ele>390.2116711835203</ele>
        <time>2017-11-13T16:39:50.378000Z</time>
      </trkpt>
      <trkpt lat="45.713016986846924" lon="10.220847129821777">
        <ele>390.21157870437816</ele>
        <time>2017-11-13T16:39:50.378000Z</time>
      </trkpt>
      <trkpt lat="45.711515033617616" lon="10.219731330871582">
        <ele>390.34475588085866</ele>
        <time>2017-11-13T16:39:53.091000Z</time>
      </trkpt>
      <trkpt lat="45.7104850653559" lon="10.219430923461914">
        <ele>384.0</ele>
        <time>2017-11-13T16:39:54.776000Z</time>
      </trkpt>
      <trkpt lat="45.71020611561835" lon="10.219109058380127">
        <ele>386.84508836100963</ele>
        <time>2017-11-13T16:39:55.350000Z</time>
      </trkpt>
      <trkpt lat="45.70991729172514" lon="10.218659254281317">
        <ele>383.9713877137594</ele>
        <time>2017-11-13T16:39:56.034000Z</time>
      </trkpt>
      <trkpt lat="45.70991702903098" lon="10.21865884517415">
        <ele>383.9715025863623</ele>
        <time>2017-11-13T16:39:56.034000Z</time>
      </trkpt>
      <trkpt lat="45.7099160245215" lon="10.218657280799553">
        <ele>383.9719418448035</ele>
        <time>2017-11-13T16:39:56.036000Z</time>
      </trkpt>
      <trkpt lat="45.70991627177182" lon="10.218657665855211">
        <ele>383.97204996402246</ele>
        <time>2017-11-13T16:39:56.036000Z</time>
      </trkpt>
      <trkpt lat="45.7098704636092" lon="10.218586326529415">
        <ele>383.99208124954066</ele>
        <time>2017-11-13T16:39:56.145000Z</time>
      </trkpt>
      <trkpt lat="45.709850303828716" lon="10.218554930761456">
        <ele>384.0008968396744</ele>
        <time>2017-11-13T16:39:56.193000Z</time>
      </trkpt>
      <trkpt lat="45.709850303828716" lon="10.218555014580488">
        <ele>384.00091416400346</ele>
        <time>2017-11-13T16:39:56.194000Z</time>
      </trkpt>
      <trkpt lat="45.70909023284912" lon="10.217370986938477">
        <ele>387.0</ele>
        <time>2017-11-13T16:39:57.994000Z</time>
      </trkpt>
      <trkpt lat="45.70878982543945" lon="10.216984748840332">
        <ele>387.6230965170973</ele>
        <time>2017-11-13T16:39:58.641000Z</time>
      </trkpt>
      <trkpt lat="45.70842512883246" lon="10.21679162979126">
        <ele>388.98065349301197</ele>
        <time>2017-11-13T16:39:59.264000Z</time>
      </trkpt>
      <trkpt lat="45.708274925127625" lon="10.216727256774902">
        <ele>385.8613858413035</ele>
        <time>2017-11-13T16:39:59.515000Z</time>
      </trkpt>
      <trkpt lat="45.70758819580078" lon="10.215697288513184">
        <ele>396.0</ele>
        <time>2017-11-13T16:40:01.109000Z</time>
      </trkpt>
      <trkpt lat="45.70683726109564" lon="10.214731693267822">
        <ele>388.7326580352328</ele>
        <time>2017-11-13T16:40:02.727000Z</time>
      </trkpt>
      <trkpt lat="45.7063437346369" lon="10.214152336120605">
        <ele>380.92727426815594</ele>
        <time>2017-11-13T16:40:03.750000Z</time>
      </trkpt>
      <trkpt lat="45.705549800768495" lon="10.213186740875244">
        <ele>372.8799845841457</ele>
        <time>2017-11-13T16:40:05.420000Z</time>
      </trkpt>
      <trkpt lat="45.70419796742499" lon="10.211598873138428">
        <ele>371.0</ele>
        <time>2017-11-13T16:40:08.223000Z</time>
      </trkpt>
      <trkpt lat="45.70271738804877" lon="10.21003246307373">
        <ele>361.0</ele>
        <time>2017-11-13T16:40:11.174000Z</time>
      </trkpt>
      <trkpt lat="45.702717304229736" lon="10.21003246307373">
        <ele>361.000013521188</ele>
        <time>2017-11-13T16:40:11.174000Z</time>
      </trkpt>
      <trkpt lat="45.70181608200073" lon="10.208938121795654">
        <ele>364.5239655523557</ele>
        <time>2017-11-13T16:40:13.068000Z</time>
      </trkpt>
      <trkpt lat="45.701301181688905" lon="10.207908153533936">
        <ele>362.0520564109075</ele>
        <time>2017-11-13T16:40:14.486000Z</time>
      </trkpt>
      <trkpt lat="45.70130109786987" lon="10.207908153533936">
        <ele>362.0518202506753</ele>
        <time>2017-11-13T16:40:14.486000Z</time>
      </trkpt>
      <trkpt lat="45.70045796409366" lon="10.20550700629546">
        <ele>354.0967201513374</ele>
        <time>2017-11-13T16:40:17.495000Z</time>
      </trkpt>
      <trkpt lat="45.70045778976027" lon="10.205506509836521">
        <ele>354.09618881052285</ele>
        <time>2017-11-13T16:40:17.495000Z</time>
      </trkpt>
      <trkpt lat="45.70045712312296" lon="10.205504611416153">
        <ele>354.0929646674317</ele>
        <time>2017-11-13T16:40:17.498000Z</time>
      </trkpt>
      <trkpt lat="45.70045679460237" lon="10.205503675869682">
        <ele>354.0913758013659</ele>
        <time>2017-11-13T16:40:17.500000Z</time>
      </trkpt>
      <trkpt lat="45.70045695877391" lon="10.205504143390153">
        <ele>354.0905817976041</ele>
        <time>2017-11-13T16:40:17.500000Z</time>
      </trkpt>
      <trkpt lat="45.70042655843075" lon="10.205417570774909">
        <ele>353.9435529086222</ele>
        <time>2017-11-13T16:40:17.609000Z</time>
      </trkpt>
      <trkpt lat="45.70041454397142" lon="10.205383356660604">
        <ele>353.9008458308289</ele>
        <time>2017-11-13T16:40:17.652000Z</time>
      </trkpt>
      <trkpt lat="45.70041471160948" lon="10.205383859574795">
        <ele>353.90022437565466</ele>
        <time>2017-11-13T16:40:17.652000Z</time>
      </trkpt>
      <trkpt lat="45.70031404495239" lon="10.205097198486328">
        <ele>353.5424019549799</ele>
        <time>2017-11-13T16:40:18.011000Z</time>
      </trkpt>
      <trkpt lat="45.69960594177246" lon="10.20280122756958">
        <ele>349.07670651279864</ele>
        <time>2017-11-13T16:40:20.821000Z</time>
      </trkpt>
      <trkpt lat="45.69945573806763" lon="10.202093124389648">
        <ele>348.0</ele>
        <time>2017-11-13T16:40:21.650000Z</time>
      </trkpt>
      <trkpt lat="45.69945573806763" lon="10.20153522491455">
        <ele>348.8605201285747</ele>
        <time>2017-11-13T16:40:22.275000Z</time>
      </trkpt>
      <trkpt lat="45.69969185627997" lon="10.199453830718994">
        <ele>347.0</ele>
        <time>2017-11-13T16:40:24.636000Z</time>
      </trkpt>
      <trkpt lat="45.69973477162421" lon="10.19904613494873">
        <ele>346.22915614043194</ele>
        <time>2017-11-13T16:40:25.098000Z</time>
      </trkpt>
      <trkpt lat="45.69975622929633" lon="10.198509693145752">
        <ele>345.9923529375394</ele>
        <time>2017-11-13T16:40:25.700000Z</time>
      </trkpt>
      <trkpt lat="45.69969177246094" lon="10.19780158996582">
        <ele>345.6776443680031</ele>
        <time>2017-11-13T16:40:26.500000Z</time>
      </trkpt>
      <trkpt lat="45.699262619018555" lon="10.195591449737549">
        <ele>344.0</ele>
        <time>2017-11-13T16:40:29.068000Z</time>
      </trkpt>
      <trkpt lat="45.699219703674316" lon="10.195033550262451">
        <ele>344.1578457136484</ele>
        <time>2017-11-13T16:40:29.696000Z</time>
      </trkpt>
      <trkpt lat="45.699219703674316" lon="10.193874835968018">
        <ele>346.2439936780108</ele>
        <time>2017-11-13T16:40:30.993000Z</time>
      </trkpt>
      <trkpt lat="45.699219704081145" lon="10.193224267802044">
        <ele>346.0</ele>
        <time>2017-11-13T16:40:31.721000Z</time>
      </trkpt>
      <trkpt lat="45.69921970407992" lon="10.19322371216759">
        <ele>345.999945670005</ele>
        <time>2017-11-13T16:40:31.721000Z</time>
      </trkpt>
      <trkpt lat="45.69921970407518" lon="10.19322158735422">
        <ele>345.9997379055314</ele>
        <time>2017-11-13T16:40:31.723000Z</time>
      </trkpt>
      <trkpt lat="45.69921970407048" lon="10.193219491690302">
        <ele>345.99953299129425</ele>
        <time>2017-11-13T16:40:31.725000Z</time>
      </trkpt>
      <trkpt lat="45.69921970407166" lon="10.193220016132116">
        <ele>345.9994817113188</ele>
        <time>2017-11-13T16:40:31.725000Z</time>
      </trkpt>
      <trkpt lat="45.69921970381273" lon="10.19312311929511">
        <ele>345.9900071284613</ele>
        <time>2017-11-13T16:40:31.834000Z</time>
      </trkpt>
      <trkpt lat="45.699219703674316" lon="10.19308090209961">
        <ele>345.98587912666943</ele>
        <time>2017-11-13T16:40:31.881000Z</time>
      </trkpt>
      <trkpt lat="45.699219703674316" lon="10.192158222198486">
        <ele>345.89565938942883</ele>
        <time>2017-11-13T16:40:32.914000Z</time>
      </trkpt>
      <trkpt lat="45.699262702837586" lon="10.192029476165771">
        <ele>345.8817052828701</ele>
        <time>2017-11-13T16:40:33.074000Z</time>
      </trkpt>
      <trkpt lat="45.69934844970703" lon="10.191965103149414">
        <ele>345.86815055810956</ele>
        <time>2017-11-13T16:40:33.229000Z</time>
      </trkpt>
      <trkpt lat="45.69939136505127" lon="10.191857814788818">
        <ele>345.8360607585468</ele>
        <time>2017-11-13T16:40:33.367000Z</time>
      </trkpt>
      <trkpt lat="45.69936990737915" lon="10.191707611083984">
        <ele>345.79626882496405</ele>
        <time>2017-11-13T16:40:33.539000Z</time>
      </trkpt>
      <trkpt lat="45.699262619018555" lon="10.191621780395508">
        <ele>345.7505971733151</ele>
        <time>2017-11-13T16:40:33.736000Z</time>
      </trkpt>
      <trkpt lat="45.699219703674316" lon="10.191493034362793">
        <ele>345.7135709087416</ele>
        <time>2017-11-13T16:40:33.896000Z</time>
      </trkpt>
      <trkpt lat="45.69921978749335" lon="10.19132137298584">
        <ele>345.66901674971086</ele>
        <time>2017-11-13T16:40:34.088000Z</time>
      </trkpt>
      <trkpt lat="45.699219703674316" lon="10.19108533859253">
        <ele>345.60775478800446</ele>
        <time>2017-11-13T16:40:34.352000Z</time>
      </trkpt>
      <trkpt lat="45.69921978749335" lon="10.190656185150146">
        <ele>345.1630360799597</ele>
        <time>2017-11-13T16:40:34.833000Z</time>
      </trkpt>
      <trkpt lat="45.699207386491466" lon="10.190028279189839">
        <ele>345.0</ele>
        <time>2017-11-13T16:40:35.536000Z</time>
      </trkpt>
      <trkpt lat="45.69920737552068" lon="10.190027723777666">
        <ele>344.999036613569</ele>
        <time>2017-11-13T16:40:35.536000Z</time>
      </trkpt>
      <trkpt lat="45.69920733356703" lon="10.190025599814039">
        <ele>344.9953525068102</ele>
        <time>2017-11-13T16:40:35.538000Z</time>
      </trkpt>
      <trkpt lat="45.699207271426054" lon="10.190022453842214">
        <ele>344.98989568262624</ele>
        <time>2017-11-13T16:40:35.542000Z</time>
      </trkpt>
      <trkpt lat="45.69920728178098" lon="10.190022978074266">
        <ele>344.9889863794613</ele>
        <time>2017-11-13T16:40:35.542000Z</time>
      </trkpt>
      <trkpt lat="45.699205368544355" lon="10.189926119990258">
        <ele>344.1543151685699</ele>
        <time>2017-11-13T16:40:35.650000Z</time>
      </trkpt>
      <trkpt lat="45.699204532429576" lon="10.18988379277289">
        <ele>344.0808967728178</ele>
        <time>2017-11-13T16:40:35.697000Z</time>
      </trkpt>
      <trkpt lat="45.699204532429576" lon="10.189883457496762">
        <ele>344.0803154542839</ele>
        <time>2017-11-13T16:40:35.697000Z</time>
      </trkpt>
      <trkpt lat="45.6991982460022" lon="10.18956184387207">
        <ele>343.5224672495735</ele>
        <time>2017-11-13T16:40:36.057000Z</time>
      </trkpt>
      <trkpt lat="45.6990909576416" lon="10.189046859741211">
        <ele>340.9240159441917</ele>
        <time>2017-11-13T16:40:36.659000Z</time>
      </trkpt>
      <trkpt lat="45.69891929626465" lon="10.188596248626709">
        <ele>340.0340577821011</ele>
        <time>2017-11-13T16:40:37.234000Z</time>
      </trkpt>
      <trkpt lat="45.69891938008368" lon="10.188596248626709">
        <ele>340.0341414370175</ele>
        <time>2017-11-13T16:40:37.234000Z</time>
      </trkpt>
      <trkpt lat="45.69851168431342" lon="10.187931060791016">
        <ele>340.98437410473656</ele>
        <time>2017-11-13T16:40:38.225000Z</time>
      </trkpt>
      <trkpt lat="45.69799670018256" lon="10.187287330627441">
        <ele>343.0</ele>
        <time>2017-11-13T16:40:39.321000Z</time>
      </trkpt>
      <trkpt lat="45.697331512346864" lon="10.186493396759033">
        <ele>352.8288513262681</ele>
        <time>2017-11-13T16:40:40.709000Z</time>
      </trkpt>
      <trkpt lat="45.697031021118164" lon="10.186128616333008">
        <ele>355.7837983452719</ele>
        <time>2017-11-13T16:40:41.341000Z</time>
      </trkpt>
      <trkpt lat="45.69689992756976" lon="10.186039376608273">
        <ele>356.17734340970395</ele>
        <time>2017-11-13T16:40:41.574000Z</time>
      </trkpt>
      <trkpt lat="45.69689991170566" lon="10.186039365809043">
        <ele>356.17739103401846</ele>
        <time>2017-11-13T16:40:41.574000Z</time>
      </trkpt>
      <trkpt lat="45.6968995770927" lon="10.186039138027589">
        <ele>356.17839554725896</ele>
        <time>2017-11-13T16:40:41.575000Z</time>
      </trkpt>
      <trkpt lat="45.69689823684752" lon="10.186038225680644">
        <ele>356.18241898420337</ele>
        <time>2017-11-13T16:40:41.577000Z</time>
      </trkpt>
      <trkpt lat="45.6968959192295" lon="10.186036648005526">
        <ele>356.1893765095487</ele>
        <time>2017-11-13T16:40:41.581000Z</time>
      </trkpt>
      <trkpt lat="45.696895572077054" lon="10.186036411687972">
        <ele>356.1904186666031</ele>
        <time>2017-11-13T16:40:41.581000Z</time>
      </trkpt>
      <trkpt lat="45.696834800653185" lon="10.185995042730058">
        <ele>356.3728554206927</ele>
        <time>2017-11-13T16:40:41.689000Z</time>
      </trkpt>
      <trkpt lat="45.69680655375123" lon="10.18597581423819">
        <ele>356.4576530373312</ele>
        <time>2017-11-13T16:40:41.739000Z</time>
      </trkpt>
      <trkpt lat="45.69680638611317" lon="10.185975730419159">
        <ele>356.45813445061214</ele>
        <time>2017-11-13T16:40:41.739000Z</time>
      </trkpt>
      <trkpt lat="45.69649466313422" lon="10.185763835906982">
        <ele>363.0603499502278</ele>
        <time>2017-11-13T16:40:42.292000Z</time>
      </trkpt>
      <trkpt lat="45.69494962692261" lon="10.185270309448242">
        <ele>346.1802505460669</ele>
        <time>2017-11-13T16:40:44.830000Z</time>
      </trkpt>
      <trkpt lat="45.69486379623413" lon="10.185227394104004">
        <ele>346.086341294767</ele>
        <time>2017-11-13T16:40:44.976000Z</time>
      </trkpt>
      <trkpt lat="45.69256782531738" lon="10.18456220626831">
        <ele>346.0</ele>
        <time>2017-11-13T16:40:48.731000Z</time>
      </trkpt>
      <trkpt lat="45.69222450256348" lon="10.184648036956787">
        <ele>336.0</ele>
        <time>2017-11-13T16:40:49.290000Z</time>
      </trkpt>
      <trkpt lat="45.69216207364363" lon="10.184690349225056">
        <ele>335.8904373357698</ele>
        <time>2017-11-13T16:40:49.401000Z</time>
      </trkpt>
      <trkpt lat="45.6921620657692" lon="10.184690354562077">
        <ele>335.89040340945957</ele>
        <time>2017-11-13T16:40:49.401000Z</time>
      </trkpt>
      <trkpt lat="45.69216172289136" lon="10.184690586953147">
        <ele>335.8889261488553</ele>
        <time>2017-11-13T16:40:49.401000Z</time>
      </trkpt>
      <trkpt lat="45.692160381592615" lon="10.18469149604015">
        <ele>335.8831472751462</ele>
        <time>2017-11-13T16:40:49.404000Z</time>
      </trkpt>
      <trkpt lat="45.69215806217724" lon="10.184693068061412">
        <ele>335.8731542677125</ele>
        <time>2017-11-13T16:40:49.408000Z</time>
      </trkpt>
      <trkpt lat="45.69215772270713" lon="10.184693298142738">
        <ele>335.87169168911583</ele>
        <time>2017-11-13T16:40:49.408000Z</time>
      </trkpt>
      <trkpt lat="45.69209689552969" lon="10.184734524694548">
        <ele>335.6096228817477</ele>
        <time>2017-11-13T16:40:49.516000Z</time>
      </trkpt>
      <trkpt lat="45.69206843152642" lon="10.184753816574812">
        <ele>335.48698813236734</ele>
        <time>2017-11-13T16:40:49.566000Z</time>
      </trkpt>
      <trkpt lat="45.69206834770739" lon="10.184753816574812">
        <ele>335.4866617356975</ele>
        <time>2017-11-13T16:40:49.566000Z</time>
      </trkpt>
      <trkpt lat="45.69155931472778" lon="10.185098648071289">
        <ele>330.29373364303075</ele>
        <time>2017-11-13T16:40:50.469000Z</time>
      </trkpt>
      <trkpt lat="45.691559398546815" lon="10.185098648071289">
        <ele>330.2934072463609</ele>
        <time>2017-11-13T16:40:50.469000Z</time>
      </trkpt>
      <trkpt lat="45.690979957580566" lon="10.185463428497314">
        <ele>327.828496056772</ele>
        <time>2017-11-13T16:40:51.484000Z</time>
      </trkpt>
      <trkpt lat="45.69072254933417" lon="10.185549259185791">
        <ele>327.40926192650795</ele>
        <time>2017-11-13T16:40:51.908000Z</time>
      </trkpt>
      <trkpt lat="45.69046497344971" lon="10.18557071685791">
        <ele>327.0</ele>
        <time>2017-11-13T16:40:52.322000Z</time>
      </trkpt>
      <trkpt lat="45.69037922658026" lon="10.18557071685791">
        <ele>327.0487288821683</ele>
        <time>2017-11-13T16:40:52.459000Z</time>
      </trkpt>
      <trkpt lat="45.689778411760926" lon="10.185613632202148">
        <ele>327.3905892459732</ele>
        <time>2017-11-13T16:40:53.423000Z</time>
      </trkpt>
      <trkpt lat="45.689778327941895" lon="10.185613632202148">
        <ele>327.39063687928916</ele>
        <time>2017-11-13T16:40:53.423000Z</time>
      </trkpt>
      <trkpt lat="45.68934917449951" lon="10.185635089874268">
        <ele>327.63466817051903</ele>
        <time>2017-11-13T16:40:54.111000Z</time>
      </trkpt>
      <trkpt lat="45.689070308580995" lon="10.185656547546387">
        <ele>327.7933729787126</ele>
        <time>2017-11-13T16:40:54.559000Z</time>
      </trkpt>
      <trkpt lat="45.68907022476196" lon="10.185656547546387">
        <ele>327.7934206120285</ele>
        <time>2017-11-13T16:40:54.559000Z</time>
      </trkpt>
      <trkpt lat="45.688576782122254" lon="10.185699462890625">
        <ele>328.0743549913811</ele>
        <time>2017-11-13T16:40:55.352000Z</time>
      </trkpt>
      <trkpt lat="45.68844803608954" lon="10.185699462890625">
        <ele>328.1475197646074</ele>
        <time>2017-11-13T16:40:55.558000Z</time>
      </trkpt>
      <trkpt lat="45.68844795227051" lon="10.185699462890625">
        <ele>328.14748545246755</ele>
        <time>2017-11-13T16:40:55.558000Z</time>
      </trkpt>
      <trkpt lat="45.68842657841742" lon="10.185720920562744">
        <ele>328.1367986865411</ele>
        <time>2017-11-13T16:40:55.600000Z</time>
      </trkpt>
      <trkpt lat="45.68812617100775" lon="10.185742378234863">
        <ele>329.3470043153134</ele>
        <time>2017-11-13T16:40:56.082000Z</time>
      </trkpt>
      <trkpt lat="45.688043350869556" lon="10.185748631632215">
        <ele>329.1052552079521</ele>
        <time>2017-11-13T16:40:56.215000Z</time>
      </trkpt>
      <trkpt lat="45.68804329121726" lon="10.185748636136287">
        <ele>329.1050810849802</ele>
        <time>2017-11-13T16:40:56.215000Z</time>
      </trkpt>
      <trkpt lat="45.68804296333407" lon="10.185748660893319">
        <ele>329.1041240053312</ele>
        <time>2017-11-13T16:40:56.216000Z</time>
      </trkpt>
      <trkpt lat="45.68804148137338" lon="10.18574877278971">
        <ele>329.0997982135657</ele>
        <time>2017-11-13T16:40:56.218000Z</time>
      </trkpt>
      <trkpt lat="45.68803891873429" lon="10.18574896628336">
        <ele>329.0923179590915</ele>
        <time>2017-11-13T16:40:56.222000Z</time>
      </trkpt>
      <trkpt lat="45.6880384900639" lon="10.185748998650414">
        <ele>329.09106668511237</ele>
        <time>2017-11-13T16:40:56.223000Z</time>
      </trkpt>
      <trkpt lat="45.687971337540674" lon="10.185754069038069">
        <ele>328.8950508026225</ele>
        <time>2017-11-13T16:40:56.331000Z</time>
      </trkpt>
      <trkpt lat="45.687939673662186" lon="10.185756459832191">
        <ele>328.80262504159265</ele>
        <time>2017-11-13T16:40:56.382000Z</time>
      </trkpt>
      <trkpt lat="45.68793984130025" lon="10.185756459832191">
        <ele>328.80213639117295</ele>
        <time>2017-11-13T16:40:56.382000Z</time>
      </trkpt>
      <trkpt lat="45.687847221270204" lon="10.185763835906982">
        <ele>328.5317395674785</ele>
        <time>2017-11-13T16:40:56.531000Z</time>
      </trkpt>
      <trkpt lat="45.686752796173096" lon="10.185892581939697">
        <ele>322.3308312179051</ele>
        <time>2017-11-13T16:40:58.291000Z</time>
      </trkpt>
      <trkpt lat="45.68643101491034" lon="10.18606424331665">
        <ele>320.4567080754661</ele>
        <time>2017-11-13T16:40:58.842000Z</time>
      </trkpt>
      <trkpt lat="45.68643093109131" lon="10.18606424331665">
        <ele>320.4564947148925</ele>
        <time>2017-11-13T16:40:58.842000Z</time>
      </trkpt>
      <trkpt lat="45.68610906600952" lon="10.186235904693604">
        <ele>319.5821714944982</ele>
        <time>2017-11-13T16:40:59.393000Z</time>
      </trkpt>
      <trkpt lat="45.68572282791138" lon="10.186429023742676">
        <ele>319.33440868286726</ele>
        <time>2017-11-13T16:41:00.049000Z</time>
      </trkpt>
      <trkpt lat="45.68535804748535" lon="10.186643600463867">
        <ele>318.53408214549853</ele>
        <time>2017-11-13T16:41:00.681000Z</time>
      </trkpt>
      <trkpt lat="45.68531513214111" lon="10.186729431152344">
        <ele>317.05111324148237</ele>
        <time>2017-11-13T16:41:00.799000Z</time>
      </trkpt>
      <trkpt lat="45.684928977862" lon="10.187008380889893">
        <ele>315.5066795059215</ele>
        <time>2017-11-13T16:41:01.492000Z</time>
      </trkpt>
      <trkpt lat="45.68426379002631" lon="10.187480449676514">
        <ele>314.0</ele>
        <time>2017-11-13T16:41:02.682000Z</time>
      </trkpt>
      <trkpt lat="45.68411358632147" lon="10.187544822692871">
        <ele>313.14382572939627</ele>
        <time>2017-11-13T16:41:02.933000Z</time>
      </trkpt>
      <trkpt lat="45.68385609425604" lon="10.18758773803711">
        <ele>312.83050312695474</ele>
        <time>2017-11-13T16:41:03.349000Z</time>
      </trkpt>
      <trkpt lat="45.6835460831468" lon="10.187559617924645">
        <ele>312.45505390466</ele>
        <time>2017-11-13T16:41:03.847000Z</time>
      </trkpt>
      <trkpt lat="45.68354586088459" lon="10.187559597764102">
        <ele>312.4549890488759</ele>
        <time>2017-11-13T16:41:03.847000Z</time>
      </trkpt>
      <trkpt lat="45.68354569584944" lon="10.187559582794325">
        <ele>312.454940891861</ele>
        <time>2017-11-13T16:41:03.847000Z</time>
      </trkpt>
      <trkpt lat="45.683544214799404" lon="10.187559448453802">
        <ele>312.45450872364637</ele>
        <time>2017-11-13T16:41:03.849000Z</time>
      </trkpt>
      <trkpt lat="45.683541653734316" lon="10.187559216149142">
        <ele>312.4537614086328</ele>
        <time>2017-11-13T16:41:03.853000Z</time>
      </trkpt>
      <trkpt lat="45.68354106269581" lon="10.187559162538221">
        <ele>312.4535889444682</ele>
        <time>2017-11-13T16:41:03.853000Z</time>
      </trkpt>
      <trkpt lat="45.68347411406923" lon="10.187553089885322">
        <ele>312.43405343401884</ele>
        <time>2017-11-13T16:41:03.961000Z</time>
      </trkpt>
      <trkpt lat="45.6834421120584" lon="10.1875501871109">
        <ele>312.42471529452547</ele>
        <time>2017-11-13T16:41:04.012000Z</time>
      </trkpt>
      <trkpt lat="45.68338402546942" lon="10.187544822692871">
        <ele>312.40776447221333</ele>
        <time>2017-11-13T16:41:04.105000Z</time>
      </trkpt>
      <trkpt lat="45.68299778737128" lon="10.187480449676514">
        <ele>312.9611931323865</ele>
        <time>2017-11-13T16:41:04.728000Z</time>
      </trkpt>
      <trkpt lat="45.68226822651923" lon="10.187394618988037">
        <ele>312.08135140321065</ele>
        <time>2017-11-13T16:41:05.902000Z</time>
      </trkpt>
      <trkpt lat="45.68198927678168" lon="10.187373161315918">
        <ele>311.71550518777013</ele>
        <time>2017-11-13T16:41:06.350000Z</time>
      </trkpt>
      <trkpt lat="45.68177470006049" lon="10.187351703643799">
        <ele>311.29053099900074</ele>
        <time>2017-11-13T16:41:06.695000Z</time>
      </trkpt>
      <trkpt lat="45.68063744343817" lon="10.187201499938965">
        <ele>307.36743262951603</ele>
        <time>2017-11-13T16:41:08.526000Z</time>
      </trkpt>
      <trkpt lat="45.68063735961914" lon="10.187201499938965">
        <ele>307.3673235422991</ele>
        <time>2017-11-13T16:41:08.526000Z</time>
      </trkpt>
      <trkpt lat="45.68046578206122" lon="10.187180042266846">
        <ele>307.1431712431203</ele>
        <time>2017-11-13T16:41:08.802000Z</time>
      </trkpt>
      <trkpt lat="45.67990788258612" lon="10.187115669250488">
        <ele>306.0813978990432</ele>
        <time>2017-11-13T16:41:09.699000Z</time>
      </trkpt>
      <trkpt lat="45.67967184819281" lon="10.18709421157837">
        <ele>305.9128251117983</ele>
        <time>2017-11-13T16:41:10.078000Z</time>
      </trkpt>
      <trkpt lat="45.67720421589911" lon="10.186793804168701">
        <ele>303.0</ele>
        <time>2017-11-13T16:41:14.048000Z</time>
      </trkpt>
      <trkpt lat="45.67720413208008" lon="10.186793804168701">
        <ele>302.99997153517575</ele>
        <time>2017-11-13T16:41:14.048000Z</time>
      </trkpt>
      <trkpt lat="45.677096927538514" lon="10.186793804168701">
        <ele>302.9937128271185</ele>
        <time>2017-11-13T16:41:14.220000Z</time>
      </trkpt>
      <trkpt lat="45.67643165588379" lon="10.186707973480225">
        <ele>302.95471611855623</ele>
        <time>2017-11-13T16:41:15.291000Z</time>
      </trkpt>
      <trkpt lat="45.676324451342225" lon="10.186686515808105">
        <ele>302.94839650163044</ele>
        <time>2017-11-13T16:41:15.465000Z</time>
      </trkpt>
      <trkpt lat="45.67602404393256" lon="10.186643600463867">
        <ele>303.2641045941266</ele>
        <time>2017-11-13T16:41:15.949000Z</time>
      </trkpt>
      <trkpt lat="45.67525156773627" lon="10.186514854431152">
        <ele>301.3400775725292</ele>
        <time>2017-11-13T16:41:17.196000Z</time>
      </trkpt>
      <trkpt lat="45.67486532963812" lon="10.186471939086914">
        <ele>300.49622855055054</ele>
        <time>2017-11-13T16:41:17.817000Z</time>
      </trkpt>
      <trkpt lat="45.674071395769715" lon="10.1863431930542">
        <ele>299.1099554129876</ele>
        <time>2017-11-13T16:41:19.098000Z</time>
      </trkpt>
      <trkpt lat="45.67362078465521" lon="10.18632173538208">
        <ele>298.7393099244169</ele>
        <time>2017-11-13T16:41:19.821000Z</time>
      </trkpt>
      <trkpt lat="45.67312717437744" lon="10.1863431930542">
        <ele>298.0</ele>
        <time>2017-11-13T16:41:20.613000Z</time>
      </trkpt>
      <trkpt lat="45.67244052886963" lon="10.186643600463867">
        <ele>296.04237345220207</ele>
        <time>2017-11-13T16:41:21.764000Z</time>
      </trkpt>
      <trkpt lat="45.67194700241089" lon="10.186965465545654">
        <ele>294.4005714318858</ele>
        <time>2017-11-13T16:41:22.633000Z</time>
      </trkpt>
      <trkpt lat="45.6716251373291" lon="10.187265872955322">
        <ele>294.1161870775413</ele>
        <time>2017-11-13T16:41:23.249000Z</time>
      </trkpt>
      <trkpt lat="45.67149647511542" lon="10.187394618988037">
        <ele>294.0</ele>
        <time>2017-11-13T16:41:23.501000Z</time>
      </trkpt>
      <trkpt lat="45.67145355977118" lon="10.187437534332275">
        <ele>293.9604743994167</ele>
        <time>2017-11-13T16:41:23.585000Z</time>
      </trkpt>
      <trkpt lat="45.67134618759155" lon="10.18756628036499">
        <ele>293.85471990851283</ele>
        <time>2017-11-13T16:41:23.810000Z</time>
      </trkpt>
      <trkpt lat="45.671303272247314" lon="10.18758773803711">
        <ele>293.82040000466213</ele>
        <time>2017-11-13T16:41:23.883000Z</time>
      </trkpt>
      <trkpt lat="45.67121744155884" lon="10.187716484069824">
        <ele>293.7265281882106</ele>
        <time>2017-11-13T16:41:24.082000Z</time>
      </trkpt>
      <trkpt lat="45.67087420262396" lon="10.188167095184326">
        <ele>293.3748754833946</ele>
        <time>2017-11-13T16:41:24.829000Z</time>
      </trkpt>
      <trkpt lat="45.6707239151001" lon="10.188403129577637">
        <ele>292.2064158826311</ele>
        <time>2017-11-13T16:41:25.187000Z</time>
      </trkpt>
      <trkpt lat="45.67068108357489" lon="10.188467502593994">
        <ele>292.1595233977656</ele>
        <time>2017-11-13T16:41:25.287000Z</time>
      </trkpt>
      <trkpt lat="45.67048995970441" lon="10.188749928233884">
        <ele>291.95211281175085</ele>
        <time>2017-11-13T16:41:25.727000Z</time>
      </trkpt>
      <trkpt lat="45.67048968973428" lon="10.188750327169382">
        <ele>291.9518198367554</ele>
        <time>2017-11-13T16:41:25.727000Z</time>
      </trkpt>
      <trkpt lat="45.67048865733319" lon="10.188751852750679">
        <ele>291.9506994621243</ele>
        <time>2017-11-13T16:41:25.730000Z</time>
      </trkpt>
      <trkpt lat="45.670486872080495" lon="10.188754490822218">
        <ele>291.94876208351764</ele>
        <time>2017-11-13T16:41:25.734000Z</time>
      </trkpt>
      <trkpt lat="45.67048680499313" lon="10.188754589957309">
        <ele>291.94868927948573</ele>
        <time>2017-11-13T16:41:25.734000Z</time>
      </trkpt>
      <trkpt lat="45.670439791931955" lon="10.188824061159226">
        <ele>291.89767012960897</ele>
        <time>2017-11-13T16:41:25.842000Z</time>
      </trkpt>
      <trkpt lat="45.670417891815305" lon="10.188856422901154">
        <ele>291.87390387311274</ele>
        <time>2017-11-13T16:41:25.892000Z</time>
      </trkpt>
      <trkpt lat="45.67041797563434" lon="10.18885625526309">
        <ele>291.87379512734793</ele>
        <time>2017-11-13T16:41:25.892000Z</time>
      </trkpt>
      <trkpt lat="45.67018747329712" lon="10.189197063446045">
        <ele>292.6235767241163</ele>
        <time>2017-11-13T16:41:26.423000Z</time>
      </trkpt>
      <trkpt lat="45.66988706588745" lon="10.189540386199951">
        <ele>290.6666666666667</ele>
        <time>2017-11-13T16:41:27.039000Z</time>
      </trkpt>
      <trkpt lat="45.669865692034364" lon="10.18958330154419">
        <ele>290.6666666666667</ele>
        <time>2017-11-13T16:41:27.098000Z</time>
      </trkpt>
      <trkpt lat="45.66941508091986" lon="10.190119743347168">
        <ele>292.3333333333333</ele>
        <time>2017-11-13T16:41:28.038000Z</time>
      </trkpt>
      <trkpt lat="45.66810607910156" lon="10.191750526428223">
        <ele>289.0</ele>
        <time>2017-11-13T16:41:30.820000Z</time>
      </trkpt>
      <trkpt lat="45.66789150238037" lon="10.191857814788818">
        <ele>288.94418477992144</ele>
        <time>2017-11-13T16:41:31.184000Z</time>
      </trkpt>
      <trkpt lat="45.667827213183045" lon="10.1918363571167">
        <ele>288.9279742166498</ele>
        <time>2017-11-13T16:41:31.290000Z</time>
      </trkpt>
      <trkpt lat="45.66778429783881" lon="10.19181489944458">
        <ele>288.91681117030794</ele>
        <time>2017-11-13T16:41:31.363000Z</time>
      </trkpt>
      <trkpt lat="45.66769846715033" lon="10.191900730133057">
        <ele>288.8910982308366</ele>
        <time>2017-11-13T16:41:31.531000Z</time>
      </trkpt>
      <trkpt lat="45.66767692565918" lon="10.191986560821533">
        <ele>288.87544845310043</ele>
        <time>2017-11-13T16:41:31.633000Z</time>
      </trkpt>
      <trkpt lat="45.66761255264282" lon="10.192394256591797">
        <ele>288.8037235062404</ele>
        <time>2017-11-13T16:41:32.101000Z</time>
      </trkpt>
      <trkpt lat="45.6669903639704" lon="10.19308090209961">
        <ele>287.67066146243155</ele>
        <time>2017-11-13T16:41:33.361000Z</time>
      </trkpt>
      <trkpt lat="45.66613205708563" lon="10.194132328033447">
        <ele>287.0</ele>
        <time>2017-11-13T16:41:35.172000Z</time>
      </trkpt>
      <trkpt lat="45.6661319732666" lon="10.194132328033447">
        <ele>286.9998601584919</ele>
        <time>2017-11-13T16:41:35.172000Z</time>
      </trkpt>
      <trkpt lat="45.66548824310303" lon="10.194904804229736">
        <ele>284.9315458626205</ele>
        <time>2017-11-13T16:41:36.519000Z</time>
      </trkpt>
      <trkpt lat="45.664608562365174" lon="10.195763111114502">
        <ele>282.0</ele>
        <time>2017-11-13T16:41:38.226000Z</time>
      </trkpt>
      <trkpt lat="45.6645227316767" lon="10.195848941802979">
        <ele>283.7770201971227</ele>
        <time>2017-11-13T16:41:38.394000Z</time>
      </trkpt>
      <trkpt lat="45.66349276341498" lon="10.196857452392578">
        <ele>285.0922722267642</ele>
        <time>2017-11-13T16:41:40.395000Z</time>
      </trkpt>
      <trkpt lat="45.663042068481445" lon="10.197222232818604">
        <ele>282.2735552640016</ele>
        <time>2017-11-13T16:41:41.225000Z</time>
      </trkpt>
      <trkpt lat="45.662827491760254" lon="10.19730806350708">
        <ele>281.8335175593979</ele>
        <time>2017-11-13T16:41:41.582000Z</time>
      </trkpt>
      <trkpt lat="45.66257177180725" lon="10.1973348685835">
        <ele>281.3271163510936</ele>
        <time>2017-11-13T16:41:41.993000Z</time>
      </trkpt>
      <trkpt lat="45.662571588655446" lon="10.197334887781734">
        <ele>281.32675365631167</ele>
        <time>2017-11-13T16:41:41.993000Z</time>
      </trkpt>
      <trkpt lat="45.662571384772775" lon="10.197334909153026">
        <ele>281.3263499082775</ele>
        <time>2017-11-13T16:41:41.993000Z</time>
      </trkpt>
      <trkpt lat="45.66256990472263" lon="10.197335064294172">
        <ele>281.3234189709152</ele>
        <time>2017-11-13T16:41:41.995000Z</time>
      </trkpt>
      <trkpt lat="45.662567345496676" lon="10.197335332556099">
        <ele>281.31835094603554</ele>
        <time>2017-11-13T16:41:41.999000Z</time>
      </trkpt>
      <trkpt lat="45.662566793702815" lon="10.197335390395986">
        <ele>281.3172582308676</ele>
        <time>2017-11-13T16:41:41.999000Z</time>
      </trkpt>
      <trkpt lat="45.66249985129623" lon="10.197342407390991">
        <ele>280.85135911869395</ele>
        <time>2017-11-13T16:41:42.107000Z</time>
      </trkpt>
      <trkpt lat="45.6624676566571" lon="10.197345782071352">
        <ele>280.78760420455285</ele>
        <time>2017-11-13T16:41:42.159000Z</time>
      </trkpt>
      <trkpt lat="45.66246774047613" lon="10.197345782071352">
        <ele>280.7874386616782</ele>
        <time>2017-11-13T16:41:42.160000Z</time>
      </trkpt>
      <trkpt lat="45.6611967086792" lon="10.197479724884033">
        <ele>277.2703474580666</ele>
        <time>2017-11-13T16:41:44.203000Z</time>
      </trkpt>
      <trkpt lat="45.66014528274536" lon="10.197608470916748">
        <ele>276.0</ele>
        <time>2017-11-13T16:41:45.895000Z</time>
      </trkpt>
      <trkpt lat="45.65975904464722" lon="10.197522640228271">
        <ele>273.68826598141436</ele>
        <time>2017-11-13T16:41:46.522000Z</time>
      </trkpt>
      <trkpt lat="45.65969475544989" lon="10.197522640228271">
        <ele>273.62026296211826</ele>
        <time>2017-11-13T16:41:46.625000Z</time>
      </trkpt>
      <trkpt lat="45.65965175628662" lon="10.19754409790039">
        <ele>273.57209279337917</ele>
        <time>2017-11-13T16:41:46.698000Z</time>
      </trkpt>
      <trkpt lat="45.659608924761415" lon="10.197587013244629">
        <ele>273.5167825579269</ele>
        <time>2017-11-13T16:41:46.782000Z</time>
      </trkpt>
      <trkpt lat="45.659587383270264" lon="10.197629928588867">
        <ele>273.47772100690054</ele>
        <time>2017-11-13T16:41:46.841000Z</time>
      </trkpt>
      <trkpt lat="45.659329891204834" lon="10.197844505310059">
        <ele>273.16252414067645</ele>
        <time>2017-11-13T16:41:47.319000Z</time>
      </trkpt>
      <trkpt lat="45.658578956499696" lon="10.198166370391846">
        <ele>272.0</ele>
        <time>2017-11-13T16:41:48.576000Z</time>
      </trkpt>
      <trkpt lat="45.65814980305731" lon="10.198338031768799">
        <ele>271.6884341824588</ele>
        <time>2017-11-13T16:41:49.290000Z</time>
      </trkpt>
      <trkpt lat="45.6580504437334" lon="10.198380817360706">
        <ele>271.61588483048854</ele>
        <time>2017-11-13T16:41:49.456000Z</time>
      </trkpt>
      <trkpt lat="45.65805039793808" lon="10.198380837080856">
        <ele>271.61585139204385</ele>
        <time>2017-11-13T16:41:49.456000Z</time>
      </trkpt>
      <trkpt lat="45.6580500721278" lon="10.198380977379246">
        <ele>271.6156134946936</ele>
        <time>2017-11-13T16:41:49.456000Z</time>
      </trkpt>
      <trkpt lat="45.65804865107899" lon="10.1983815893027">
        <ele>271.6145758854355</ele>
        <time>2017-11-13T16:41:49.458000Z</time>
      </trkpt>
      <trkpt lat="45.6580461938738" lon="10.198382647409428">
        <ele>271.6127817043875</ele>
        <time>2017-11-13T16:41:49.462000Z</time>
      </trkpt>
      <trkpt lat="45.65804579521909" lon="10.19838281907572">
        <ele>271.6124906180983</ele>
        <time>2017-11-13T16:41:49.462000Z</time>
      </trkpt>
      <trkpt lat="45.65798139028791" lon="10.198410552700356">
        <ele>271.565463977208</ele>
        <time>2017-11-13T16:41:49.570000Z</time>
      </trkpt>
      <trkpt lat="45.657950481399894" lon="10.198423862457275">
        <ele>271.54289519244344</ele>
        <time>2017-11-13T16:41:49.622000Z</time>
      </trkpt>
      <trkpt lat="45.657950565218925" lon="10.198423862457275">
        <ele>271.5428365870237</ele>
        <time>2017-11-13T16:41:49.623000Z</time>
      </trkpt>
      <trkpt lat="45.657055377960205" lon="10.19881010055542">
        <ele>270.55575552617614</ele>
        <time>2017-11-13T16:41:51.122000Z</time>
      </trkpt>
      <trkpt lat="45.65661134367211" lon="10.1989487337966">
        <ele>269.6666666666667</ele>
        <time>2017-11-13T16:41:51.851000Z</time>
      </trkpt>
      <trkpt lat="45.65661108396408" lon="10.198948814880184">
        <ele>269.66658186207775</ele>
        <time>2017-11-13T16:41:51.851000Z</time>
      </trkpt>
      <trkpt lat="45.6566109645233" lon="10.19894885217084">
        <ele>269.66654286010385</ele>
        <time>2017-11-13T16:41:51.851000Z</time>
      </trkpt>
      <trkpt lat="45.656609514628265" lon="10.198949304843158">
        <ele>269.6660694140193</ele>
        <time>2017-11-13T16:41:51.853000Z</time>
      </trkpt>
      <trkpt lat="45.6566070075522" lon="10.198950087578275">
        <ele>269.66525075797296</ele>
        <time>2017-11-13T16:41:51.857000Z</time>
      </trkpt>
      <trkpt lat="45.656606387275296" lon="10.198950281235176">
        <ele>269.6650482138812</ele>
        <time>2017-11-13T16:41:51.859000Z</time>
      </trkpt>
      <trkpt lat="45.656540888495556" lon="10.198970730606106">
        <ele>269.6436603618749</ele>
        <time>2017-11-13T16:41:51.966000Z</time>
      </trkpt>
      <trkpt lat="45.656509045511484" lon="10.19898067228496">
        <ele>269.6332624125397</ele>
        <time>2017-11-13T16:41:52.018000Z</time>
      </trkpt>
      <trkpt lat="45.656509129330516" lon="10.19898067228496">
        <ele>269.633235671729</ele>
        <time>2017-11-13T16:41:52.018000Z</time>
      </trkpt>
      <trkpt lat="45.656368816271424" lon="10.199024677276611">
        <ele>269.5874086681466</ele>
        <time>2017-11-13T16:41:52.248000Z</time>
      </trkpt>
      <trkpt lat="45.65516710281372" lon="10.199368000030518">
        <ele>269.8631228995573</ele>
        <time>2017-11-13T16:41:54.213000Z</time>
      </trkpt>
      <trkpt lat="45.654566287994385" lon="10.19956111907959">
        <ele>267.0</ele>
        <time>2017-11-13T16:41:55.200000Z</time>
      </trkpt>
      <trkpt lat="45.65424355556616" lon="10.199728876031138">
        <ele>266.8258447077178</ele>
        <time>2017-11-13T16:41:55.750000Z</time>
      </trkpt>
      <trkpt lat="45.65424344239405" lon="10.199728934857863">
        <ele>266.8257836369774</ele>
        <time>2017-11-13T16:41:55.750000Z</time>
      </trkpt>
      <trkpt lat="45.654243190823934" lon="10.199729065623748">
        <ele>266.8256478829179</ele>
        <time>2017-11-13T16:41:55.750000Z</time>
      </trkpt>
      <trkpt lat="45.654241796019996" lon="10.199729790641111">
        <ele>266.824895208899</ele>
        <time>2017-11-13T16:41:55.752000Z</time>
      </trkpt>
      <trkpt lat="45.654239384221555" lon="10.199731044290884">
        <ele>266.8235937370779</ele>
        <time>2017-11-13T16:41:55.756000Z</time>
      </trkpt>
      <trkpt lat="45.654238925140234" lon="10.199731282920727">
        <ele>266.82334600435723</ele>
        <time>2017-11-13T16:41:55.756000Z</time>
      </trkpt>
      <trkpt lat="45.65417569293776" lon="10.199764150896872">
        <ele>266.7892241943426</ele>
        <time>2017-11-13T16:41:55.864000Z</time>
      </trkpt>
      <trkpt lat="45.654145097360015" lon="10.19978005439043">
        <ele>266.43938066051624</ele>
        <time>2017-11-13T16:41:55.916000Z</time>
      </trkpt>
      <trkpt lat="45.65414526499808" lon="10.199779886752367">
        <ele>266.4392769249085</ele>
        <time>2017-11-13T16:41:55.916000Z</time>
      </trkpt>
      <trkpt lat="45.65402993001044" lon="10.199840068817139">
        <ele>266.3770109878792</ele>
        <time>2017-11-13T16:41:56.113000Z</time>
      </trkpt>
      <trkpt lat="45.65396547317505" lon="10.199882984161377">
        <ele>266.3409523900339</ele>
        <time>2017-11-13T16:41:56.227000Z</time>
      </trkpt>
      <trkpt lat="45.65366514958441" lon="10.199925899505615">
        <ele>266.18787407049643</ele>
        <time>2017-11-13T16:41:56.711000Z</time>
      </trkpt>
      <trkpt lat="45.653600776568055" lon="10.199947357177734">
        <ele>266.1776894224946</ele>
        <time>2017-11-13T16:41:56.817000Z</time>
      </trkpt>
      <trkpt lat="45.6531286239624" lon="10.20007610321045">
        <ele>266.4369610359251</ele>
        <time>2017-11-13T16:41:57.588000Z</time>
      </trkpt>
      <trkpt lat="45.65248497761786" lon="10.200355052947998">
        <ele>266.0</ele>
        <time>2017-11-13T16:41:58.666000Z</time>
      </trkpt>
      <trkpt lat="45.65173387527466" lon="10.200676918029785">
        <ele>265.16086873481436</ele>
        <time>2017-11-13T16:41:59.923000Z</time>
      </trkpt>
      <trkpt lat="45.65143346786499" lon="10.200719833374023">
        <ele>264.50443527421356</ele>
        <time>2017-11-13T16:42:00.407000Z</time>
      </trkpt>
      <trkpt lat="45.648794174194336" lon="10.201084613800049">
        <ele>260.0</ele>
        <time>2017-11-13T16:42:04.658000Z</time>
      </trkpt>
      <trkpt lat="45.647828662768006" lon="10.201191902160645">
        <ele>260.0</ele>
        <time>2017-11-13T16:42:06.211000Z</time>
      </trkpt>
      <trkpt lat="45.64754971303046" lon="10.201191902160645">
        <ele>259.7583631225709</ele>
        <time>2017-11-13T16:42:06.658000Z</time>
      </trkpt>
      <trkpt lat="45.64744234085083" lon="10.201191902160645">
        <ele>258.9986865881198</ele>
        <time>2017-11-13T16:42:06.830000Z</time>
      </trkpt>
      <trkpt lat="45.64723938989165" lon="10.201075929966178">
        <ele>258.61981350552566</ele>
        <time>2017-11-13T16:42:07.180000Z</time>
      </trkpt>
      <trkpt lat="45.64723933251655" lon="10.20107589718051">
        <ele>258.61970639656096</ele>
        <time>2017-11-13T16:42:07.180000Z</time>
      </trkpt>
      <trkpt lat="45.64723902951176" lon="10.201075724035286">
        <ele>258.61914074121376</ele>
        <time>2017-11-13T16:42:07.180000Z</time>
      </trkpt>
      <trkpt lat="45.64723765138794" lon="10.201074936537582">
        <ele>258.6165680323131</ele>
        <time>2017-11-13T16:42:07.182000Z</time>
      </trkpt>
      <trkpt lat="45.64723526846883" lon="10.201073574872405">
        <ele>258.61211955163685</ele>
        <time>2017-11-13T16:42:07.186000Z</time>
      </trkpt>
      <trkpt lat="45.64723486956118" lon="10.201073346925664">
        <ele>258.61137486291835</ele>
        <time>2017-11-13T16:42:07.186000Z</time>
      </trkpt>
      <trkpt lat="45.64717233880753" lon="10.201037615188362">
        <ele>258.4946412138445</ele>
        <time>2017-11-13T16:42:07.294000Z</time>
      </trkpt>
      <trkpt lat="45.64714193344116" lon="10.201020240783691">
        <ele>258.43787988360805</ele>
        <time>2017-11-13T16:42:07.347000Z</time>
      </trkpt>
      <trkpt lat="45.647142017260194" lon="10.201020240783691">
        <ele>258.43773457364983</ele>
        <time>2017-11-13T16:42:07.348000Z</time>
      </trkpt>
      <trkpt lat="45.64714193344116" lon="10.201020240784691">
        <ele>258.43758926369156</ele>
        <time>2017-11-13T16:42:07.349000Z</time>
      </trkpt>
      <trkpt lat="45.64686298370361" lon="10.2008056640625">
        <ele>257.55517651350493</ele>
        <time>2017-11-13T16:42:07.857000Z</time>
      </trkpt>
      <trkpt lat="45.64649820327759" lon="10.20029067993164">
        <ele>256.0</ele>
        <time>2017-11-13T16:42:08.679000Z</time>
      </trkpt>
      <trkpt lat="45.646139404589114" lon="10.199292351997865">
        <ele>256.7537750862394</ele>
        <time>2017-11-13T16:42:09.937000Z</time>
      </trkpt>
      <trkpt lat="45.646139227158635" lon="10.199291858321226">
        <ele>256.7539829969537</ele>
        <time>2017-11-13T16:42:09.937000Z</time>
      </trkpt>
      <trkpt lat="45.646138548634426" lon="10.199289970418265">
        <ele>256.7547780827077</ele>
        <time>2017-11-13T16:42:09.939000Z</time>
      </trkpt>
      <trkpt lat="45.64613720780931" lon="10.199286239751995">
        <ele>256.7563492438324</ele>
        <time>2017-11-13T16:42:09.944000Z</time>
      </trkpt>
      <trkpt lat="45.64613737540948" lon="10.199286706076984">
        <ele>256.75654563548227</ele>
        <time>2017-11-13T16:42:09.944000Z</time>
      </trkpt>
      <trkpt lat="45.64610639171662" lon="10.199200498244597">
        <ele>256.79285188504576</ele>
        <time>2017-11-13T16:42:10.053000Z</time>
      </trkpt>
      <trkpt lat="45.64609218388796" lon="10.19916096702218">
        <ele>256.80950038872516</ele>
        <time>2017-11-13T16:42:10.103000Z</time>
      </trkpt>
      <trkpt lat="45.64609226770699" lon="10.199161134660244">
        <ele>256.80957758392486</ele>
        <time>2017-11-13T16:42:10.103000Z</time>
      </trkpt>
      <trkpt lat="45.64600476063788" lon="10.198917388916016">
        <ele>256.9122070326791</ele>
        <time>2017-11-13T16:42:10.410000Z</time>
      </trkpt>
      <trkpt lat="45.64596184529364" lon="10.1987886428833">
        <ele>256.9656299021685</ele>
        <time>2017-11-13T16:42:10.570000Z</time>
      </trkpt>
      <trkpt lat="45.64594038762152" lon="10.198724269866943">
        <ele>256.9923413410329</ele>
        <time>2017-11-13T16:42:10.650000Z</time>
      </trkpt>
      <trkpt lat="45.645790100097656" lon="10.198252201080322">
        <ele>257.8488781313426</ele>
        <time>2017-11-13T16:42:11.231000Z</time>
      </trkpt>
      <trkpt lat="45.64576872624457" lon="10.198209285736084">
        <ele>257.8681656674765</ele>
        <time>2017-11-13T16:42:11.290000Z</time>
      </trkpt>
      <trkpt lat="45.64568289555609" lon="10.197930335998535">
        <ele>257.97972514465323</ele>
        <time>2017-11-13T16:42:11.632000Z</time>
      </trkpt>
      <trkpt lat="45.6455756071955" lon="10.197587013244629">
        <ele>258.117379758204</ele>
        <time>2017-11-13T16:42:12.053000Z</time>
      </trkpt>
      <trkpt lat="45.64540394581854" lon="10.19705057144165">
        <ele>258.0</ele>
        <time>2017-11-13T16:42:12.714000Z</time>
      </trkpt>
      <trkpt lat="45.645339572802186" lon="10.196878910064697">
        <ele>258.05126924472853</ele>
        <time>2017-11-13T16:42:12.932000Z</time>
      </trkpt>
      <trkpt lat="45.645339488983154" lon="10.196878910064697">
        <ele>258.0513008003316</ele>
        <time>2017-11-13T16:42:12.932000Z</time>
      </trkpt>
      <trkpt lat="45.64518928527832" lon="10.19655704498291">
        <ele>259.81981941498935</ele>
        <time>2017-11-13T16:42:13.366000Z</time>
      </trkpt>
      <trkpt lat="45.64486742019653" lon="10.196106433868408">
        <ele>258.32270658183535</ele>
        <time>2017-11-13T16:42:14.088000Z</time>
      </trkpt>
      <trkpt lat="45.644588470458984" lon="10.195848941802979">
        <ele>258.44769232572327</ele>
        <time>2017-11-13T16:42:14.620000Z</time>
      </trkpt>
      <trkpt lat="45.64405211247504" lon="10.195527076721191">
        <ele>259.0</ele>
        <time>2017-11-13T16:42:15.552000Z</time>
      </trkpt>
      <trkpt lat="45.644052028656006" lon="10.195527076721191">
        <ele>258.99995014155826</ele>
        <time>2017-11-13T16:42:15.552000Z</time>
      </trkpt>
      <trkpt lat="45.64392328262329" lon="10.195462703704834">
        <ele>258.9188235502973</ele>
        <time>2017-11-13T16:42:15.771000Z</time>
      </trkpt>
      <trkpt lat="45.64370878972113" lon="10.19529104232788">
        <ele>258.7726225248892</ele>
        <time>2017-11-13T16:42:16.165000Z</time>
      </trkpt>
      <trkpt lat="45.643558502197266" lon="10.195226669311523">
        <ele>258.6793041358796</ele>
        <time>2017-11-13T16:42:16.417000Z</time>
      </trkpt>
      <trkpt lat="45.64342975616455" lon="10.195162296295166">
        <ele>258.5981774667998</ele>
        <time>2017-11-13T16:42:16.636000Z</time>
      </trkpt>
      <trkpt lat="45.643043518066406" lon="10.194926261901855">
        <ele>258.0150062053288</ele>
        <time>2017-11-13T16:42:17.309000Z</time>
      </trkpt>
      <trkpt lat="45.642822317219355" lon="10.194805648756892">
        <ele>257.86863397084477</ele>
        <time>2017-11-13T16:42:17.689000Z</time>
      </trkpt>
      <trkpt lat="45.642822246702615" lon="10.194805610306684">
        <ele>257.86858730877776</ele>
        <time>2017-11-13T16:42:17.689000Z</time>
      </trkpt>
      <trkpt lat="45.64282195461124" lon="10.194805451040077">
        <ele>257.8683940272233</ele>
        <time>2017-11-13T16:42:17.689000Z</time>
      </trkpt>
      <trkpt lat="45.64282056795218" lon="10.194804694946201">
        <ele>257.86747645262653</ele>
        <time>2017-11-13T16:42:17.691000Z</time>
      </trkpt>
      <trkpt lat="45.64281748428433" lon="10.194803013536452">
        <ele>257.8654359400538</ele>
        <time>2017-11-13T16:42:17.696000Z</time>
      </trkpt>
      <trkpt lat="45.642817069397935" lon="10.194802787314336">
        <ele>257.8651614030673</ele>
        <time>2017-11-13T16:42:17.696000Z</time>
      </trkpt>
      <trkpt lat="45.64275408036062" lon="10.194768441772075">
        <ele>257.82348054564704</ele>
        <time>2017-11-13T16:42:17.804000Z</time>
      </trkpt>
      <trkpt lat="45.64272316172719" lon="10.19475158303976">
        <ele>257.8030211926832</ele>
        <time>2017-11-13T16:42:17.857000Z</time>
      </trkpt>
      <trkpt lat="45.64272324554622" lon="10.19475158303976">
        <ele>257.8029693663113</ele>
        <time>2017-11-13T16:42:17.857000Z</time>
      </trkpt>
      <trkpt lat="45.642571449279785" lon="10.194668769836426">
        <ele>257.7025164541836</ele>
        <time>2017-11-13T16:42:18.117000Z</time>
      </trkpt>
      <trkpt lat="45.642077922821045" lon="10.194475650787354">
        <ele>257.05281614617866</ele>
        <time>2017-11-13T16:42:18.937000Z</time>
      </trkpt>
      <trkpt lat="45.64190634526312" lon="10.194389820098877">
        <ele>256.8455646376503</ele>
        <time>2017-11-13T16:42:19.228000Z</time>
      </trkpt>
      <trkpt lat="45.64115524291992" lon="10.194261074066162">
        <ele>254.8523520617888</ele>
        <time>2017-11-13T16:42:20.441000Z</time>
      </trkpt>
      <trkpt lat="45.64053297042847" lon="10.194110870361328">
        <ele>253.07904804601185</ele>
        <time>2017-11-13T16:42:21.453000Z</time>
      </trkpt>
      <trkpt lat="45.64046868123114" lon="10.194110870361328">
        <ele>252.99131822169304</ele>
        <time>2017-11-13T16:42:21.556000Z</time>
      </trkpt>
      <trkpt lat="45.64029701985419" lon="10.19406795501709">
        <ele>252.75351555551683</ele>
        <time>2017-11-13T16:42:21.835000Z</time>
      </trkpt>
      <trkpt lat="45.63971757888794" lon="10.193939208984375">
        <ele>251.28665252414976</ele>
        <time>2017-11-13T16:42:22.775000Z</time>
      </trkpt>
      <trkpt lat="45.639095306396484" lon="10.193939208984375">
        <ele>250.6948663124556</ele>
        <time>2017-11-13T16:42:23.773000Z</time>
      </trkpt>
      <trkpt lat="45.63892372883856" lon="10.193874835968018">
        <ele>250.41631836790648</ele>
        <time>2017-11-13T16:42:24.057000Z</time>
      </trkpt>
      <trkpt lat="45.63888072967529" lon="10.19381046295166">
        <ele>250.3185707637273</ele>
        <time>2017-11-13T16:42:24.157000Z</time>
      </trkpt>
      <trkpt lat="45.63877352513373" lon="10.193724632263184">
        <ele>250.12564371995356</ele>
        <time>2017-11-13T16:42:24.354000Z</time>
      </trkpt>
      <trkpt lat="45.638580322265625" lon="10.193789005279541">
        <ele>249.81412911481098</ele>
        <time>2017-11-13T16:42:24.672000Z</time>
      </trkpt>
      <trkpt lat="45.6382155418396" lon="10.19381046295166">
        <ele>248.2408218885449</ele>
        <time>2017-11-13T16:42:25.257000Z</time>
      </trkpt>
      <trkpt lat="45.6379979321462" lon="10.193721469140627">
        <ele>248.18073418626568</ele>
        <time>2017-11-13T16:42:25.620000Z</time>
      </trkpt>
      <trkpt lat="45.63799782578081" lon="10.19372142564153">
        <ele>248.1807048160202</ele>
        <time>2017-11-13T16:42:25.620000Z</time>
      </trkpt>
      <trkpt lat="45.63799755903825" lon="10.193721316554713">
        <ele>248.18063116147474</ele>
        <time>2017-11-13T16:42:25.620000Z</time>
      </trkpt>
      <trkpt lat="45.63799613222552" lon="10.193720733046792">
        <ele>248.18023718145147</ele>
        <time>2017-11-13T16:42:25.622000Z</time>
      </trkpt>
      <trkpt lat="45.63799295929143" lon="10.193719435446841">
        <ele>248.17936105200442</ele>
        <time>2017-11-13T16:42:25.627000Z</time>
      </trkpt>
      <trkpt lat="45.63799249770711" lon="10.193719246677816">
        <ele>248.17923359659594</ele>
        <time>2017-11-13T16:42:25.627000Z</time>
      </trkpt>
      <trkpt lat="45.63792763288273" lon="10.193692719658735">
        <ele>248.1613227353641</ele>
        <time>2017-11-13T16:42:25.735000Z</time>
      </trkpt>
      <trkpt lat="45.63789560459554" lon="10.193679621443152">
        <ele>248.15247889497172</ele>
        <time>2017-11-13T16:42:25.788000Z</time>
      </trkpt>
      <trkpt lat="45.637895688414574" lon="10.193679705262184">
        <ele>248.15245174232794</ele>
        <time>2017-11-13T16:42:25.788000Z</time>
      </trkpt>
      <trkpt lat="45.63774355687201" lon="10.193617343902588">
        <ele>248.11043682865144</ele>
        <time>2017-11-13T16:42:26.042000Z</time>
      </trkpt>
      <trkpt lat="45.63774347305298" lon="10.193617343902588">
        <ele>248.1104687138289</ele>
        <time>2017-11-13T16:42:26.042000Z</time>
      </trkpt>
      <trkpt lat="45.6367564201355" lon="10.193488597869873">
        <ele>248.82084016803023</ele>
        <time>2017-11-13T16:42:27.631000Z</time>
      </trkpt>
      <trkpt lat="45.63643455505371" lon="10.193488597869873">
        <ele>249.53756878595368</ele>
        <time>2017-11-13T16:42:28.147000Z</time>
      </trkpt>
      <trkpt lat="45.63600540161133" lon="10.193595886230469">
        <ele>249.60533018548958</ele>
        <time>2017-11-13T16:42:28.845000Z</time>
      </trkpt>
      <trkpt lat="45.635640705004334" lon="10.19381046295166">
        <ele>249.0</ele>
        <time>2017-11-13T16:42:29.477000Z</time>
      </trkpt>
      <trkpt lat="45.6356406211853" lon="10.19381046295166">
        <ele>248.9999135939748</ele>
        <time>2017-11-13T16:42:29.477000Z</time>
      </trkpt>
      <trkpt lat="45.634846771135926" lon="10.19432544708252">
        <ele>247.4346409612456</ele>
        <time>2017-11-13T16:42:30.874000Z</time>
      </trkpt>
      <trkpt lat="45.63443460582013" lon="10.194595744417834">
        <ele>246.96721330564526</ele>
        <time>2017-11-13T16:42:31.601000Z</time>
      </trkpt>
      <trkpt lat="45.634434537703584" lon="10.19459578908819">
        <ele>246.96713215649723</ele>
        <time>2017-11-13T16:42:31.601000Z</time>
      </trkpt>
      <trkpt lat="45.634434253076954" lon="10.194595975744308">
        <ele>246.96679307285058</ele>
        <time>2017-11-13T16:42:31.601000Z</time>
      </trkpt>
      <trkpt lat="45.634432904141185" lon="10.194596860366893">
        <ele>246.9651860479863</ele>
        <time>2017-11-13T16:42:31.604000Z</time>
      </trkpt>
      <trkpt lat="45.634429904403866" lon="10.194598827573449">
        <ele>246.9616123771075</ele>
        <time>2017-11-13T16:42:31.609000Z</time>
      </trkpt>
      <trkpt lat="45.63442950196329" lon="10.194599091491092">
        <ele>246.96113293841825</ele>
        <time>2017-11-13T16:42:31.609000Z</time>
      </trkpt>
      <trkpt lat="45.634368143550425" lon="10.194639329853418">
        <ele>246.88803494916337</ele>
        <time>2017-11-13T16:42:31.717000Z</time>
      </trkpt>
      <trkpt lat="45.63433782197535" lon="10.19465921446681">
        <ele>246.85191201870202</ele>
        <time>2017-11-13T16:42:31.770000Z</time>
      </trkpt>
      <trkpt lat="45.63433790579438" lon="10.19465921446681">
        <ele>246.8518212507078</ele>
        <time>2017-11-13T16:42:31.770000Z</time>
      </trkpt>
      <trkpt lat="45.63416004180908" lon="10.194776058197021">
        <ele>246.97319633901589</ele>
        <time>2017-11-13T16:42:32.084000Z</time>
      </trkpt>
      <trkpt lat="45.6339240912348" lon="10.194861888885498">
        <ele>246.70954832184484</ele>
        <time>2017-11-13T16:42:32.474000Z</time>
      </trkpt>
      <trkpt lat="45.633409107103944" lon="10.195441246032715">
        <ele>245.0</ele>
        <time>2017-11-13T16:42:33.524000Z</time>
      </trkpt>
      <trkpt lat="45.63313007354736" lon="10.195977687835693">
        <ele>243.36098845449547</ele>
        <time>2017-11-13T16:42:34.273000Z</time>
      </trkpt>
      <trkpt lat="45.63263654708862" lon="10.197393894195557">
        <ele>241.8486424750843</ele>
        <time>2017-11-13T16:42:36.047000Z</time>
      </trkpt>
      <trkpt lat="45.63246488571167" lon="10.197651386260986">
        <ele>241.2090732616911</ele>
        <time>2017-11-13T16:42:36.446000Z</time>
      </trkpt>
      <trkpt lat="45.632314682006836" lon="10.197715759277344">
        <ele>241.06534866086994</ele>
        <time>2017-11-13T16:42:36.697000Z</time>
      </trkpt>
      <trkpt lat="45.632100189104676" lon="10.197930335998535">
        <ele>240.82541773027256</ele>
        <time>2017-11-13T16:42:37.117000Z</time>
      </trkpt>
      <trkpt lat="45.6320143584162" lon="10.197973251342773">
        <ele>240.71915340272935</ele>
        <time>2017-11-13T16:42:37.263000Z</time>
      </trkpt>
      <trkpt lat="45.631907070055604" lon="10.198209285736084">
        <ele>240.4890879031619</ele>
        <time>2017-11-13T16:42:37.579000Z</time>
      </trkpt>
      <trkpt lat="45.63197135925293" lon="10.198423862457275">
        <ele>239.964978168765</ele>
        <time>2017-11-13T16:42:37.841000Z</time>
      </trkpt>
      <trkpt lat="45.63199281692505" lon="10.198681354522705">
        <ele>239.75305960379865</ele>
        <time>2017-11-13T16:42:38.132000Z</time>
      </trkpt>
      <trkpt lat="45.63190698623657" lon="10.198895931243896">
        <ele>239.55103831596463</ele>
        <time>2017-11-13T16:42:38.409000Z</time>
      </trkpt>
      <trkpt lat="45.6314564589411" lon="10.199282169342041">
        <ele>238.2704779644849</ele>
        <time>2017-11-13T16:42:39.251000Z</time>
      </trkpt>
      <trkpt lat="45.631413543596864" lon="10.19932508468628">
        <ele>238.23793616695878</ele>
        <time>2017-11-13T16:42:39.335000Z</time>
      </trkpt>
      <trkpt lat="45.63122042454779" lon="10.199432373046875">
        <ele>238.10919060071637</ele>
        <time>2017-11-13T16:42:39.667000Z</time>
      </trkpt>
      <trkpt lat="45.630834102630615" lon="10.199496746063232">
        <ele>237.86749867332705</ele>
        <time>2017-11-13T16:42:40.291000Z</time>
      </trkpt>
      <trkpt lat="45.6304479483515" lon="10.199368000030518">
        <ele>238.20098956344347</ele>
        <time>2017-11-13T16:42:40.927000Z</time>
      </trkpt>
      <trkpt lat="45.629868507385254" lon="10.199239253997803">
        <ele>236.70826075124987</ele>
        <time>2017-11-13T16:42:41.867000Z</time>
      </trkpt>
      <trkpt lat="45.629332065582275" lon="10.199282169342041">
        <ele>235.92919816421</ele>
        <time>2017-11-13T16:42:42.728000Z</time>
      </trkpt>
      <trkpt lat="45.62828701522737" lon="10.199775810622759">
        <ele>233.0</ele>
        <time>2017-11-13T16:42:44.492000Z</time>
      </trkpt>
      <trkpt lat="45.628286950627206" lon="10.199775841136745">
        <ele>233.0</ele>
        <time>2017-11-13T16:42:44.492000Z</time>
      </trkpt>
      <trkpt lat="45.62828560612138" lon="10.199776476216673">
        <ele>233.0</ele>
        <time>2017-11-13T16:42:44.494000Z</time>
      </trkpt>
      <trkpt lat="45.62828247264984" lon="10.199777956317869">
        <ele>233.0</ele>
        <time>2017-11-13T16:42:44.499000Z</time>
      </trkpt>
      <trkpt lat="45.62828168917539" lon="10.199778326393472">
        <ele>233.0</ele>
        <time>2017-11-13T16:42:44.499000Z</time>
      </trkpt>
      <trkpt lat="45.62821795678308" lon="10.199808430471263">
        <ele>233.0</ele>
        <time>2017-11-13T16:42:44.607000Z</time>
      </trkpt>
      <trkpt lat="45.628185756504536" lon="10.199823640286922">
        <ele>233.0</ele>
        <time>2017-11-13T16:42:44.661000Z</time>
      </trkpt>
      <trkpt lat="45.62818584032357" lon="10.19982355646789">
        <ele>233.0</ele>
        <time>2017-11-13T16:42:44.661000Z</time>
      </trkpt>
      <trkpt lat="45.626607025042176" lon="10.20056962966919">
        <ele>233.0</ele>
        <time>2017-11-13T16:42:47.327000Z</time>
      </trkpt>
      <trkpt lat="45.62598466873169" lon="10.200848579406738">
        <ele>234.43881153239258</ele>
        <time>2017-11-13T16:42:48.373000Z</time>
      </trkpt>
      <trkpt lat="45.624954784289" lon="10.20132064819336">
        <ele>233.9470494939585</ele>
        <time>2017-11-13T16:42:50.107000Z</time>
      </trkpt>
      <trkpt lat="45.624632919207215" lon="10.201406478881836">
        <ele>234.0</ele>
        <time>2017-11-13T16:42:50.632000Z</time>
      </trkpt>
      <trkpt lat="45.62433251179755" lon="10.201492309570312">
        <ele>233.92010562413938</ele>
        <time>2017-11-13T16:42:51.123000Z</time>
      </trkpt>
      <trkpt lat="45.62424668110907" lon="10.201513767242432">
        <ele>233.89738159575919</ele>
        <time>2017-11-13T16:42:51.263000Z</time>
      </trkpt>
      <trkpt lat="45.62409647740424" lon="10.20155668258667">
        <ele>233.1435528690641</ele>
        <time>2017-11-13T16:42:51.509000Z</time>
      </trkpt>
      <trkpt lat="45.6235361159514" lon="10.201708822317311">
        <ele>234.15231874269753</ele>
        <time>2017-11-13T16:42:52.423000Z</time>
      </trkpt>
      <trkpt lat="45.6235357653433" lon="10.201708917507395">
        <ele>234.15211566673835</ele>
        <time>2017-11-13T16:42:52.423000Z</time>
      </trkpt>
      <trkpt lat="45.6235357347067" lon="10.201708925825283">
        <ele>234.15209792168898</ele>
        <time>2017-11-13T16:42:52.423000Z</time>
      </trkpt>
      <trkpt lat="45.623534276770556" lon="10.201709321655033">
        <ele>234.15125346948864</ele>
        <time>2017-11-13T16:42:52.425000Z</time>
      </trkpt>
      <trkpt lat="45.623531034814135" lon="10.201710201846417">
        <ele>234.149375693666</ele>
        <time>2017-11-13T16:42:52.430000Z</time>
      </trkpt>
      <trkpt lat="45.623530320328676" lon="10.20171039582921">
        <ele>234.14896185605267</ele>
        <time>2017-11-13T16:42:52.431000Z</time>
      </trkpt>
      <trkpt lat="45.62346428307517" lon="10.201728324923929">
        <ele>234.1107123729354</ele>
        <time>2017-11-13T16:42:52.539000Z</time>
      </trkpt>
      <trkpt lat="45.623430870473385" lon="10.201737396419048">
        <ele>234.09135943763695</ele>
        <time>2017-11-13T16:42:52.594000Z</time>
      </trkpt>
      <trkpt lat="45.62343095429242" lon="10.201737396419048">
        <ele>234.09131174097237</ele>
        <time>2017-11-13T16:42:52.594000Z</time>
      </trkpt>
      <trkpt lat="45.622122371569276" lon="10.202093124389648">
        <ele>232.0</ele>
        <time>2017-11-13T16:42:54.729000Z</time>
      </trkpt>
      <trkpt lat="45.6220365408808" lon="10.202114582061768">
        <ele>232.0</ele>
        <time>2017-11-13T16:42:54.869000Z</time>
      </trkpt>
      <trkpt lat="45.61980494298041" lon="10.202736854553223">
        <ele>232.0</ele>
        <time>2017-11-13T16:42:58.514000Z</time>
      </trkpt>
      <trkpt lat="45.6197190284729" lon="10.202758312225342">
        <ele>231.9792344692282</ele>
        <time>2017-11-13T16:42:58.654000Z</time>
      </trkpt>
      <trkpt lat="45.61903246678412" lon="10.202972888946533">
        <ele>231.1452411574403</ele>
        <time>2017-11-13T16:42:59.781000Z</time>
      </trkpt>
      <trkpt lat="45.61886080540717" lon="10.203015804290771">
        <ele>231.10374939481986</ele>
        <time>2017-11-13T16:43:00.060000Z</time>
      </trkpt>
      <trkpt lat="45.61875351704657" lon="10.20303726196289">
        <ele>231.07795589843658</ele>
        <time>2017-11-13T16:43:00.234000Z</time>
      </trkpt>
      <trkpt lat="45.618431651964784" lon="10.203123092651367">
        <ele>231.0</ele>
        <time>2017-11-13T16:43:00.759000Z</time>
      </trkpt>
      <trkpt lat="45.61727285385132" lon="10.203187465667725">
        <ele>230.63500040407106</ele>
        <time>2017-11-13T16:43:02.618000Z</time>
      </trkpt>
      <trkpt lat="45.6169939879328" lon="10.203144550323486">
        <ele>230.54672210607305</ele>
        <time>2017-11-13T16:43:03.068000Z</time>
      </trkpt>
      <trkpt lat="45.61677941121161" lon="10.203101634979248">
        <ele>230.47852781410776</ele>
        <time>2017-11-13T16:43:03.415000Z</time>
      </trkpt>
      <trkpt lat="45.616629207506776" lon="10.20305871963501">
        <ele>229.6589800261288</ele>
        <time>2017-11-13T16:43:03.661000Z</time>
      </trkpt>
      <trkpt lat="45.61643600463867" lon="10.203015804290771">
        <ele>229.4638327140035</ele>
        <time>2017-11-13T16:43:03.974000Z</time>
      </trkpt>
      <trkpt lat="45.61639669879776" lon="10.203021387132218">
        <ele>229.42440883369008</ele>
        <time>2017-11-13T16:43:04.037000Z</time>
      </trkpt>
      <trkpt lat="45.616396670893785" lon="10.203021391095545">
        <ele>229.42438084592186</ele>
        <time>2017-11-13T16:43:04.037000Z</time>
      </trkpt>
      <trkpt lat="45.61639631264259" lon="10.203021441980043">
        <ele>229.424021518868</ele>
        <time>2017-11-13T16:43:04.037000Z</time>
      </trkpt>
      <trkpt lat="45.61639483592753" lon="10.20302165172648">
        <ele>229.4225403690908</ele>
        <time>2017-11-13T16:43:04.039000Z</time>
      </trkpt>
      <trkpt lat="45.61639155222862" lon="10.20302211812933">
        <ele>229.41924680892498</ele>
        <time>2017-11-13T16:43:04.044000Z</time>
      </trkpt>
      <trkpt lat="45.61639115531031" lon="10.203022174505959">
        <ele>229.41884869863122</ele>
        <time>2017-11-13T16:43:04.044000Z</time>
      </trkpt>
      <trkpt lat="45.61632394066744" lon="10.2030317213797">
        <ele>229.35143220420824</ele>
        <time>2017-11-13T16:43:04.152000Z</time>
      </trkpt>
      <trkpt lat="45.61629024334252" lon="10.203036507591605">
        <ele>229.3050829998795</ele>
        <time>2017-11-13T16:43:04.206000Z</time>
      </trkpt>
      <trkpt lat="45.61629032716155" lon="10.203036507591605">
        <ele>229.30496827522654</ele>
        <time>2017-11-13T16:43:04.206000Z</time>
      </trkpt>
      <trkpt lat="45.61583527363837" lon="10.203101634979248">
        <ele>228.67901499917753</ele>
        <time>2017-11-13T16:43:04.939000Z</time>
      </trkpt>
      <trkpt lat="45.61536320485175" lon="10.203380584716797">
        <ele>227.64653654157462</ele>
        <time>2017-11-13T16:43:05.758000Z</time>
      </trkpt>
      <trkpt lat="45.615363121032715" lon="10.203380584716797">
        <ele>227.64640618447447</ele>
        <time>2017-11-13T16:43:05.758000Z</time>
      </trkpt>
      <trkpt lat="45.61519154347479" lon="10.20353078842163">
        <ele>227.33351210510045</ele>
        <time>2017-11-13T16:43:06.081000Z</time>
      </trkpt>
      <trkpt lat="45.61519145965576" lon="10.20353078842163">
        <ele>227.33338174800033</ele>
        <time>2017-11-13T16:43:06.082000Z</time>
      </trkpt>
      <trkpt lat="45.61482676304877" lon="10.203981399536133">
        <ele>224.9170565780141</ele>
        <time>2017-11-13T16:43:06.855000Z</time>
      </trkpt>
      <trkpt lat="45.61405428685248" lon="10.205354690551758">
        <ele>223.0</ele>
        <time>2017-11-13T16:43:08.831000Z</time>
      </trkpt>
      <trkpt lat="45.61379679478705" lon="10.20578384399414">
        <ele>222.65321269950587</ele>
        <time>2017-11-13T16:43:09.465000Z</time>
      </trkpt>
      <trkpt lat="45.61308869160712" lon="10.206685066223145">
        <ele>221.4885772030564</ele>
        <time>2017-11-13T16:43:10.985000Z</time>
      </trkpt>
      <trkpt lat="45.61246633529663" lon="10.207350254058838">
        <ele>219.0</ele>
        <time>2017-11-13T16:43:12.231000Z</time>
      </trkpt>
      <trkpt lat="45.611865520477295" lon="10.207757949829102">
        <ele>219.70997124518476</ele>
        <time>2017-11-13T16:43:13.297000Z</time>
      </trkpt>
      <trkpt lat="45.61122187413275" lon="10.207886695861816">
        <ele>214.12358523426326</ele>
        <time>2017-11-13T16:43:14.339000Z</time>
      </trkpt>
      <trkpt lat="45.61122179031372" lon="10.207886695861816">
        <ele>214.12343193972205</ele>
        <time>2017-11-13T16:43:14.339000Z</time>
      </trkpt>
      <trkpt lat="45.61055668629706" lon="10.20803689956665">
        <ele>212.22528795008665</ele>
        <time>2017-11-13T16:43:15.418000Z</time>
      </trkpt>
      <trkpt lat="45.61021327972412" lon="10.20805835723877">
        <ele>211.94399473834042</ele>
        <time>2017-11-13T16:43:15.969000Z</time>
      </trkpt>
      <trkpt lat="45.60999870300293" lon="10.207951068878174">
        <ele>212.3120360725919</ele>
        <time>2017-11-13T16:43:16.333000Z</time>
      </trkpt>
      <trkpt lat="45.60991287231445" lon="10.207843780517578">
        <ele>212.32944424002696</ele>
        <time>2017-11-13T16:43:16.516000Z</time>
      </trkpt>
      <trkpt lat="45.60982712544501" lon="10.20780086517334">
        <ele>212.34331536570417</ele>
        <time>2017-11-13T16:43:16.662000Z</time>
      </trkpt>
      <trkpt lat="45.60971975326538" lon="10.207865238189697">
        <ele>212.36109246807567</ele>
        <time>2017-11-13T16:43:16.849000Z</time>
      </trkpt>
      <trkpt lat="45.609655464068055" lon="10.207993984222412">
        <ele>212.37798737496962</ele>
        <time>2017-11-13T16:43:17.026000Z</time>
      </trkpt>
      <trkpt lat="45.60965538024902" lon="10.208144187927246">
        <ele>212.39403017623658</ele>
        <time>2017-11-13T16:43:17.194000Z</time>
      </trkpt>
      <trkpt lat="45.609612464904785" lon="10.208358764648438">
        <ele>212.41786674004695</ele>
        <time>2017-11-13T16:43:17.444000Z</time>
      </trkpt>
      <trkpt lat="45.60952663421631" lon="10.208508968353271">
        <ele>212.438581576973</ele>
        <time>2017-11-13T16:43:17.661000Z</time>
      </trkpt>
      <trkpt lat="45.609419429674745" lon="10.208594799041748">
        <ele>212.4185615690353</ele>
        <time>2017-11-13T16:43:17.858000Z</time>
      </trkpt>
      <trkpt lat="45.60894727706909" lon="10.208916664123535">
        <ele>211.66666666666666</ele>
        <time>2017-11-13T16:43:18.697000Z</time>
      </trkpt>
      <trkpt lat="45.60836800374091" lon="10.209431648254395">
        <ele>212.2038289809434</ele>
        <time>2017-11-13T16:43:19.791000Z</time>
      </trkpt>
      <trkpt lat="45.60748823918402" lon="10.21031141281128">
        <ele>210.23638514301044</ele>
        <time>2017-11-13T16:43:21.512000Z</time>
      </trkpt>
      <trkpt lat="45.60723074711859" lon="10.210611820220947">
        <ele>210.04827196321318</ele>
        <time>2017-11-13T16:43:22.045000Z</time>
      </trkpt>
      <trkpt lat="45.60671576298773" lon="10.211448669433594">
        <ele>210.97513842510637</ele>
        <time>2017-11-13T16:43:23.295000Z</time>
      </trkpt>
      <trkpt lat="45.60607194900513" lon="10.21252155303955">
        <ele>210.97180158331204</ele>
        <time>2017-11-13T16:43:24.880000Z</time>
      </trkpt>
      <trkpt lat="45.60593091307569" lon="10.21271228721097">
        <ele>210.7667163688511</ele>
        <time>2017-11-13T16:43:25.191000Z</time>
      </trkpt>
      <trkpt lat="45.60593063119567" lon="10.212712668418513">
        <ele>210.76610829260667</ele>
        <time>2017-11-13T16:43:25.191000Z</time>
      </trkpt>
      <trkpt lat="45.60592955321436" lon="10.212714126253486">
        <ele>210.763782853612</ele>
        <time>2017-11-13T16:43:25.194000Z</time>
      </trkpt>
      <trkpt lat="45.6059271561601" lon="10.212717367969471">
        <ele>210.75861188887066</ele>
        <time>2017-11-13T16:43:25.199000Z</time>
      </trkpt>
      <trkpt lat="45.60592700745423" lon="10.212717569075588">
        <ele>210.75829109810272</ele>
        <time>2017-11-13T16:43:25.199000Z</time>
      </trkpt>
      <trkpt lat="45.60587780064665" lon="10.212784115038211">
        <ele>210.6521413885912</ele>
        <time>2017-11-13T16:43:25.308000Z</time>
      </trkpt>
      <trkpt lat="45.60585334897041" lon="10.212817182764411">
        <ele>210.59939387941913</ele>
        <time>2017-11-13T16:43:25.362000Z</time>
      </trkpt>
      <trkpt lat="45.605853432789445" lon="10.21281709894538">
        <ele>210.5992335815704</ele>
        <time>2017-11-13T16:43:25.362000Z</time>
      </trkpt>
      <trkpt lat="45.6057071685791" lon="10.213015079498291">
        <ele>209.61690976060027</ele>
        <time>2017-11-13T16:43:25.685000Z</time>
      </trkpt>
      <trkpt lat="45.605685794726014" lon="10.21303653717041">
        <ele>209.57598102553698</ele>
        <time>2017-11-13T16:43:25.727000Z</time>
      </trkpt>
      <trkpt lat="45.60566425323486" lon="10.21305799484253">
        <ele>209.53483704211828</ele>
        <time>2017-11-13T16:43:25.769000Z</time>
      </trkpt>
      <trkpt lat="45.605449760332704" lon="10.213208198547363">
        <ele>209.41402164253364</ele>
        <time>2017-11-13T16:43:26.152000Z</time>
      </trkpt>
      <trkpt lat="45.605385303497314" lon="10.213251113891602">
        <ele>209.3780546498368</ele>
        <time>2017-11-13T16:43:26.266000Z</time>
      </trkpt>
      <trkpt lat="45.60476303100586" lon="10.213830471038818">
        <ele>209.33574731245662</ele>
        <time>2017-11-13T16:43:27.457000Z</time>
      </trkpt>
      <trkpt lat="45.603625774383545" lon="10.21479606628418">
        <ele>208.0</ele>
        <time>2017-11-13T16:43:29.578000Z</time>
      </trkpt>
      <trkpt lat="45.6023383140564" lon="10.216126441955566">
        <ele>202.0</ele>
        <time>2017-11-13T16:43:32.125000Z</time>
      </trkpt>
      <trkpt lat="45.60216665267944" lon="10.216169357299805">
        <ele>202.05937761848926</ele>
        <time>2017-11-13T16:43:32.404000Z</time>
      </trkpt>
      <trkpt lat="45.60208082199097" lon="10.216083526611328">
        <ele>202.0950694063854</ele>
        <time>2017-11-13T16:43:32.572000Z</time>
      </trkpt>
      <trkpt lat="45.60201653279364" lon="10.216126441955566">
        <ele>202.11924569630412</ele>
        <time>2017-11-13T16:43:32.686000Z</time>
      </trkpt>
      <trkpt lat="45.60197353363037" lon="10.216233730316162">
        <ele>202.14872083857108</ele>
        <time>2017-11-13T16:43:32.825000Z</time>
      </trkpt>
      <trkpt lat="45.60201644897461" lon="10.216341018676758">
        <ele>202.1781817784781</ele>
        <time>2017-11-13T16:43:32.964000Z</time>
      </trkpt>
      <trkpt lat="45.601887702941895" lon="10.216577053070068">
        <ele>202.24952845732705</ele>
        <time>2017-11-13T16:43:33.300000Z</time>
      </trkpt>
      <trkpt lat="45.60124579706365" lon="10.21729016795476">
        <ele>202.5265404655236</ele>
        <time>2017-11-13T16:43:34.603000Z</time>
      </trkpt>
      <trkpt lat="45.60124549068269" lon="10.217290508318689">
        <ele>202.52695193909918</ele>
        <time>2017-11-13T16:43:34.603000Z</time>
      </trkpt>
      <trkpt lat="45.601244318999896" lon="10.21729180996115">
        <ele>202.52852552407862</ele>
        <time>2017-11-13T16:43:34.605000Z</time>
      </trkpt>
      <trkpt lat="45.60124142367773" lon="10.217295026423836">
        <ele>202.53241397874288</ele>
        <time>2017-11-13T16:43:34.611000Z</time>
      </trkpt>
      <trkpt lat="45.60124171364417" lon="10.217294704295222">
        <ele>202.53280340736032</ele>
        <time>2017-11-13T16:43:34.611000Z</time>
      </trkpt>
      <trkpt lat="45.601188067902896" lon="10.217354300184766">
        <ele>202.60485031373094</ele>
        <time>2017-11-13T16:43:34.720000Z</time>
      </trkpt>
      <trkpt lat="45.601161578670144" lon="10.217383727431297">
        <ele>202.64042566844637</ele>
        <time>2017-11-13T16:43:34.774000Z</time>
      </trkpt>
      <trkpt lat="45.60116174630821" lon="10.217383643612266">
        <ele>202.6406139916944</ele>
        <time>2017-11-13T16:43:34.774000Z</time>
      </trkpt>
      <trkpt lat="45.600149631500244" lon="10.218508243560791">
        <ele>205.0</ele>
        <time>2017-11-13T16:43:36.829000Z</time>
      </trkpt>
      <trkpt lat="45.59901245869696" lon="10.21979570388794">
        <ele>198.0</ele>
        <time>2017-11-13T16:43:39.155000Z</time>
      </trkpt>
      <trkpt lat="45.59901237487793" lon="10.21979570388794">
        <ele>198.00008819564883</ele>
        <time>2017-11-13T16:43:39.155000Z</time>
      </trkpt>
      <trkpt lat="45.59896945953369" lon="10.219838619232178">
        <ele>198.0551999445555</ele>
        <time>2017-11-13T16:43:39.239000Z</time>
      </trkpt>
      <trkpt lat="45.59881933964789" lon="10.22003173828125">
        <ele>199.26772058438044</ele>
        <time>2017-11-13T16:43:39.563000Z</time>
      </trkpt>
      <trkpt lat="45.598368644714355" lon="10.22054672241211">
        <ele>199.8748754538216</ele>
        <time>2017-11-13T16:43:40.488000Z</time>
      </trkpt>
      <trkpt lat="45.597403049468994" lon="10.221962928771973">
        <ele>197.0</ele>
        <time>2017-11-13T16:43:42.706000Z</time>
      </trkpt>
      <trkpt lat="45.59703826904297" lon="10.222477912902832">
        <ele>197.34849998702603</ele>
        <time>2017-11-13T16:43:43.528000Z</time>
      </trkpt>
      <trkpt lat="45.59585818089545" lon="10.223679542541504">
        <ele>199.0</ele>
        <time>2017-11-13T16:43:45.851000Z</time>
      </trkpt>
      <trkpt lat="45.595149993896484" lon="10.22428035736084">
        <ele>197.7872651814013</ele>
        <time>2017-11-13T16:43:47.171000Z</time>
      </trkpt>
      <trkpt lat="45.59401273727417" lon="10.224602222442627">
        <ele>194.35189641793457</ele>
        <time>2017-11-13T16:43:49.030000Z</time>
      </trkpt>
      <trkpt lat="45.59351921081543" lon="10.224881172180176">
        <ele>194.0</ele>
        <time>2017-11-13T16:43:49.881000Z</time>
      </trkpt>
      <trkpt lat="45.59326171875" lon="10.225117206573486">
        <ele>193.94312550567875</ele>
        <time>2017-11-13T16:43:50.371000Z</time>
      </trkpt>
      <trkpt lat="45.593132972717285" lon="10.225138664245605">
        <ele>193.8899708318996</ele>
        <time>2017-11-13T16:43:50.579000Z</time>
      </trkpt>
      <trkpt lat="45.59302568435669" lon="10.22526741027832">
        <ele>193.8325193641705</ele>
        <time>2017-11-13T16:43:50.804000Z</time>
      </trkpt>
      <trkpt lat="45.59275011035096" lon="10.225387974058183">
        <ele>193.7143333742748</ele>
        <time>2017-11-13T16:43:51.266000Z</time>
      </trkpt>
      <trkpt lat="45.592749982790075" lon="10.225388029865874">
        <ele>193.7142786669972</ele>
        <time>2017-11-13T16:43:51.266000Z</time>
      </trkpt>
      <trkpt lat="45.592749739301304" lon="10.225388136391759">
        <ele>193.7141742415173</ele>
        <time>2017-11-13T16:43:51.266000Z</time>
      </trkpt>
      <trkpt lat="45.59274832034115" lon="10.225388757184431">
        <ele>193.71356568942716</ele>
        <time>2017-11-13T16:43:51.268000Z</time>
      </trkpt>
      <trkpt lat="45.592744462700146" lon="10.225390444895547">
        <ele>193.7119112557435</ele>
        <time>2017-11-13T16:43:51.274000Z</time>
      </trkpt>
      <trkpt lat="45.592743981095055" lon="10.225390655596861">
        <ele>193.7117047088757</ele>
        <time>2017-11-13T16:43:51.275000Z</time>
      </trkpt>
      <trkpt lat="45.59268236160278" lon="10.225417613983154">
        <ele>193.68527784267266</ele>
        <time>2017-11-13T16:43:51.378000Z</time>
      </trkpt>
      <trkpt lat="45.59267919729215" lon="10.225417613983126">
        <ele>193.68398020596496</ele>
        <time>2017-11-13T16:43:51.383000Z</time>
      </trkpt>
      <trkpt lat="45.592644894495606" lon="10.225417613983154">
        <ele>193.66991313951075</ele>
        <time>2017-11-13T16:43:51.438000Z</time>
      </trkpt>
      <trkpt lat="45.59182413853705" lon="10.225417613983154">
        <ele>193.0</ele>
        <time>2017-11-13T16:43:52.754000Z</time>
      </trkpt>
      <trkpt lat="45.5915706849771" lon="10.225403520152788">
        <ele>193.48803846088137</ele>
        <time>2017-11-13T16:43:53.161000Z</time>
      </trkpt>
      <trkpt lat="45.591570497086984" lon="10.225403509704794">
        <ele>193.48815314683875</ele>
        <time>2017-11-13T16:43:53.161000Z</time>
      </trkpt>
      <trkpt lat="45.59157029722298" lon="10.22540349859097">
        <ele>193.4882751415195</ele>
        <time>2017-11-13T16:43:53.161000Z</time>
      </trkpt>
      <trkpt lat="45.591568814381404" lon="10.225403416134707">
        <ele>193.4891802508964</ele>
        <time>2017-11-13T16:43:53.163000Z</time>
      </trkpt>
      <trkpt lat="45.59156478309076" lon="10.225403191967178">
        <ele>193.49164090415755</ele>
        <time>2017-11-13T16:43:53.169000Z</time>
      </trkpt>
      <trkpt lat="45.591564223547756" lon="10.225403160852702">
        <ele>193.49198244274683</ele>
        <time>2017-11-13T16:43:53.169000Z</time>
      </trkpt>
      <trkpt lat="45.59149689027377" lon="10.225399416663528">
        <ele>193.53308189571763</ele>
        <time>2017-11-13T16:43:53.277000Z</time>
      </trkpt>
      <trkpt lat="45.591462375596166" lon="10.225397497415543">
        <ele>193.55414925635978</ele>
        <time>2017-11-13T16:43:53.332000Z</time>
      </trkpt>
      <trkpt lat="45.59143781661987" lon="10.225396156311035">
        <ele>193.5691393683082</ele>
        <time>2017-11-13T16:43:53.371000Z</time>
      </trkpt>
      <trkpt lat="45.591437900438905" lon="10.225396156311035">
        <ele>193.56919049178794</ele>
        <time>2017-11-13T16:43:53.371000Z</time>
      </trkpt>
      <trkpt lat="45.59133061207831" lon="10.225374698638916">
        <ele>193.6352663121805</ele>
        <time>2017-11-13T16:43:53.545000Z</time>
      </trkpt>
      <trkpt lat="45.58974266052246" lon="10.225224494934082">
        <ele>194.93925340837745</ele>
        <time>2017-11-13T16:43:56.096000Z</time>
      </trkpt>
      <trkpt lat="45.58972128666937" lon="10.225181579589844">
        <ele>194.94995813310484</ele>
        <time>2017-11-13T16:43:56.155000Z</time>
      </trkpt>
      <trkpt lat="45.58954962529242" lon="10.225203037261963">
        <ele>195.0</ele>
        <time>2017-11-13T16:43:56.431000Z</time>
      </trkpt>
      <trkpt lat="45.58952808380127" lon="10.225224494934082">
        <ele>194.9477772974212</ele>
        <time>2017-11-13T16:43:56.473000Z</time>
      </trkpt>
      <trkpt lat="45.58935650624335" lon="10.22528886795044">
        <ele>194.5949814748058</ele>
        <time>2017-11-13T16:43:56.757000Z</time>
      </trkpt>
      <trkpt lat="45.58897018432617" lon="10.225374698638916">
        <ele>193.15077310064962</ele>
        <time>2017-11-13T16:43:57.384000Z</time>
      </trkpt>
      <trkpt lat="45.588176250457764" lon="10.225481986999512">
        <ele>190.56476535579688</ele>
        <time>2017-11-13T16:43:58.662000Z</time>
      </trkpt>
      <trkpt lat="45.58798313140869" lon="10.225353240966797">
        <ele>190.34966188542205</ele>
        <time>2017-11-13T16:43:59.004000Z</time>
      </trkpt>
      <trkpt lat="45.587897300720215" lon="10.225331783294678">
        <ele>190.2617093191478</ele>
        <time>2017-11-13T16:43:59.144000Z</time>
      </trkpt>
      <trkpt lat="45.58781147003174" lon="10.225396156311035">
        <ele>190.16386438205623</ele>
        <time>2017-11-13T16:43:59.299000Z</time>
      </trkpt>
      <trkpt lat="45.58768272399902" lon="10.22554636001587">
        <ele>189.99609682502103</ele>
        <time>2017-11-13T16:43:59.565000Z</time>
      </trkpt>
      <trkpt lat="45.58753260411322" lon="10.22554636001587">
        <ele>189.8445673102149</ele>
        <time>2017-11-13T16:43:59.806000Z</time>
      </trkpt>
      <trkpt lat="45.58753252029419" lon="10.22554636001587">
        <ele>189.84453679793648</ele>
        <time>2017-11-13T16:43:59.806000Z</time>
      </trkpt>
      <trkpt lat="45.586717212572694" lon="10.225610733032227">
        <ele>189.2139578085895</ele>
        <time>2017-11-13T16:44:01.115000Z</time>
      </trkpt>
      <trkpt lat="45.58652400970459" lon="10.225610733032227">
        <ele>188.76433646461115</ele>
        <time>2017-11-13T16:44:01.425000Z</time>
      </trkpt>
      <trkpt lat="45.58598765172064" lon="10.225675106048584">
        <ele>188.44036804182156</ele>
        <time>2017-11-13T16:44:02.288000Z</time>
      </trkpt>
      <trkpt lat="45.58585890568793" lon="10.225675106048584">
        <ele>188.42154798016395</ele>
        <time>2017-11-13T16:44:02.494000Z</time>
      </trkpt>
      <trkpt lat="45.58579453267157" lon="10.225696563720703">
        <ele>188.7452186292634</ele>
        <time>2017-11-13T16:44:02.600000Z</time>
      </trkpt>
      <trkpt lat="45.58525800704956" lon="10.225739479064941">
        <ele>188.66666666666666</ele>
        <time>2017-11-13T16:44:03.461000Z</time>
      </trkpt>
      <trkpt lat="45.584657192230225" lon="10.225975513458252">
        <ele>187.71363976855866</ele>
        <time>2017-11-13T16:44:04.460000Z</time>
      </trkpt>
      <trkpt lat="45.58409937657416" lon="10.226383209228516">
        <ele>185.33812600945348</ele>
        <time>2017-11-13T16:44:05.464000Z</time>
      </trkpt>
      <trkpt lat="45.583884716033936" lon="10.226554870605469">
        <ele>184.79808272393265</ele>
        <time>2017-11-13T16:44:05.858000Z</time>
      </trkpt>
      <trkpt lat="45.583477104082704" lon="10.22700548171997">
        <ele>183.0</ele>
        <time>2017-11-13T16:44:06.684000Z</time>
      </trkpt>
      <trkpt lat="45.58300495147705" lon="10.227584838867188">
        <ele>182.45503436519118</ele>
        <time>2017-11-13T16:44:07.682000Z</time>
      </trkpt>
      <trkpt lat="45.58203944005072" lon="10.228550434112549">
        <ele>182.05428370673167</ele>
        <time>2017-11-13T16:44:09.571000Z</time>
      </trkpt>
      <trkpt lat="45.58203935623169" lon="10.228550434112549">
        <ele>182.05419765643353</ele>
        <time>2017-11-13T16:44:09.571000Z</time>
      </trkpt>
      <trkpt lat="45.58173903264105" lon="10.228807926177979">
        <ele>181.69462825168398</ele>
        <time>2017-11-13T16:44:10.132000Z</time>
      </trkpt>
      <trkpt lat="45.58135271072388" lon="10.22902250289917">
        <ele>180.49583417860686</ele>
        <time>2017-11-13T16:44:10.796000Z</time>
      </trkpt>
      <trkpt lat="45.58105230331421" lon="10.229043960571289">
        <ele>180.46875613840663</ele>
        <time>2017-11-13T16:44:11.278000Z</time>
      </trkpt>
      <trkpt lat="45.580966556444764" lon="10.228936672210693">
        <ele>180.45849514513915</ele>
        <time>2017-11-13T16:44:11.461000Z</time>
      </trkpt>
      <trkpt lat="45.58081635273993" lon="10.228958129882812">
        <ele>179.77823892190267</ele>
        <time>2017-11-13T16:44:11.703000Z</time>
      </trkpt>
      <trkpt lat="45.58075189590454" lon="10.229086875915527">
        <ele>179.7682650067678</ele>
        <time>2017-11-13T16:44:11.881000Z</time>
      </trkpt>
      <trkpt lat="45.58045148849487" lon="10.229365825653076">
        <ele>180.73601077698677</ele>
        <time>2017-11-13T16:44:12.455000Z</time>
      </trkpt>
      <trkpt lat="45.58023691177368" lon="10.229430198669434">
        <ele>180.56990236177344</ele>
        <time>2017-11-13T16:44:12.806000Z</time>
      </trkpt>
      <trkpt lat="45.580194080248475" lon="10.229408740997314">
        <ele>180.5355161933093</ele>
        <time>2017-11-13T16:44:12.879000Z</time>
      </trkpt>
      <trkpt lat="45.58008679188788" lon="10.229451656341553">
        <ele>180.451109106889</ele>
        <time>2017-11-13T16:44:13.058000Z</time>
      </trkpt>
      <trkpt lat="45.58006525039673" lon="10.229473114013672">
        <ele>180.4312144705428</ele>
        <time>2017-11-13T16:44:13.100000Z</time>
      </trkpt>
      <trkpt lat="45.579893589019775" lon="10.229580402374268">
        <ele>179.62259816023823</ele>
        <time>2017-11-13T16:44:13.400000Z</time>
      </trkpt>
      <trkpt lat="45.57950743474066" lon="10.229623317718506">
        <ele>179.3291637083944</ele>
        <time>2017-11-13T16:44:14.021000Z</time>
      </trkpt>
      <trkpt lat="45.57950735092163" lon="10.229623317718506">
        <ele>179.329124366108</ele>
        <time>2017-11-13T16:44:14.021000Z</time>
      </trkpt>
      <trkpt lat="45.57855648741346" lon="10.229709653094151">
        <ele>178.88191554579979</ele>
        <time>2017-11-13T16:44:15.548000Z</time>
      </trkpt>
      <trkpt lat="45.578556175581326" lon="10.229709681406991">
        <ele>178.88181685924314</ele>
        <time>2017-11-13T16:44:15.548000Z</time>
      </trkpt>
      <trkpt lat="45.578555006437114" lon="10.22970978755976">
        <ele>178.8814468562654</ele>
        <time>2017-11-13T16:44:15.550000Z</time>
      </trkpt>
      <trkpt lat="45.578550980215084" lon="10.229710153121621">
        <ele>178.88017266431953</ele>
        <time>2017-11-13T16:44:15.556000Z</time>
      </trkpt>
      <trkpt lat="45.57854991024065" lon="10.229710250270212">
        <ele>178.87983404593447</ele>
        <time>2017-11-13T16:44:15.557000Z</time>
      </trkpt>
      <trkpt lat="45.578483172803445" lon="10.229716309705339">
        <ele>178.85871342607314</ele>
        <time>2017-11-13T16:44:15.664000Z</time>
      </trkpt>
      <trkpt lat="45.57842357084155" lon="10.22972172126174">
        <ele>178.83985099402992</ele>
        <time>2017-11-13T16:44:15.760000Z</time>
      </trkpt>
      <trkpt lat="45.57842365466058" lon="10.22972172126174">
        <ele>178.83982452094463</ele>
        <time>2017-11-13T16:44:15.761000Z</time>
      </trkpt>
      <trkpt lat="45.5780912283808" lon="10.22975206375122">
        <ele>179.06795154886575</ele>
        <time>2017-11-13T16:44:16.295000Z</time>
      </trkpt>
      <trkpt lat="45.57684659957886" lon="10.230116844177246">
        <ele>178.0</ele>
        <time>2017-11-13T16:44:18.332000Z</time>
      </trkpt>
      <trkpt lat="45.57650327682495" lon="10.230116844177246">
        <ele>176.59895973093217</ele>
        <time>2017-11-13T16:44:18.882000Z</time>
      </trkpt>
      <trkpt lat="45.576481902971864" lon="10.230073928833008">
        <ele>176.60081296509034</ele>
        <time>2017-11-13T16:44:18.941000Z</time>
      </trkpt>
      <trkpt lat="45.57637461461127" lon="10.230052471160889">
        <ele>176.6062587378908</ele>
        <time>2017-11-13T16:44:19.115000Z</time>
      </trkpt>
      <trkpt lat="45.57631015777588" lon="10.230116844177246">
        <ele>176.6102120446554</ele>
        <time>2017-11-13T16:44:19.241000Z</time>
      </trkpt>
      <trkpt lat="45.575924003496766" lon="10.230545997619629">
        <ele>176.63480493156214</ele>
        <time>2017-11-13T16:44:20.025000Z</time>
      </trkpt>
      <trkpt lat="45.5757737159729" lon="10.230631828308105">
        <ele>176.9762742109334</ele>
        <time>2017-11-13T16:44:20.284000Z</time>
      </trkpt>
      <trkpt lat="45.575687885284424" lon="10.230631828308105">
        <ele>176.98058875684072</ele>
        <time>2017-11-13T16:44:20.422000Z</time>
      </trkpt>
      <trkpt lat="45.57530173100531" lon="10.230631828308105">
        <ele>177.0</ele>
        <time>2017-11-13T16:44:21.041000Z</time>
      </trkpt>
      <trkpt lat="45.57515152730048" lon="10.230674743652344">
        <ele>176.93414850196373</ele>
        <time>2017-11-13T16:44:21.287000Z</time>
      </trkpt>
      <trkpt lat="45.57489403523505" lon="10.23076057434082">
        <ele>176.48714567372915</ele>
        <time>2017-11-13T16:44:21.711000Z</time>
      </trkpt>
      <trkpt lat="45.57476528920233" lon="10.230803489685059">
        <ele>176.4303109195511</ele>
        <time>2017-11-13T16:44:21.923000Z</time>
      </trkpt>
      <trkpt lat="45.57463654316962" lon="10.230846405029297">
        <ele>176.3734761586458</ele>
        <time>2017-11-13T16:44:22.135000Z</time>
      </trkpt>
      <trkpt lat="45.574636459350586" lon="10.230846405029297">
        <ele>176.37344012471627</ele>
        <time>2017-11-13T16:44:22.135000Z</time>
      </trkpt>
      <trkpt lat="45.57440050877631" lon="10.230910778045654">
        <ele>176.27017148248297</ele>
        <time>2017-11-13T16:44:22.520000Z</time>
      </trkpt>
      <trkpt lat="45.57403572835028" lon="10.23103952407837">
        <ele>176.10863692951466</ele>
        <time>2017-11-13T16:44:23.122000Z</time>
      </trkpt>
      <trkpt lat="45.57342355964744" lon="10.231236998044652">
        <ele>175.5579679211199</ele>
        <time>2017-11-13T16:44:24.128000Z</time>
      </trkpt>
      <trkpt lat="45.57342319915941" lon="10.231237114329904">
        <ele>175.55761243908057</ele>
        <time>2017-11-13T16:44:24.128000Z</time>
      </trkpt>
      <trkpt lat="45.57342318112939" lon="10.231237120145993">
        <ele>175.55759465944092</ele>
        <time>2017-11-13T16:44:24.128000Z</time>
      </trkpt>
      <trkpt lat="45.57342173360851" lon="10.231237587083378">
        <ele>175.556167239852</ele>
        <time>2017-11-13T16:44:24.131000Z</time>
      </trkpt>
      <trkpt lat="45.573417798333914" lon="10.231238856513691">
        <ele>175.55228661322005</ele>
        <time>2017-11-13T16:44:24.138000Z</time>
      </trkpt>
      <trkpt lat="45.573417075934124" lon="10.231239089543417">
        <ele>175.55157424518575</ele>
        <time>2017-11-13T16:44:24.138000Z</time>
      </trkpt>
      <trkpt lat="45.57337054051459" lon="10.23125410079956">
        <ele>175.50568504921333</ele>
        <time>2017-11-13T16:44:24.214000Z</time>
      </trkpt>
      <trkpt lat="45.57335115634845" lon="10.231260519963715">
        <ele>175.48654509362802</ele>
        <time>2017-11-13T16:44:24.246000Z</time>
      </trkpt>
      <trkpt lat="45.573293594643474" lon="10.231279581785202">
        <ele>174.76304191165264</ele>
        <time>2017-11-13T16:44:24.341000Z</time>
      </trkpt>
      <trkpt lat="45.573293678462505" lon="10.231279581785202">
        <ele>174.76296128644617</ele>
        <time>2017-11-13T16:44:24.341000Z</time>
      </trkpt>
      <trkpt lat="45.57311304844916" lon="10.231339931488037">
        <ele>174.58452550472055</ele>
        <time>2017-11-13T16:44:24.638000Z</time>
      </trkpt>
      <trkpt lat="45.57300576008856" lon="10.231361389160156">
        <ele>174.55662349367478</ele>
        <time>2017-11-13T16:44:24.812000Z</time>
      </trkpt>
      <trkpt lat="45.572962844744325" lon="10.231318473815918">
        <ele>174.54313157222023</ele>
        <time>2017-11-13T16:44:24.896000Z</time>
      </trkpt>
      <trkpt lat="45.5728554725647" lon="10.231297016143799">
        <ele>174.51520818017</ele>
        <time>2017-11-13T16:44:25.070000Z</time>
      </trkpt>
      <trkpt lat="45.57279109954834" lon="10.231404304504395">
        <ele>174.48973219598415</ele>
        <time>2017-11-13T16:44:25.229000Z</time>
      </trkpt>
      <trkpt lat="45.57266243733466" lon="10.231468677520752">
        <ele>174.45462118413616</ele>
        <time>2017-11-13T16:44:25.448000Z</time>
      </trkpt>
      <trkpt lat="45.5725980643183" lon="10.231468677520752">
        <ele>174.4380416682679</ele>
        <time>2017-11-13T16:44:25.551000Z</time>
      </trkpt>
      <trkpt lat="45.57206162251532" lon="10.231575965881348">
        <ele>174.29853156795403</ele>
        <time>2017-11-13T16:44:26.419000Z</time>
      </trkpt>
      <trkpt lat="45.57090290822089" lon="10.23153305053711">
        <ele>174.0</ele>
        <time>2017-11-13T16:44:28.277000Z</time>
      </trkpt>
      <trkpt lat="45.570902824401855" lon="10.23153305053711">
        <ele>173.9998132076778</ele>
        <time>2017-11-13T16:44:28.277000Z</time>
      </trkpt>
      <trkpt lat="45.570688331499696" lon="10.23151159286499">
        <ele>172.85397430648678</ele>
        <time>2017-11-13T16:44:28.622000Z</time>
      </trkpt>
      <trkpt lat="45.57055950164795" lon="10.23151159286499">
        <ele>172.5668745072644</ele>
        <time>2017-11-13T16:44:28.829000Z</time>
      </trkpt>
      <trkpt lat="45.570430839434266" lon="10.231404304504395">
        <ele>172.48359766700491</ele>
        <time>2017-11-13T16:44:29.068000Z</time>
      </trkpt>
      <trkpt lat="45.57036638259888" lon="10.231425762176514">
        <ele>172.44660193183608</ele>
        <time>2017-11-13T16:44:29.174000Z</time>
      </trkpt>
      <trkpt lat="45.570237720385194" lon="10.231404304504395">
        <ele>172.37419340452257</ele>
        <time>2017-11-13T16:44:29.382000Z</time>
      </trkpt>
      <trkpt lat="45.57023763656616" lon="10.231404304504395">
        <ele>172.37414655107355</ele>
        <time>2017-11-13T16:44:29.382000Z</time>
      </trkpt>
      <trkpt lat="45.56935787200928" lon="10.231168270111084">
        <ele>171.54044099693417</ele>
        <time>2017-11-13T16:44:30.817000Z</time>
      </trkpt>
      <trkpt lat="45.5686713103205" lon="10.230889320373535">
        <ele>171.08929967028362</ele>
        <time>2017-11-13T16:44:31.961000Z</time>
      </trkpt>
      <trkpt lat="45.568671226501465" lon="10.230889320373535">
        <ele>171.089161861526</ele>
        <time>2017-11-13T16:44:31.961000Z</time>
      </trkpt>
      <trkpt lat="45.568392276763916" lon="10.230696201324463">
        <ele>170.24617577699772</ele>
        <time>2017-11-13T16:44:32.458000Z</time>
      </trkpt>
      <trkpt lat="45.56824207305908" lon="10.230481624603271">
        <ele>168.89691652846105</ele>
        <time>2017-11-13T16:44:32.799000Z</time>
      </trkpt>
      <trkpt lat="45.568220699205995" lon="10.230460166931152">
        <ele>168.875095972948</ele>
        <time>2017-11-13T16:44:32.841000Z</time>
      </trkpt>
      <trkpt lat="45.5681134108454" lon="10.230374336242676">
        <ele>168.77238652981677</ele>
        <time>2017-11-13T16:44:33.038000Z</time>
      </trkpt>
      <trkpt lat="45.56807041168213" lon="10.230395793914795">
        <ele>168.73434287909402</ele>
        <time>2017-11-13T16:44:33.111000Z</time>
      </trkpt>
      <trkpt lat="45.56785591877997" lon="10.230395793914795">
        <ele>168.55518739483216</ele>
        <time>2017-11-13T16:44:33.455000Z</time>
      </trkpt>
      <trkpt lat="45.5675555113703" lon="10.2302885055542">
        <ele>168.29654794579338</ele>
        <time>2017-11-13T16:44:33.951000Z</time>
      </trkpt>
      <trkpt lat="45.56755542755127" lon="10.2302885055542">
        <ele>168.2964779358347</ele>
        <time>2017-11-13T16:44:33.951000Z</time>
      </trkpt>
      <trkpt lat="45.56738384999335" lon="10.230224132537842">
        <ele>168.14830668328057</ele>
        <time>2017-11-13T16:44:34.235000Z</time>
      </trkpt>
      <trkpt lat="45.56721210479736" lon="10.230159759521484">
        <ele>168.0</ele>
        <time>2017-11-13T16:44:34.520000Z</time>
      </trkpt>
      <trkpt lat="45.566994434056646" lon="10.230050923892785">
        <ele>168.0369214180587</ele>
        <time>2017-11-13T16:44:34.890000Z</time>
      </trkpt>
      <trkpt lat="45.56699434924507" lon="10.230050881487085">
        <ele>168.03693580383276</ele>
        <time>2017-11-13T16:44:34.890000Z</time>
      </trkpt>
      <trkpt lat="45.566994067799335" lon="10.230050740764487">
        <ele>168.03698354277455</ele>
        <time>2017-11-13T16:44:34.890000Z</time>
      </trkpt>
      <trkpt lat="45.566992667164925" lon="10.230050040448482">
        <ele>168.03722111896664</ele>
        <time>2017-11-13T16:44:34.892000Z</time>
      </trkpt>
      <trkpt lat="45.56698885937262" lon="10.230048136555931">
        <ele>168.03786699827563</ele>
        <time>2017-11-13T16:44:34.898000Z</time>
      </trkpt>
      <trkpt lat="45.56698842546294" lon="10.230047919601493">
        <ele>168.0379405982163</ele>
        <time>2017-11-13T16:44:34.898000Z</time>
      </trkpt>
      <trkpt lat="45.56692473039813" lon="10.23001607216998">
        <ele>168.0487445813534</ele>
        <time>2017-11-13T16:44:35.006000Z</time>
      </trkpt>
      <trkpt lat="45.56686878204346" lon="10.229988098144531">
        <ele>168.05823456301383</ele>
        <time>2017-11-13T16:44:35.101000Z</time>
      </trkpt>
      <trkpt lat="45.56686886586249" lon="10.229988098144531">
        <ele>168.05824798208963</ele>
        <time>2017-11-13T16:44:35.101000Z</time>
      </trkpt>
      <trkpt lat="45.566246509552" lon="10.229644775390625">
        <ele>168.4983902775248</ele>
        <time>2017-11-13T16:44:36.171000Z</time>
      </trkpt>
      <trkpt lat="45.566246593371034" lon="10.229644775390625">
        <ele>168.49840369660058</ele>
        <time>2017-11-13T16:44:36.171000Z</time>
      </trkpt>
      <trkpt lat="45.56590327061713" lon="10.229451656341553">
        <ele>168.55747659107914</ele>
        <time>2017-11-13T16:44:36.763000Z</time>
      </trkpt>
      <trkpt lat="45.565688693895936" lon="10.229344367980957">
        <ele>168.26053994960833</ele>
        <time>2017-11-13T16:44:37.127000Z</time>
      </trkpt>
      <trkpt lat="45.56525954045355" lon="10.229129791259766">
        <ele>168.41409372291403</ele>
        <time>2017-11-13T16:44:37.856000Z</time>
      </trkpt>
      <trkpt lat="45.56502342224121" lon="10.22902250289917">
        <ele>168.0118882269107</ele>
        <time>2017-11-13T16:44:38.253000Z</time>
      </trkpt>
      <trkpt lat="45.56483038701117" lon="10.228893756866455">
        <ele>166.6660669373184</ele>
        <time>2017-11-13T16:44:38.595000Z</time>
      </trkpt>
      <trkpt lat="45.564744556322694" lon="10.228850841522217">
        <ele>166.51845250115994</ele>
        <time>2017-11-13T16:44:38.741000Z</time>
      </trkpt>
      <trkpt lat="45.56455143727362" lon="10.228829383850098">
        <ele>166.2040244739172</ele>
        <time>2017-11-13T16:44:39.052000Z</time>
      </trkpt>
      <trkpt lat="45.56440123356879" lon="10.228807926177979">
        <ele>165.90305039918047</ele>
        <time>2017-11-13T16:44:39.294000Z</time>
      </trkpt>
      <trkpt lat="45.5643367767334" lon="10.22876501083374">
        <ele>165.76125860585594</ele>
        <time>2017-11-13T16:44:39.408000Z</time>
      </trkpt>
      <trkpt lat="45.564186656847596" lon="10.228700637817383">
        <ele>165.44874838225607</ele>
        <time>2017-11-13T16:44:39.659000Z</time>
      </trkpt>
      <trkpt lat="45.563993537798524" lon="10.228636264801025">
        <ele>164.7200232487394</ele>
        <time>2017-11-13T16:44:39.977000Z</time>
      </trkpt>
      <trkpt lat="45.5637788772583" lon="10.228636264801025">
        <ele>164.29202763698987</ele>
        <time>2017-11-13T16:44:40.321000Z</time>
      </trkpt>
      <trkpt lat="45.56313523091376" lon="10.22852897644043">
        <ele>162.0</ele>
        <time>2017-11-13T16:44:41.360000Z</time>
      </trkpt>
      <trkpt lat="45.56283482350409" lon="10.228486061096191">
        <ele>162.08397712943122</ele>
        <time>2017-11-13T16:44:41.844000Z</time>
      </trkpt>
      <trkpt lat="45.562212551012635" lon="10.228421688079834">
        <ele>162.92418621635565</ele>
        <time>2017-11-13T16:44:42.844000Z</time>
      </trkpt>
      <trkpt lat="45.56189068593085" lon="10.228400230407715">
        <ele>163.0138124907934</ele>
        <time>2017-11-13T16:44:43.361000Z</time>
      </trkpt>
      <trkpt lat="45.56167610920966" lon="10.228378772735596">
        <ele>162.74722374948348</ele>
        <time>2017-11-13T16:44:43.706000Z</time>
      </trkpt>
      <trkpt lat="45.56053885258734" lon="10.22825002670288">
        <ele>160.0</ele>
        <time>2017-11-13T16:44:45.535000Z</time>
      </trkpt>
      <trkpt lat="45.560495937243104" lon="10.22825002670288">
        <ele>160.02370060559315</ele>
        <time>2017-11-13T16:44:45.604000Z</time>
      </trkpt>
      <trkpt lat="45.56013107299805" lon="10.228228569030762">
        <ele>160.22537279380185</ele>
        <time>2017-11-13T16:44:46.189000Z</time>
      </trkpt>
      <trkpt lat="45.56013115681708" lon="10.228228569030762">
        <ele>160.22541908404716</ele>
        <time>2017-11-13T16:44:46.189000Z</time>
      </trkpt>
      <trkpt lat="45.55961608886719" lon="10.228164196014404">
        <ele>160.84429297289515</ele>
        <time>2017-11-13T16:44:47.018000Z</time>
      </trkpt>
      <trkpt lat="45.55922985076904" lon="10.22803544998169">
        <ele>161.01075558401683</ele>
        <time>2017-11-13T16:44:47.654000Z</time>
      </trkpt>
      <trkpt lat="45.5591441038996" lon="10.227992534637451">
        <ele>161.04888970587191</ele>
        <time>2017-11-13T16:44:47.800000Z</time>
      </trkpt>
      <trkpt lat="45.55884369648993" lon="10.227820873260498">
        <ele>161.1846894113328</ele>
        <time>2017-11-13T16:44:48.319000Z</time>
      </trkpt>
      <trkpt lat="45.55837154388428" lon="10.227177143096924">
        <ele>161.66666666666666</ele>
        <time>2017-11-13T16:44:49.365000Z</time>
      </trkpt>
      <trkpt lat="45.55809267796576" lon="10.226855278015137">
        <ele>161.91137939120338</ele>
        <time>2017-11-13T16:44:49.940000Z</time>
      </trkpt>
      <trkpt lat="45.5580283049494" lon="10.22679090499878">
        <ele>161.8919560448835</ele>
        <time>2017-11-13T16:44:50.066000Z</time>
      </trkpt>
      <trkpt lat="45.557706439867616" lon="10.226576328277588">
        <ele>161.47082806623848</ele>
        <time>2017-11-13T16:44:50.635000Z</time>
      </trkpt>
      <trkpt lat="45.557191455736756" lon="10.22627592086792">
        <ele>161.0</ele>
        <time>2017-11-13T16:44:51.527000Z</time>
      </trkpt>
      <trkpt lat="45.556955421343446" lon="10.226104259490967">
        <ele>161.16631100351864</ele>
        <time>2017-11-13T16:44:51.952000Z</time>
      </trkpt>
      <trkpt lat="45.55691250599921" lon="10.226061344146729">
        <ele>161.19076476860877</ele>
        <time>2017-11-13T16:44:52.036000Z</time>
      </trkpt>
      <trkpt lat="45.55681572544589" lon="10.226007201308285">
        <ele>161.23928083775525</ele>
        <time>2017-11-13T16:44:52.203000Z</time>
      </trkpt>
      <trkpt lat="45.556815695200356" lon="10.226007184387734">
        <ele>161.2392959998344</ele>
        <time>2017-11-13T16:44:52.203000Z</time>
      </trkpt>
      <trkpt lat="45.55681536413125" lon="10.22600699917513">
        <ele>161.23946196464723</ele>
        <time>2017-11-13T16:44:52.203000Z</time>
      </trkpt>
      <trkpt lat="45.55681398239807" lon="10.226006226180855">
        <ele>161.24015462700208</ele>
        <time>2017-11-13T16:44:52.205000Z</time>
      </trkpt>
      <trkpt lat="45.556810226012324" lon="10.226004124715503">
        <ele>161.2420377018362</ele>
        <time>2017-11-13T16:44:52.211000Z</time>
      </trkpt>
      <trkpt lat="45.55680985177824" lon="10.226003915354703">
        <ele>161.242225305248</ele>
        <time>2017-11-13T16:44:52.211000Z</time>
      </trkpt>
      <trkpt lat="45.55674696240231" lon="10.225968732686074">
        <ele>161.2737517263126</ele>
        <time>2017-11-13T16:44:52.319000Z</time>
      </trkpt>
      <trkpt lat="45.5566918104887" lon="10.225937878713012">
        <ele>161.30139935564313</ele>
        <time>2017-11-13T16:44:52.414000Z</time>
      </trkpt>
      <trkpt lat="45.556691978126764" lon="10.225937962532043">
        <ele>161.30148226025153</ele>
        <time>2017-11-13T16:44:52.414000Z</time>
      </trkpt>
      <trkpt lat="45.55637606419623" lon="10.22576093673706">
        <ele>162.12655140460333</ele>
        <time>2017-11-13T16:44:52.958000Z</time>
      </trkpt>
      <trkpt lat="45.556225860491395" lon="10.225653648376465">
        <ele>162.20494135283093</ele>
        <time>2017-11-13T16:44:53.227000Z</time>
      </trkpt>
      <trkpt lat="45.55583953857422" lon="10.225567817687988">
        <ele>161.83458924177293</ele>
        <time>2017-11-13T16:44:53.854000Z</time>
      </trkpt>
      <trkpt lat="45.555689334869385" lon="10.225589275360107">
        <ele>161.35826271532622</ele>
        <time>2017-11-13T16:44:54.096000Z</time>
      </trkpt>
      <trkpt lat="45.554959857836366" lon="10.22554636001587">
        <ele>160.0</ele>
        <time>2017-11-13T16:44:55.266000Z</time>
      </trkpt>
      <trkpt lat="45.55412292480469" lon="10.225589275360107">
        <ele>160.36282142017657</ele>
        <time>2017-11-13T16:44:56.609000Z</time>
      </trkpt>
      <trkpt lat="45.553650856018066" lon="10.22552490234375">
        <ele>160.37951894532736</ele>
        <time>2017-11-13T16:44:57.369000Z</time>
      </trkpt>
      <trkpt lat="45.55354356765747" lon="10.225417613983154">
        <ele>160.27529581424255</ele>
        <time>2017-11-13T16:44:57.579000Z</time>
      </trkpt>
      <trkpt lat="45.55335053242743" lon="10.224945545196533">
        <ele>159.30402237351475</ele>
        <time>2017-11-13T16:44:58.193000Z</time>
      </trkpt>
      <trkpt lat="45.5533504486084" lon="10.224945545196533">
        <ele>159.3039556757087</ele>
        <time>2017-11-13T16:44:58.193000Z</time>
      </trkpt>
      <trkpt lat="45.55330761708319" lon="10.224838256835938">
        <ele>158.90180714511942</ele>
        <time>2017-11-13T16:44:58.332000Z</time>
      </trkpt>
      <trkpt lat="45.55262088775635" lon="10.223550796508789">
        <ele>158.0</ele>
        <time>2017-11-13T16:45:00.149000Z</time>
      </trkpt>
      <trkpt lat="45.552574023733754" lon="10.223492216424422">
        <ele>157.95269409491678</ele>
        <time>2017-11-13T16:45:00.249000Z</time>
      </trkpt>
      <trkpt lat="45.55257373175535" lon="10.223491851451447">
        <ele>157.95239936357177</ele>
        <time>2017-11-13T16:45:00.249000Z</time>
      </trkpt>
      <trkpt lat="45.5525726151375" lon="10.223490455679427">
        <ele>157.95127221765054</ele>
        <time>2017-11-13T16:45:00.251000Z</time>
      </trkpt>
      <trkpt lat="45.55256957950525" lon="10.223486661140393">
        <ele>157.94820796393745</ele>
        <time>2017-11-13T16:45:00.258000Z</time>
      </trkpt>
      <trkpt lat="45.55256933782357" lon="10.223486359038384">
        <ele>157.9479640035554</ele>
        <time>2017-11-13T16:45:00.258000Z</time>
      </trkpt>
      <trkpt lat="45.55253505706787" lon="10.223443508148193">
        <ele>157.91336003646848</ele>
        <time>2017-11-13T16:45:00.331000Z</time>
      </trkpt>
      <trkpt lat="45.552513350949724" lon="10.223438506003026">
        <ele>157.89665980578852</ele>
        <time>2017-11-13T16:45:00.366000Z</time>
      </trkpt>
      <trkpt lat="45.552454674616456" lon="10.223424984142184">
        <ele>157.1848488031295</ele>
        <time>2017-11-13T16:45:00.461000Z</time>
      </trkpt>
      <trkpt lat="45.55245484225452" lon="10.223425151780248">
        <ele>157.1846933584333</ele>
        <time>2017-11-13T16:45:00.461000Z</time>
      </trkpt>
      <trkpt lat="45.552256191149354" lon="10.223379135131836">
        <ele>157.03183516041568</ele>
        <time>2017-11-13T16:45:00.784000Z</time>
      </trkpt>
      <trkpt lat="45.55184849537909" lon="10.22329330444336">
        <ele>157.05215507312946</ele>
        <time>2017-11-13T16:45:01.445000Z</time>
      </trkpt>
      <trkpt lat="45.55075407028198" lon="10.22303581237793">
        <ele>156.0</ele>
        <time>2017-11-13T16:45:03.223000Z</time>
      </trkpt>
      <trkpt lat="45.55067691017657" lon="10.222993756977488">
        <ele>156.03396376642579</ele>
        <time>2017-11-13T16:45:03.355000Z</time>
      </trkpt>
      <trkpt lat="45.550676884482854" lon="10.222993742973378">
        <ele>156.0339750760949</ele>
        <time>2017-11-13T16:45:03.355000Z</time>
      </trkpt>
      <trkpt lat="45.55067654764037" lon="10.22299355938077">
        <ele>156.03412334490878</ele>
        <time>2017-11-13T16:45:03.355000Z</time>
      </trkpt>
      <trkpt lat="45.55067516123491" lon="10.222992803734513">
        <ele>156.03473360252372</ele>
        <time>2017-11-13T16:45:03.357000Z</time>
      </trkpt>
      <trkpt lat="45.5506713921724" lon="10.222990749445184">
        <ele>156.03639264036403</ele>
        <time>2017-11-13T16:45:03.364000Z</time>
      </trkpt>
      <trkpt lat="45.55067102118254" lon="10.222990547240988">
        <ele>156.03655593990788</ele>
        <time>2017-11-13T16:45:03.364000Z</time>
      </trkpt>
      <trkpt lat="45.550607914558505" lon="10.222956151660103">
        <ele>156.0643337425848</ele>
        <time>2017-11-13T16:45:03.472000Z</time>
      </trkpt>
      <trkpt lat="45.55055215023458" lon="10.222925757989287">
        <ele>156.0888796624171</ele>
        <time>2017-11-13T16:45:03.568000Z</time>
      </trkpt>
      <trkpt lat="45.55055231787264" lon="10.222925757989287">
        <ele>156.08894860127089</ele>
        <time>2017-11-13T16:45:03.568000Z</time>
      </trkpt>
      <trkpt lat="45.55051803588867" lon="10.222907066345215">
        <ele>156.10403927210652</ele>
        <time>2017-11-13T16:45:03.627000Z</time>
      </trkpt>
      <trkpt lat="45.550174713134766" lon="10.222671031951904">
        <ele>156.26073685971053</ele>
        <time>2017-11-13T16:45:04.238000Z</time>
      </trkpt>
      <trkpt lat="45.54944523610175" lon="10.222198963165283">
        <ele>156.92342468158247</ele>
        <time>2017-11-13T16:45:05.522000Z</time>
      </trkpt>
      <trkpt lat="45.549445152282715" lon="10.222198963165283">
        <ele>156.92342092921066</ele>
        <time>2017-11-13T16:45:05.523000Z</time>
      </trkpt>
      <trkpt lat="45.54910191334784" lon="10.221834182739258">
        <ele>156.90426620902522</ele>
        <time>2017-11-13T16:45:06.209000Z</time>
      </trkpt>
      <trkpt lat="45.54890879429877" lon="10.221705436706543">
        <ele>156.82510242719331</ele>
        <time>2017-11-13T16:45:06.551000Z</time>
      </trkpt>
      <trkpt lat="45.54888864906321" lon="10.22169455616106">
        <ele>156.81710240113236</ele>
        <time>2017-11-13T16:45:06.586000Z</time>
      </trkpt>
      <trkpt lat="45.54888864220533" lon="10.221694552457063">
        <ele>156.81709967774566</ele>
        <time>2017-11-13T16:45:06.586000Z</time>
      </trkpt>
      <trkpt lat="45.5488882861125" lon="10.221694360129582">
        <ele>156.81695826705234</ele>
        <time>2017-11-13T16:45:06.586000Z</time>
      </trkpt>
      <trkpt lat="45.548886898121495" lon="10.221693610468773">
        <ele>156.81640707152488</ele>
        <time>2017-11-13T16:45:06.589000Z</time>
      </trkpt>
      <trkpt lat="45.54888312475802" lon="10.22169157245676">
        <ele>156.8149086028425</ele>
        <time>2017-11-13T16:45:06.595000Z</time>
      </trkpt>
      <trkpt lat="45.5488827721591" lon="10.221691382016342">
        <ele>156.81476857963614</ele>
        <time>2017-11-13T16:45:06.595000Z</time>
      </trkpt>
      <trkpt lat="45.548819574537674" lon="10.221657248717124">
        <ele>156.4563383651858</ele>
        <time>2017-11-13T16:45:06.703000Z</time>
      </trkpt>
      <trkpt lat="45.548763535916805" lon="10.221626982092857">
        <ele>156.43408445199597</ele>
        <time>2017-11-13T16:45:06.799000Z</time>
      </trkpt>
      <trkpt lat="45.548763535916805" lon="10.221627065911889">
        <ele>156.43406264920563</ele>
        <time>2017-11-13T16:45:06.799000Z</time>
      </trkpt>
      <trkpt lat="45.54811486043036" lon="10.22127628326416">
        <ele>156.17642246473733</ele>
        <time>2017-11-13T16:45:07.911000Z</time>
      </trkpt>
      <trkpt lat="45.54811477661133" lon="10.22127628326416">
        <ele>156.17641008187516</ele>
        <time>2017-11-13T16:45:07.911000Z</time>
      </trkpt>
      <trkpt lat="45.54755687713623" lon="10.220825672149658">
        <ele>155.4150514813107</ele>
        <time>2017-11-13T16:45:08.939000Z</time>
      </trkpt>
      <trkpt lat="45.547020519152284" lon="10.220632553100586">
        <ele>156.0</ele>
        <time>2017-11-13T16:45:09.826000Z</time>
      </trkpt>
      <trkpt lat="45.54626941680908" lon="10.220375061035156">
        <ele>155.40701012357547</ele>
        <time>2017-11-13T16:45:11.064000Z</time>
      </trkpt>
      <trkpt lat="45.54605492390692" lon="10.220310688018799">
        <ele>155.33333333333334</ele>
        <time>2017-11-13T16:45:11.415000Z</time>
      </trkpt>
      <trkpt lat="45.54565085048355" lon="10.220185383823202">
        <ele>155.77031579264482</ele>
        <time>2017-11-13T16:45:12.078000Z</time>
      </trkpt>
      <trkpt lat="45.54565060594073" lon="10.220185307990432">
        <ele>155.77037852045407</ele>
        <time>2017-11-13T16:45:12.078000Z</time>
      </trkpt>
      <trkpt lat="45.54565047127781" lon="10.220185266231429">
        <ele>155.77041306291196</ele>
        <time>2017-11-13T16:45:12.078000Z</time>
      </trkpt>
      <trkpt lat="45.54564902112452" lon="10.220184816538552">
        <ele>155.7707850425136</ele>
        <time>2017-11-13T16:45:12.080000Z</time>
      </trkpt>
      <trkpt lat="45.54564507877109" lon="10.22018359401394">
        <ele>155.77179629771376</ele>
        <time>2017-11-13T16:45:12.086000Z</time>
      </trkpt>
      <trkpt lat="45.54564447146812" lon="10.220183405689175">
        <ele>155.77195207732396</ele>
        <time>2017-11-13T16:45:12.087000Z</time>
      </trkpt>
      <trkpt lat="45.54557868241066" lon="10.22016300451459">
        <ele>155.7888276638017</ele>
        <time>2017-11-13T16:45:12.195000Z</time>
      </trkpt>
      <trkpt lat="45.54551973938942" lon="10.220144726336002">
        <ele>155.80394716901887</ele>
        <time>2017-11-13T16:45:12.292000Z</time>
      </trkpt>
      <trkpt lat="45.545432567596436" lon="10.220117568969727">
        <ele>155.8263123378763</ele>
        <time>2017-11-13T16:45:12.435000Z</time>
      </trkpt>
      <trkpt lat="45.54534673690796" lon="10.220074653625488">
        <ele>155.84910823483656</ele>
        <time>2017-11-13T16:45:12.581000Z</time>
      </trkpt>
      <trkpt lat="45.54526090621948" lon="10.219988822937012">
        <ele>155.8753748332083</ele>
        <time>2017-11-13T16:45:12.749000Z</time>
      </trkpt>
      <trkpt lat="45.54476737976074" lon="10.219902992248535">
        <ele>156.0</ele>
        <time>2017-11-13T16:45:13.546000Z</time>
      </trkpt>
      <trkpt lat="45.544746005907655" lon="10.219881534576416">
        <ele>155.99316061685474</ele>
        <time>2017-11-13T16:45:13.588000Z</time>
      </trkpt>
      <trkpt lat="45.544724548235536" lon="10.219860076904297">
        <ele>155.98630327286074</ele>
        <time>2017-11-13T16:45:13.630000Z</time>
      </trkpt>
      <trkpt lat="45.544681549072266" lon="10.219924449920654">
        <ele>155.9699950384218</ele>
        <time>2017-11-13T16:45:13.730000Z</time>
      </trkpt>
      <trkpt lat="45.544681549072266" lon="10.219967365264893">
        <ele>155.96212751942423</ele>
        <time>2017-11-13T16:45:13.778000Z</time>
      </trkpt>
      <trkpt lat="45.54466017521918" lon="10.220074653625488">
        <ele>155.60834511221137</ele>
        <time>2017-11-13T16:45:13.903000Z</time>
      </trkpt>
      <trkpt lat="45.54466014968338" lon="10.220100809245437">
        <ele>155.60355008798936</ele>
        <time>2017-11-13T16:45:13.932000Z</time>
      </trkpt>
      <trkpt lat="45.54466014914239" lon="10.220101363295823">
        <ele>155.60344851574496</ele>
        <time>2017-11-13T16:45:13.932000Z</time>
      </trkpt>
      <trkpt lat="45.54466014707346" lon="10.220103482163134">
        <ele>155.60306007073382</ele>
        <time>2017-11-13T16:45:13.934000Z</time>
      </trkpt>
      <trkpt lat="45.54466014144875" lon="10.22010924244587">
        <ele>155.6020040569474</ele>
        <time>2017-11-13T16:45:13.941000Z</time>
      </trkpt>
      <trkpt lat="45.5446601410222" lon="10.22010967927353">
        <ele>155.60192397476177</ele>
        <time>2017-11-13T16:45:13.941000Z</time>
      </trkpt>
      <trkpt lat="45.54466009140015" lon="10.220160484313965">
        <ele>155.59261005291975</ele>
        <time>2017-11-13T16:45:13.998000Z</time>
      </trkpt>
      <trkpt lat="45.54465026309838" lon="10.220203822248791">
        <ele>155.5842589053028</ele>
        <time>2017-11-13T16:45:14.049000Z</time>
      </trkpt>
      <trkpt lat="45.54463184438646" lon="10.220285039395094">
        <ele>155.56860848798803</ele>
        <time>2017-11-13T16:45:14.145000Z</time>
      </trkpt>
      <trkpt lat="45.54463184438646" lon="10.220284787937999">
        <ele>155.56856238920315</ele>
        <time>2017-11-13T16:45:14.145000Z</time>
      </trkpt>
      <trkpt lat="45.54455288685858" lon="10.220632553100586">
        <ele>155.50154122955897</ele>
        <time>2017-11-13T16:45:14.555000Z</time>
      </trkpt>
      <trkpt lat="45.54440259933472" lon="10.221254825592041">
        <ele>155.3808690844474</ele>
        <time>2017-11-13T16:45:15.294000Z</time>
      </trkpt>
      <trkpt lat="45.54438122548163" lon="10.22151231765747">
        <ele>155.33333333333334</ele>
        <time>2017-11-13T16:45:15.585000Z</time>
      </trkpt>
      <trkpt lat="45.54439566172528" lon="10.22190208748308">
        <ele>156.11920337071646</ele>
        <time>2017-11-13T16:45:16.023000Z</time>
      </trkpt>
      <trkpt lat="45.54439568221647" lon="10.221902640758225">
        <ele>156.12005066090313</ele>
        <time>2017-11-13T16:45:16.023000Z</time>
      </trkpt>
      <trkpt lat="45.54439576058137" lon="10.221904756661157">
        <ele>156.12329097235303</ele>
        <time>2017-11-13T16:45:16.025000Z</time>
      </trkpt>
      <trkpt lat="45.5443959930375" lon="10.221911033133974">
        <ele>156.1329028152593</ele>
        <time>2017-11-13T16:45:16.032000Z</time>
      </trkpt>
      <trkpt lat="45.544395973621356" lon="10.22191050888503">
        <ele>156.13370565447318</ele>
        <time>2017-11-13T16:45:16.032000Z</time>
      </trkpt>
      <trkpt lat="45.544399561570955" lon="10.222007387126528">
        <ele>156.28206578842637</ele>
        <time>2017-11-13T16:45:16.141000Z</time>
      </trkpt>
      <trkpt lat="45.54440268315375" lon="10.222091674804688">
        <ele>156.41114461550117</ele>
        <time>2017-11-13T16:45:16.236000Z</time>
      </trkpt>
      <trkpt lat="45.54440259933472" lon="10.222091674804688">
        <ele>156.41132763954897</ele>
        <time>2017-11-13T16:45:16.236000Z</time>
      </trkpt>
      <trkpt lat="45.54440268315375" lon="10.222091674803687">
        <ele>156.4115106635968</ele>
        <time>2017-11-13T16:45:16.236000Z</time>
      </trkpt>
      <trkpt lat="45.54440259933472" lon="10.222091674805688">
        <ele>156.41169368764463</ele>
        <time>2017-11-13T16:45:16.236000Z</time>
      </trkpt>
      <trkpt lat="45.54435968399048" lon="10.222392082214355">
        <ele>156.88055829440432</ele>
        <time>2017-11-13T16:45:16.580000Z</time>
      </trkpt>
      <trkpt lat="45.54408073425293" lon="10.223443508148193">
        <ele>160.59997982381378</ele>
        <time>2017-11-13T16:45:17.842000Z</time>
      </trkpt>
      <trkpt lat="45.543973529711366" lon="10.223658084869385">
        <ele>160.6088447028941</ele>
        <time>2017-11-13T16:45:18.138000Z</time>
      </trkpt>
      <trkpt lat="45.54382332600653" lon="10.223701000213623">
        <ele>160.61620078071243</ele>
        <time>2017-11-13T16:45:18.384000Z</time>
      </trkpt>
      <trkpt lat="45.5438232421875" lon="10.223701000213623">
        <ele>160.6162048058707</ele>
        <time>2017-11-13T16:45:18.384000Z</time>
      </trkpt>
      <trkpt lat="45.54283627308905" lon="10.223186016082764">
        <ele>160.0</ele>
        <time>2017-11-13T16:45:20.069000Z</time>
      </trkpt>
      <trkpt lat="45.54283618927002" lon="10.223186016082764">
        <ele>160.00014031560545</ele>
        <time>2017-11-13T16:45:20.069000Z</time>
      </trkpt>
      <trkpt lat="45.542106712237" lon="10.222735404968262">
        <ele>163.3306952915403</ele>
        <time>2017-11-13T16:45:21.343000Z</time>
      </trkpt>
      <trkpt lat="45.54210662841797" lon="10.222735404968262">
        <ele>163.3308356071458</ele>
        <time>2017-11-13T16:45:21.343000Z</time>
      </trkpt>
      <trkpt lat="45.54152536940026" lon="10.222370086700325">
        <ele>163.72731494674625</ele>
        <time>2017-11-13T16:45:22.361000Z</time>
      </trkpt>
      <trkpt lat="45.54152524310807" lon="10.222370007327218">
        <ele>163.72796963999426</ele>
        <time>2017-11-13T16:45:22.361000Z</time>
      </trkpt>
      <trkpt lat="45.54152501424108" lon="10.222369863487167">
        <ele>163.7291560764395</ele>
        <time>2017-11-13T16:45:22.363000Z</time>
      </trkpt>
      <trkpt lat="45.541523656046195" lon="10.222369009878502">
        <ele>163.73619689943294</ele>
        <time>2017-11-13T16:45:22.366000Z</time>
      </trkpt>
      <trkpt lat="45.541519288951214" lon="10.222366265213598">
        <ele>163.7588357291626</ele>
        <time>2017-11-13T16:45:22.374000Z</time>
      </trkpt>
      <trkpt lat="45.54151882485701" lon="10.222365973536174">
        <ele>163.76124157325128</ele>
        <time>2017-11-13T16:45:22.374000Z</time>
      </trkpt>
      <trkpt lat="45.541457102981255" lon="10.222327182154936">
        <ele>164.08120507264115</ele>
        <time>2017-11-13T16:45:22.482000Z</time>
      </trkpt>
      <trkpt lat="45.541401794180274" lon="10.222292421385646">
        <ele>164.36792341288455</ele>
        <time>2017-11-13T16:45:22.579000Z</time>
      </trkpt>
      <trkpt lat="45.54140196181834" lon="10.222292505204678">
        <ele>164.36876615428707</ele>
        <time>2017-11-13T16:45:22.579000Z</time>
      </trkpt>
      <trkpt lat="45.54135569371283" lon="10.22226333618164">
        <ele>164.60873888313537</ele>
        <time>2017-11-13T16:45:22.660000Z</time>
      </trkpt>
      <trkpt lat="45.5413556098938" lon="10.22226333618164">
        <ele>164.60913657297797</ele>
        <time>2017-11-13T16:45:22.660000Z</time>
      </trkpt>
      <trkpt lat="45.54118403233588" lon="10.222177505493164">
        <ele>165.47172875991106</ele>
        <time>2017-11-13T16:45:22.951000Z</time>
      </trkpt>
      <trkpt lat="45.54116257466376" lon="10.222156047821045">
        <ele>165.6622522011069</ele>
        <time>2017-11-13T16:45:22.993000Z</time>
      </trkpt>
      <trkpt lat="45.54114111699164" lon="10.222156047821045">
        <ele>165.81830599892487</ele>
        <time>2017-11-13T16:45:23.027000Z</time>
      </trkpt>
      <trkpt lat="45.54111957550049" lon="10.222177505493164">
        <ele>166.00932910660268</ele>
        <time>2017-11-13T16:45:23.069000Z</time>
      </trkpt>
      <trkpt lat="45.54101228713989" lon="10.222241878509521">
        <ele>166.85569652954433</ele>
        <time>2017-11-13T16:45:23.256000Z</time>
      </trkpt>
      <trkpt lat="45.540969371795654" lon="10.222392082214355">
        <ele>167.68200668443967</ele>
        <time>2017-11-13T16:45:23.438000Z</time>
      </trkpt>
      <trkpt lat="45.54088362492621" lon="10.223207473754883">
        <ele>176.88196131025703</ele>
        <time>2017-11-13T16:45:24.364000Z</time>
      </trkpt>
      <trkpt lat="45.54088354110718" lon="10.223207473754883">
        <ele>176.88245699589973</ele>
        <time>2017-11-13T16:45:24.364000Z</time>
      </trkpt>
      <trkpt lat="45.54079779423773" lon="10.22428035736084">
        <ele>183.355180864874</ele>
        <time>2017-11-13T16:45:25.576000Z</time>
      </trkpt>
      <trkpt lat="45.5407977104187" lon="10.22428035736084">
        <ele>183.35545492667322</ele>
        <time>2017-11-13T16:45:25.576000Z</time>
      </trkpt>
      <trkpt lat="45.54076762286961" lon="10.225142956386078">
        <ele>185.66666666666666</ele>
        <time>2017-11-13T16:45:26.546000Z</time>
      </trkpt>
      <trkpt lat="45.54076760356754" lon="10.22514350970916">
        <ele>185.66754213138643</ele>
        <time>2017-11-13T16:45:26.546000Z</time>
      </trkpt>
      <trkpt lat="45.54076752975003" lon="10.225145625799566">
        <ele>185.6708901979315</ele>
        <time>2017-11-13T16:45:26.549000Z</time>
      </trkpt>
      <trkpt lat="45.54076727410949" lon="10.225152954113979">
        <ele>185.68248501656944</ele>
        <time>2017-11-13T16:45:26.557000Z</time>
      </trkpt>
      <trkpt lat="45.540767292403636" lon="10.225152429685396">
        <ele>185.6833147645799</ele>
        <time>2017-11-13T16:45:26.557000Z</time>
      </trkpt>
      <trkpt lat="45.5407639125549" lon="10.225249316796724">
        <ele>185.8366090317264</ele>
        <time>2017-11-13T16:45:26.666000Z</time>
      </trkpt>
      <trkpt lat="45.54076099768281" lon="10.22533287294209">
        <ele>185.9688111303876</ele>
        <time>2017-11-13T16:45:26.760000Z</time>
      </trkpt>
      <trkpt lat="45.54076108150184" lon="10.225332621484995">
        <ele>185.96925119771745</ele>
        <time>2017-11-13T16:45:26.760000Z</time>
      </trkpt>
      <trkpt lat="45.540733421221375" lon="10.226125717163086">
        <ele>186.89074954857517</ele>
        <time>2017-11-13T16:45:27.652000Z</time>
      </trkpt>
      <trkpt lat="45.54075479507446" lon="10.226318836212158">
        <ele>187.6401626992583</ele>
        <time>2017-11-13T16:45:27.872000Z</time>
      </trkpt>
      <trkpt lat="45.5409955348735" lon="10.226639821945701">
        <ele>195.77612277043173</ele>
        <time>2017-11-13T16:45:28.400000Z</time>
      </trkpt>
      <trkpt lat="45.540995818467444" lon="10.226640200072534">
        <ele>195.77824628930685</ele>
        <time>2017-11-13T16:45:28.400000Z</time>
      </trkpt>
      <trkpt lat="45.540996903025295" lon="10.226641646155636">
        <ele>195.7863673337406</ele>
        <time>2017-11-13T16:45:28.403000Z</time>
      </trkpt>
      <trkpt lat="45.541000929130696" lon="10.226647014319035">
        <ele>195.81651434871534</ele>
        <time>2017-11-13T16:45:28.412000Z</time>
      </trkpt>
      <trkpt lat="45.54100100493818" lon="10.226647115396146">
        <ele>195.8170819865464</ele>
        <time>2017-11-13T16:45:28.412000Z</time>
      </trkpt>
      <trkpt lat="45.54105058663956" lon="10.226713224703014">
        <ele>195.52167748997343</ele>
        <time>2017-11-13T16:45:28.521000Z</time>
      </trkpt>
      <trkpt lat="45.54107666015625" lon="10.226747989654541">
        <ele>195.71691316640604</ele>
        <time>2017-11-13T16:45:28.578000Z</time>
      </trkpt>
      <trkpt lat="45.54109342396259" lon="10.22677380591631">
        <ele>195.85185134505332</ele>
        <time>2017-11-13T16:45:28.618000Z</time>
      </trkpt>
      <trkpt lat="45.54109325632453" lon="10.226773638278246">
        <ele>195.85297140238603</ele>
        <time>2017-11-13T16:45:28.618000Z</time>
      </trkpt>
      <trkpt lat="45.54202079772949" lon="10.228207111358643">
        <ele>204.0</ele>
        <time>2017-11-13T16:45:30.809000Z</time>
      </trkpt>
      <trkpt lat="45.54218126527216" lon="10.228497414947643">
        <ele>200.75635302922828</ele>
        <time>2017-11-13T16:45:31.224000Z</time>
      </trkpt>
      <trkpt lat="45.54218150566543" lon="10.228497849847937">
        <ele>200.75399057870393</ele>
        <time>2017-11-13T16:45:31.224000Z</time>
      </trkpt>
      <trkpt lat="45.54218242500745" lon="10.228499513048323">
        <ele>200.74495579903268</ele>
        <time>2017-11-13T16:45:31.226000Z</time>
      </trkpt>
      <trkpt lat="45.54218583785687" lon="10.228505687304526">
        <ele>200.71141622055646</ele>
        <time>2017-11-13T16:45:31.235000Z</time>
      </trkpt>
      <trkpt lat="45.542185854213564" lon="10.228505716895796">
        <ele>200.71125547597546</ele>
        <time>2017-11-13T16:45:31.235000Z</time>
      </trkpt>
      <trkpt lat="45.54222793053451" lon="10.22858183814566">
        <ele>200.29775270811726</ele>
        <time>2017-11-13T16:45:31.344000Z</time>
      </trkpt>
      <trkpt lat="45.54226538166404" lon="10.228649592027068">
        <ele>199.92970333134534</ele>
        <time>2017-11-13T16:45:31.441000Z</time>
      </trkpt>
      <trkpt lat="45.542265214025974" lon="10.228649424389005">
        <ele>199.92845726907703</ele>
        <time>2017-11-13T16:45:31.441000Z</time>
      </trkpt>
      <trkpt lat="45.542471408843994" lon="10.22902250289917">
        <ele>197.90193630128638</ele>
        <time>2017-11-13T16:45:31.975000Z</time>
      </trkpt>
      <trkpt lat="45.54251432418823" lon="10.229344367980957">
        <ele>186.9326282666675</ele>
        <time>2017-11-13T16:45:32.343000Z</time>
      </trkpt>
      <trkpt lat="45.54249286651611" lon="10.230052471160889">
        <ele>186.33927082989604</ele>
        <time>2017-11-13T16:45:33.139000Z</time>
      </trkpt>
      <trkpt lat="45.542471492663026" lon="10.230159759521484">
        <ele>185.6688359945981</ele>
        <time>2017-11-13T16:45:33.264000Z</time>
      </trkpt>
      <trkpt lat="45.542453024205045" lon="10.230603005864223">
        <ele>183.0</ele>
        <time>2017-11-13T16:45:33.763000Z</time>
      </trkpt>
      <trkpt lat="45.54245300116016" lon="10.230603558920444">
        <ele>183.0</ele>
        <time>2017-11-13T16:45:33.763000Z</time>
      </trkpt>
      <trkpt lat="45.54245291302908" lon="10.230605673982996">
        <ele>183.0</ele>
        <time>2017-11-13T16:45:33.765000Z</time>
      </trkpt>
      <trkpt lat="45.54245256402886" lon="10.230614049648164">
        <ele>183.0</ele>
        <time>2017-11-13T16:45:33.774000Z</time>
      </trkpt>
      <trkpt lat="45.54245258585688" lon="10.230613525797983">
        <ele>183.0</ele>
        <time>2017-11-13T16:45:33.774000Z</time>
      </trkpt>
      <trkpt lat="45.54245003499091" lon="10.230674743652344">
        <ele>183.0</ele>
        <time>2017-11-13T16:45:33.843000Z</time>
      </trkpt>
      <trkpt lat="45.542449951171875" lon="10.230674743652344">
        <ele>183.0</ele>
        <time>2017-11-13T16:45:33.843000Z</time>
      </trkpt>
      <trkpt lat="45.542437423652494" lon="10.230703958811725">
        <ele>183.0</ele>
        <time>2017-11-13T16:45:33.881000Z</time>
      </trkpt>
      <trkpt lat="45.542405527085066" lon="10.230778343975544">
        <ele>183.0</ele>
        <time>2017-11-13T16:45:33.979000Z</time>
      </trkpt>
      <trkpt lat="45.5424056109041" lon="10.230778260156512">
        <ele>183.0</ele>
        <time>2017-11-13T16:45:33.979000Z</time>
      </trkpt>
      <trkpt lat="45.54238566197455" lon="10.230824947357178">
        <ele>183.0</ele>
        <time>2017-11-13T16:45:34.040000Z</time>
      </trkpt>
      <trkpt lat="45.54232128895819" lon="10.230696201324463">
        <ele>183.0</ele>
        <time>2017-11-13T16:45:34.218000Z</time>
      </trkpt>
      <trkpt lat="45.54232120513916" lon="10.230696201324463">
        <ele>183.0</ele>
        <time>2017-11-13T16:45:34.218000Z</time>
      </trkpt>
      <trkpt lat="45.542291403836366" lon="10.230398186521896">
        <ele>183.0</ele>
        <time>2017-11-13T16:45:34.556000Z</time>
      </trkpt>
      <trkpt lat="45.54229134898902" lon="10.230397638052695">
        <ele>183.0</ele>
        <time>2017-11-13T16:45:34.556000Z</time>
      </trkpt>
      <trkpt lat="45.542291139235274" lon="10.230395540531537">
        <ele>183.0</ele>
        <time>2017-11-13T16:45:34.558000Z</time>
      </trkpt>
      <trkpt lat="45.54229020444152" lon="10.230386192670954">
        <ele>183.0</ele>
        <time>2017-11-13T16:45:34.569000Z</time>
      </trkpt>
      <trkpt lat="45.54229025639462" lon="10.230386712197513">
        <ele>183.0</ele>
        <time>2017-11-13T16:45:34.569000Z</time>
      </trkpt>
      <trkpt lat="45.542280652659024" lon="10.230290676088119">
        <ele>183.0</ele>
        <time>2017-11-13T16:45:34.678000Z</time>
      </trkpt>
      <trkpt lat="45.54227828979492" lon="10.23026704788208">
        <ele>183.0</ele>
        <time>2017-11-13T16:45:34.705000Z</time>
      </trkpt>
      <trkpt lat="45.54224803112447" lon="10.230221701785922">
        <ele>183.0</ele>
        <time>2017-11-13T16:45:34.775000Z</time>
      </trkpt>
      <trkpt lat="45.542248114943504" lon="10.230221869423985">
        <ele>183.0</ele>
        <time>2017-11-13T16:45:34.775000Z</time>
      </trkpt>
      <trkpt lat="45.542192459106445" lon="10.230138301849365">
        <ele>183.0</ele>
        <time>2017-11-13T16:45:34.904000Z</time>
      </trkpt>
      <trkpt lat="45.542111809846" lon="10.230198788801015">
        <ele>183.0</ele>
        <time>2017-11-13T16:45:35.050000Z</time>
      </trkpt>
      <trkpt lat="45.542111466311134" lon="10.230199046451796">
        <ele>183.0</ele>
        <time>2017-11-13T16:45:35.050000Z</time>
      </trkpt>
      <trkpt lat="45.54211015256931" lon="10.230200031756594">
        <ele>183.0</ele>
        <time>2017-11-13T16:45:35.053000Z</time>
      </trkpt>
      <trkpt lat="45.54210662841797" lon="10.230202674865723">
        <ele>183.0</ele>
        <time>2017-11-13T16:45:35.059000Z</time>
      </trkpt>
      <trkpt lat="45.54210637841206" lon="10.230206951743865">
        <ele>183.0</ele>
        <time>2017-11-13T16:45:35.064000Z</time>
      </trkpt>
      <trkpt lat="45.54210634846979" lon="10.230207463969194">
        <ele>183.0</ele>
        <time>2017-11-13T16:45:35.064000Z</time>
      </trkpt>
      <trkpt lat="45.542100727289316" lon="10.23030362537168">
        <ele>183.0</ele>
        <time>2017-11-13T16:45:35.172000Z</time>
      </trkpt>
      <trkpt lat="45.542095648124814" lon="10.230390513315797">
        <ele>183.0</ele>
        <time>2017-11-13T16:45:35.270000Z</time>
      </trkpt>
      <trkpt lat="45.542095648124814" lon="10.230390261858702">
        <ele>183.0</ele>
        <time>2017-11-13T16:45:35.270000Z</time>
      </trkpt>
      <trkpt lat="45.54208936372114" lon="10.230496544257587">
        <ele>183.0</ele>
        <time>2017-11-13T16:45:35.390000Z</time>
      </trkpt>
      <trkpt lat="45.54208933107776" lon="10.230497096321171">
        <ele>183.0</ele>
        <time>2017-11-13T16:45:35.390000Z</time>
      </trkpt>
      <trkpt lat="45.542089206238906" lon="10.230499207589753">
        <ele>183.0</ele>
        <time>2017-11-13T16:45:35.392000Z</time>
      </trkpt>
      <trkpt lat="45.54208861880559" lon="10.230509142224204">
        <ele>183.0</ele>
        <time>2017-11-13T16:45:35.403000Z</time>
      </trkpt>
      <trkpt lat="45.542088605632486" lon="10.230509365006844">
        <ele>183.0</ele>
        <time>2017-11-13T16:45:35.403000Z</time>
      </trkpt>
      <trkpt lat="45.54208517074585" lon="10.230567455291748">
        <ele>183.0</ele>
        <time>2017-11-13T16:45:35.468000Z</time>
      </trkpt>
      <trkpt lat="45.5420595102387" lon="10.230577689108383">
        <ele>183.0</ele>
        <time>2017-11-13T16:45:35.511000Z</time>
      </trkpt>
      <trkpt lat="45.54200026206672" lon="10.230601318180561">
        <ele>183.0</ele>
        <time>2017-11-13T16:45:35.610000Z</time>
      </trkpt>
      <trkpt lat="45.542000345885754" lon="10.230601318180561">
        <ele>183.0</ele>
        <time>2017-11-13T16:45:35.610000Z</time>
      </trkpt>
      <trkpt lat="45.541977882385254" lon="10.230610370635986">
        <ele>183.0</ele>
        <time>2017-11-13T16:45:35.647000Z</time>
      </trkpt>
      <trkpt lat="45.54195809913826" lon="10.230353042495846">
        <ele>183.0</ele>
        <time>2017-11-13T16:45:35.938000Z</time>
      </trkpt>
      <trkpt lat="45.54195805679874" lon="10.230352491777866">
        <ele>182.99866590240438</ele>
        <time>2017-11-13T16:45:35.938000Z</time>
      </trkpt>
      <trkpt lat="45.54195789487874" lon="10.230350385655267">
        <ele>182.99356388427793</ele>
        <time>2017-11-13T16:45:35.940000Z</time>
      </trkpt>
      <trkpt lat="45.54195709284901" lon="10.230339953518351">
        <ele>182.96829234836522</ele>
        <time>2017-11-13T16:45:35.952000Z</time>
      </trkpt>
      <trkpt lat="45.541957132959105" lon="10.230340475236899">
        <ele>182.96702850096884</ele>
        <time>2017-11-13T16:45:35.952000Z</time>
      </trkpt>
      <trkpt lat="45.5419497192899" lon="10.230244044974237">
        <ele>182.73342906114692</ele>
        <time>2017-11-13T16:45:36.061000Z</time>
      </trkpt>
      <trkpt lat="45.54194309748709" lon="10.230157915502787">
        <ele>182.52478293066486</ele>
        <time>2017-11-13T16:45:36.158000Z</time>
      </trkpt>
      <trkpt lat="45.54194309748709" lon="10.230157999321818">
        <ele>182.5245810938927</ele>
        <time>2017-11-13T16:45:36.160000Z</time>
      </trkpt>
      <trkpt lat="45.54193634323961" lon="10.230070333276785">
        <ele>182.31220725956652</ele>
        <time>2017-11-13T16:45:36.259000Z</time>
      </trkpt>
      <trkpt lat="45.54193630081042" lon="10.230069782574073">
        <ele>182.31087316433081</ele>
        <time>2017-11-13T16:45:36.259000Z</time>
      </trkpt>
      <trkpt lat="45.54193613854743" lon="10.230067676509792">
        <ele>182.3057711550348</ele>
        <time>2017-11-13T16:45:36.261000Z</time>
      </trkpt>
      <trkpt lat="45.541935294423304" lon="10.230056720355476">
        <ele>182.2792295138419</ele>
        <time>2017-11-13T16:45:36.273000Z</time>
      </trkpt>
      <trkpt lat="45.54193527380471" lon="10.23005645274045">
        <ele>182.27858120770762</ele>
        <time>2017-11-13T16:45:36.273000Z</time>
      </trkpt>
      <trkpt lat="45.541934967041016" lon="10.230052471160889">
        <ele>182.26893570119023</ele>
        <time>2017-11-13T16:45:36.278000Z</time>
      </trkpt>
      <trkpt lat="45.54189733779622" lon="10.22997721265729">
        <ele>185.04627159899488</ele>
        <time>2017-11-13T16:45:36.382000Z</time>
      </trkpt>
      <trkpt lat="45.54189205169678" lon="10.229966640472412">
        <ele>185.01499211176892</ele>
        <time>2017-11-13T16:45:36.397000Z</time>
      </trkpt>
      <trkpt lat="45.54184913635254" lon="10.23000955581665">
        <ele>181.83485444216993</ele>
        <time>2017-11-13T16:45:36.481000Z</time>
      </trkpt>
      <trkpt lat="45.54182214049589" lon="10.230191819636973">
        <ele>181.38625441013846</ele>
        <time>2017-11-13T16:45:36.690000Z</time>
      </trkpt>
      <trkpt lat="45.541822060212304" lon="10.230192361672293">
        <ele>181.38492031584508</ele>
        <time>2017-11-13T16:45:36.690000Z</time>
      </trkpt>
      <trkpt lat="45.541821753182" lon="10.230194434589901">
        <ele>181.37981830961849</ele>
        <time>2017-11-13T16:45:36.692000Z</time>
      </trkpt>
      <trkpt lat="45.54182015594929" lon="10.230205218314492">
        <ele>181.35327666976116</ele>
        <time>2017-11-13T16:45:36.704000Z</time>
      </trkpt>
      <trkpt lat="45.541820149660644" lon="10.230205260772403">
        <ele>181.35317216945967</ele>
        <time>2017-11-13T16:45:36.704000Z</time>
      </trkpt>
      <trkpt lat="45.54180609827903" lon="10.23030012842346">
        <ele>181.11967733420443</ele>
        <time>2017-11-13T16:45:36.813000Z</time>
      </trkpt>
      <trkpt lat="45.54179348051548" lon="10.23038531653583">
        <ele>180.6571047751227</ele>
        <time>2017-11-13T16:45:36.911000Z</time>
      </trkpt>
      <trkpt lat="45.54179356433451" lon="10.230385065078735">
        <ele>180.65562532944782</ele>
        <time>2017-11-13T16:45:36.911000Z</time>
      </trkpt>
      <trkpt lat="45.54176679494682" lon="10.23056590729795">
        <ele>179.6736748924641</ele>
        <time>2017-11-13T16:45:37.119000Z</time>
      </trkpt>
      <trkpt lat="45.54176671470912" lon="10.230566449345481">
        <ele>179.67073164202247</ele>
        <time>2017-11-13T16:45:37.120000Z</time>
      </trkpt>
      <trkpt lat="45.54176640785442" lon="10.230568522308687">
        <ele>179.65947571038996</ele>
        <time>2017-11-13T16:45:37.123000Z</time>
      </trkpt>
      <trkpt lat="45.54176481153834" lon="10.230579306250469">
        <ele>179.6009202491235</ele>
        <time>2017-11-13T16:45:37.135000Z</time>
      </trkpt>
      <trkpt lat="45.541764804742556" lon="10.230579352159562">
        <ele>179.60067096846953</ele>
        <time>2017-11-13T16:45:37.135000Z</time>
      </trkpt>
      <trkpt lat="45.541763389483094" lon="10.230588912963867">
        <ele>179.54875698870697</ele>
        <time>2017-11-13T16:45:37.146000Z</time>
      </trkpt>
      <trkpt lat="45.54176330566406" lon="10.230588912963867">
        <ele>179.5481212132062</ele>
        <time>2017-11-13T16:45:37.146000Z</time>
      </trkpt>
      <trkpt lat="45.541703175488195" lon="10.230600026691373">
        <ele>179.08822232729221</ele>
        <time>2017-11-13T16:45:37.243000Z</time>
      </trkpt>
      <trkpt lat="45.541641768068075" lon="10.230611376464367">
        <ele>174.61855459082176</ele>
        <time>2017-11-13T16:45:37.342000Z</time>
      </trkpt>
      <trkpt lat="45.54164185188711" lon="10.230611376464367">
        <ele>174.61791881532102</ele>
        <time>2017-11-13T16:45:37.342000Z</time>
      </trkpt>
      <trkpt lat="45.5393385887146" lon="10.23103952407837">
        <ele>150.0</ele>
        <time>2017-11-13T16:45:41.066000Z</time>
      </trkpt>
      <trkpt lat="45.53910263814032" lon="10.231103897094727">
        <ele>148.6026612363164</ele>
        <time>2017-11-13T16:45:41.451000Z</time>
      </trkpt>
      <trkpt lat="45.538179874420166" lon="10.23127555847168">
        <ele>147.68805027187338</ele>
        <time>2017-11-13T16:45:42.943000Z</time>
      </trkpt>
      <trkpt lat="45.5381799582392" lon="10.23127555847168">
        <ele>147.68804892555002</ele>
        <time>2017-11-13T16:45:42.943000Z</time>
      </trkpt>
      <trkpt lat="45.537986755371094" lon="10.231297016143799">
        <ele>147.6849362744114</ele>
        <time>2017-11-13T16:45:43.254000Z</time>
      </trkpt>
      <trkpt lat="45.537986839190125" lon="10.231297016143799">
        <ele>147.68493492808807</ele>
        <time>2017-11-13T16:45:43.254000Z</time>
      </trkpt>
      <trkpt lat="45.53684949874878" lon="10.231297016143799">
        <ele>148.0</ele>
        <time>2017-11-13T16:45:45.077000Z</time>
      </trkpt>
      <trkpt lat="45.53663842695293" lon="10.231226658736169">
        <ele>147.06850074056777</ele>
        <time>2017-11-13T16:45:45.424000Z</time>
      </trkpt>
      <trkpt lat="45.536638303517364" lon="10.231226617591089">
        <ele>147.06834586552247</ele>
        <time>2017-11-13T16:45:45.424000Z</time>
      </trkpt>
      <trkpt lat="45.53663804907246" lon="10.23122653277623">
        <ele>147.0680266125764</ele>
        <time>2017-11-13T16:45:45.424000Z</time>
      </trkpt>
      <trkpt lat="45.53663660398894" lon="10.231226051082597">
        <ele>147.066213461092</ele>
        <time>2017-11-13T16:45:45.426000Z</time>
      </trkpt>
      <trkpt lat="45.53662908637988" lon="10.231223545218013">
        <ele>147.05678109003975</ele>
        <time>2017-11-13T16:45:45.438000Z</time>
      </trkpt>
      <trkpt lat="45.536628599464684" lon="10.23122338291334">
        <ele>147.05617015580603</ele>
        <time>2017-11-13T16:45:45.438000Z</time>
      </trkpt>
      <trkpt lat="45.536562921832854" lon="10.231201490443533">
        <ele>146.9737641962705</ele>
        <time>2017-11-13T16:45:45.546000Z</time>
      </trkpt>
      <trkpt lat="45.53652763366699" lon="10.231189727783203">
        <ele>146.92948801116998</ele>
        <time>2017-11-13T16:45:45.604000Z</time>
      </trkpt>
      <trkpt lat="45.53650173358619" lon="10.231192326173186">
        <ele>146.897764181826</ele>
        <time>2017-11-13T16:45:45.646000Z</time>
      </trkpt>
      <trkpt lat="45.53650164976716" lon="10.231192326173186">
        <ele>146.8976617682683</ele>
        <time>2017-11-13T16:45:45.646000Z</time>
      </trkpt>
      <trkpt lat="45.5363130569458" lon="10.231211185455322">
        <ele>146.66666666666666</ele>
        <time>2017-11-13T16:45:45.949000Z</time>
      </trkpt>
      <trkpt lat="45.536484718322754" lon="10.230889320373535">
        <ele>146.82051173707328</ele>
        <time>2017-11-13T16:45:46.403000Z</time>
      </trkpt>
      <trkpt lat="45.53648878949519" lon="10.230890333950844">
        <ele>146.82275541658453</ele>
        <time>2017-11-13T16:45:46.409000Z</time>
      </trkpt>
      <trkpt lat="45.53648917176958" lon="10.230890429123626">
        <ele>146.82296609329944</ele>
        <time>2017-11-13T16:45:46.409000Z</time>
      </trkpt>
      <trkpt lat="45.536490633655895" lon="10.23089079308147">
        <ele>146.82377175909755</ele>
        <time>2017-11-13T16:45:46.411000Z</time>
      </trkpt>
      <trkpt lat="45.53649823867158" lon="10.230892686460889">
        <ele>146.82796298858784</ele>
        <time>2017-11-13T16:45:46.423000Z</time>
      </trkpt>
      <trkpt lat="45.53649860977822" lon="10.230892778853304">
        <ele>146.82816751060082</ele>
        <time>2017-11-13T16:45:46.424000Z</time>
      </trkpt>
      <trkpt lat="45.536565172595026" lon="10.230909350658068">
        <ele>146.86485120115003</ele>
        <time>2017-11-13T16:45:46.532000Z</time>
      </trkpt>
      <trkpt lat="45.536626456305385" lon="10.230924608185887">
        <ele>146.8986255042124</ele>
        <time>2017-11-13T16:45:46.632000Z</time>
      </trkpt>
      <trkpt lat="45.53662637248635" lon="10.230924608185887">
        <ele>146.89867101125958</ele>
        <time>2017-11-13T16:45:46.632000Z</time>
      </trkpt>
      <trkpt lat="45.536742210388184" lon="10.230953693389893">
        <ele>147.62919365855865</ele>
        <time>2017-11-13T16:45:46.821000Z</time>
      </trkpt>
      <trkpt lat="45.537235820665956" lon="10.230932235717773">
        <ele>147.89730886323457</ele>
        <time>2017-11-13T16:45:47.613000Z</time>
      </trkpt>
      <trkpt lat="45.537424966571585" lon="10.230932235717722">
        <ele>147.93683848446034</ele>
        <time>2017-11-13T16:45:47.916000Z</time>
      </trkpt>
      <trkpt lat="45.53742510953812" lon="10.230932235717722">
        <ele>147.9367380063453</ele>
        <time>2017-11-13T16:45:47.917000Z</time>
      </trkpt>
      <trkpt lat="45.53742535461518" lon="10.230932235717722">
        <ele>147.9365657640707</ele>
        <time>2017-11-13T16:45:47.917000Z</time>
      </trkpt>
      <trkpt lat="45.537426838563974" lon="10.230932235717722">
        <ele>147.9355228320452</ele>
        <time>2017-11-13T16:45:47.919000Z</time>
      </trkpt>
      <trkpt lat="45.53743455835321" lon="10.230932235717722">
        <ele>147.9300972975093</ele>
        <time>2017-11-13T16:45:47.931000Z</time>
      </trkpt>
      <trkpt lat="45.53743507622718" lon="10.230932235717722">
        <ele>147.9297333312105</ele>
        <time>2017-11-13T16:45:47.931000Z</time>
      </trkpt>
      <trkpt lat="45.537502502431884" lon="10.230932235717722">
        <ele>147.54901227899668</ele>
        <time>2017-11-13T16:45:48.039000Z</time>
      </trkpt>
      <trkpt lat="45.5375649780035" lon="10.230932235717773">
        <ele>147.50510390779561</ele>
        <time>2017-11-13T16:45:48.139000Z</time>
      </trkpt>
      <trkpt lat="45.53757905960083" lon="10.230932235717773">
        <ele>147.49520723960066</ele>
        <time>2017-11-13T16:45:48.162000Z</time>
      </trkpt>
      <trkpt lat="45.5377721786499" lon="10.229644775390625">
        <ele>146.1803866503429</ele>
        <time>2017-11-13T16:45:49.640000Z</time>
      </trkpt>
      <trkpt lat="45.53850173950195" lon="10.229709148406982">
        <ele>146.0</ele>
        <time>2017-11-13T16:45:50.812000Z</time>
      </trkpt>
      <trkpt lat="45.53865202702582" lon="10.22975206375122">
        <ele>146.39447088263537</ele>
        <time>2017-11-13T16:45:51.058000Z</time>
      </trkpt>
      <trkpt lat="45.538824415815014" lon="10.229782401607498">
        <ele>146.8415228728464</ele>
        <time>2017-11-13T16:45:51.336000Z</time>
      </trkpt>
      <trkpt lat="45.53882453754017" lon="10.229782423029373">
        <ele>146.84183853998914</ele>
        <time>2017-11-13T16:45:51.336000Z</time>
      </trkpt>
      <trkpt lat="45.538824800943736" lon="10.22978246938466">
        <ele>146.84252161859925</ele>
        <time>2017-11-13T16:45:51.336000Z</time>
      </trkpt>
      <trkpt lat="45.53882627374541" lon="10.22978272857656">
        <ele>146.84634100238912</ele>
        <time>2017-11-13T16:45:51.338000Z</time>
      </trkpt>
      <trkpt lat="45.53883393554411" lon="10.229784076943353">
        <ele>146.86621017449107</ele>
        <time>2017-11-13T16:45:51.350000Z</time>
      </trkpt>
      <trkpt lat="45.5388344288895" lon="10.229784163765066">
        <ele>146.86748955611046</ele>
        <time>2017-11-13T16:45:51.350000Z</time>
      </trkpt>
      <trkpt lat="45.53890136924884" lon="10.229795944324957">
        <ele>147.0410845008858</ele>
        <time>2017-11-13T16:45:51.458000Z</time>
      </trkpt>
      <trkpt lat="45.538977328687906" lon="10.229809312149882">
        <ele>147.23806842802378</ele>
        <time>2017-11-13T16:45:51.581000Z</time>
      </trkpt>
      <trkpt lat="45.538977244868875" lon="10.22980922833085">
        <ele>147.2383318164775</ele>
        <time>2017-11-13T16:45:51.581000Z</time>
      </trkpt>
      <trkpt lat="45.53901672363281" lon="10.229816436767578">
        <ele>147.34076977895188</ele>
        <time>2017-11-13T16:45:51.645000Z</time>
      </trkpt>
      <trkpt lat="45.53916701115668" lon="10.229172706604004">
        <ele>149.56401927332067</ele>
        <time>2017-11-13T16:45:52.407000Z</time>
      </trkpt>
      <trkpt lat="45.53931721486151" lon="10.228271484375">
        <ele>154.2594873365269</ele>
        <time>2017-11-13T16:45:53.447000Z</time>
      </trkpt>
      <trkpt lat="45.53942450322211" lon="10.227606296539307">
        <ele>156.0</ele>
        <time>2017-11-13T16:45:54.213000Z</time>
      </trkpt>
      <trkpt lat="45.53944596089423" lon="10.227091312408447">
        <ele>157.0814971938586</ele>
        <time>2017-11-13T16:45:54.792000Z</time>
      </trkpt>
      <trkpt lat="45.539445877075195" lon="10.227091312408447">
        <ele>157.0817480644552</ele>
        <time>2017-11-13T16:45:54.792000Z</time>
      </trkpt>
      <trkpt lat="45.539467418566346" lon="10.226318836212158">
        <ele>160.36908001693607</ele>
        <time>2017-11-13T16:45:55.660000Z</time>
      </trkpt>
      <trkpt lat="45.53944596089423" lon="10.22578239440918">
        <ele>162.4954835559066</ele>
        <time>2017-11-13T16:45:56.263000Z</time>
      </trkpt>
      <trkpt lat="45.539445877075195" lon="10.22578239440918">
        <ele>162.49553802984298</ele>
        <time>2017-11-13T16:45:56.263000Z</time>
      </trkpt>
      <trkpt lat="45.539467418566346" lon="10.225589275360107">
        <ele>162.5845538200215</ele>
        <time>2017-11-13T16:45:56.483000Z</time>
      </trkpt>
      <trkpt lat="45.539531791582704" lon="10.224881172180176">
        <ele>162.57625311673107</ele>
        <time>2017-11-13T16:45:57.285000Z</time>
      </trkpt>
      <trkpt lat="45.53953170776367" lon="10.224881172180176">
        <ele>162.57630759066743</ele>
        <time>2017-11-13T16:45:57.285000Z</time>
      </trkpt>
      <trkpt lat="45.53961753845215" lon="10.223958492279053">
        <ele>163.0</ele>
        <time>2017-11-13T16:45:58.330000Z</time>
      </trkpt>
      <trkpt lat="45.539724910631776" lon="10.223336219787598">
        <ele>162.39377311640018</ele>
        <time>2017-11-13T16:45:59.050000Z</time>
      </trkpt>
      <trkpt lat="45.539745054203024" lon="10.22314485765371">
        <ele>161.54405785558487</ele>
        <time>2017-11-13T16:45:59.267000Z</time>
      </trkpt>
      <trkpt lat="45.539745111871255" lon="10.223144309806269">
        <ele>161.54353380893096</ele>
        <time>2017-11-13T16:45:59.267000Z</time>
      </trkpt>
      <trkpt lat="45.53974533241295" lon="10.223142214662232">
        <ele>161.54152968674768</ele>
        <time>2017-11-13T16:45:59.270000Z</time>
      </trkpt>
      <trkpt lat="45.53974647971285" lon="10.223131315317204">
        <ele>161.53110385537693</ele>
        <time>2017-11-13T16:45:59.282000Z</time>
      </trkpt>
      <trkpt lat="45.53974648096517" lon="10.223131303420198">
        <ele>161.53109247522704</ele>
        <time>2017-11-13T16:45:59.282000Z</time>
      </trkpt>
      <trkpt lat="45.53975657738503" lon="10.223035387024236">
        <ele>161.43934311875418</ele>
        <time>2017-11-13T16:45:59.391000Z</time>
      </trkpt>
      <trkpt lat="45.539767825976014" lon="10.222928524017334">
        <ele>161.33712276116833</ele>
        <time>2017-11-13T16:45:59.512000Z</time>
      </trkpt>
      <trkpt lat="45.53976774215698" lon="10.222928524017334">
        <ele>161.33700956076814</ele>
        <time>2017-11-13T16:45:59.512000Z</time>
      </trkpt>
      <trkpt lat="45.539767825976014" lon="10.222928524016334">
        <ele>161.33689636036792</ele>
        <time>2017-11-13T16:45:59.512000Z</time>
      </trkpt>
      <trkpt lat="45.53938158787787" lon="10.22279977798462">
        <ele>160.8012407743271</ele>
        <time>2017-11-13T16:46:00.148000Z</time>
      </trkpt>
      <trkpt lat="45.539252841845155" lon="10.2227783203125">
        <ele>160.75502615925794</ele>
        <time>2017-11-13T16:46:00.356000Z</time>
      </trkpt>
      <trkpt lat="45.5387806892395" lon="10.222628116607666">
        <ele>159.91589065821574</ele>
        <time>2017-11-13T16:46:01.131000Z</time>
      </trkpt>
      <trkpt lat="45.538780773058534" lon="10.222628116607666">
        <ele>159.91587275488425</ele>
        <time>2017-11-13T16:46:01.131000Z</time>
      </trkpt>
      <trkpt lat="45.537772262468934" lon="10.222349166870117">
        <ele>161.02978745708234</ele>
        <time>2017-11-13T16:46:02.778000Z</time>
      </trkpt>
      <trkpt lat="45.537750804796815" lon="10.222349166870117">
        <ele>160.96177656854186</ele>
        <time>2017-11-13T16:46:02.812000Z</time>
      </trkpt>
      <trkpt lat="45.53770788945258" lon="10.222349166870117">
        <ele>160.82575479146098</ele>
        <time>2017-11-13T16:46:02.881000Z</time>
      </trkpt>
      <trkpt lat="45.537428855895996" lon="10.22226333618164">
        <ele>157.2543860569117</ele>
        <time>2017-11-13T16:46:03.339000Z</time>
      </trkpt>
      <trkpt lat="45.536978328600526" lon="10.222134590148926">
        <ele>155.7980974702115</ele>
        <time>2017-11-13T16:46:04.076000Z</time>
      </trkpt>
      <trkpt lat="45.536744506881135" lon="10.22208262962435">
        <ele>155.04806654101512</ele>
        <time>2017-11-13T16:46:04.455000Z</time>
      </trkpt>
      <trkpt lat="45.53674434843872" lon="10.222082594414948">
        <ele>155.04781303331873</ele>
        <time>2017-11-13T16:46:04.455000Z</time>
      </trkpt>
      <trkpt lat="45.5367441234542" lon="10.222082544418459">
        <ele>155.04745305834126</ele>
        <time>2017-11-13T16:46:04.455000Z</time>
      </trkpt>
      <trkpt lat="45.5367426571597" lon="10.222082218575773">
        <ele>155.04510698879315</ele>
        <time>2017-11-13T16:46:04.457000Z</time>
      </trkpt>
      <trkpt lat="45.5367350292009" lon="10.222080523476611">
        <ele>155.03290226325916</ele>
        <time>2017-11-13T16:46:04.469000Z</time>
      </trkpt>
      <trkpt lat="45.53673450107681" lon="10.222080406115873">
        <ele>155.0320572653026</ele>
        <time>2017-11-13T16:46:04.469000Z</time>
      </trkpt>
      <trkpt lat="45.536667893518036" lon="10.222065604480928">
        <ele>154.92548524754514</ele>
        <time>2017-11-13T16:46:04.577000Z</time>
      </trkpt>
      <trkpt lat="45.53659209050238" lon="10.22204875946045">
        <ele>154.22026437989263</ele>
        <time>2017-11-13T16:46:04.700000Z</time>
      </trkpt>
      <trkpt lat="45.53659200668335" lon="10.22204875946045">
        <ele>154.22022225591172</ele>
        <time>2017-11-13T16:46:04.700000Z</time>
      </trkpt>
      <trkpt lat="45.53659209050238" lon="10.22204875945945">
        <ele>154.2201801319308</ele>
        <time>2017-11-13T16:46:04.700000Z</time>
      </trkpt>
      <trkpt lat="45.53659200668335" lon="10.22204875946145">
        <ele>154.22013800794988</ele>
        <time>2017-11-13T16:46:04.700000Z</time>
      </trkpt>
      <trkpt lat="45.536441802978516" lon="10.222005844116211">
        <ele>154.1431549860981</ele>
        <time>2017-11-13T16:46:04.946000Z</time>
      </trkpt>
      <trkpt lat="45.53657063283026" lon="10.220975875854492">
        <ele>153.44151610740735</ele>
        <time>2017-11-13T16:46:06.121000Z</time>
      </trkpt>
      <trkpt lat="45.536720752716064" lon="10.220503807067871">
        <ele>156.18278393703682</ele>
        <time>2017-11-13T16:46:06.703000Z</time>
      </trkpt>
      <trkpt lat="45.536720836535096" lon="10.220503807067871">
        <ele>156.18295503301798</ele>
        <time>2017-11-13T16:46:06.703000Z</time>
      </trkpt>
      <trkpt lat="45.53687241933522" lon="10.220150114477688">
        <ele>156.77581366375753</ele>
        <time>2017-11-13T16:46:07.169000Z</time>
      </trkpt>
      <trkpt lat="45.536872621851174" lon="10.220149641938352">
        <ele>156.77660573166904</ele>
        <time>2017-11-13T16:46:07.169000Z</time>
      </trkpt>
      <trkpt lat="45.53687339633702" lon="10.220147834796341">
        <ele>156.77963485328496</ele>
        <time>2017-11-13T16:46:07.171000Z</time>
      </trkpt>
      <trkpt lat="45.536877617247484" lon="10.220137985957685">
        <ele>156.796143421298</ele>
        <time>2017-11-13T16:46:07.184000Z</time>
      </trkpt>
      <trkpt lat="45.536877425366754" lon="10.22013843368167">
        <ele>156.7968938936745</ele>
        <time>2017-11-13T16:46:07.184000Z</time>
      </trkpt>
      <trkpt lat="45.53691288590507" lon="10.220055691891162">
        <ele>156.93558509317157</ele>
        <time>2017-11-13T16:46:07.293000Z</time>
      </trkpt>
      <trkpt lat="45.53691395558417" lon="10.22005319595337">
        <ele>156.93976876453047</ele>
        <time>2017-11-13T16:46:07.296000Z</time>
      </trkpt>
      <trkpt lat="45.536956787109375" lon="10.219967365264893">
        <ele>156.0904481560438</ele>
        <time>2017-11-13T16:46:07.414000Z</time>
      </trkpt>
      <trkpt lat="45.537064159289" lon="10.219988822937012">
        <ele>156.31175898765866</ele>
        <time>2017-11-13T16:46:07.588000Z</time>
      </trkpt>
      <trkpt lat="45.53736456669867" lon="10.22003173828125">
        <ele>157.92802927554828</ele>
        <time>2017-11-13T16:46:08.072000Z</time>
      </trkpt>
      <trkpt lat="45.53740748204291" lon="10.22005319595337">
        <ele>157.958153668338</ele>
        <time>2017-11-13T16:46:08.145000Z</time>
      </trkpt>
      <trkpt lat="45.53751057516795" lon="10.220067923530346">
        <ele>158.37074067001376</ele>
        <time>2017-11-13T16:46:08.311000Z</time>
      </trkpt>
      <trkpt lat="45.53751064971388" lon="10.22006793417976">
        <ele>158.37055694675317</ele>
        <time>2017-11-13T16:46:08.311000Z</time>
      </trkpt>
      <trkpt lat="45.53751096128667" lon="10.220067978690222">
        <ele>158.36978905547016</ele>
        <time>2017-11-13T16:46:08.311000Z</time>
      </trkpt>
      <trkpt lat="45.5375124378796" lon="10.220068189632242">
        <ele>158.36614989677423</ele>
        <time>2017-11-13T16:46:08.313000Z</time>
      </trkpt>
      <trkpt lat="45.537520852322615" lon="10.220069391696981">
        <ele>158.3454119581269</ele>
        <time>2017-11-13T16:46:08.327000Z</time>
      </trkpt>
      <trkpt lat="45.53752129997438" lon="10.2200694556473">
        <ele>158.3443086914229</ele>
        <time>2017-11-13T16:46:08.327000Z</time>
      </trkpt>
      <trkpt lat="45.53755768574774" lon="10.220074653625488">
        <ele>158.25463360116848</ele>
        <time>2017-11-13T16:46:08.386000Z</time>
      </trkpt>
      <trkpt lat="45.53758697094569" lon="10.220059982375462">
        <ele>158.17852373899893</ele>
        <time>2017-11-13T16:46:08.436000Z</time>
      </trkpt>
      <trkpt lat="45.53760051727295" lon="10.22005319595337">
        <ele>158.14331792729854</ele>
        <time>2017-11-13T16:46:08.459000Z</time>
      </trkpt>
      <trkpt lat="45.53764343261719" lon="10.219988822937012">
        <ele>157.32399988745246</ele>
        <time>2017-11-13T16:46:08.559000Z</time>
      </trkpt>
      <trkpt lat="45.537729347124696" lon="10.21951675415039">
        <ele>156.4862023672573</ele>
        <time>2017-11-13T16:46:09.107000Z</time>
      </trkpt>
      <trkpt lat="45.537729263305664" lon="10.21951675415039">
        <ele>156.4859968163288</ele>
        <time>2017-11-13T16:46:09.107000Z</time>
      </trkpt>
      <trkpt lat="45.53775072097778" lon="10.219366550445557">
        <ele>156.2226805101328</ele>
        <time>2017-11-13T16:46:09.279000Z</time>
      </trkpt>
      <trkpt lat="45.53776475966924" lon="10.219261261059907">
        <ele>156.03857740859092</ele>
        <time>2017-11-13T16:46:09.399000Z</time>
      </trkpt>
      <trkpt lat="45.53776483223138" lon="10.219260716845831">
        <ele>156.03762582657774</ele>
        <time>2017-11-13T16:46:09.400000Z</time>
      </trkpt>
      <trkpt lat="45.53776510973263" lon="10.219258635594356">
        <ele>156.0339866677391</ele>
        <time>2017-11-13T16:46:09.403000Z</time>
      </trkpt>
      <trkpt lat="45.53776669108742" lon="10.21924677547266">
        <ele>156.01324872938892</ele>
        <time>2017-11-13T16:46:09.417000Z</time>
      </trkpt>
      <trkpt lat="45.53776672096084" lon="10.219246551422582">
        <ele>156.01285696809873</ele>
        <time>2017-11-13T16:46:09.417000Z</time>
      </trkpt>
      <trkpt lat="45.53777939656181" lon="10.219151484371407">
        <ele>154.17996148798605</ele>
        <time>2017-11-13T16:46:09.526000Z</time>
      </trkpt>
      <trkpt lat="45.53779363632202" lon="10.21904468536377">
        <ele>153.99321893775422</ele>
        <time>2017-11-13T16:46:09.648000Z</time>
      </trkpt>
      <trkpt lat="45.53779363632202" lon="10.218980312347412">
        <ele>153.88264551427378</ele>
        <time>2017-11-13T16:46:09.720000Z</time>
      </trkpt>
      <trkpt lat="45.537471855059266" lon="10.218937397003174">
        <ele>152.75676651639347</ele>
        <time>2017-11-13T16:46:10.238000Z</time>
      </trkpt>
      <trkpt lat="45.53740748204291" lon="10.218915939331055">
        <ele>152.67249079158364</ele>
        <time>2017-11-13T16:46:10.344000Z</time>
      </trkpt>
      <trkpt lat="45.53710707463324" lon="10.218873023986816">
        <ele>152.28759190835555</ele>
        <time>2017-11-13T16:46:10.828000Z</time>
      </trkpt>
      <trkpt lat="45.53691395558417" lon="10.218830108642578">
        <ele>152.03842168332073</ele>
        <time>2017-11-13T16:46:11.141000Z</time>
      </trkpt>
      <trkpt lat="45.53681060866708" lon="10.218819237053827">
        <ele>151.90630858523966</ele>
        <time>2017-11-13T16:46:11.307000Z</time>
      </trkpt>
      <trkpt lat="45.536810532382894" lon="10.21881922902916">
        <ele>151.90621106767162</ele>
        <time>2017-11-13T16:46:11.307000Z</time>
      </trkpt>
      <trkpt lat="45.53681022166895" lon="10.218819196343643">
        <ele>151.9058138678093</ele>
        <time>2017-11-13T16:46:11.307000Z</time>
      </trkpt>
      <trkpt lat="45.53680874171214" lon="10.218819040659715">
        <ele>151.90392197124746</ele>
        <time>2017-11-13T16:46:11.309000Z</time>
      </trkpt>
      <trkpt lat="45.53680030809332" lon="10.218818153486174">
        <ele>151.8931408900966</ele>
        <time>2017-11-13T16:46:11.323000Z</time>
      </trkpt>
      <trkpt lat="45.53679985771707" lon="10.218818106108936">
        <ele>151.89256515351641</ele>
        <time>2017-11-13T16:46:11.323000Z</time>
      </trkpt>
      <trkpt lat="45.53673254763385" lon="10.218811025442484">
        <ele>151.80651959182453</ele>
        <time>2017-11-13T16:46:11.431000Z</time>
      </trkpt>
      <trkpt lat="45.536655792966485" lon="10.218802951276302">
        <ele>151.70840058690217</ele>
        <time>2017-11-13T16:46:11.554000Z</time>
      </trkpt>
      <trkpt lat="45.53665596060455" lon="10.218802951276302">
        <ele>151.7082257125168</ele>
        <time>2017-11-13T16:46:11.554000Z</time>
      </trkpt>
      <trkpt lat="45.536506259813905" lon="10.21878719329834">
        <ele>151.5516389784899</ele>
        <time>2017-11-13T16:46:11.795000Z</time>
      </trkpt>
      <trkpt lat="45.53560495376587" lon="10.218636989593506">
        <ele>149.9383759291595</ele>
        <time>2017-11-13T16:46:13.250000Z</time>
      </trkpt>
      <trkpt lat="45.53554058074951" lon="10.21855115890503">
        <ele>149.81309311972424</ele>
        <time>2017-11-13T16:46:13.391000Z</time>
      </trkpt>
      <trkpt lat="45.53432946995769" lon="10.21798344214612">
        <ele>147.0</ele>
        <time>2017-11-13T16:46:15.435000Z</time>
      </trkpt>
      <trkpt lat="45.534329313989474" lon="10.21798336903662">
        <ele>146.99984602106642</ele>
        <time>2017-11-13T16:46:15.435000Z</time>
      </trkpt>
      <trkpt lat="45.53432806004677" lon="10.217982781255458">
        <ele>146.9986080715853</ele>
        <time>2017-11-13T16:46:15.437000Z</time>
      </trkpt>
      <trkpt lat="45.534320025588165" lon="10.217979015132366">
        <ele>146.9906760873117</ele>
        <time>2017-11-13T16:46:15.451000Z</time>
      </trkpt>
      <trkpt lat="45.534319147699016" lon="10.217978603625076">
        <ele>146.98980939507737</ele>
        <time>2017-11-13T16:46:15.453000Z</time>
      </trkpt>
      <trkpt lat="45.53425547220678" lon="10.217948756011847">
        <ele>146.92694604397363</ele>
        <time>2017-11-13T16:46:15.560000Z</time>
      </trkpt>
      <trkpt lat="45.53418179042637" lon="10.217914218083024">
        <ele>146.85420403761458</ele>
        <time>2017-11-13T16:46:15.684000Z</time>
      </trkpt>
      <trkpt lat="45.53416728973389" lon="10.217907428741455">
        <ele>146.83988988728206</ele>
        <time>2017-11-13T16:46:15.708000Z</time>
      </trkpt>
      <trkpt lat="45.53416737355292" lon="10.217907428741455">
        <ele>146.8398112669794</ele>
        <time>2017-11-13T16:46:15.708000Z</time>
      </trkpt>
      <trkpt lat="45.53416728973389" lon="10.217907428742455">
        <ele>146.83973264667677</ele>
        <time>2017-11-13T16:46:15.708000Z</time>
      </trkpt>
      <trkpt lat="45.533738220110536" lon="10.217885971069336">
        <ele>146.10369511587444</ele>
        <time>2017-11-13T16:46:16.396000Z</time>
      </trkpt>
      <trkpt lat="45.53360939025879" lon="10.217907428741455">
        <ele>146.0111245529142</ele>
        <time>2017-11-13T16:46:16.604000Z</time>
      </trkpt>
      <trkpt lat="45.532922358054144" lon="10.217678417311475">
        <ele>145.84092778272876</ele>
        <time>2017-11-13T16:46:17.735000Z</time>
      </trkpt>
      <trkpt lat="45.532922333931715" lon="10.217678409270727">
        <ele>145.8409101032631</ele>
        <time>2017-11-13T16:46:17.735000Z</time>
      </trkpt>
      <trkpt lat="45.53292091297223" lon="10.217677935622117">
        <ele>145.8398686740477</ele>
        <time>2017-11-13T16:46:17.737000Z</time>
      </trkpt>
      <trkpt lat="45.532912678127424" lon="10.21767519070053">
        <ele>145.83383330986558</ele>
        <time>2017-11-13T16:46:17.751000Z</time>
      </trkpt>
      <trkpt lat="45.532911912465885" lon="10.217674935482544">
        <ele>145.8332721522116</ele>
        <time>2017-11-13T16:46:17.752000Z</time>
      </trkpt>
      <trkpt lat="45.532846513862125" lon="10.217653136189757">
        <ele>145.7853411473163</ele>
        <time>2017-11-13T16:46:17.860000Z</time>
      </trkpt>
      <trkpt lat="45.53275619633496" lon="10.217623030766845">
        <ele>145.71914692738773</ele>
        <time>2017-11-13T16:46:18.009000Z</time>
      </trkpt>
      <trkpt lat="45.532708168029785" lon="10.217607021331787">
        <ele>145.68394668745873</ele>
        <time>2017-11-13T16:46:18.088000Z</time>
      </trkpt>
      <trkpt lat="45.532751167193055" lon="10.217478275299072">
        <ele>144.9459714217057</ele>
        <time>2017-11-13T16:46:18.248000Z</time>
      </trkpt>
      <trkpt lat="45.53275108337402" lon="10.217478275299072">
        <ele>144.94591159941146</ele>
        <time>2017-11-13T16:46:18.248000Z</time>
      </trkpt>
      <trkpt lat="45.533030116930604" lon="10.216319561004639">
        <ele>144.0</ele>
        <time>2017-11-13T16:46:19.624000Z</time>
      </trkpt>
      <trkpt lat="45.5332544031127" lon="10.215259300488915">
        <ele>143.5154103047233</ele>
        <time>2017-11-13T16:46:20.868000Z</time>
      </trkpt>
      <trkpt lat="45.533254515285925" lon="10.215258770202514">
        <ele>143.51573703858415</ele>
        <time>2017-11-13T16:46:20.868000Z</time>
      </trkpt>
      <trkpt lat="45.53325494427097" lon="10.215256742223344">
        <ele>143.5169865698762</ele>
        <time>2017-11-13T16:46:20.870000Z</time>
      </trkpt>
      <trkpt lat="45.533257495137114" lon="10.215244683282886">
        <ele>143.52441663751665</ele>
        <time>2017-11-13T16:46:20.884000Z</time>
      </trkpt>
      <trkpt lat="45.53325738885197" lon="10.215245185734295">
        <ele>143.52472622092913</ele>
        <time>2017-11-13T16:46:20.884000Z</time>
      </trkpt>
      <trkpt lat="45.533266151323915" lon="10.215203762054443">
        <ele>143.5502492482644</ele>
        <time>2017-11-13T16:46:20.933000Z</time>
      </trkpt>
      <trkpt lat="45.5332781775981" lon="10.21515565708792">
        <ele>143.5803763073079</ele>
        <time>2017-11-13T16:46:20.990000Z</time>
      </trkpt>
      <trkpt lat="45.53330906666815" lon="10.21503210067749">
        <ele>143.65775683880074</ele>
        <time>2017-11-13T16:46:21.137000Z</time>
      </trkpt>
      <trkpt lat="45.53330898284912" lon="10.21503210067749">
        <ele>143.65782741706283</ele>
        <time>2017-11-13T16:46:21.137000Z</time>
      </trkpt>
      <trkpt lat="45.53330906666815" lon="10.21503210067649">
        <ele>143.65789799532493</ele>
        <time>2017-11-13T16:46:21.137000Z</time>
      </trkpt>
      <trkpt lat="45.53345927037299" lon="10.214388370513916">
        <ele>144.72477126480854</ele>
        <time>2017-11-13T16:46:21.899000Z</time>
      </trkpt>
      <trkpt lat="45.533502185717225" lon="10.214195251464844">
        <ele>144.74718844746175</ele>
        <time>2017-11-13T16:46:22.127000Z</time>
      </trkpt>
      <trkpt lat="45.53359867814735" lon="10.213772821677708">
        <ele>144.79635082638436</ele>
        <time>2017-11-13T16:46:22.626000Z</time>
      </trkpt>
      <trkpt lat="45.53359879844658" lon="10.213772295020089">
        <ele>144.79595754739185</ele>
        <time>2017-11-13T16:46:22.626000Z</time>
      </trkpt>
      <trkpt lat="45.533599258509746" lon="10.213770280910785">
        <ele>144.79445352118515</ele>
        <time>2017-11-13T16:46:22.628000Z</time>
      </trkpt>
      <trkpt lat="45.533602222598425" lon="10.213757304430478">
        <ele>144.78476339917538</ele>
        <time>2017-11-13T16:46:22.643000Z</time>
      </trkpt>
      <trkpt lat="45.53360210865063" lon="10.213757803282515">
        <ele>144.78439088391144</ele>
        <time>2017-11-13T16:46:22.643000Z</time>
      </trkpt>
      <trkpt lat="45.533623172566216" lon="10.213665587368697">
        <ele>144.71552914893843</ele>
        <time>2017-11-13T16:46:22.752000Z</time>
      </trkpt>
      <trkpt lat="45.53365146741271" lon="10.213541714474559">
        <ele>144.62302782166526</ele>
        <time>2017-11-13T16:46:22.898000Z</time>
      </trkpt>
      <trkpt lat="45.53365138359368" lon="10.213541882112622">
        <ele>144.62288159821796</ele>
        <time>2017-11-13T16:46:22.898000Z</time>
      </trkpt>
      <trkpt lat="45.53367384709418" lon="10.213444232940674">
        <ele>144.54991269770994</ele>
        <time>2017-11-13T16:46:23.013000Z</time>
      </trkpt>
      <trkpt lat="45.53367376327515" lon="10.213444232941674">
        <ele>144.54982774645688</ele>
        <time>2017-11-13T16:46:23.013000Z</time>
      </trkpt>
      <trkpt lat="45.5338454246521" lon="10.212628841400146">
        <ele>143.27869480848491</ele>
        <time>2017-11-13T16:46:23.969000Z</time>
      </trkpt>
      <trkpt lat="45.533781135454774" lon="10.212349891662598">
        <ele>143.07021079133622</ele>
        <time>2017-11-13T16:46:24.299000Z</time>
      </trkpt>
      <trkpt lat="45.53378105163574" lon="10.212349891662598">
        <ele>143.07012584008314</ele>
        <time>2017-11-13T16:46:24.299000Z</time>
      </trkpt>
      <trkpt lat="45.53371676243842" lon="10.212178230285645">
        <ele>142.9319299620763</ele>
        <time>2017-11-13T16:46:24.518000Z</time>
      </trkpt>
      <trkpt lat="45.53365238942206" lon="10.21202802658081">
        <ele>142.98512546004164</ele>
        <time>2017-11-13T16:46:24.716000Z</time>
      </trkpt>
      <trkpt lat="45.53354510106146" lon="10.212092399597168">
        <ele>143.03531626788705</ele>
        <time>2017-11-13T16:46:24.903000Z</time>
      </trkpt>
      <trkpt lat="45.533502185717225" lon="10.212113857269287">
        <ele>143.05492671204237</ele>
        <time>2017-11-13T16:46:24.976000Z</time>
      </trkpt>
      <trkpt lat="45.53345927037299" lon="10.212156772613525">
        <ele>143.07752390972908</ele>
        <time>2017-11-13T16:46:25.060000Z</time>
      </trkpt>
      <trkpt lat="45.533223235979676" lon="10.21228551864624">
        <ele>142.85316249045695</ele>
        <time>2017-11-13T16:46:25.465000Z</time>
      </trkpt>
      <trkpt lat="45.53320177830756" lon="10.212349891662598">
        <ele>143.01926019184634</ele>
        <time>2017-11-13T16:46:25.545000Z</time>
      </trkpt>
      <trkpt lat="45.53313732147217" lon="10.212435722351074">
        <ele>143.31243779277634</ele>
        <time>2017-11-13T16:46:25.686000Z</time>
      </trkpt>
      <trkpt lat="45.53311594761908" lon="10.21254301071167">
        <ele>144.90565510223414</ele>
        <time>2017-11-13T16:46:25.811000Z</time>
      </trkpt>
      <trkpt lat="45.533005301387014" lon="10.212985350333872">
        <ele>146.0</ele>
        <time>2017-11-13T16:46:26.338000Z</time>
      </trkpt>
    </trkseg>
  </trk>
</gpx>